<?xml version="1.0" encoding="UTF-8" standalone="no" ?>
<gpx xmlns="http://www.topografix.com/GPX/1/1" xmlns:xsi="http://www.w3.org/2001/XMLSchema-instance" xsi:schemaLocation="http://www.topografix.com/GPX/1/1 http://www.topografix.com/GPX/1/1/gpx.xsd" version="1.1" creator="VisuGPX - https://www.visugpx.com">
  <metadata>
    <name>GTA-VTT - Jour 2</name>
    <desc><![CDATA[La 2nd étape de la GTA (Grenoble-Nice) réalisée en 10j, juillet 2010.]]></desc>
  </metadata>
  <trk>
    <name><![CDATA[GTA VTT - Jour 2]]></name>
    <trkseg>
      <trkpt lat="45.09668" lon="5.58734">
        <ele>1084</ele>
        <time>2010-07-14T07:15:35Z</time>
      </trkpt>
      <trkpt lat="45.09641" lon="5.58744">
        <ele>1091</ele>
        <time>2010-07-14T07:16:01Z</time>
      </trkpt>
      <trkpt lat="45.09633" lon="5.58752">
        <ele>1091</ele>
        <time>2010-07-14T07:16:08Z</time>
      </trkpt>
      <trkpt lat="45.09629" lon="5.58756">
        <ele>1096</ele>
        <time>2010-07-14T07:16:15Z</time>
      </trkpt>
      <trkpt lat="45.09633" lon="5.58753">
        <ele>1104</ele>
        <time>2010-07-14T07:16:23Z</time>
      </trkpt>
      <trkpt lat="45.09644" lon="5.5875">
        <ele>1109</ele>
        <time>2010-07-14T07:16:30Z</time>
      </trkpt>
      <trkpt lat="45.09653" lon="5.58753">
        <ele>1109</ele>
        <time>2010-07-14T07:16:37Z</time>
      </trkpt>
      <trkpt lat="45.09665" lon="5.58756">
        <ele>1105</ele>
        <time>2010-07-14T07:16:44Z</time>
      </trkpt>
      <trkpt lat="45.09675" lon="5.58767">
        <ele>1101</ele>
        <time>2010-07-14T07:16:51Z</time>
      </trkpt>
      <trkpt lat="45.09694" lon="5.58774">
        <ele>1094</ele>
        <time>2010-07-14T07:16:58Z</time>
      </trkpt>
      <trkpt lat="45.09723" lon="5.58763">
        <ele>1087</ele>
        <time>2010-07-14T07:17:05Z</time>
      </trkpt>
      <trkpt lat="45.09755" lon="5.58727">
        <ele>1082</ele>
        <time>2010-07-14T07:17:12Z</time>
      </trkpt>
      <trkpt lat="45.09768" lon="5.58705">
        <ele>1081</ele>
        <time>2010-07-14T07:17:19Z</time>
      </trkpt>
      <trkpt lat="45.09781" lon="5.58682">
        <ele>1079</ele>
        <time>2010-07-14T07:17:26Z</time>
      </trkpt>
      <trkpt lat="45.0981" lon="5.58648">
        <ele>1078</ele>
        <time>2010-07-14T07:17:33Z</time>
      </trkpt>
      <trkpt lat="45.09832" lon="5.58627">
        <ele>1078</ele>
        <time>2010-07-14T07:17:40Z</time>
      </trkpt>
      <trkpt lat="45.09843" lon="5.58613">
        <ele>1078</ele>
        <time>2010-07-14T07:17:47Z</time>
      </trkpt>
      <trkpt lat="45.09856" lon="5.58614">
        <ele>1078</ele>
        <time>2010-07-14T07:17:54Z</time>
      </trkpt>
      <trkpt lat="45.09875" lon="5.58606">
        <ele>1078</ele>
        <time>2010-07-14T07:18:01Z</time>
      </trkpt>
      <trkpt lat="45.0989" lon="5.58603">
        <ele>1078</ele>
        <time>2010-07-14T07:18:08Z</time>
      </trkpt>
      <trkpt lat="45.09903" lon="5.58604">
        <ele>1078</ele>
        <time>2010-07-14T07:18:15Z</time>
      </trkpt>
      <trkpt lat="45.09917" lon="5.5861">
        <ele>1079</ele>
        <time>2010-07-14T07:18:22Z</time>
      </trkpt>
      <trkpt lat="45.0993" lon="5.58617">
        <ele>1085</ele>
        <time>2010-07-14T07:18:29Z</time>
      </trkpt>
      <trkpt lat="45.09941" lon="5.5863">
        <ele>1090</ele>
        <time>2010-07-14T07:18:36Z</time>
      </trkpt>
      <trkpt lat="45.09953" lon="5.58641">
        <ele>1095</ele>
        <time>2010-07-14T07:18:44Z</time>
      </trkpt>
      <trkpt lat="45.09963" lon="5.5865">
        <ele>1099</ele>
        <time>2010-07-14T07:18:56Z</time>
      </trkpt>
      <trkpt lat="45.09964" lon="5.58651">
        <ele>1101</ele>
        <time>2010-07-14T07:19:04Z</time>
      </trkpt>
      <trkpt lat="45.09964" lon="5.58655">
        <ele>1102</ele>
        <time>2010-07-14T07:19:12Z</time>
      </trkpt>
      <trkpt lat="45.09975" lon="5.58656">
        <ele>1103</ele>
        <time>2010-07-14T07:19:19Z</time>
      </trkpt>
      <trkpt lat="45.09996" lon="5.58661">
        <ele>1101</ele>
        <time>2010-07-14T07:19:26Z</time>
      </trkpt>
      <trkpt lat="45.10014" lon="5.58666">
        <ele>1099</ele>
        <time>2010-07-14T07:19:33Z</time>
      </trkpt>
      <trkpt lat="45.10028" lon="5.58672">
        <ele>1098</ele>
        <time>2010-07-14T07:19:40Z</time>
      </trkpt>
      <trkpt lat="45.10043" lon="5.58677">
        <ele>1097</ele>
        <time>2010-07-14T07:19:47Z</time>
      </trkpt>
      <trkpt lat="45.10056" lon="5.58684">
        <ele>1097</ele>
        <time>2010-07-14T07:19:54Z</time>
      </trkpt>
      <trkpt lat="45.10071" lon="5.58679">
        <ele>1097</ele>
        <time>2010-07-14T07:20:01Z</time>
      </trkpt>
      <trkpt lat="45.10086" lon="5.5868">
        <ele>1097</ele>
        <time>2010-07-14T07:20:08Z</time>
      </trkpt>
      <trkpt lat="45.10084" lon="5.58694">
        <ele>1101</ele>
        <time>2010-07-14T07:20:15Z</time>
      </trkpt>
      <trkpt lat="45.10078" lon="5.58711">
        <ele>1101</ele>
        <time>2010-07-14T07:20:22Z</time>
      </trkpt>
      <trkpt lat="45.10074" lon="5.58726">
        <ele>1101</ele>
        <time>2010-07-14T07:20:29Z</time>
      </trkpt>
      <trkpt lat="45.1007" lon="5.58737">
        <ele>1104</ele>
        <time>2010-07-14T07:20:36Z</time>
      </trkpt>
      <trkpt lat="45.10061" lon="5.58752">
        <ele>1112</ele>
        <time>2010-07-14T07:20:44Z</time>
      </trkpt>
      <trkpt lat="45.10052" lon="5.58761">
        <ele>1114</ele>
        <time>2010-07-14T07:20:51Z</time>
      </trkpt>
      <trkpt lat="45.10044" lon="5.58771">
        <ele>1114</ele>
        <time>2010-07-14T07:20:58Z</time>
      </trkpt>
      <trkpt lat="45.10035" lon="5.58781">
        <ele>1114</ele>
        <time>2010-07-14T07:21:06Z</time>
      </trkpt>
      <trkpt lat="45.10028" lon="5.58787">
        <ele>1114</ele>
        <time>2010-07-14T07:21:13Z</time>
      </trkpt>
      <trkpt lat="45.10012" lon="5.588">
        <ele>1114</ele>
        <time>2010-07-14T07:21:20Z</time>
      </trkpt>
      <trkpt lat="45.10004" lon="5.58816">
        <ele>1114</ele>
        <time>2010-07-14T07:21:27Z</time>
      </trkpt>
      <trkpt lat="45.09998" lon="5.58828">
        <ele>1114</ele>
        <time>2010-07-14T07:21:34Z</time>
      </trkpt>
      <trkpt lat="45.09993" lon="5.58831">
        <ele>1117</ele>
        <time>2010-07-14T07:21:41Z</time>
      </trkpt>
      <trkpt lat="45.09989" lon="5.58843">
        <ele>1124</ele>
        <time>2010-07-14T07:21:49Z</time>
      </trkpt>
      <trkpt lat="45.09992" lon="5.58852">
        <ele>1130</ele>
        <time>2010-07-14T07:21:56Z</time>
      </trkpt>
      <trkpt lat="45.10005" lon="5.58854">
        <ele>1136</ele>
        <time>2010-07-14T07:22:03Z</time>
      </trkpt>
      <trkpt lat="45.10017" lon="5.58861">
        <ele>1136</ele>
        <time>2010-07-14T07:22:10Z</time>
      </trkpt>
      <trkpt lat="45.10026" lon="5.58868">
        <ele>1136</ele>
        <time>2010-07-14T07:22:17Z</time>
      </trkpt>
      <trkpt lat="45.10031" lon="5.58877">
        <ele>1138</ele>
        <time>2010-07-14T07:22:24Z</time>
      </trkpt>
      <trkpt lat="45.1004" lon="5.58887">
        <ele>1140</ele>
        <time>2010-07-14T07:22:31Z</time>
      </trkpt>
      <trkpt lat="45.10047" lon="5.58902">
        <ele>1143</ele>
        <time>2010-07-14T07:22:38Z</time>
      </trkpt>
      <trkpt lat="45.1005" lon="5.58916">
        <ele>1144</ele>
        <time>2010-07-14T07:22:48Z</time>
      </trkpt>
      <trkpt lat="45.10061" lon="5.58937">
        <ele>1146</ele>
        <time>2010-07-14T07:22:55Z</time>
      </trkpt>
      <trkpt lat="45.10073" lon="5.58951">
        <ele>1146</ele>
        <time>2010-07-14T07:23:03Z</time>
      </trkpt>
      <trkpt lat="45.10084" lon="5.58957">
        <ele>1142</ele>
        <time>2010-07-14T07:23:10Z</time>
      </trkpt>
      <trkpt lat="45.10095" lon="5.58961">
        <ele>1140</ele>
        <time>2010-07-14T07:23:18Z</time>
      </trkpt>
      <trkpt lat="45.10105" lon="5.58959">
        <ele>1140</ele>
        <time>2010-07-14T07:23:25Z</time>
      </trkpt>
      <trkpt lat="45.10115" lon="5.58952">
        <ele>1140</ele>
        <time>2010-07-14T07:23:32Z</time>
      </trkpt>
      <trkpt lat="45.10124" lon="5.58947">
        <ele>1142</ele>
        <time>2010-07-14T07:23:39Z</time>
      </trkpt>
      <trkpt lat="45.10138" lon="5.58946">
        <ele>1143</ele>
        <time>2010-07-14T07:23:46Z</time>
      </trkpt>
      <trkpt lat="45.10154" lon="5.58945">
        <ele>1143</ele>
        <time>2010-07-14T07:23:53Z</time>
      </trkpt>
      <trkpt lat="45.10172" lon="5.5895">
        <ele>1145</ele>
        <time>2010-07-14T07:24:00Z</time>
      </trkpt>
      <trkpt lat="45.1019" lon="5.58956">
        <ele>1145</ele>
        <time>2010-07-14T07:24:07Z</time>
      </trkpt>
      <trkpt lat="45.10206" lon="5.58962">
        <ele>1146</ele>
        <time>2010-07-14T07:24:14Z</time>
      </trkpt>
      <trkpt lat="45.10223" lon="5.58966">
        <ele>1147</ele>
        <time>2010-07-14T07:24:21Z</time>
      </trkpt>
      <trkpt lat="45.10234" lon="5.58969">
        <ele>1147</ele>
        <time>2010-07-14T07:24:28Z</time>
      </trkpt>
      <trkpt lat="45.10249" lon="5.58975">
        <ele>1148</ele>
        <time>2010-07-14T07:24:35Z</time>
      </trkpt>
      <trkpt lat="45.10264" lon="5.58979">
        <ele>1149</ele>
        <time>2010-07-14T07:24:42Z</time>
      </trkpt>
      <trkpt lat="45.10284" lon="5.58983">
        <ele>1151</ele>
        <time>2010-07-14T07:24:49Z</time>
      </trkpt>
      <trkpt lat="45.10302" lon="5.58989">
        <ele>1154</ele>
        <time>2010-07-14T07:24:56Z</time>
      </trkpt>
      <trkpt lat="45.10321" lon="5.58991">
        <ele>1158</ele>
        <time>2010-07-14T07:25:03Z</time>
      </trkpt>
      <trkpt lat="45.10337" lon="5.58993">
        <ele>1162</ele>
        <time>2010-07-14T07:25:10Z</time>
      </trkpt>
      <trkpt lat="45.10357" lon="5.58991">
        <ele>1164</ele>
        <time>2010-07-14T07:25:17Z</time>
      </trkpt>
      <trkpt lat="45.10374" lon="5.58993">
        <ele>1165</ele>
        <time>2010-07-14T07:25:24Z</time>
      </trkpt>
      <trkpt lat="45.10393" lon="5.58994">
        <ele>1167</ele>
        <time>2010-07-14T07:25:31Z</time>
      </trkpt>
      <trkpt lat="45.10407" lon="5.59002">
        <ele>1169</ele>
        <time>2010-07-14T07:25:38Z</time>
      </trkpt>
      <trkpt lat="45.10419" lon="5.59011">
        <ele>1170</ele>
        <time>2010-07-14T07:25:45Z</time>
      </trkpt>
      <trkpt lat="45.10431" lon="5.59021">
        <ele>1172</ele>
        <time>2010-07-14T07:25:52Z</time>
      </trkpt>
      <trkpt lat="45.10442" lon="5.59026">
        <ele>1175</ele>
        <time>2010-07-14T07:25:59Z</time>
      </trkpt>
      <trkpt lat="45.10456" lon="5.59034">
        <ele>1178</ele>
        <time>2010-07-14T07:26:06Z</time>
      </trkpt>
      <trkpt lat="45.10468" lon="5.59045">
        <ele>1179</ele>
        <time>2010-07-14T07:26:13Z</time>
      </trkpt>
      <trkpt lat="45.10479" lon="5.59056">
        <ele>1180</ele>
        <time>2010-07-14T07:26:20Z</time>
      </trkpt>
      <trkpt lat="45.10492" lon="5.59062">
        <ele>1182</ele>
        <time>2010-07-14T07:26:28Z</time>
      </trkpt>
      <trkpt lat="45.10503" lon="5.59068">
        <ele>1187</ele>
        <time>2010-07-14T07:26:35Z</time>
      </trkpt>
      <trkpt lat="45.10516" lon="5.59072">
        <ele>1194</ele>
        <time>2010-07-14T07:26:42Z</time>
      </trkpt>
      <trkpt lat="45.10528" lon="5.59077">
        <ele>1197</ele>
        <time>2010-07-14T07:26:49Z</time>
      </trkpt>
      <trkpt lat="45.10537" lon="5.59085">
        <ele>1197</ele>
        <time>2010-07-14T07:26:56Z</time>
      </trkpt>
      <trkpt lat="45.10547" lon="5.59094">
        <ele>1197</ele>
        <time>2010-07-14T07:27:03Z</time>
      </trkpt>
      <trkpt lat="45.10556" lon="5.59102">
        <ele>1197</ele>
        <time>2010-07-14T07:27:10Z</time>
      </trkpt>
      <trkpt lat="45.10567" lon="5.5911">
        <ele>1197</ele>
        <time>2010-07-14T07:27:17Z</time>
      </trkpt>
      <trkpt lat="45.1058" lon="5.59114">
        <ele>1197</ele>
        <time>2010-07-14T07:27:24Z</time>
      </trkpt>
      <trkpt lat="45.1059" lon="5.59119">
        <ele>1197</ele>
        <time>2010-07-14T07:27:31Z</time>
      </trkpt>
      <trkpt lat="45.106" lon="5.59126">
        <ele>1197</ele>
        <time>2010-07-14T07:27:38Z</time>
      </trkpt>
      <trkpt lat="45.10611" lon="5.59134">
        <ele>1197</ele>
        <time>2010-07-14T07:27:46Z</time>
      </trkpt>
      <trkpt lat="45.10622" lon="5.59138">
        <ele>1198</ele>
        <time>2010-07-14T07:27:53Z</time>
      </trkpt>
      <trkpt lat="45.10632" lon="5.59145">
        <ele>1200</ele>
        <time>2010-07-14T07:28:00Z</time>
      </trkpt>
      <trkpt lat="45.10641" lon="5.59152">
        <ele>1201</ele>
        <time>2010-07-14T07:28:07Z</time>
      </trkpt>
      <trkpt lat="45.1065" lon="5.59162">
        <ele>1202</ele>
        <time>2010-07-14T07:28:14Z</time>
      </trkpt>
      <trkpt lat="45.1066" lon="5.59169">
        <ele>1202</ele>
        <time>2010-07-14T07:28:21Z</time>
      </trkpt>
      <trkpt lat="45.10672" lon="5.59178">
        <ele>1207</ele>
        <time>2010-07-14T07:28:28Z</time>
      </trkpt>
      <trkpt lat="45.10678" lon="5.59187">
        <ele>1210</ele>
        <time>2010-07-14T07:28:35Z</time>
      </trkpt>
      <trkpt lat="45.10689" lon="5.59196">
        <ele>1210</ele>
        <time>2010-07-14T07:28:42Z</time>
      </trkpt>
      <trkpt lat="45.10697" lon="5.59207">
        <ele>1210</ele>
        <time>2010-07-14T07:28:49Z</time>
      </trkpt>
      <trkpt lat="45.10708" lon="5.59213">
        <ele>1210</ele>
        <time>2010-07-14T07:28:56Z</time>
      </trkpt>
      <trkpt lat="45.1072" lon="5.59215">
        <ele>1211</ele>
        <time>2010-07-14T07:29:03Z</time>
      </trkpt>
      <trkpt lat="45.1073" lon="5.5922">
        <ele>1215</ele>
        <time>2010-07-14T07:29:10Z</time>
      </trkpt>
      <trkpt lat="45.10742" lon="5.59223">
        <ele>1218</ele>
        <time>2010-07-14T07:29:17Z</time>
      </trkpt>
      <trkpt lat="45.10754" lon="5.59227">
        <ele>1218</ele>
        <time>2010-07-14T07:29:24Z</time>
      </trkpt>
      <trkpt lat="45.10766" lon="5.5923">
        <ele>1219</ele>
        <time>2010-07-14T07:29:31Z</time>
      </trkpt>
      <trkpt lat="45.10777" lon="5.59235">
        <ele>1219</ele>
        <time>2010-07-14T07:29:38Z</time>
      </trkpt>
      <trkpt lat="45.10787" lon="5.59242">
        <ele>1219</ele>
        <time>2010-07-14T07:29:45Z</time>
      </trkpt>
      <trkpt lat="45.10799" lon="5.5925">
        <ele>1225</ele>
        <time>2010-07-14T07:29:53Z</time>
      </trkpt>
      <trkpt lat="45.10809" lon="5.59257">
        <ele>1225</ele>
        <time>2010-07-14T07:30:00Z</time>
      </trkpt>
      <trkpt lat="45.10819" lon="5.59265">
        <ele>1229</ele>
        <time>2010-07-14T07:30:07Z</time>
      </trkpt>
      <trkpt lat="45.10832" lon="5.59271">
        <ele>1233</ele>
        <time>2010-07-14T07:30:14Z</time>
      </trkpt>
      <trkpt lat="45.10841" lon="5.59276">
        <ele>1239</ele>
        <time>2010-07-14T07:30:21Z</time>
      </trkpt>
      <trkpt lat="45.10852" lon="5.59285">
        <ele>1245</ele>
        <time>2010-07-14T07:30:28Z</time>
      </trkpt>
      <trkpt lat="45.10861" lon="5.59293">
        <ele>1246</ele>
        <time>2010-07-14T07:30:35Z</time>
      </trkpt>
      <trkpt lat="45.10872" lon="5.593">
        <ele>1243</ele>
        <time>2010-07-14T07:30:42Z</time>
      </trkpt>
      <trkpt lat="45.10883" lon="5.59305">
        <ele>1242</ele>
        <time>2010-07-14T07:30:49Z</time>
      </trkpt>
      <trkpt lat="45.10895" lon="5.59307">
        <ele>1242</ele>
        <time>2010-07-14T07:30:56Z</time>
      </trkpt>
      <trkpt lat="45.10908" lon="5.59309">
        <ele>1242</ele>
        <time>2010-07-14T07:31:03Z</time>
      </trkpt>
      <trkpt lat="45.10919" lon="5.59311">
        <ele>1242</ele>
        <time>2010-07-14T07:31:10Z</time>
      </trkpt>
      <trkpt lat="45.10931" lon="5.59313">
        <ele>1242</ele>
        <time>2010-07-14T07:31:17Z</time>
      </trkpt>
      <trkpt lat="45.10944" lon="5.59312">
        <ele>1242</ele>
        <time>2010-07-14T07:31:24Z</time>
      </trkpt>
      <trkpt lat="45.10955" lon="5.59312">
        <ele>1242</ele>
        <time>2010-07-14T07:31:31Z</time>
      </trkpt>
      <trkpt lat="45.10967" lon="5.59313">
        <ele>1242</ele>
        <time>2010-07-14T07:31:38Z</time>
      </trkpt>
      <trkpt lat="45.10979" lon="5.59312">
        <ele>1245</ele>
        <time>2010-07-14T07:31:45Z</time>
      </trkpt>
      <trkpt lat="45.10991" lon="5.59313">
        <ele>1249</ele>
        <time>2010-07-14T07:31:53Z</time>
      </trkpt>
      <trkpt lat="45.11001" lon="5.59315">
        <ele>1251</ele>
        <time>2010-07-14T07:32:00Z</time>
      </trkpt>
      <trkpt lat="45.11011" lon="5.59321">
        <ele>1251</ele>
        <time>2010-07-14T07:32:08Z</time>
      </trkpt>
      <trkpt lat="45.11022" lon="5.59323">
        <ele>1251</ele>
        <time>2010-07-14T07:32:15Z</time>
      </trkpt>
      <trkpt lat="45.11036" lon="5.59321">
        <ele>1251</ele>
        <time>2010-07-14T07:32:22Z</time>
      </trkpt>
      <trkpt lat="45.1105" lon="5.59322">
        <ele>1251</ele>
        <time>2010-07-14T07:32:29Z</time>
      </trkpt>
      <trkpt lat="45.11061" lon="5.59322">
        <ele>1251</ele>
        <time>2010-07-14T07:32:36Z</time>
      </trkpt>
      <trkpt lat="45.11073" lon="5.59325">
        <ele>1251</ele>
        <time>2010-07-14T07:32:43Z</time>
      </trkpt>
      <trkpt lat="45.11084" lon="5.59326">
        <ele>1251</ele>
        <time>2010-07-14T07:32:50Z</time>
      </trkpt>
      <trkpt lat="45.11097" lon="5.59329">
        <ele>1251</ele>
        <time>2010-07-14T07:32:57Z</time>
      </trkpt>
      <trkpt lat="45.11108" lon="5.59333">
        <ele>1251</ele>
        <time>2010-07-14T07:33:04Z</time>
      </trkpt>
      <trkpt lat="45.11121" lon="5.59335">
        <ele>1251</ele>
        <time>2010-07-14T07:33:11Z</time>
      </trkpt>
      <trkpt lat="45.11133" lon="5.59339">
        <ele>1253</ele>
        <time>2010-07-14T07:33:18Z</time>
      </trkpt>
      <trkpt lat="45.11145" lon="5.59342">
        <ele>1254</ele>
        <time>2010-07-14T07:33:25Z</time>
      </trkpt>
      <trkpt lat="45.11158" lon="5.59349">
        <ele>1257</ele>
        <time>2010-07-14T07:33:33Z</time>
      </trkpt>
      <trkpt lat="45.11168" lon="5.59356">
        <ele>1258</ele>
        <time>2010-07-14T07:33:40Z</time>
      </trkpt>
      <trkpt lat="45.11181" lon="5.59358">
        <ele>1262</ele>
        <time>2010-07-14T07:33:47Z</time>
      </trkpt>
      <trkpt lat="45.11191" lon="5.59367">
        <ele>1266</ele>
        <time>2010-07-14T07:33:54Z</time>
      </trkpt>
      <trkpt lat="45.11204" lon="5.59371">
        <ele>1266</ele>
        <time>2010-07-14T07:34:01Z</time>
      </trkpt>
      <trkpt lat="45.11217" lon="5.59375">
        <ele>1270</ele>
        <time>2010-07-14T07:34:08Z</time>
      </trkpt>
      <trkpt lat="45.11229" lon="5.59379">
        <ele>1271</ele>
        <time>2010-07-14T07:34:15Z</time>
      </trkpt>
      <trkpt lat="45.11238" lon="5.59384">
        <ele>1275</ele>
        <time>2010-07-14T07:34:22Z</time>
      </trkpt>
      <trkpt lat="45.11246" lon="5.59389">
        <ele>1278</ele>
        <time>2010-07-14T07:34:29Z</time>
      </trkpt>
      <trkpt lat="45.11254" lon="5.59395">
        <ele>1281</ele>
        <time>2010-07-14T07:34:36Z</time>
      </trkpt>
      <trkpt lat="45.1126" lon="5.59406">
        <ele>1283</ele>
        <time>2010-07-14T07:34:43Z</time>
      </trkpt>
      <trkpt lat="45.11268" lon="5.59419">
        <ele>1285</ele>
        <time>2010-07-14T07:34:50Z</time>
      </trkpt>
      <trkpt lat="45.11273" lon="5.59437">
        <ele>1285</ele>
        <time>2010-07-14T07:34:57Z</time>
      </trkpt>
      <trkpt lat="45.11269" lon="5.59451">
        <ele>1285</ele>
        <time>2010-07-14T07:35:05Z</time>
      </trkpt>
      <trkpt lat="45.11265" lon="5.59462">
        <ele>1285</ele>
        <time>2010-07-14T07:35:12Z</time>
      </trkpt>
      <trkpt lat="45.11265" lon="5.5948">
        <ele>1285</ele>
        <time>2010-07-14T07:35:19Z</time>
      </trkpt>
      <trkpt lat="45.11262" lon="5.59494">
        <ele>1288</ele>
        <time>2010-07-14T07:35:26Z</time>
      </trkpt>
      <trkpt lat="45.1126" lon="5.5951">
        <ele>1289</ele>
        <time>2010-07-14T07:35:33Z</time>
      </trkpt>
      <trkpt lat="45.11256" lon="5.59521">
        <ele>1291</ele>
        <time>2010-07-14T07:35:40Z</time>
      </trkpt>
      <trkpt lat="45.11252" lon="5.59535">
        <ele>1295</ele>
        <time>2010-07-14T07:35:47Z</time>
      </trkpt>
      <trkpt lat="45.11245" lon="5.59548">
        <ele>1297</ele>
        <time>2010-07-14T07:35:54Z</time>
      </trkpt>
      <trkpt lat="45.11237" lon="5.5956">
        <ele>1300</ele>
        <time>2010-07-14T07:36:01Z</time>
      </trkpt>
      <trkpt lat="45.1123" lon="5.59573">
        <ele>1301</ele>
        <time>2010-07-14T07:36:08Z</time>
      </trkpt>
      <trkpt lat="45.11222" lon="5.59588">
        <ele>1302</ele>
        <time>2010-07-14T07:36:15Z</time>
      </trkpt>
      <trkpt lat="45.11214" lon="5.59598">
        <ele>1305</ele>
        <time>2010-07-14T07:36:22Z</time>
      </trkpt>
      <trkpt lat="45.11204" lon="5.59609">
        <ele>1310</ele>
        <time>2010-07-14T07:36:29Z</time>
      </trkpt>
      <trkpt lat="45.11195" lon="5.5962">
        <ele>1313</ele>
        <time>2010-07-14T07:36:36Z</time>
      </trkpt>
      <trkpt lat="45.11183" lon="5.59627">
        <ele>1316</ele>
        <time>2010-07-14T07:36:43Z</time>
      </trkpt>
      <trkpt lat="45.1117" lon="5.59636">
        <ele>1316</ele>
        <time>2010-07-14T07:36:50Z</time>
      </trkpt>
      <trkpt lat="45.11158" lon="5.59644">
        <ele>1316</ele>
        <time>2010-07-14T07:36:57Z</time>
      </trkpt>
      <trkpt lat="45.11147" lon="5.59651">
        <ele>1318</ele>
        <time>2010-07-14T07:37:04Z</time>
      </trkpt>
      <trkpt lat="45.11133" lon="5.59657">
        <ele>1318</ele>
        <time>2010-07-14T07:37:11Z</time>
      </trkpt>
      <trkpt lat="45.1113" lon="5.59675">
        <ele>1315</ele>
        <time>2010-07-14T07:37:18Z</time>
      </trkpt>
      <trkpt lat="45.11129" lon="5.59692">
        <ele>1312</ele>
        <time>2010-07-14T07:37:25Z</time>
      </trkpt>
      <trkpt lat="45.11129" lon="5.59711">
        <ele>1309</ele>
        <time>2010-07-14T07:37:32Z</time>
      </trkpt>
      <trkpt lat="45.11131" lon="5.59726">
        <ele>1309</ele>
        <time>2010-07-14T07:37:39Z</time>
      </trkpt>
      <trkpt lat="45.11136" lon="5.59741">
        <ele>1309</ele>
        <time>2010-07-14T07:37:46Z</time>
      </trkpt>
      <trkpt lat="45.11141" lon="5.59755">
        <ele>1309</ele>
        <time>2010-07-14T07:37:53Z</time>
      </trkpt>
      <trkpt lat="45.11147" lon="5.5977">
        <ele>1316</ele>
        <time>2010-07-14T07:38:00Z</time>
      </trkpt>
      <trkpt lat="45.11148" lon="5.5979">
        <ele>1322</ele>
        <time>2010-07-14T07:38:07Z</time>
      </trkpt>
      <trkpt lat="45.11143" lon="5.59805">
        <ele>1322</ele>
        <time>2010-07-14T07:38:14Z</time>
      </trkpt>
      <trkpt lat="45.1114" lon="5.59822">
        <ele>1326</ele>
        <time>2010-07-14T07:38:21Z</time>
      </trkpt>
      <trkpt lat="45.11136" lon="5.59837">
        <ele>1327</ele>
        <time>2010-07-14T07:38:28Z</time>
      </trkpt>
      <trkpt lat="45.11137" lon="5.59861">
        <ele>1328</ele>
        <time>2010-07-14T07:38:35Z</time>
      </trkpt>
      <trkpt lat="45.11146" lon="5.59887">
        <ele>1328</ele>
        <time>2010-07-14T07:38:43Z</time>
      </trkpt>
      <trkpt lat="45.11138" lon="5.59897">
        <ele>1324</ele>
        <time>2010-07-14T07:38:51Z</time>
      </trkpt>
      <trkpt lat="45.11134" lon="5.59881">
        <ele>1325</ele>
        <time>2010-07-14T07:38:58Z</time>
      </trkpt>
      <trkpt lat="45.11132" lon="5.59863">
        <ele>1327</ele>
        <time>2010-07-14T07:39:05Z</time>
      </trkpt>
      <trkpt lat="45.11129" lon="5.59846">
        <ele>1327</ele>
        <time>2010-07-14T07:39:12Z</time>
      </trkpt>
      <trkpt lat="45.11129" lon="5.59828">
        <ele>1327</ele>
        <time>2010-07-14T07:39:19Z</time>
      </trkpt>
      <trkpt lat="45.11124" lon="5.59808">
        <ele>1327</ele>
        <time>2010-07-14T07:39:26Z</time>
      </trkpt>
      <trkpt lat="45.11116" lon="5.59794">
        <ele>1327</ele>
        <time>2010-07-14T07:39:33Z</time>
      </trkpt>
      <trkpt lat="45.11106" lon="5.59785">
        <ele>1327</ele>
        <time>2010-07-14T07:39:40Z</time>
      </trkpt>
      <trkpt lat="45.11097" lon="5.59771">
        <ele>1323</ele>
        <time>2010-07-14T07:39:47Z</time>
      </trkpt>
      <trkpt lat="45.11089" lon="5.59756">
        <ele>1321</ele>
        <time>2010-07-14T07:39:54Z</time>
      </trkpt>
      <trkpt lat="45.11081" lon="5.59741">
        <ele>1317</ele>
        <time>2010-07-14T07:40:01Z</time>
      </trkpt>
      <trkpt lat="45.11075" lon="5.59727">
        <ele>1316</ele>
        <time>2010-07-14T07:40:08Z</time>
      </trkpt>
      <trkpt lat="45.11066" lon="5.59714">
        <ele>1316</ele>
        <time>2010-07-14T07:40:15Z</time>
      </trkpt>
      <trkpt lat="45.11057" lon="5.597">
        <ele>1321</ele>
        <time>2010-07-14T07:40:22Z</time>
      </trkpt>
      <trkpt lat="45.11046" lon="5.59689">
        <ele>1327</ele>
        <time>2010-07-14T07:40:29Z</time>
      </trkpt>
      <trkpt lat="45.11035" lon="5.5968">
        <ele>1332</ele>
        <time>2010-07-14T07:40:36Z</time>
      </trkpt>
      <trkpt lat="45.11023" lon="5.59674">
        <ele>1334</ele>
        <time>2010-07-14T07:40:43Z</time>
      </trkpt>
      <trkpt lat="45.1101" lon="5.5967">
        <ele>1334</ele>
        <time>2010-07-14T07:40:50Z</time>
      </trkpt>
      <trkpt lat="45.10996" lon="5.59666">
        <ele>1334</ele>
        <time>2010-07-14T07:40:57Z</time>
      </trkpt>
      <trkpt lat="45.10983" lon="5.59667">
        <ele>1332</ele>
        <time>2010-07-14T07:41:04Z</time>
      </trkpt>
      <trkpt lat="45.10969" lon="5.59669">
        <ele>1330</ele>
        <time>2010-07-14T07:41:11Z</time>
      </trkpt>
      <trkpt lat="45.10955" lon="5.59668">
        <ele>1328</ele>
        <time>2010-07-14T07:41:18Z</time>
      </trkpt>
      <trkpt lat="45.10943" lon="5.59668">
        <ele>1328</ele>
        <time>2010-07-14T07:41:25Z</time>
      </trkpt>
      <trkpt lat="45.10929" lon="5.59666">
        <ele>1328</ele>
        <time>2010-07-14T07:41:32Z</time>
      </trkpt>
      <trkpt lat="45.10916" lon="5.59666">
        <ele>1328</ele>
        <time>2010-07-14T07:41:39Z</time>
      </trkpt>
      <trkpt lat="45.10902" lon="5.59663">
        <ele>1330</ele>
        <time>2010-07-14T07:41:46Z</time>
      </trkpt>
      <trkpt lat="45.10889" lon="5.59662">
        <ele>1332</ele>
        <time>2010-07-14T07:41:53Z</time>
      </trkpt>
      <trkpt lat="45.10875" lon="5.59659">
        <ele>1334</ele>
        <time>2010-07-14T07:42:00Z</time>
      </trkpt>
      <trkpt lat="45.10863" lon="5.59656">
        <ele>1336</ele>
        <time>2010-07-14T07:42:07Z</time>
      </trkpt>
      <trkpt lat="45.10851" lon="5.59655">
        <ele>1340</ele>
        <time>2010-07-14T07:42:14Z</time>
      </trkpt>
      <trkpt lat="45.10838" lon="5.59653">
        <ele>1342</ele>
        <time>2010-07-14T07:42:21Z</time>
      </trkpt>
      <trkpt lat="45.10825" lon="5.59651">
        <ele>1342</ele>
        <time>2010-07-14T07:42:28Z</time>
      </trkpt>
      <trkpt lat="45.10809" lon="5.5965">
        <ele>1342</ele>
        <time>2010-07-14T07:42:35Z</time>
      </trkpt>
      <trkpt lat="45.10795" lon="5.5965">
        <ele>1342</ele>
        <time>2010-07-14T07:42:42Z</time>
      </trkpt>
      <trkpt lat="45.10782" lon="5.5965">
        <ele>1342</ele>
        <time>2010-07-14T07:42:49Z</time>
      </trkpt>
      <trkpt lat="45.10767" lon="5.59651">
        <ele>1342</ele>
        <time>2010-07-14T07:42:56Z</time>
      </trkpt>
      <trkpt lat="45.10754" lon="5.59653">
        <ele>1342</ele>
        <time>2010-07-14T07:43:03Z</time>
      </trkpt>
      <trkpt lat="45.10741" lon="5.59655">
        <ele>1342</ele>
        <time>2010-07-14T07:43:10Z</time>
      </trkpt>
      <trkpt lat="45.10727" lon="5.59656">
        <ele>1346</ele>
        <time>2010-07-14T07:43:17Z</time>
      </trkpt>
      <trkpt lat="45.10714" lon="5.59657">
        <ele>1347</ele>
        <time>2010-07-14T07:43:24Z</time>
      </trkpt>
      <trkpt lat="45.10701" lon="5.59659">
        <ele>1349</ele>
        <time>2010-07-14T07:43:31Z</time>
      </trkpt>
      <trkpt lat="45.10688" lon="5.59663">
        <ele>1349</ele>
        <time>2010-07-14T07:43:38Z</time>
      </trkpt>
      <trkpt lat="45.10674" lon="5.5966">
        <ele>1355</ele>
        <time>2010-07-14T07:43:45Z</time>
      </trkpt>
      <trkpt lat="45.10661" lon="5.59659">
        <ele>1362</ele>
        <time>2010-07-14T07:43:52Z</time>
      </trkpt>
      <trkpt lat="45.10648" lon="5.59659">
        <ele>1363</ele>
        <time>2010-07-14T07:43:59Z</time>
      </trkpt>
      <trkpt lat="45.10634" lon="5.59656">
        <ele>1368</ele>
        <time>2010-07-14T07:44:06Z</time>
      </trkpt>
      <trkpt lat="45.10619" lon="5.59656">
        <ele>1369</ele>
        <time>2010-07-14T07:44:13Z</time>
      </trkpt>
      <trkpt lat="45.10606" lon="5.59656">
        <ele>1369</ele>
        <time>2010-07-14T07:44:20Z</time>
      </trkpt>
      <trkpt lat="45.10593" lon="5.59655">
        <ele>1369</ele>
        <time>2010-07-14T07:44:27Z</time>
      </trkpt>
      <trkpt lat="45.10582" lon="5.59655">
        <ele>1372</ele>
        <time>2010-07-14T07:44:34Z</time>
      </trkpt>
      <trkpt lat="45.10568" lon="5.59651">
        <ele>1374</ele>
        <time>2010-07-14T07:44:41Z</time>
      </trkpt>
      <trkpt lat="45.10556" lon="5.59651">
        <ele>1374</ele>
        <time>2010-07-14T07:44:48Z</time>
      </trkpt>
      <trkpt lat="45.10543" lon="5.59648">
        <ele>1374</ele>
        <time>2010-07-14T07:44:55Z</time>
      </trkpt>
      <trkpt lat="45.1053" lon="5.59644">
        <ele>1374</ele>
        <time>2010-07-14T07:45:02Z</time>
      </trkpt>
      <trkpt lat="45.10519" lon="5.59643">
        <ele>1375</ele>
        <time>2010-07-14T07:45:09Z</time>
      </trkpt>
      <trkpt lat="45.10505" lon="5.59644">
        <ele>1376</ele>
        <time>2010-07-14T07:45:16Z</time>
      </trkpt>
      <trkpt lat="45.10491" lon="5.59645">
        <ele>1371</ele>
        <time>2010-07-14T07:45:23Z</time>
      </trkpt>
      <trkpt lat="45.10481" lon="5.59646">
        <ele>1368</ele>
        <time>2010-07-14T07:45:30Z</time>
      </trkpt>
      <trkpt lat="45.10469" lon="5.59647">
        <ele>1368</ele>
        <time>2010-07-14T07:45:37Z</time>
      </trkpt>
      <trkpt lat="45.10457" lon="5.59648">
        <ele>1368</ele>
        <time>2010-07-14T07:45:44Z</time>
      </trkpt>
      <trkpt lat="45.10446" lon="5.59651">
        <ele>1367</ele>
        <time>2010-07-14T07:45:51Z</time>
      </trkpt>
      <trkpt lat="45.10435" lon="5.59653">
        <ele>1367</ele>
        <time>2010-07-14T07:45:58Z</time>
      </trkpt>
      <trkpt lat="45.10427" lon="5.59653">
        <ele>1372</ele>
        <time>2010-07-14T07:46:05Z</time>
      </trkpt>
      <trkpt lat="45.10416" lon="5.59652">
        <ele>1378</ele>
        <time>2010-07-14T07:46:12Z</time>
      </trkpt>
      <trkpt lat="45.10407" lon="5.59652">
        <ele>1382</ele>
        <time>2010-07-14T07:46:19Z</time>
      </trkpt>
      <trkpt lat="45.10398" lon="5.59654">
        <ele>1383</ele>
        <time>2010-07-14T07:46:26Z</time>
      </trkpt>
      <trkpt lat="45.10387" lon="5.59652">
        <ele>1383</ele>
        <time>2010-07-14T07:46:33Z</time>
      </trkpt>
      <trkpt lat="45.10377" lon="5.59651">
        <ele>1383</ele>
        <time>2010-07-14T07:46:40Z</time>
      </trkpt>
      <trkpt lat="45.10366" lon="5.5965">
        <ele>1381</ele>
        <time>2010-07-14T07:46:47Z</time>
      </trkpt>
      <trkpt lat="45.10356" lon="5.59648">
        <ele>1381</ele>
        <time>2010-07-14T07:46:54Z</time>
      </trkpt>
      <trkpt lat="45.10346" lon="5.59643">
        <ele>1382</ele>
        <time>2010-07-14T07:47:01Z</time>
      </trkpt>
      <trkpt lat="45.10332" lon="5.59639">
        <ele>1385</ele>
        <time>2010-07-14T07:47:08Z</time>
      </trkpt>
      <trkpt lat="45.10322" lon="5.59639">
        <ele>1387</ele>
        <time>2010-07-14T07:47:15Z</time>
      </trkpt>
      <trkpt lat="45.10313" lon="5.59639">
        <ele>1394</ele>
        <time>2010-07-14T07:47:23Z</time>
      </trkpt>
      <trkpt lat="45.10299" lon="5.59638">
        <ele>1398</ele>
        <time>2010-07-14T07:47:30Z</time>
      </trkpt>
      <trkpt lat="45.10288" lon="5.59638">
        <ele>1399</ele>
        <time>2010-07-14T07:47:37Z</time>
      </trkpt>
      <trkpt lat="45.10277" lon="5.59636">
        <ele>1401</ele>
        <time>2010-07-14T07:47:44Z</time>
      </trkpt>
      <trkpt lat="45.10267" lon="5.59634">
        <ele>1405</ele>
        <time>2010-07-14T07:47:51Z</time>
      </trkpt>
      <trkpt lat="45.10257" lon="5.59632">
        <ele>1406</ele>
        <time>2010-07-14T07:47:58Z</time>
      </trkpt>
      <trkpt lat="45.10245" lon="5.59626">
        <ele>1409</ele>
        <time>2010-07-14T07:48:05Z</time>
      </trkpt>
      <trkpt lat="45.10231" lon="5.5962">
        <ele>1409</ele>
        <time>2010-07-14T07:48:12Z</time>
      </trkpt>
      <trkpt lat="45.10217" lon="5.59609">
        <ele>1409</ele>
        <time>2010-07-14T07:48:20Z</time>
      </trkpt>
      <trkpt lat="45.10208" lon="5.59601">
        <ele>1409</ele>
        <time>2010-07-14T07:48:27Z</time>
      </trkpt>
      <trkpt lat="45.10192" lon="5.59592">
        <ele>1409</ele>
        <time>2010-07-14T07:48:34Z</time>
      </trkpt>
      <trkpt lat="45.10176" lon="5.5959">
        <ele>1408</ele>
        <time>2010-07-14T07:48:41Z</time>
      </trkpt>
      <trkpt lat="45.10163" lon="5.59596">
        <ele>1408</ele>
        <time>2010-07-14T07:48:48Z</time>
      </trkpt>
      <trkpt lat="45.10149" lon="5.5961">
        <ele>1408</ele>
        <time>2010-07-14T07:48:55Z</time>
      </trkpt>
      <trkpt lat="45.10136" lon="5.59634">
        <ele>1408</ele>
        <time>2010-07-14T07:49:02Z</time>
      </trkpt>
      <trkpt lat="45.10126" lon="5.59657">
        <ele>1410</ele>
        <time>2010-07-14T07:49:09Z</time>
      </trkpt>
      <trkpt lat="45.10116" lon="5.59673">
        <ele>1413</ele>
        <time>2010-07-14T07:49:16Z</time>
      </trkpt>
      <trkpt lat="45.10101" lon="5.59684">
        <ele>1417</ele>
        <time>2010-07-14T07:49:24Z</time>
      </trkpt>
      <trkpt lat="45.1009" lon="5.59694">
        <ele>1422</ele>
        <time>2010-07-14T07:49:33Z</time>
      </trkpt>
      <trkpt lat="45.10081" lon="5.59702">
        <ele>1430</ele>
        <time>2010-07-14T07:49:41Z</time>
      </trkpt>
      <trkpt lat="45.10072" lon="5.59708">
        <ele>1436</ele>
        <time>2010-07-14T07:49:48Z</time>
      </trkpt>
      <trkpt lat="45.10062" lon="5.5971">
        <ele>1439</ele>
        <time>2010-07-14T07:49:55Z</time>
      </trkpt>
      <trkpt lat="45.10051" lon="5.59701">
        <ele>1439</ele>
        <time>2010-07-14T07:50:02Z</time>
      </trkpt>
      <trkpt lat="45.1004" lon="5.59689">
        <ele>1434</ele>
        <time>2010-07-14T07:50:09Z</time>
      </trkpt>
      <trkpt lat="45.10028" lon="5.59674">
        <ele>1431</ele>
        <time>2010-07-14T07:50:16Z</time>
      </trkpt>
      <trkpt lat="45.10012" lon="5.59657">
        <ele>1431</ele>
        <time>2010-07-14T07:50:24Z</time>
      </trkpt>
      <trkpt lat="45.09998" lon="5.59656">
        <ele>1430</ele>
        <time>2010-07-14T07:50:31Z</time>
      </trkpt>
      <trkpt lat="45.09996" lon="5.59655">
        <ele>1428</ele>
        <time>2010-07-14T07:50:40Z</time>
      </trkpt>
      <trkpt lat="45.09995" lon="5.59653">
        <ele>1432</ele>
        <time>2010-07-14T07:51:15Z</time>
      </trkpt>
      <trkpt lat="45.09993" lon="5.59653">
        <ele>1432</ele>
        <time>2010-07-14T07:51:23Z</time>
      </trkpt>
      <trkpt lat="45.09994" lon="5.59653">
        <ele>1432</ele>
        <time>2010-07-14T07:51:31Z</time>
      </trkpt>
      <trkpt lat="45.09995" lon="5.5965">
        <ele>1433</ele>
        <time>2010-07-14T07:51:58Z</time>
      </trkpt>
      <trkpt lat="45.1" lon="5.59653">
        <ele>1433</ele>
        <time>2010-07-14T07:52:05Z</time>
      </trkpt>
      <trkpt lat="45.10001" lon="5.59655">
        <ele>1429</ele>
        <time>2010-07-14T07:52:14Z</time>
      </trkpt>
      <trkpt lat="45.09996" lon="5.59641">
        <ele>1429</ele>
        <time>2010-07-14T07:52:21Z</time>
      </trkpt>
      <trkpt lat="45.09952" lon="5.59622">
        <ele>1429</ele>
        <time>2010-07-14T07:52:28Z</time>
      </trkpt>
      <trkpt lat="45.09915" lon="5.59578">
        <ele>1429</ele>
        <time>2010-07-14T07:52:36Z</time>
      </trkpt>
      <trkpt lat="45.09875" lon="5.59553">
        <ele>1426</ele>
        <time>2010-07-14T07:52:43Z</time>
      </trkpt>
      <trkpt lat="45.09849" lon="5.59593">
        <ele>1419</ele>
        <time>2010-07-14T07:52:50Z</time>
      </trkpt>
      <trkpt lat="45.09826" lon="5.59656">
        <ele>1413</ele>
        <time>2010-07-14T07:52:57Z</time>
      </trkpt>
      <trkpt lat="45.098" lon="5.59702">
        <ele>1411</ele>
        <time>2010-07-14T07:53:04Z</time>
      </trkpt>
      <trkpt lat="45.09753" lon="5.59704">
        <ele>1409</ele>
        <time>2010-07-14T07:53:12Z</time>
      </trkpt>
      <trkpt lat="45.09705" lon="5.59689">
        <ele>1404</ele>
        <time>2010-07-14T07:53:19Z</time>
      </trkpt>
      <trkpt lat="45.09656" lon="5.59667">
        <ele>1404</ele>
        <time>2010-07-14T07:53:27Z</time>
      </trkpt>
      <trkpt lat="45.09596" lon="5.59668">
        <ele>1402</ele>
        <time>2010-07-14T07:53:34Z</time>
      </trkpt>
      <trkpt lat="45.0955" lon="5.59656">
        <ele>1399</ele>
        <time>2010-07-14T07:53:41Z</time>
      </trkpt>
      <trkpt lat="45.09519" lon="5.59623">
        <ele>1399</ele>
        <time>2010-07-14T07:53:48Z</time>
      </trkpt>
      <trkpt lat="45.09473" lon="5.59616">
        <ele>1398</ele>
        <time>2010-07-14T07:53:55Z</time>
      </trkpt>
      <trkpt lat="45.09436" lon="5.5958">
        <ele>1398</ele>
        <time>2010-07-14T07:54:02Z</time>
      </trkpt>
      <trkpt lat="45.09422" lon="5.59506">
        <ele>1397</ele>
        <time>2010-07-14T07:54:09Z</time>
      </trkpt>
      <trkpt lat="45.09376" lon="5.59473">
        <ele>1391</ele>
        <time>2010-07-14T07:54:17Z</time>
      </trkpt>
      <trkpt lat="45.0932" lon="5.59485">
        <ele>1383</ele>
        <time>2010-07-14T07:54:24Z</time>
      </trkpt>
      <trkpt lat="45.09295" lon="5.59495">
        <ele>1382</ele>
        <time>2010-07-14T07:54:32Z</time>
      </trkpt>
      <trkpt lat="45.09267" lon="5.59505">
        <ele>1382</ele>
        <time>2010-07-14T07:54:42Z</time>
      </trkpt>
      <trkpt lat="45.09244" lon="5.59508">
        <ele>1383</ele>
        <time>2010-07-14T07:54:49Z</time>
      </trkpt>
      <trkpt lat="45.09228" lon="5.5951">
        <ele>1386</ele>
        <time>2010-07-14T07:54:56Z</time>
      </trkpt>
      <trkpt lat="45.09211" lon="5.5951">
        <ele>1389</ele>
        <time>2010-07-14T07:55:04Z</time>
      </trkpt>
      <trkpt lat="45.09193" lon="5.59508">
        <ele>1389</ele>
        <time>2010-07-14T07:55:11Z</time>
      </trkpt>
      <trkpt lat="45.09173" lon="5.59518">
        <ele>1389</ele>
        <time>2010-07-14T07:55:18Z</time>
      </trkpt>
      <trkpt lat="45.09165" lon="5.59523">
        <ele>1389</ele>
        <time>2010-07-14T07:55:26Z</time>
      </trkpt>
      <trkpt lat="45.09163" lon="5.59518">
        <ele>1392</ele>
        <time>2010-07-14T07:55:39Z</time>
      </trkpt>
      <trkpt lat="45.09161" lon="5.59515">
        <ele>1395</ele>
        <time>2010-07-14T07:55:51Z</time>
      </trkpt>
      <trkpt lat="45.09158" lon="5.59516">
        <ele>1395</ele>
        <time>2010-07-14T07:55:58Z</time>
      </trkpt>
      <trkpt lat="45.09142" lon="5.59526">
        <ele>1395</ele>
        <time>2010-07-14T07:56:05Z</time>
      </trkpt>
      <trkpt lat="45.09122" lon="5.59531">
        <ele>1398</ele>
        <time>2010-07-14T07:56:12Z</time>
      </trkpt>
      <trkpt lat="45.09099" lon="5.59527">
        <ele>1398</ele>
        <time>2010-07-14T07:56:19Z</time>
      </trkpt>
      <trkpt lat="45.09074" lon="5.59517">
        <ele>1398</ele>
        <time>2010-07-14T07:56:26Z</time>
      </trkpt>
      <trkpt lat="45.09052" lon="5.59505">
        <ele>1398</ele>
        <time>2010-07-14T07:56:33Z</time>
      </trkpt>
      <trkpt lat="45.09032" lon="5.5949">
        <ele>1399</ele>
        <time>2010-07-14T07:56:40Z</time>
      </trkpt>
      <trkpt lat="45.08996" lon="5.5946">
        <ele>1401</ele>
        <time>2010-07-14T07:56:47Z</time>
      </trkpt>
      <trkpt lat="45.08936" lon="5.59413">
        <ele>1401</ele>
        <time>2010-07-14T07:56:54Z</time>
      </trkpt>
      <trkpt lat="45.08915" lon="5.59431">
        <ele>1399</ele>
        <time>2010-07-14T07:57:02Z</time>
      </trkpt>
      <trkpt lat="45.08896" lon="5.59445">
        <ele>1398</ele>
        <time>2010-07-14T07:57:09Z</time>
      </trkpt>
      <trkpt lat="45.08883" lon="5.59459">
        <ele>1399</ele>
        <time>2010-07-14T07:57:17Z</time>
      </trkpt>
      <trkpt lat="45.08866" lon="5.59469">
        <ele>1401</ele>
        <time>2010-07-14T07:57:24Z</time>
      </trkpt>
      <trkpt lat="45.08846" lon="5.59477">
        <ele>1403</ele>
        <time>2010-07-14T07:57:31Z</time>
      </trkpt>
      <trkpt lat="45.08817" lon="5.59497">
        <ele>1403</ele>
        <time>2010-07-14T07:57:38Z</time>
      </trkpt>
      <trkpt lat="45.08767" lon="5.59494">
        <ele>1401</ele>
        <time>2010-07-14T07:57:45Z</time>
      </trkpt>
      <trkpt lat="45.08705" lon="5.59457">
        <ele>1398</ele>
        <time>2010-07-14T07:57:53Z</time>
      </trkpt>
      <trkpt lat="45.08683" lon="5.59434">
        <ele>1396</ele>
        <time>2010-07-14T07:58:00Z</time>
      </trkpt>
      <trkpt lat="45.08681" lon="5.59404">
        <ele>1391</ele>
        <time>2010-07-14T07:58:10Z</time>
      </trkpt>
      <trkpt lat="45.08682" lon="5.59396">
        <ele>1390</ele>
        <time>2010-07-14T07:58:18Z</time>
      </trkpt>
      <trkpt lat="45.08675" lon="5.59392">
        <ele>1390</ele>
        <time>2010-07-14T07:58:30Z</time>
      </trkpt>
      <trkpt lat="45.08678" lon="5.5939">
        <ele>1390</ele>
        <time>2010-07-14T07:58:49Z</time>
      </trkpt>
      <trkpt lat="45.08681" lon="5.59396">
        <ele>1390</ele>
        <time>2010-07-14T07:58:58Z</time>
      </trkpt>
      <trkpt lat="45.0868" lon="5.59397">
        <ele>1388</ele>
        <time>2010-07-14T07:59:18Z</time>
      </trkpt>
      <trkpt lat="45.0868" lon="5.59399">
        <ele>1387</ele>
        <time>2010-07-14T07:59:47Z</time>
      </trkpt>
      <trkpt lat="45.08684" lon="5.59398">
        <ele>1387</ele>
        <time>2010-07-14T07:59:54Z</time>
      </trkpt>
      <trkpt lat="45.08681" lon="5.59396">
        <ele>1387</ele>
        <time>2010-07-14T08:00:10Z</time>
      </trkpt>
      <trkpt lat="45.0868" lon="5.59396">
        <ele>1387</ele>
        <time>2010-07-14T08:00:20Z</time>
      </trkpt>
      <trkpt lat="45.08679" lon="5.59394">
        <ele>1387</ele>
        <time>2010-07-14T08:00:37Z</time>
      </trkpt>
      <trkpt lat="45.08678" lon="5.59393">
        <ele>1387</ele>
        <time>2010-07-14T08:00:56Z</time>
      </trkpt>
      <trkpt lat="45.08676" lon="5.59391">
        <ele>1387</ele>
        <time>2010-07-14T08:01:14Z</time>
      </trkpt>
      <trkpt lat="45.08673" lon="5.59391">
        <ele>1387</ele>
        <time>2010-07-14T08:01:22Z</time>
      </trkpt>
      <trkpt lat="45.08665" lon="5.59402">
        <ele>1387</ele>
        <time>2010-07-14T08:01:30Z</time>
      </trkpt>
      <trkpt lat="45.08658" lon="5.59419">
        <ele>1387</ele>
        <time>2010-07-14T08:01:38Z</time>
      </trkpt>
      <trkpt lat="45.08652" lon="5.59432">
        <ele>1387</ele>
        <time>2010-07-14T08:01:47Z</time>
      </trkpt>
      <trkpt lat="45.08641" lon="5.59455">
        <ele>1387</ele>
        <time>2010-07-14T08:01:55Z</time>
      </trkpt>
      <trkpt lat="45.0863" lon="5.59476">
        <ele>1387</ele>
        <time>2010-07-14T08:02:02Z</time>
      </trkpt>
      <trkpt lat="45.08626" lon="5.59489">
        <ele>1387</ele>
        <time>2010-07-14T08:02:10Z</time>
      </trkpt>
      <trkpt lat="45.08623" lon="5.59501">
        <ele>1388</ele>
        <time>2010-07-14T08:02:17Z</time>
      </trkpt>
      <trkpt lat="45.08619" lon="5.59512">
        <ele>1391</ele>
        <time>2010-07-14T08:02:25Z</time>
      </trkpt>
      <trkpt lat="45.08617" lon="5.5953">
        <ele>1392</ele>
        <time>2010-07-14T08:02:33Z</time>
      </trkpt>
      <trkpt lat="45.08619" lon="5.59542">
        <ele>1392</ele>
        <time>2010-07-14T08:02:40Z</time>
      </trkpt>
      <trkpt lat="45.08638" lon="5.59566">
        <ele>1392</ele>
        <time>2010-07-14T08:02:48Z</time>
      </trkpt>
      <trkpt lat="45.08628" lon="5.59583">
        <ele>1392</ele>
        <time>2010-07-14T08:02:56Z</time>
      </trkpt>
      <trkpt lat="45.08603" lon="5.59613">
        <ele>1389</ele>
        <time>2010-07-14T08:03:04Z</time>
      </trkpt>
      <trkpt lat="45.08595" lon="5.59635">
        <ele>1385</ele>
        <time>2010-07-14T08:03:11Z</time>
      </trkpt>
      <trkpt lat="45.08551" lon="5.59692">
        <ele>1379</ele>
        <time>2010-07-14T08:03:19Z</time>
      </trkpt>
      <trkpt lat="45.08511" lon="5.59692">
        <ele>1375</ele>
        <time>2010-07-14T08:03:27Z</time>
      </trkpt>
      <trkpt lat="45.08481" lon="5.59718">
        <ele>1374</ele>
        <time>2010-07-14T08:03:34Z</time>
      </trkpt>
      <trkpt lat="45.08472" lon="5.59758">
        <ele>1371</ele>
        <time>2010-07-14T08:03:43Z</time>
      </trkpt>
      <trkpt lat="45.08417" lon="5.59767">
        <ele>1363</ele>
        <time>2010-07-14T08:03:52Z</time>
      </trkpt>
      <trkpt lat="45.08363" lon="5.59781">
        <ele>1359</ele>
        <time>2010-07-14T08:04:01Z</time>
      </trkpt>
      <trkpt lat="45.08298" lon="5.59812">
        <ele>1355</ele>
        <time>2010-07-14T08:04:08Z</time>
      </trkpt>
      <trkpt lat="45.0826" lon="5.59761">
        <ele>1349</ele>
        <time>2010-07-14T08:04:17Z</time>
      </trkpt>
      <trkpt lat="45.08231" lon="5.59723">
        <ele>1343</ele>
        <time>2010-07-14T08:04:24Z</time>
      </trkpt>
      <trkpt lat="45.08144" lon="5.59648">
        <ele>1336</ele>
        <time>2010-07-14T08:04:31Z</time>
      </trkpt>
      <trkpt lat="45.08096" lon="5.59631">
        <ele>1329</ele>
        <time>2010-07-14T08:04:39Z</time>
      </trkpt>
      <trkpt lat="45.0808" lon="5.59626">
        <ele>1323</ele>
        <time>2010-07-14T08:04:48Z</time>
      </trkpt>
      <trkpt lat="45.08049" lon="5.59607">
        <ele>1319</ele>
        <time>2010-07-14T08:04:57Z</time>
      </trkpt>
      <trkpt lat="45.08012" lon="5.59584">
        <ele>1319</ele>
        <time>2010-07-14T08:05:04Z</time>
      </trkpt>
      <trkpt lat="45.07981" lon="5.59553">
        <ele>1319</ele>
        <time>2010-07-14T08:05:12Z</time>
      </trkpt>
      <trkpt lat="45.07953" lon="5.59507">
        <ele>1316</ele>
        <time>2010-07-14T08:05:21Z</time>
      </trkpt>
      <trkpt lat="45.07949" lon="5.59483">
        <ele>1313</ele>
        <time>2010-07-14T08:05:29Z</time>
      </trkpt>
      <trkpt lat="45.07917" lon="5.59456">
        <ele>1307</ele>
        <time>2010-07-14T08:05:38Z</time>
      </trkpt>
      <trkpt lat="45.07891" lon="5.59408">
        <ele>1304</ele>
        <time>2010-07-14T08:05:46Z</time>
      </trkpt>
      <trkpt lat="45.07874" lon="5.59372">
        <ele>1301</ele>
        <time>2010-07-14T08:05:54Z</time>
      </trkpt>
      <trkpt lat="45.07864" lon="5.59367">
        <ele>1298</ele>
        <time>2010-07-14T08:06:01Z</time>
      </trkpt>
      <trkpt lat="45.07809" lon="5.59329">
        <ele>1294</ele>
        <time>2010-07-14T08:06:10Z</time>
      </trkpt>
      <trkpt lat="45.07799" lon="5.59308">
        <ele>1291</ele>
        <time>2010-07-14T08:06:18Z</time>
      </trkpt>
      <trkpt lat="45.07794" lon="5.59293">
        <ele>1288</ele>
        <time>2010-07-14T08:06:27Z</time>
      </trkpt>
      <trkpt lat="45.07791" lon="5.59293">
        <ele>1289</ele>
        <time>2010-07-14T08:06:34Z</time>
      </trkpt>
      <trkpt lat="45.07785" lon="5.59295">
        <ele>1286</ele>
        <time>2010-07-14T08:06:45Z</time>
      </trkpt>
      <trkpt lat="45.07785" lon="5.59293">
        <ele>1281</ele>
        <time>2010-07-14T08:06:54Z</time>
      </trkpt>
      <trkpt lat="45.07788" lon="5.59291">
        <ele>1281</ele>
        <time>2010-07-14T08:07:05Z</time>
      </trkpt>
      <trkpt lat="45.07788" lon="5.59292">
        <ele>1281</ele>
        <time>2010-07-14T08:07:14Z</time>
      </trkpt>
      <trkpt lat="45.07788" lon="5.59298">
        <ele>1282</ele>
        <time>2010-07-14T08:07:28Z</time>
      </trkpt>
      <trkpt lat="45.07787" lon="5.59296">
        <ele>1282</ele>
        <time>2010-07-14T08:07:36Z</time>
      </trkpt>
      <trkpt lat="45.07786" lon="5.59287">
        <ele>1282</ele>
        <time>2010-07-14T08:07:43Z</time>
      </trkpt>
      <trkpt lat="45.0778" lon="5.59263">
        <ele>1284</ele>
        <time>2010-07-14T08:07:50Z</time>
      </trkpt>
      <trkpt lat="45.07774" lon="5.59211">
        <ele>1291</ele>
        <time>2010-07-14T08:07:57Z</time>
      </trkpt>
      <trkpt lat="45.07764" lon="5.59164">
        <ele>1300</ele>
        <time>2010-07-14T08:08:04Z</time>
      </trkpt>
      <trkpt lat="45.07751" lon="5.59125">
        <ele>1307</ele>
        <time>2010-07-14T08:08:11Z</time>
      </trkpt>
      <trkpt lat="45.07739" lon="5.59085">
        <ele>1310</ele>
        <time>2010-07-14T08:08:18Z</time>
      </trkpt>
      <trkpt lat="45.07719" lon="5.59028">
        <ele>1306</ele>
        <time>2010-07-14T08:08:25Z</time>
      </trkpt>
      <trkpt lat="45.07707" lon="5.58994">
        <ele>1298</ele>
        <time>2010-07-14T08:08:32Z</time>
      </trkpt>
      <trkpt lat="45.07691" lon="5.58952">
        <ele>1289</ele>
        <time>2010-07-14T08:08:39Z</time>
      </trkpt>
      <trkpt lat="45.0768" lon="5.58913">
        <ele>1282</ele>
        <time>2010-07-14T08:08:46Z</time>
      </trkpt>
      <trkpt lat="45.07682" lon="5.58851">
        <ele>1270</ele>
        <time>2010-07-14T08:08:53Z</time>
      </trkpt>
      <trkpt lat="45.07659" lon="5.58777">
        <ele>1257</ele>
        <time>2010-07-14T08:09:00Z</time>
      </trkpt>
      <trkpt lat="45.07639" lon="5.58703">
        <ele>1250</ele>
        <time>2010-07-14T08:09:07Z</time>
      </trkpt>
      <trkpt lat="45.07623" lon="5.58637">
        <ele>1245</ele>
        <time>2010-07-14T08:09:14Z</time>
      </trkpt>
      <trkpt lat="45.07598" lon="5.58573">
        <ele>1238</ele>
        <time>2010-07-14T08:09:21Z</time>
      </trkpt>
      <trkpt lat="45.07552" lon="5.58507">
        <ele>1231</ele>
        <time>2010-07-14T08:09:28Z</time>
      </trkpt>
      <trkpt lat="45.075" lon="5.58454">
        <ele>1224</ele>
        <time>2010-07-14T08:09:36Z</time>
      </trkpt>
      <trkpt lat="45.07447" lon="5.58369">
        <ele>1216</ele>
        <time>2010-07-14T08:09:43Z</time>
      </trkpt>
      <trkpt lat="45.07406" lon="5.58325">
        <ele>1215</ele>
        <time>2010-07-14T08:09:50Z</time>
      </trkpt>
      <trkpt lat="45.07383" lon="5.58296">
        <ele>1215</ele>
        <time>2010-07-14T08:09:57Z</time>
      </trkpt>
      <trkpt lat="45.07362" lon="5.58261">
        <ele>1215</ele>
        <time>2010-07-14T08:10:04Z</time>
      </trkpt>
      <trkpt lat="45.07326" lon="5.58179">
        <ele>1211</ele>
        <time>2010-07-14T08:10:12Z</time>
      </trkpt>
      <trkpt lat="45.0728" lon="5.58095">
        <ele>1203</ele>
        <time>2010-07-14T08:10:20Z</time>
      </trkpt>
      <trkpt lat="45.07278" lon="5.58035">
        <ele>1194</ele>
        <time>2010-07-14T08:10:27Z</time>
      </trkpt>
      <trkpt lat="45.07302" lon="5.57969">
        <ele>1187</ele>
        <time>2010-07-14T08:10:34Z</time>
      </trkpt>
      <trkpt lat="45.07301" lon="5.57925">
        <ele>1179</ele>
        <time>2010-07-14T08:10:41Z</time>
      </trkpt>
      <trkpt lat="45.07275" lon="5.57905">
        <ele>1174</ele>
        <time>2010-07-14T08:10:48Z</time>
      </trkpt>
      <trkpt lat="45.07252" lon="5.57898">
        <ele>1174</ele>
        <time>2010-07-14T08:10:55Z</time>
      </trkpt>
      <trkpt lat="45.07226" lon="5.57889">
        <ele>1174</ele>
        <time>2010-07-14T08:11:02Z</time>
      </trkpt>
      <trkpt lat="45.07196" lon="5.57883">
        <ele>1174</ele>
        <time>2010-07-14T08:11:09Z</time>
      </trkpt>
      <trkpt lat="45.0719" lon="5.57866">
        <ele>1174</ele>
        <time>2010-07-14T08:11:16Z</time>
      </trkpt>
      <trkpt lat="45.07196" lon="5.578">
        <ele>1173</ele>
        <time>2010-07-14T08:11:23Z</time>
      </trkpt>
      <trkpt lat="45.07174" lon="5.5773">
        <ele>1168</ele>
        <time>2010-07-14T08:11:30Z</time>
      </trkpt>
      <trkpt lat="45.07153" lon="5.57675">
        <ele>1163</ele>
        <time>2010-07-14T08:11:37Z</time>
      </trkpt>
      <trkpt lat="45.07169" lon="5.57642">
        <ele>1156</ele>
        <time>2010-07-14T08:11:44Z</time>
      </trkpt>
      <trkpt lat="45.07163" lon="5.57604">
        <ele>1149</ele>
        <time>2010-07-14T08:11:51Z</time>
      </trkpt>
      <trkpt lat="45.07155" lon="5.57586">
        <ele>1142</ele>
        <time>2010-07-14T08:11:58Z</time>
      </trkpt>
      <trkpt lat="45.07183" lon="5.57592">
        <ele>1134</ele>
        <time>2010-07-14T08:12:05Z</time>
      </trkpt>
      <trkpt lat="45.07203" lon="5.57574">
        <ele>1125</ele>
        <time>2010-07-14T08:12:12Z</time>
      </trkpt>
      <trkpt lat="45.07227" lon="5.57552">
        <ele>1111</ele>
        <time>2010-07-14T08:12:19Z</time>
      </trkpt>
      <trkpt lat="45.07249" lon="5.57525">
        <ele>1103</ele>
        <time>2010-07-14T08:12:26Z</time>
      </trkpt>
      <trkpt lat="45.07251" lon="5.57486">
        <ele>1101</ele>
        <time>2010-07-14T08:12:33Z</time>
      </trkpt>
      <trkpt lat="45.07246" lon="5.57441">
        <ele>1101</ele>
        <time>2010-07-14T08:12:40Z</time>
      </trkpt>
      <trkpt lat="45.07224" lon="5.57436">
        <ele>1096</ele>
        <time>2010-07-14T08:12:47Z</time>
      </trkpt>
      <trkpt lat="45.07241" lon="5.57432">
        <ele>1093</ele>
        <time>2010-07-14T08:12:54Z</time>
      </trkpt>
      <trkpt lat="45.07236" lon="5.57406">
        <ele>1088</ele>
        <time>2010-07-14T08:13:01Z</time>
      </trkpt>
      <trkpt lat="45.0722" lon="5.57368">
        <ele>1082</ele>
        <time>2010-07-14T08:13:08Z</time>
      </trkpt>
      <trkpt lat="45.07217" lon="5.57364">
        <ele>1079</ele>
        <time>2010-07-14T08:13:16Z</time>
      </trkpt>
      <trkpt lat="45.07205" lon="5.5737">
        <ele>1079</ele>
        <time>2010-07-14T08:13:23Z</time>
      </trkpt>
      <trkpt lat="45.07194" lon="5.57384">
        <ele>1079</ele>
        <time>2010-07-14T08:13:30Z</time>
      </trkpt>
      <trkpt lat="45.07182" lon="5.57371">
        <ele>1079</ele>
        <time>2010-07-14T08:13:37Z</time>
      </trkpt>
      <trkpt lat="45.07156" lon="5.57335">
        <ele>1079</ele>
        <time>2010-07-14T08:13:44Z</time>
      </trkpt>
      <trkpt lat="45.07141" lon="5.57318">
        <ele>1081</ele>
        <time>2010-07-14T08:13:52Z</time>
      </trkpt>
      <trkpt lat="45.07134" lon="5.57306">
        <ele>1083</ele>
        <time>2010-07-14T08:13:59Z</time>
      </trkpt>
      <trkpt lat="45.07127" lon="5.57291">
        <ele>1086</ele>
        <time>2010-07-14T08:14:06Z</time>
      </trkpt>
      <trkpt lat="45.07122" lon="5.57273">
        <ele>1089</ele>
        <time>2010-07-14T08:14:13Z</time>
      </trkpt>
      <trkpt lat="45.07121" lon="5.57252">
        <ele>1091</ele>
        <time>2010-07-14T08:14:20Z</time>
      </trkpt>
      <trkpt lat="45.07132" lon="5.57201">
        <ele>1091</ele>
        <time>2010-07-14T08:14:27Z</time>
      </trkpt>
      <trkpt lat="45.07161" lon="5.57149">
        <ele>1089</ele>
        <time>2010-07-14T08:14:34Z</time>
      </trkpt>
      <trkpt lat="45.07182" lon="5.57086">
        <ele>1082</ele>
        <time>2010-07-14T08:14:41Z</time>
      </trkpt>
      <trkpt lat="45.0721" lon="5.57023">
        <ele>1072</ele>
        <time>2010-07-14T08:14:48Z</time>
      </trkpt>
      <trkpt lat="45.07241" lon="5.5697">
        <ele>1064</ele>
        <time>2010-07-14T08:14:55Z</time>
      </trkpt>
      <trkpt lat="45.07248" lon="5.56927">
        <ele>1057</ele>
        <time>2010-07-14T08:15:02Z</time>
      </trkpt>
      <trkpt lat="45.07248" lon="5.56912">
        <ele>1053</ele>
        <time>2010-07-14T08:15:09Z</time>
      </trkpt>
      <trkpt lat="45.07248" lon="5.56897">
        <ele>1053</ele>
        <time>2010-07-14T08:15:16Z</time>
      </trkpt>
      <trkpt lat="45.07251" lon="5.56875">
        <ele>1055</ele>
        <time>2010-07-14T08:15:23Z</time>
      </trkpt>
      <trkpt lat="45.07287" lon="5.56838">
        <ele>1054</ele>
        <time>2010-07-14T08:15:30Z</time>
      </trkpt>
      <trkpt lat="45.07342" lon="5.56796">
        <ele>1047</ele>
        <time>2010-07-14T08:15:37Z</time>
      </trkpt>
      <trkpt lat="45.07398" lon="5.56777">
        <ele>1039</ele>
        <time>2010-07-14T08:15:44Z</time>
      </trkpt>
      <trkpt lat="45.07441" lon="5.56773">
        <ele>1033</ele>
        <time>2010-07-14T08:15:51Z</time>
      </trkpt>
      <trkpt lat="45.07486" lon="5.56767">
        <ele>1030</ele>
        <time>2010-07-14T08:15:58Z</time>
      </trkpt>
      <trkpt lat="45.075" lon="5.56756">
        <ele>1026</ele>
        <time>2010-07-14T08:16:05Z</time>
      </trkpt>
      <trkpt lat="45.0751" lon="5.56704">
        <ele>1024</ele>
        <time>2010-07-14T08:16:12Z</time>
      </trkpt>
      <trkpt lat="45.07512" lon="5.56632">
        <ele>1021</ele>
        <time>2010-07-14T08:16:19Z</time>
      </trkpt>
      <trkpt lat="45.07495" lon="5.56587">
        <ele>1017</ele>
        <time>2010-07-14T08:16:26Z</time>
      </trkpt>
      <trkpt lat="45.0748" lon="5.56561">
        <ele>1015</ele>
        <time>2010-07-14T08:16:33Z</time>
      </trkpt>
      <trkpt lat="45.07473" lon="5.56548">
        <ele>1015</ele>
        <time>2010-07-14T08:16:40Z</time>
      </trkpt>
      <trkpt lat="45.07468" lon="5.56537">
        <ele>1015</ele>
        <time>2010-07-14T08:16:47Z</time>
      </trkpt>
      <trkpt lat="45.07461" lon="5.56523">
        <ele>1015</ele>
        <time>2010-07-14T08:16:54Z</time>
      </trkpt>
      <trkpt lat="45.07456" lon="5.56507">
        <ele>1015</ele>
        <time>2010-07-14T08:17:01Z</time>
      </trkpt>
      <trkpt lat="45.07447" lon="5.5649">
        <ele>1015</ele>
        <time>2010-07-14T08:17:12Z</time>
      </trkpt>
      <trkpt lat="45.07427" lon="5.56469">
        <ele>1015</ele>
        <time>2010-07-14T08:17:20Z</time>
      </trkpt>
      <trkpt lat="45.07409" lon="5.56459">
        <ele>1017</ele>
        <time>2010-07-14T08:17:27Z</time>
      </trkpt>
      <trkpt lat="45.07394" lon="5.5645">
        <ele>1019</ele>
        <time>2010-07-14T08:17:34Z</time>
      </trkpt>
      <trkpt lat="45.07375" lon="5.56439">
        <ele>1020</ele>
        <time>2010-07-14T08:17:41Z</time>
      </trkpt>
      <trkpt lat="45.07356" lon="5.56431">
        <ele>1022</ele>
        <time>2010-07-14T08:17:48Z</time>
      </trkpt>
      <trkpt lat="45.07339" lon="5.56427">
        <ele>1022</ele>
        <time>2010-07-14T08:17:55Z</time>
      </trkpt>
      <trkpt lat="45.07322" lon="5.56424">
        <ele>1022</ele>
        <time>2010-07-14T08:18:02Z</time>
      </trkpt>
      <trkpt lat="45.07307" lon="5.56424">
        <ele>1024</ele>
        <time>2010-07-14T08:18:09Z</time>
      </trkpt>
      <trkpt lat="45.07297" lon="5.56413">
        <ele>1025</ele>
        <time>2010-07-14T08:18:16Z</time>
      </trkpt>
      <trkpt lat="45.07306" lon="5.56402">
        <ele>1026</ele>
        <time>2010-07-14T08:18:23Z</time>
      </trkpt>
      <trkpt lat="45.07318" lon="5.56394">
        <ele>1027</ele>
        <time>2010-07-14T08:18:30Z</time>
      </trkpt>
      <trkpt lat="45.07332" lon="5.56385">
        <ele>1027</ele>
        <time>2010-07-14T08:18:37Z</time>
      </trkpt>
      <trkpt lat="45.07345" lon="5.56377">
        <ele>1027</ele>
        <time>2010-07-14T08:18:44Z</time>
      </trkpt>
      <trkpt lat="45.07359" lon="5.56371">
        <ele>1027</ele>
        <time>2010-07-14T08:18:51Z</time>
      </trkpt>
      <trkpt lat="45.07374" lon="5.56367">
        <ele>1027</ele>
        <time>2010-07-14T08:18:58Z</time>
      </trkpt>
      <trkpt lat="45.07388" lon="5.56354">
        <ele>1030</ele>
        <time>2010-07-14T08:19:05Z</time>
      </trkpt>
      <trkpt lat="45.07396" lon="5.56329">
        <ele>1031</ele>
        <time>2010-07-14T08:19:12Z</time>
      </trkpt>
      <trkpt lat="45.074" lon="5.56283">
        <ele>1032</ele>
        <time>2010-07-14T08:19:19Z</time>
      </trkpt>
      <trkpt lat="45.07404" lon="5.56234">
        <ele>1032</ele>
        <time>2010-07-14T08:19:26Z</time>
      </trkpt>
      <trkpt lat="45.07403" lon="5.56192">
        <ele>1032</ele>
        <time>2010-07-14T08:19:33Z</time>
      </trkpt>
      <trkpt lat="45.07402" lon="5.56169">
        <ele>1033</ele>
        <time>2010-07-14T08:19:40Z</time>
      </trkpt>
      <trkpt lat="45.07396" lon="5.56134">
        <ele>1033</ele>
        <time>2010-07-14T08:19:47Z</time>
      </trkpt>
      <trkpt lat="45.07386" lon="5.56086">
        <ele>1033</ele>
        <time>2010-07-14T08:19:54Z</time>
      </trkpt>
      <trkpt lat="45.0738" lon="5.56054">
        <ele>1033</ele>
        <time>2010-07-14T08:20:01Z</time>
      </trkpt>
      <trkpt lat="45.07377" lon="5.56032">
        <ele>1033</ele>
        <time>2010-07-14T08:20:08Z</time>
      </trkpt>
      <trkpt lat="45.07353" lon="5.55991">
        <ele>1034</ele>
        <time>2010-07-14T08:20:15Z</time>
      </trkpt>
      <trkpt lat="45.07328" lon="5.55962">
        <ele>1033</ele>
        <time>2010-07-14T08:20:22Z</time>
      </trkpt>
      <trkpt lat="45.07328" lon="5.5591">
        <ele>1029</ele>
        <time>2010-07-14T08:20:32Z</time>
      </trkpt>
      <trkpt lat="45.07319" lon="5.55837">
        <ele>1026</ele>
        <time>2010-07-14T08:20:39Z</time>
      </trkpt>
      <trkpt lat="45.07323" lon="5.55764">
        <ele>1025</ele>
        <time>2010-07-14T08:20:50Z</time>
      </trkpt>
      <trkpt lat="45.07321" lon="5.55729">
        <ele>1025</ele>
        <time>2010-07-14T08:20:57Z</time>
      </trkpt>
      <trkpt lat="45.07318" lon="5.55699">
        <ele>1026</ele>
        <time>2010-07-14T08:21:04Z</time>
      </trkpt>
      <trkpt lat="45.07311" lon="5.55676">
        <ele>1028</ele>
        <time>2010-07-14T08:21:12Z</time>
      </trkpt>
      <trkpt lat="45.07317" lon="5.55654">
        <ele>1030</ele>
        <time>2010-07-14T08:21:21Z</time>
      </trkpt>
      <trkpt lat="45.07334" lon="5.55597">
        <ele>1032</ele>
        <time>2010-07-14T08:21:28Z</time>
      </trkpt>
      <trkpt lat="45.07353" lon="5.55551">
        <ele>1032</ele>
        <time>2010-07-14T08:21:35Z</time>
      </trkpt>
      <trkpt lat="45.07375" lon="5.55501">
        <ele>1032</ele>
        <time>2010-07-14T08:21:42Z</time>
      </trkpt>
      <trkpt lat="45.07381" lon="5.55448">
        <ele>1031</ele>
        <time>2010-07-14T08:21:49Z</time>
      </trkpt>
      <trkpt lat="45.07372" lon="5.55431">
        <ele>1028</ele>
        <time>2010-07-14T08:21:58Z</time>
      </trkpt>
      <trkpt lat="45.07363" lon="5.55424">
        <ele>1024</ele>
        <time>2010-07-14T08:22:24Z</time>
      </trkpt>
      <trkpt lat="45.07363" lon="5.55429">
        <ele>1023</ele>
        <time>2010-07-14T08:22:33Z</time>
      </trkpt>
      <trkpt lat="45.07363" lon="5.55431">
        <ele>1019</ele>
        <time>2010-07-14T08:22:41Z</time>
      </trkpt>
      <trkpt lat="45.07364" lon="5.55431">
        <ele>1015</ele>
        <time>2010-07-14T08:22:50Z</time>
      </trkpt>
      <trkpt lat="45.07365" lon="5.55429">
        <ele>1012</ele>
        <time>2010-07-14T08:22:58Z</time>
      </trkpt>
      <trkpt lat="45.07365" lon="5.55427">
        <ele>1012</ele>
        <time>2010-07-14T08:23:08Z</time>
      </trkpt>
      <trkpt lat="45.07365" lon="5.55424">
        <ele>1013</ele>
        <time>2010-07-14T08:23:17Z</time>
      </trkpt>
      <trkpt lat="45.07366" lon="5.55424">
        <ele>1013</ele>
        <time>2010-07-14T08:23:25Z</time>
      </trkpt>
      <trkpt lat="45.07366" lon="5.5542">
        <ele>1013</ele>
        <time>2010-07-14T08:23:34Z</time>
      </trkpt>
      <trkpt lat="45.07365" lon="5.5542">
        <ele>1013</ele>
        <time>2010-07-14T08:24:11Z</time>
      </trkpt>
      <trkpt lat="45.07366" lon="5.55419">
        <ele>1013</ele>
        <time>2010-07-14T08:24:18Z</time>
      </trkpt>
      <trkpt lat="45.07366" lon="5.5542">
        <ele>1014</ele>
        <time>2010-07-14T08:24:26Z</time>
      </trkpt>
      <trkpt lat="45.07368" lon="5.55425">
        <ele>1016</ele>
        <time>2010-07-14T08:24:35Z</time>
      </trkpt>
      <trkpt lat="45.07366" lon="5.55428">
        <ele>1019</ele>
        <time>2010-07-14T08:24:45Z</time>
      </trkpt>
      <trkpt lat="45.07373" lon="5.55437">
        <ele>1019</ele>
        <time>2010-07-14T08:24:55Z</time>
      </trkpt>
      <trkpt lat="45.07385" lon="5.55441">
        <ele>1019</ele>
        <time>2010-07-14T08:25:03Z</time>
      </trkpt>
      <trkpt lat="45.07362" lon="5.55419">
        <ele>1019</ele>
        <time>2010-07-14T08:25:11Z</time>
      </trkpt>
      <trkpt lat="45.0736" lon="5.55408">
        <ele>1019</ele>
        <time>2010-07-14T08:25:22Z</time>
      </trkpt>
      <trkpt lat="45.07352" lon="5.554">
        <ele>1019</ele>
        <time>2010-07-14T08:25:30Z</time>
      </trkpt>
      <trkpt lat="45.07329" lon="5.55375">
        <ele>1019</ele>
        <time>2010-07-14T08:25:37Z</time>
      </trkpt>
      <trkpt lat="45.07314" lon="5.5535">
        <ele>1019</ele>
        <time>2010-07-14T08:25:44Z</time>
      </trkpt>
      <trkpt lat="45.073" lon="5.55326">
        <ele>1019</ele>
        <time>2010-07-14T08:25:51Z</time>
      </trkpt>
      <trkpt lat="45.07286" lon="5.55305">
        <ele>1019</ele>
        <time>2010-07-14T08:25:58Z</time>
      </trkpt>
      <trkpt lat="45.07271" lon="5.55283">
        <ele>1019</ele>
        <time>2010-07-14T08:26:05Z</time>
      </trkpt>
      <trkpt lat="45.07255" lon="5.55262">
        <ele>1019</ele>
        <time>2010-07-14T08:26:12Z</time>
      </trkpt>
      <trkpt lat="45.07238" lon="5.55239">
        <ele>1021</ele>
        <time>2010-07-14T08:26:19Z</time>
      </trkpt>
      <trkpt lat="45.07224" lon="5.55218">
        <ele>1021</ele>
        <time>2010-07-14T08:26:26Z</time>
      </trkpt>
      <trkpt lat="45.07209" lon="5.55196">
        <ele>1021</ele>
        <time>2010-07-14T08:26:33Z</time>
      </trkpt>
      <trkpt lat="45.07195" lon="5.55176">
        <ele>1024</ele>
        <time>2010-07-14T08:26:40Z</time>
      </trkpt>
      <trkpt lat="45.07176" lon="5.55155">
        <ele>1027</ele>
        <time>2010-07-14T08:26:47Z</time>
      </trkpt>
      <trkpt lat="45.07165" lon="5.55153">
        <ele>1030</ele>
        <time>2010-07-14T08:26:55Z</time>
      </trkpt>
      <trkpt lat="45.07135" lon="5.55137">
        <ele>1033</ele>
        <time>2010-07-14T08:27:03Z</time>
      </trkpt>
      <trkpt lat="45.07121" lon="5.55131">
        <ele>1033</ele>
        <time>2010-07-14T08:27:11Z</time>
      </trkpt>
      <trkpt lat="45.07097" lon="5.55121">
        <ele>1033</ele>
        <time>2010-07-14T08:27:18Z</time>
      </trkpt>
      <trkpt lat="45.07086" lon="5.55115">
        <ele>1033</ele>
        <time>2010-07-14T08:27:25Z</time>
      </trkpt>
      <trkpt lat="45.07087" lon="5.55117">
        <ele>1033</ele>
        <time>2010-07-14T08:27:39Z</time>
      </trkpt>
      <trkpt lat="45.07087" lon="5.55115">
        <ele>1033</ele>
        <time>2010-07-14T08:27:46Z</time>
      </trkpt>
      <trkpt lat="45.07086" lon="5.55115">
        <ele>1031</ele>
        <time>2010-07-14T08:27:54Z</time>
      </trkpt>
      <trkpt lat="45.07088" lon="5.55113">
        <ele>1028</ele>
        <time>2010-07-14T08:28:14Z</time>
      </trkpt>
      <trkpt lat="45.07088" lon="5.55116">
        <ele>1028</ele>
        <time>2010-07-14T08:28:29Z</time>
      </trkpt>
      <trkpt lat="45.07089" lon="5.55117">
        <ele>1028</ele>
        <time>2010-07-14T08:28:48Z</time>
      </trkpt>
      <trkpt lat="45.0709" lon="5.55116">
        <ele>1028</ele>
        <time>2010-07-14T08:28:57Z</time>
      </trkpt>
      <trkpt lat="45.07087" lon="5.55118">
        <ele>1028</ele>
        <time>2010-07-14T08:29:07Z</time>
      </trkpt>
      <trkpt lat="45.0709" lon="5.55117">
        <ele>1028</ele>
        <time>2010-07-14T08:29:24Z</time>
      </trkpt>
      <trkpt lat="45.07088" lon="5.55116">
        <ele>1027</ele>
        <time>2010-07-14T08:29:43Z</time>
      </trkpt>
      <trkpt lat="45.07085" lon="5.55117">
        <ele>1025</ele>
        <time>2010-07-14T08:29:52Z</time>
      </trkpt>
      <trkpt lat="45.07084" lon="5.55116">
        <ele>1025</ele>
        <time>2010-07-14T08:30:01Z</time>
      </trkpt>
      <trkpt lat="45.07081" lon="5.55119">
        <ele>1025</ele>
        <time>2010-07-14T08:30:11Z</time>
      </trkpt>
      <trkpt lat="45.07083" lon="5.55117">
        <ele>1025</ele>
        <time>2010-07-14T08:30:20Z</time>
      </trkpt>
      <trkpt lat="45.07082" lon="5.55118">
        <ele>1024</ele>
        <time>2010-07-14T08:30:31Z</time>
      </trkpt>
      <trkpt lat="45.07084" lon="5.55118">
        <ele>1023</ele>
        <time>2010-07-14T08:30:39Z</time>
      </trkpt>
      <trkpt lat="45.07082" lon="5.55118">
        <ele>1023</ele>
        <time>2010-07-14T08:30:48Z</time>
      </trkpt>
      <trkpt lat="45.07082" lon="5.55116">
        <ele>1028</ele>
        <time>2010-07-14T08:31:06Z</time>
      </trkpt>
      <trkpt lat="45.07085" lon="5.55116">
        <ele>1028</ele>
        <time>2010-07-14T08:31:22Z</time>
      </trkpt>
      <trkpt lat="45.07087" lon="5.55118">
        <ele>1028</ele>
        <time>2010-07-14T08:31:29Z</time>
      </trkpt>
      <trkpt lat="45.07087" lon="5.5512">
        <ele>1026</ele>
        <time>2010-07-14T08:31:38Z</time>
      </trkpt>
      <trkpt lat="45.07085" lon="5.5512">
        <ele>1023</ele>
        <time>2010-07-14T08:31:47Z</time>
      </trkpt>
      <trkpt lat="45.07091" lon="5.55122">
        <ele>1018</ele>
        <time>2010-07-14T08:31:57Z</time>
      </trkpt>
      <trkpt lat="45.071" lon="5.55124">
        <ele>1018</ele>
        <time>2010-07-14T08:32:05Z</time>
      </trkpt>
      <trkpt lat="45.07117" lon="5.55133">
        <ele>1018</ele>
        <time>2010-07-14T08:32:12Z</time>
      </trkpt>
      <trkpt lat="45.07135" lon="5.55141">
        <ele>1020</ele>
        <time>2010-07-14T08:32:19Z</time>
      </trkpt>
      <trkpt lat="45.07169" lon="5.55157">
        <ele>1022</ele>
        <time>2010-07-14T08:32:26Z</time>
      </trkpt>
      <trkpt lat="45.0718" lon="5.55165">
        <ele>1022</ele>
        <time>2010-07-14T08:32:33Z</time>
      </trkpt>
      <trkpt lat="45.07207" lon="5.55202">
        <ele>1022</ele>
        <time>2010-07-14T08:32:42Z</time>
      </trkpt>
      <trkpt lat="45.07246" lon="5.55257">
        <ele>1022</ele>
        <time>2010-07-14T08:32:49Z</time>
      </trkpt>
      <trkpt lat="45.07264" lon="5.55287">
        <ele>1022</ele>
        <time>2010-07-14T08:32:56Z</time>
      </trkpt>
      <trkpt lat="45.07282" lon="5.55301">
        <ele>1022</ele>
        <time>2010-07-14T08:33:03Z</time>
      </trkpt>
      <trkpt lat="45.07286" lon="5.55289">
        <ele>1022</ele>
        <time>2010-07-14T08:33:12Z</time>
      </trkpt>
      <trkpt lat="45.07288" lon="5.5529">
        <ele>1022</ele>
        <time>2010-07-14T08:33:21Z</time>
      </trkpt>
      <trkpt lat="45.07289" lon="5.55291">
        <ele>1022</ele>
        <time>2010-07-14T08:33:32Z</time>
      </trkpt>
      <trkpt lat="45.07291" lon="5.55292">
        <ele>1022</ele>
        <time>2010-07-14T08:33:39Z</time>
      </trkpt>
      <trkpt lat="45.07291" lon="5.55294">
        <ele>1022</ele>
        <time>2010-07-14T08:33:49Z</time>
      </trkpt>
      <trkpt lat="45.0729" lon="5.55295">
        <ele>1022</ele>
        <time>2010-07-14T08:34:06Z</time>
      </trkpt>
      <trkpt lat="45.07289" lon="5.55297">
        <ele>1022</ele>
        <time>2010-07-14T08:34:16Z</time>
      </trkpt>
      <trkpt lat="45.07288" lon="5.55299">
        <ele>1026</ele>
        <time>2010-07-14T08:34:37Z</time>
      </trkpt>
      <trkpt lat="45.07286" lon="5.55301">
        <ele>1028</ele>
        <time>2010-07-14T08:34:44Z</time>
      </trkpt>
      <trkpt lat="45.07288" lon="5.55302">
        <ele>1035</ele>
        <time>2010-07-14T08:35:02Z</time>
      </trkpt>
      <trkpt lat="45.07283" lon="5.55308">
        <ele>1039</ele>
        <time>2010-07-14T08:35:11Z</time>
      </trkpt>
      <trkpt lat="45.07283" lon="5.5531">
        <ele>1041</ele>
        <time>2010-07-14T08:35:19Z</time>
      </trkpt>
      <trkpt lat="45.07288" lon="5.55308">
        <ele>1044</ele>
        <time>2010-07-14T08:35:28Z</time>
      </trkpt>
      <trkpt lat="45.07288" lon="5.55308">
        <ele>1044</ele>
        <time>2010-07-14T08:35:38Z</time>
      </trkpt>
      <trkpt lat="45.07289" lon="5.55308">
        <ele>1044</ele>
        <time>2010-07-14T08:35:47Z</time>
      </trkpt>
      <trkpt lat="45.0729" lon="5.55307">
        <ele>1044</ele>
        <time>2010-07-14T08:35:54Z</time>
      </trkpt>
      <trkpt lat="45.07293" lon="5.55306">
        <ele>1044</ele>
        <time>2010-07-14T08:36:05Z</time>
      </trkpt>
      <trkpt lat="45.07295" lon="5.55305">
        <ele>1044</ele>
        <time>2010-07-14T08:36:13Z</time>
      </trkpt>
      <trkpt lat="45.07299" lon="5.55307">
        <ele>1047</ele>
        <time>2010-07-14T08:36:23Z</time>
      </trkpt>
      <trkpt lat="45.07301" lon="5.55306">
        <ele>1049</ele>
        <time>2010-07-14T08:36:31Z</time>
      </trkpt>
      <trkpt lat="45.07301" lon="5.55304">
        <ele>1052</ele>
        <time>2010-07-14T08:36:39Z</time>
      </trkpt>
      <trkpt lat="45.07304" lon="5.5533">
        <ele>1052</ele>
        <time>2010-07-14T08:36:46Z</time>
      </trkpt>
      <trkpt lat="45.0728" lon="5.55356">
        <ele>1050</ele>
        <time>2010-07-14T08:36:55Z</time>
      </trkpt>
      <trkpt lat="45.07275" lon="5.55363">
        <ele>1047</ele>
        <time>2010-07-14T08:37:03Z</time>
      </trkpt>
      <trkpt lat="45.07265" lon="5.55374">
        <ele>1045</ele>
        <time>2010-07-14T08:37:10Z</time>
      </trkpt>
      <trkpt lat="45.07253" lon="5.55394">
        <ele>1042</ele>
        <time>2010-07-14T08:37:17Z</time>
      </trkpt>
      <trkpt lat="45.0725" lon="5.554">
        <ele>1040</ele>
        <time>2010-07-14T08:37:24Z</time>
      </trkpt>
      <trkpt lat="45.07242" lon="5.55417">
        <ele>1039</ele>
        <time>2010-07-14T08:37:32Z</time>
      </trkpt>
      <trkpt lat="45.07233" lon="5.55433">
        <ele>1037</ele>
        <time>2010-07-14T08:37:39Z</time>
      </trkpt>
      <trkpt lat="45.07221" lon="5.5545">
        <ele>1036</ele>
        <time>2010-07-14T08:37:46Z</time>
      </trkpt>
      <trkpt lat="45.07203" lon="5.55474">
        <ele>1036</ele>
        <time>2010-07-14T08:37:53Z</time>
      </trkpt>
      <trkpt lat="45.07198" lon="5.5548">
        <ele>1036</ele>
        <time>2010-07-14T08:38:01Z</time>
      </trkpt>
      <trkpt lat="45.07183" lon="5.55496">
        <ele>1036</ele>
        <time>2010-07-14T08:38:08Z</time>
      </trkpt>
      <trkpt lat="45.07168" lon="5.55504">
        <ele>1036</ele>
        <time>2010-07-14T08:38:15Z</time>
      </trkpt>
      <trkpt lat="45.0715" lon="5.55506">
        <ele>1038</ele>
        <time>2010-07-14T08:38:23Z</time>
      </trkpt>
      <trkpt lat="45.0713" lon="5.555">
        <ele>1038</ele>
        <time>2010-07-14T08:38:30Z</time>
      </trkpt>
      <trkpt lat="45.071" lon="5.55494">
        <ele>1038</ele>
        <time>2010-07-14T08:38:38Z</time>
      </trkpt>
      <trkpt lat="45.07073" lon="5.55487">
        <ele>1038</ele>
        <time>2010-07-14T08:38:45Z</time>
      </trkpt>
      <trkpt lat="45.07032" lon="5.5547">
        <ele>1038</ele>
        <time>2010-07-14T08:38:52Z</time>
      </trkpt>
      <trkpt lat="45.07023" lon="5.55464">
        <ele>1038</ele>
        <time>2010-07-14T08:38:59Z</time>
      </trkpt>
      <trkpt lat="45.07004" lon="5.55478">
        <ele>1039</ele>
        <time>2010-07-14T08:39:08Z</time>
      </trkpt>
      <trkpt lat="45.06983" lon="5.55526">
        <ele>1039</ele>
        <time>2010-07-14T08:39:15Z</time>
      </trkpt>
      <trkpt lat="45.06972" lon="5.55555">
        <ele>1039</ele>
        <time>2010-07-14T08:39:22Z</time>
      </trkpt>
      <trkpt lat="45.06964" lon="5.55581">
        <ele>1039</ele>
        <time>2010-07-14T08:39:29Z</time>
      </trkpt>
      <trkpt lat="45.06961" lon="5.5559">
        <ele>1039</ele>
        <time>2010-07-14T08:39:37Z</time>
      </trkpt>
      <trkpt lat="45.06954" lon="5.55612">
        <ele>1039</ele>
        <time>2010-07-14T08:39:44Z</time>
      </trkpt>
      <trkpt lat="45.06948" lon="5.55631">
        <ele>1040</ele>
        <time>2010-07-14T08:39:51Z</time>
      </trkpt>
      <trkpt lat="45.06937" lon="5.55663">
        <ele>1042</ele>
        <time>2010-07-14T08:39:58Z</time>
      </trkpt>
      <trkpt lat="45.06932" lon="5.55673">
        <ele>1044</ele>
        <time>2010-07-14T08:40:06Z</time>
      </trkpt>
      <trkpt lat="45.06923" lon="5.55688">
        <ele>1047</ele>
        <time>2010-07-14T08:40:13Z</time>
      </trkpt>
      <trkpt lat="45.06902" lon="5.55712">
        <ele>1050</ele>
        <time>2010-07-14T08:40:20Z</time>
      </trkpt>
      <trkpt lat="45.06896" lon="5.55719">
        <ele>1053</ele>
        <time>2010-07-14T08:40:28Z</time>
      </trkpt>
      <trkpt lat="45.06886" lon="5.55735">
        <ele>1056</ele>
        <time>2010-07-14T08:40:35Z</time>
      </trkpt>
      <trkpt lat="45.06868" lon="5.55761">
        <ele>1059</ele>
        <time>2010-07-14T08:40:42Z</time>
      </trkpt>
      <trkpt lat="45.06863" lon="5.55772">
        <ele>1061</ele>
        <time>2010-07-14T08:40:50Z</time>
      </trkpt>
      <trkpt lat="45.06854" lon="5.55789">
        <ele>1061</ele>
        <time>2010-07-14T08:40:57Z</time>
      </trkpt>
      <trkpt lat="45.06843" lon="5.55806">
        <ele>1061</ele>
        <time>2010-07-14T08:41:04Z</time>
      </trkpt>
      <trkpt lat="45.06832" lon="5.55828">
        <ele>1063</ele>
        <time>2010-07-14T08:41:12Z</time>
      </trkpt>
      <trkpt lat="45.06825" lon="5.55844">
        <ele>1065</ele>
        <time>2010-07-14T08:41:19Z</time>
      </trkpt>
      <trkpt lat="45.06815" lon="5.55858">
        <ele>1066</ele>
        <time>2010-07-14T08:41:26Z</time>
      </trkpt>
      <trkpt lat="45.06806" lon="5.5588">
        <ele>1067</ele>
        <time>2010-07-14T08:41:35Z</time>
      </trkpt>
      <trkpt lat="45.06805" lon="5.55904">
        <ele>1067</ele>
        <time>2010-07-14T08:41:43Z</time>
      </trkpt>
      <trkpt lat="45.06805" lon="5.5593">
        <ele>1067</ele>
        <time>2010-07-14T08:41:50Z</time>
      </trkpt>
      <trkpt lat="45.06807" lon="5.55956">
        <ele>1067</ele>
        <time>2010-07-14T08:41:58Z</time>
      </trkpt>
      <trkpt lat="45.06805" lon="5.55984">
        <ele>1067</ele>
        <time>2010-07-14T08:42:05Z</time>
      </trkpt>
      <trkpt lat="45.06803" lon="5.5601">
        <ele>1067</ele>
        <time>2010-07-14T08:42:12Z</time>
      </trkpt>
      <trkpt lat="45.06796" lon="5.56037">
        <ele>1067</ele>
        <time>2010-07-14T08:42:20Z</time>
      </trkpt>
      <trkpt lat="45.06786" lon="5.56059">
        <ele>1068</ele>
        <time>2010-07-14T08:42:27Z</time>
      </trkpt>
      <trkpt lat="45.06773" lon="5.56078">
        <ele>1070</ele>
        <time>2010-07-14T08:42:35Z</time>
      </trkpt>
      <trkpt lat="45.06763" lon="5.56095">
        <ele>1073</ele>
        <time>2010-07-14T08:42:42Z</time>
      </trkpt>
      <trkpt lat="45.06755" lon="5.56115">
        <ele>1076</ele>
        <time>2010-07-14T08:42:49Z</time>
      </trkpt>
      <trkpt lat="45.06747" lon="5.5614">
        <ele>1078</ele>
        <time>2010-07-14T08:42:57Z</time>
      </trkpt>
      <trkpt lat="45.06739" lon="5.5618">
        <ele>1079</ele>
        <time>2010-07-14T08:43:04Z</time>
      </trkpt>
      <trkpt lat="45.06739" lon="5.56215">
        <ele>1080</ele>
        <time>2010-07-14T08:43:16Z</time>
      </trkpt>
      <trkpt lat="45.0674" lon="5.56253">
        <ele>1080</ele>
        <time>2010-07-14T08:43:24Z</time>
      </trkpt>
      <trkpt lat="45.06744" lon="5.56301">
        <ele>1080</ele>
        <time>2010-07-14T08:43:31Z</time>
      </trkpt>
      <trkpt lat="45.06749" lon="5.56318">
        <ele>1080</ele>
        <time>2010-07-14T08:43:39Z</time>
      </trkpt>
      <trkpt lat="45.06763" lon="5.56346">
        <ele>1080</ele>
        <time>2010-07-14T08:43:47Z</time>
      </trkpt>
      <trkpt lat="45.06783" lon="5.56378">
        <ele>1082</ele>
        <time>2010-07-14T08:43:54Z</time>
      </trkpt>
      <trkpt lat="45.06797" lon="5.56426">
        <ele>1082</ele>
        <time>2010-07-14T08:44:02Z</time>
      </trkpt>
      <trkpt lat="45.06774" lon="5.56476">
        <ele>1082</ele>
        <time>2010-07-14T08:44:10Z</time>
      </trkpt>
      <trkpt lat="45.06744" lon="5.56516">
        <ele>1081</ele>
        <time>2010-07-14T08:44:18Z</time>
      </trkpt>
      <trkpt lat="45.06756" lon="5.56568">
        <ele>1079</ele>
        <time>2010-07-14T08:44:28Z</time>
      </trkpt>
      <trkpt lat="45.06797" lon="5.56574">
        <ele>1079</ele>
        <time>2010-07-14T08:44:35Z</time>
      </trkpt>
      <trkpt lat="45.06834" lon="5.56589">
        <ele>1079</ele>
        <time>2010-07-14T08:44:43Z</time>
      </trkpt>
      <trkpt lat="45.06861" lon="5.56651">
        <ele>1079</ele>
        <time>2010-07-14T08:44:51Z</time>
      </trkpt>
      <trkpt lat="45.0685" lon="5.56676">
        <ele>1079</ele>
        <time>2010-07-14T08:44:59Z</time>
      </trkpt>
      <trkpt lat="45.06837" lon="5.56683">
        <ele>1079</ele>
        <time>2010-07-14T08:45:08Z</time>
      </trkpt>
      <trkpt lat="45.0681" lon="5.5669">
        <ele>1080</ele>
        <time>2010-07-14T08:45:15Z</time>
      </trkpt>
      <trkpt lat="45.06791" lon="5.56694">
        <ele>1081</ele>
        <time>2010-07-14T08:45:23Z</time>
      </trkpt>
      <trkpt lat="45.06784" lon="5.5669">
        <ele>1084</ele>
        <time>2010-07-14T08:45:31Z</time>
      </trkpt>
      <trkpt lat="45.06765" lon="5.56687">
        <ele>1086</ele>
        <time>2010-07-14T08:45:38Z</time>
      </trkpt>
      <trkpt lat="45.06761" lon="5.56686">
        <ele>1087</ele>
        <time>2010-07-14T08:45:46Z</time>
      </trkpt>
      <trkpt lat="45.06743" lon="5.56687">
        <ele>1087</ele>
        <time>2010-07-14T08:45:53Z</time>
      </trkpt>
      <trkpt lat="45.06739" lon="5.56683">
        <ele>1088</ele>
        <time>2010-07-14T08:46:02Z</time>
      </trkpt>
      <trkpt lat="45.06735" lon="5.56667">
        <ele>1090</ele>
        <time>2010-07-14T08:46:11Z</time>
      </trkpt>
      <trkpt lat="45.06727" lon="5.56659">
        <ele>1091</ele>
        <time>2010-07-14T08:46:19Z</time>
      </trkpt>
      <trkpt lat="45.06717" lon="5.56661">
        <ele>1095</ele>
        <time>2010-07-14T08:46:28Z</time>
      </trkpt>
      <trkpt lat="45.06704" lon="5.56659">
        <ele>1097</ele>
        <time>2010-07-14T08:46:36Z</time>
      </trkpt>
      <trkpt lat="45.06692" lon="5.56663">
        <ele>1097</ele>
        <time>2010-07-14T08:46:43Z</time>
      </trkpt>
      <trkpt lat="45.06681" lon="5.56668">
        <ele>1098</ele>
        <time>2010-07-14T08:46:51Z</time>
      </trkpt>
      <trkpt lat="45.06671" lon="5.56672">
        <ele>1100</ele>
        <time>2010-07-14T08:46:58Z</time>
      </trkpt>
      <trkpt lat="45.06658" lon="5.56679">
        <ele>1103</ele>
        <time>2010-07-14T08:47:08Z</time>
      </trkpt>
      <trkpt lat="45.06645" lon="5.56682">
        <ele>1103</ele>
        <time>2010-07-14T08:47:16Z</time>
      </trkpt>
      <trkpt lat="45.06634" lon="5.56683">
        <ele>1104</ele>
        <time>2010-07-14T08:47:24Z</time>
      </trkpt>
      <trkpt lat="45.06626" lon="5.56687">
        <ele>1105</ele>
        <time>2010-07-14T08:47:32Z</time>
      </trkpt>
      <trkpt lat="45.06617" lon="5.56693">
        <ele>1108</ele>
        <time>2010-07-14T08:47:40Z</time>
      </trkpt>
      <trkpt lat="45.06604" lon="5.56694">
        <ele>1110</ele>
        <time>2010-07-14T08:47:48Z</time>
      </trkpt>
      <trkpt lat="45.06593" lon="5.56688">
        <ele>1110</ele>
        <time>2010-07-14T08:47:57Z</time>
      </trkpt>
      <trkpt lat="45.06585" lon="5.56674">
        <ele>1111</ele>
        <time>2010-07-14T08:48:06Z</time>
      </trkpt>
      <trkpt lat="45.06569" lon="5.56662">
        <ele>1112</ele>
        <time>2010-07-14T08:48:14Z</time>
      </trkpt>
      <trkpt lat="45.06558" lon="5.56657">
        <ele>1115</ele>
        <time>2010-07-14T08:48:24Z</time>
      </trkpt>
      <trkpt lat="45.06548" lon="5.5665">
        <ele>1117</ele>
        <time>2010-07-14T08:48:31Z</time>
      </trkpt>
      <trkpt lat="45.06539" lon="5.56646">
        <ele>1118</ele>
        <time>2010-07-14T08:48:38Z</time>
      </trkpt>
      <trkpt lat="45.06526" lon="5.5664">
        <ele>1119</ele>
        <time>2010-07-14T08:48:47Z</time>
      </trkpt>
      <trkpt lat="45.06512" lon="5.56637">
        <ele>1122</ele>
        <time>2010-07-14T08:48:55Z</time>
      </trkpt>
      <trkpt lat="45.065" lon="5.56635">
        <ele>1124</ele>
        <time>2010-07-14T08:49:02Z</time>
      </trkpt>
      <trkpt lat="45.06488" lon="5.5663">
        <ele>1126</ele>
        <time>2010-07-14T08:49:09Z</time>
      </trkpt>
      <trkpt lat="45.06482" lon="5.56628">
        <ele>1128</ele>
        <time>2010-07-14T08:49:17Z</time>
      </trkpt>
      <trkpt lat="45.06465" lon="5.56622">
        <ele>1131</ele>
        <time>2010-07-14T08:49:24Z</time>
      </trkpt>
      <trkpt lat="45.06451" lon="5.56627">
        <ele>1134</ele>
        <time>2010-07-14T08:49:34Z</time>
      </trkpt>
      <trkpt lat="45.06414" lon="5.56633">
        <ele>1134</ele>
        <time>2010-07-14T08:49:42Z</time>
      </trkpt>
      <trkpt lat="45.06364" lon="5.56668">
        <ele>1134</ele>
        <time>2010-07-14T08:49:50Z</time>
      </trkpt>
      <trkpt lat="45.06347" lon="5.5668">
        <ele>1134</ele>
        <time>2010-07-14T08:49:58Z</time>
      </trkpt>
      <trkpt lat="45.06303" lon="5.56688">
        <ele>1132</ele>
        <time>2010-07-14T08:50:05Z</time>
      </trkpt>
      <trkpt lat="45.06287" lon="5.56678">
        <ele>1129</ele>
        <time>2010-07-14T08:50:14Z</time>
      </trkpt>
      <trkpt lat="45.06243" lon="5.56673">
        <ele>1122</ele>
        <time>2010-07-14T08:50:23Z</time>
      </trkpt>
      <trkpt lat="45.06227" lon="5.56709">
        <ele>1118</ele>
        <time>2010-07-14T08:50:32Z</time>
      </trkpt>
      <trkpt lat="45.06207" lon="5.56727">
        <ele>1115</ele>
        <time>2010-07-14T08:50:40Z</time>
      </trkpt>
      <trkpt lat="45.06201" lon="5.56735">
        <ele>1114</ele>
        <time>2010-07-14T08:50:48Z</time>
      </trkpt>
      <trkpt lat="45.06193" lon="5.56739">
        <ele>1114</ele>
        <time>2010-07-14T08:50:57Z</time>
      </trkpt>
      <trkpt lat="45.06186" lon="5.56742">
        <ele>1114</ele>
        <time>2010-07-14T08:51:07Z</time>
      </trkpt>
      <trkpt lat="45.06182" lon="5.56732">
        <ele>1114</ele>
        <time>2010-07-14T08:51:14Z</time>
      </trkpt>
      <trkpt lat="45.06184" lon="5.56725">
        <ele>1114</ele>
        <time>2010-07-14T08:51:24Z</time>
      </trkpt>
      <trkpt lat="45.06194" lon="5.56708">
        <ele>1114</ele>
        <time>2010-07-14T08:51:31Z</time>
      </trkpt>
      <trkpt lat="45.06221" lon="5.56644">
        <ele>1114</ele>
        <time>2010-07-14T08:51:43Z</time>
      </trkpt>
      <trkpt lat="45.06234" lon="5.56606">
        <ele>1114</ele>
        <time>2010-07-14T08:51:51Z</time>
      </trkpt>
      <trkpt lat="45.06245" lon="5.56585">
        <ele>1114</ele>
        <time>2010-07-14T08:52:01Z</time>
      </trkpt>
      <trkpt lat="45.06249" lon="5.5656">
        <ele>1114</ele>
        <time>2010-07-14T08:52:09Z</time>
      </trkpt>
      <trkpt lat="45.06252" lon="5.56482">
        <ele>1114</ele>
        <time>2010-07-14T08:52:17Z</time>
      </trkpt>
      <trkpt lat="45.06251" lon="5.56461">
        <ele>1114</ele>
        <time>2010-07-14T08:52:25Z</time>
      </trkpt>
      <trkpt lat="45.0625" lon="5.56393">
        <ele>1114</ele>
        <time>2010-07-14T08:52:32Z</time>
      </trkpt>
      <trkpt lat="45.06273" lon="5.56309">
        <ele>1114</ele>
        <time>2010-07-14T08:52:41Z</time>
      </trkpt>
      <trkpt lat="45.06282" lon="5.56243">
        <ele>1114</ele>
        <time>2010-07-14T08:52:49Z</time>
      </trkpt>
      <trkpt lat="45.06284" lon="5.56214">
        <ele>1113</ele>
        <time>2010-07-14T08:52:57Z</time>
      </trkpt>
      <trkpt lat="45.06296" lon="5.56155">
        <ele>1110</ele>
        <time>2010-07-14T08:53:05Z</time>
      </trkpt>
      <trkpt lat="45.06293" lon="5.56075">
        <ele>1105</ele>
        <time>2010-07-14T08:53:15Z</time>
      </trkpt>
      <trkpt lat="45.06283" lon="5.56009">
        <ele>1101</ele>
        <time>2010-07-14T08:53:23Z</time>
      </trkpt>
      <trkpt lat="45.06298" lon="5.55908">
        <ele>1093</ele>
        <time>2010-07-14T08:53:31Z</time>
      </trkpt>
      <trkpt lat="45.06291" lon="5.55877">
        <ele>1087</ele>
        <time>2010-07-14T08:53:40Z</time>
      </trkpt>
      <trkpt lat="45.06285" lon="5.55838">
        <ele>1081</ele>
        <time>2010-07-14T08:53:48Z</time>
      </trkpt>
      <trkpt lat="45.06274" lon="5.55778">
        <ele>1076</ele>
        <time>2010-07-14T08:53:56Z</time>
      </trkpt>
      <trkpt lat="45.06272" lon="5.55758">
        <ele>1074</ele>
        <time>2010-07-14T08:54:05Z</time>
      </trkpt>
      <trkpt lat="45.06252" lon="5.55705">
        <ele>1073</ele>
        <time>2010-07-14T08:54:13Z</time>
      </trkpt>
      <trkpt lat="45.06187" lon="5.55601">
        <ele>1070</ele>
        <time>2010-07-14T08:54:21Z</time>
      </trkpt>
      <trkpt lat="45.06174" lon="5.55578">
        <ele>1066</ele>
        <time>2010-07-14T08:54:29Z</time>
      </trkpt>
      <trkpt lat="45.06159" lon="5.55549">
        <ele>1060</ele>
        <time>2010-07-14T08:54:37Z</time>
      </trkpt>
      <trkpt lat="45.06158" lon="5.5555">
        <ele>1057</ele>
        <time>2010-07-14T08:54:47Z</time>
      </trkpt>
      <trkpt lat="45.06151" lon="5.55559">
        <ele>1057</ele>
        <time>2010-07-14T08:54:55Z</time>
      </trkpt>
      <trkpt lat="45.06115" lon="5.55604">
        <ele>1057</ele>
        <time>2010-07-14T08:55:02Z</time>
      </trkpt>
      <trkpt lat="45.06045" lon="5.55635">
        <ele>1057</ele>
        <time>2010-07-14T08:55:14Z</time>
      </trkpt>
      <trkpt lat="45.0601" lon="5.55609">
        <ele>1057</ele>
        <time>2010-07-14T08:55:21Z</time>
      </trkpt>
      <trkpt lat="45.05994" lon="5.55594">
        <ele>1057</ele>
        <time>2010-07-14T08:55:29Z</time>
      </trkpt>
      <trkpt lat="45.05988" lon="5.5559">
        <ele>1057</ele>
        <time>2010-07-14T08:55:37Z</time>
      </trkpt>
      <trkpt lat="45.05968" lon="5.5558">
        <ele>1057</ele>
        <time>2010-07-14T08:55:45Z</time>
      </trkpt>
      <trkpt lat="45.05953" lon="5.55553">
        <ele>1057</ele>
        <time>2010-07-14T08:55:53Z</time>
      </trkpt>
      <trkpt lat="45.05934" lon="5.55515">
        <ele>1057</ele>
        <time>2010-07-14T08:56:01Z</time>
      </trkpt>
      <trkpt lat="45.05929" lon="5.55506">
        <ele>1058</ele>
        <time>2010-07-14T08:56:09Z</time>
      </trkpt>
      <trkpt lat="45.05916" lon="5.55489">
        <ele>1060</ele>
        <time>2010-07-14T08:56:17Z</time>
      </trkpt>
      <trkpt lat="45.0591" lon="5.55487">
        <ele>1064</ele>
        <time>2010-07-14T08:56:39Z</time>
      </trkpt>
      <trkpt lat="45.05912" lon="5.55486">
        <ele>1064</ele>
        <time>2010-07-14T08:56:56Z</time>
      </trkpt>
      <trkpt lat="45.05913" lon="5.55488">
        <ele>1067</ele>
        <time>2010-07-14T08:57:05Z</time>
      </trkpt>
      <trkpt lat="45.05914" lon="5.55489">
        <ele>1070</ele>
        <time>2010-07-14T08:57:15Z</time>
      </trkpt>
      <trkpt lat="45.05917" lon="5.55491">
        <ele>1074</ele>
        <time>2010-07-14T08:57:24Z</time>
      </trkpt>
      <trkpt lat="45.05913" lon="5.5549">
        <ele>1075</ele>
        <time>2010-07-14T08:57:39Z</time>
      </trkpt>
      <trkpt lat="45.0591" lon="5.55488">
        <ele>1071</ele>
        <time>2010-07-14T08:57:48Z</time>
      </trkpt>
      <trkpt lat="45.0591" lon="5.55485">
        <ele>1063</ele>
        <time>2010-07-14T08:57:57Z</time>
      </trkpt>
      <trkpt lat="45.05907" lon="5.55484">
        <ele>1060</ele>
        <time>2010-07-14T08:58:09Z</time>
      </trkpt>
      <trkpt lat="45.05904" lon="5.55483">
        <ele>1056</ele>
        <time>2010-07-14T08:58:18Z</time>
      </trkpt>
      <trkpt lat="45.05906" lon="5.55484">
        <ele>1055</ele>
        <time>2010-07-14T08:58:27Z</time>
      </trkpt>
      <trkpt lat="45.05905" lon="5.55482">
        <ele>1055</ele>
        <time>2010-07-14T08:58:46Z</time>
      </trkpt>
      <trkpt lat="45.05904" lon="5.55485">
        <ele>1055</ele>
        <time>2010-07-14T08:58:57Z</time>
      </trkpt>
      <trkpt lat="45.05912" lon="5.55533">
        <ele>1061</ele>
        <time>2010-07-14T08:59:16Z</time>
      </trkpt>
      <trkpt lat="45.05906" lon="5.55535">
        <ele>1064</ele>
        <time>2010-07-14T08:59:25Z</time>
      </trkpt>
      <trkpt lat="45.05888" lon="5.55545">
        <ele>1067</ele>
        <time>2010-07-14T08:59:33Z</time>
      </trkpt>
      <trkpt lat="45.05883" lon="5.55548">
        <ele>1068</ele>
        <time>2010-07-14T08:59:40Z</time>
      </trkpt>
      <trkpt lat="45.05852" lon="5.55568">
        <ele>1069</ele>
        <time>2010-07-14T08:59:48Z</time>
      </trkpt>
      <trkpt lat="45.05835" lon="5.55581">
        <ele>1070</ele>
        <time>2010-07-14T08:59:59Z</time>
      </trkpt>
      <trkpt lat="45.05804" lon="5.55605">
        <ele>1073</ele>
        <time>2010-07-14T09:00:07Z</time>
      </trkpt>
      <trkpt lat="45.05796" lon="5.55611">
        <ele>1075</ele>
        <time>2010-07-14T09:00:15Z</time>
      </trkpt>
      <trkpt lat="45.05771" lon="5.55622">
        <ele>1076</ele>
        <time>2010-07-14T09:00:23Z</time>
      </trkpt>
      <trkpt lat="45.05748" lon="5.55622">
        <ele>1076</ele>
        <time>2010-07-14T09:00:30Z</time>
      </trkpt>
      <trkpt lat="45.05712" lon="5.55638">
        <ele>1076</ele>
        <time>2010-07-14T09:00:43Z</time>
      </trkpt>
      <trkpt lat="45.05695" lon="5.55641">
        <ele>1076</ele>
        <time>2010-07-14T09:00:51Z</time>
      </trkpt>
      <trkpt lat="45.05674" lon="5.55642">
        <ele>1077</ele>
        <time>2010-07-14T09:00:59Z</time>
      </trkpt>
      <trkpt lat="45.05658" lon="5.55636">
        <ele>1078</ele>
        <time>2010-07-14T09:01:07Z</time>
      </trkpt>
      <trkpt lat="45.05646" lon="5.55614">
        <ele>1082</ele>
        <time>2010-07-14T09:01:15Z</time>
      </trkpt>
      <trkpt lat="45.05627" lon="5.55596">
        <ele>1087</ele>
        <time>2010-07-14T09:01:26Z</time>
      </trkpt>
      <trkpt lat="45.05613" lon="5.55585">
        <ele>1090</ele>
        <time>2010-07-14T09:01:33Z</time>
      </trkpt>
      <trkpt lat="45.05603" lon="5.55576">
        <ele>1093</ele>
        <time>2010-07-14T09:01:41Z</time>
      </trkpt>
      <trkpt lat="45.05593" lon="5.55569">
        <ele>1097</ele>
        <time>2010-07-14T09:01:49Z</time>
      </trkpt>
      <trkpt lat="45.05581" lon="5.55557">
        <ele>1102</ele>
        <time>2010-07-14T09:01:57Z</time>
      </trkpt>
      <trkpt lat="45.05566" lon="5.55543">
        <ele>1107</ele>
        <time>2010-07-14T09:02:07Z</time>
      </trkpt>
      <trkpt lat="45.05564" lon="5.55541">
        <ele>1109</ele>
        <time>2010-07-14T09:02:14Z</time>
      </trkpt>
      <trkpt lat="45.05553" lon="5.55531">
        <ele>1113</ele>
        <time>2010-07-14T09:02:24Z</time>
      </trkpt>
      <trkpt lat="45.05539" lon="5.55519">
        <ele>1114</ele>
        <time>2010-07-14T09:02:33Z</time>
      </trkpt>
      <trkpt lat="45.0553" lon="5.55509">
        <ele>1114</ele>
        <time>2010-07-14T09:02:41Z</time>
      </trkpt>
      <trkpt lat="45.05522" lon="5.55499">
        <ele>1114</ele>
        <time>2010-07-14T09:02:51Z</time>
      </trkpt>
      <trkpt lat="45.05511" lon="5.55488">
        <ele>1114</ele>
        <time>2010-07-14T09:03:00Z</time>
      </trkpt>
      <trkpt lat="45.05498" lon="5.55478">
        <ele>1114</ele>
        <time>2010-07-14T09:03:12Z</time>
      </trkpt>
      <trkpt lat="45.05487" lon="5.5547">
        <ele>1114</ele>
        <time>2010-07-14T09:03:21Z</time>
      </trkpt>
      <trkpt lat="45.05471" lon="5.55452">
        <ele>1114</ele>
        <time>2010-07-14T09:03:30Z</time>
      </trkpt>
      <trkpt lat="45.05467" lon="5.55448">
        <ele>1114</ele>
        <time>2010-07-14T09:03:40Z</time>
      </trkpt>
      <trkpt lat="45.0545" lon="5.55424">
        <ele>1115</ele>
        <time>2010-07-14T09:03:47Z</time>
      </trkpt>
      <trkpt lat="45.05446" lon="5.55413">
        <ele>1116</ele>
        <time>2010-07-14T09:03:54Z</time>
      </trkpt>
      <trkpt lat="45.05442" lon="5.55411">
        <ele>1116</ele>
        <time>2010-07-14T09:04:01Z</time>
      </trkpt>
      <trkpt lat="45.0544" lon="5.5541">
        <ele>1116</ele>
        <time>2010-07-14T09:04:11Z</time>
      </trkpt>
      <trkpt lat="45.05439" lon="5.55409">
        <ele>1116</ele>
        <time>2010-07-14T09:04:27Z</time>
      </trkpt>
      <trkpt lat="45.05438" lon="5.5541">
        <ele>1116</ele>
        <time>2010-07-14T09:04:35Z</time>
      </trkpt>
      <trkpt lat="45.05436" lon="5.55411">
        <ele>1116</ele>
        <time>2010-07-14T09:04:43Z</time>
      </trkpt>
      <trkpt lat="45.05437" lon="5.5541">
        <ele>1116</ele>
        <time>2010-07-14T09:04:54Z</time>
      </trkpt>
      <trkpt lat="45.05438" lon="5.55407">
        <ele>1119</ele>
        <time>2010-07-14T09:05:18Z</time>
      </trkpt>
      <trkpt lat="45.05439" lon="5.55406">
        <ele>1125</ele>
        <time>2010-07-14T09:06:01Z</time>
      </trkpt>
      <trkpt lat="45.05438" lon="5.55408">
        <ele>1125</ele>
        <time>2010-07-14T09:06:10Z</time>
      </trkpt>
      <trkpt lat="45.05436" lon="5.5541">
        <ele>1125</ele>
        <time>2010-07-14T09:06:18Z</time>
      </trkpt>
      <trkpt lat="45.05436" lon="5.55412">
        <ele>1123</ele>
        <time>2010-07-14T09:06:46Z</time>
      </trkpt>
      <trkpt lat="45.05437" lon="5.55411">
        <ele>1123</ele>
        <time>2010-07-14T09:07:01Z</time>
      </trkpt>
      <trkpt lat="45.05439" lon="5.55408">
        <ele>1123</ele>
        <time>2010-07-14T09:07:11Z</time>
      </trkpt>
      <trkpt lat="45.0544" lon="5.55407">
        <ele>1123</ele>
        <time>2010-07-14T09:07:35Z</time>
      </trkpt>
      <trkpt lat="45.05441" lon="5.55407">
        <ele>1123</ele>
        <time>2010-07-14T09:07:53Z</time>
      </trkpt>
      <trkpt lat="45.05441" lon="5.55405">
        <ele>1123</ele>
        <time>2010-07-14T09:08:06Z</time>
      </trkpt>
      <trkpt lat="45.05442" lon="5.55404">
        <ele>1119</ele>
        <time>2010-07-14T09:08:23Z</time>
      </trkpt>
      <trkpt lat="45.05444" lon="5.55405">
        <ele>1116</ele>
        <time>2010-07-14T09:08:32Z</time>
      </trkpt>
      <trkpt lat="45.05441" lon="5.55406">
        <ele>1116</ele>
        <time>2010-07-14T09:08:40Z</time>
      </trkpt>
      <trkpt lat="45.0544" lon="5.55407">
        <ele>1116</ele>
        <time>2010-07-14T09:08:48Z</time>
      </trkpt>
      <trkpt lat="45.05438" lon="5.55406">
        <ele>1116</ele>
        <time>2010-07-14T09:08:56Z</time>
      </trkpt>
      <trkpt lat="45.05436" lon="5.55405">
        <ele>1116</ele>
        <time>2010-07-14T09:09:06Z</time>
      </trkpt>
      <trkpt lat="45.05438" lon="5.55406">
        <ele>1116</ele>
        <time>2010-07-14T09:09:23Z</time>
      </trkpt>
      <trkpt lat="45.05438" lon="5.55402">
        <ele>1120</ele>
        <time>2010-07-14T09:09:40Z</time>
      </trkpt>
      <trkpt lat="45.05434" lon="5.55394">
        <ele>1121</ele>
        <time>2010-07-14T09:09:47Z</time>
      </trkpt>
      <trkpt lat="45.05425" lon="5.55382">
        <ele>1121</ele>
        <time>2010-07-14T09:09:55Z</time>
      </trkpt>
      <trkpt lat="45.05414" lon="5.55372">
        <ele>1121</ele>
        <time>2010-07-14T09:10:03Z</time>
      </trkpt>
      <trkpt lat="45.05405" lon="5.55359">
        <ele>1121</ele>
        <time>2010-07-14T09:10:15Z</time>
      </trkpt>
      <trkpt lat="45.05393" lon="5.55354">
        <ele>1121</ele>
        <time>2010-07-14T09:10:23Z</time>
      </trkpt>
      <trkpt lat="45.05378" lon="5.55348">
        <ele>1121</ele>
        <time>2010-07-14T09:10:31Z</time>
      </trkpt>
      <trkpt lat="45.05367" lon="5.55339">
        <ele>1123</ele>
        <time>2010-07-14T09:10:38Z</time>
      </trkpt>
      <trkpt lat="45.05353" lon="5.55332">
        <ele>1125</ele>
        <time>2010-07-14T09:10:45Z</time>
      </trkpt>
      <trkpt lat="45.05341" lon="5.55317">
        <ele>1125</ele>
        <time>2010-07-14T09:10:52Z</time>
      </trkpt>
      <trkpt lat="45.05307" lon="5.55305">
        <ele>1125</ele>
        <time>2010-07-14T09:11:00Z</time>
      </trkpt>
      <trkpt lat="45.05242" lon="5.55285">
        <ele>1121</ele>
        <time>2010-07-14T09:11:11Z</time>
      </trkpt>
      <trkpt lat="45.05178" lon="5.55275">
        <ele>1116</ele>
        <time>2010-07-14T09:11:21Z</time>
      </trkpt>
      <trkpt lat="45.05148" lon="5.55254">
        <ele>1114</ele>
        <time>2010-07-14T09:11:29Z</time>
      </trkpt>
      <trkpt lat="45.05119" lon="5.55235">
        <ele>1112</ele>
        <time>2010-07-14T09:11:40Z</time>
      </trkpt>
      <trkpt lat="45.05082" lon="5.55207">
        <ele>1112</ele>
        <time>2010-07-14T09:11:48Z</time>
      </trkpt>
      <trkpt lat="45.05068" lon="5.5519">
        <ele>1112</ele>
        <time>2010-07-14T09:11:55Z</time>
      </trkpt>
      <trkpt lat="45.05052" lon="5.55184">
        <ele>1112</ele>
        <time>2010-07-14T09:12:03Z</time>
      </trkpt>
      <trkpt lat="45.05034" lon="5.55185">
        <ele>1112</ele>
        <time>2010-07-14T09:12:14Z</time>
      </trkpt>
      <trkpt lat="45.05012" lon="5.55189">
        <ele>1115</ele>
        <time>2010-07-14T09:12:22Z</time>
      </trkpt>
      <trkpt lat="45.04998" lon="5.55193">
        <ele>1117</ele>
        <time>2010-07-14T09:12:29Z</time>
      </trkpt>
      <trkpt lat="45.0498" lon="5.55196">
        <ele>1119</ele>
        <time>2010-07-14T09:12:36Z</time>
      </trkpt>
      <trkpt lat="45.04953" lon="5.55199">
        <ele>1120</ele>
        <time>2010-07-14T09:12:48Z</time>
      </trkpt>
      <trkpt lat="45.04921" lon="5.55202">
        <ele>1123</ele>
        <time>2010-07-14T09:12:55Z</time>
      </trkpt>
      <trkpt lat="45.04889" lon="5.55201">
        <ele>1126</ele>
        <time>2010-07-14T09:13:07Z</time>
      </trkpt>
      <trkpt lat="45.04854" lon="5.55207">
        <ele>1127</ele>
        <time>2010-07-14T09:13:15Z</time>
      </trkpt>
      <trkpt lat="45.04838" lon="5.5523">
        <ele>1127</ele>
        <time>2010-07-14T09:13:22Z</time>
      </trkpt>
      <trkpt lat="45.04834" lon="5.55254">
        <ele>1127</ele>
        <time>2010-07-14T09:13:30Z</time>
      </trkpt>
      <trkpt lat="45.04819" lon="5.55339">
        <ele>1126</ele>
        <time>2010-07-14T09:13:37Z</time>
      </trkpt>
      <trkpt lat="45.04815" lon="5.55404">
        <ele>1122</ele>
        <time>2010-07-14T09:13:45Z</time>
      </trkpt>
      <trkpt lat="45.04813" lon="5.55472">
        <ele>1120</ele>
        <time>2010-07-14T09:13:57Z</time>
      </trkpt>
      <trkpt lat="45.04817" lon="5.55507">
        <ele>1118</ele>
        <time>2010-07-14T09:14:04Z</time>
      </trkpt>
      <trkpt lat="45.04804" lon="5.55537">
        <ele>1118</ele>
        <time>2010-07-14T09:14:13Z</time>
      </trkpt>
      <trkpt lat="45.04774" lon="5.55547">
        <ele>1118</ele>
        <time>2010-07-14T09:14:20Z</time>
      </trkpt>
      <trkpt lat="45.04751" lon="5.5553">
        <ele>1118</ele>
        <time>2010-07-14T09:14:28Z</time>
      </trkpt>
      <trkpt lat="45.04724" lon="5.55491">
        <ele>1120</ele>
        <time>2010-07-14T09:14:36Z</time>
      </trkpt>
      <trkpt lat="45.04705" lon="5.55456">
        <ele>1122</ele>
        <time>2010-07-14T09:14:43Z</time>
      </trkpt>
      <trkpt lat="45.04679" lon="5.55444">
        <ele>1122</ele>
        <time>2010-07-14T09:14:50Z</time>
      </trkpt>
      <trkpt lat="45.04666" lon="5.55488">
        <ele>1122</ele>
        <time>2010-07-14T09:14:58Z</time>
      </trkpt>
      <trkpt lat="45.04639" lon="5.55528">
        <ele>1122</ele>
        <time>2010-07-14T09:15:05Z</time>
      </trkpt>
      <trkpt lat="45.04614" lon="5.55534">
        <ele>1122</ele>
        <time>2010-07-14T09:15:12Z</time>
      </trkpt>
      <trkpt lat="45.04578" lon="5.55553">
        <ele>1122</ele>
        <time>2010-07-14T09:15:24Z</time>
      </trkpt>
      <trkpt lat="45.04551" lon="5.55631">
        <ele>1122</ele>
        <time>2010-07-14T09:15:32Z</time>
      </trkpt>
      <trkpt lat="45.04539" lon="5.55702">
        <ele>1117</ele>
        <time>2010-07-14T09:15:40Z</time>
      </trkpt>
      <trkpt lat="45.04524" lon="5.55743">
        <ele>1114</ele>
        <time>2010-07-14T09:15:47Z</time>
      </trkpt>
      <trkpt lat="45.04497" lon="5.558">
        <ele>1111</ele>
        <time>2010-07-14T09:15:55Z</time>
      </trkpt>
      <trkpt lat="45.04478" lon="5.55835">
        <ele>1111</ele>
        <time>2010-07-14T09:16:02Z</time>
      </trkpt>
      <trkpt lat="45.04462" lon="5.55832">
        <ele>1111</ele>
        <time>2010-07-14T09:16:10Z</time>
      </trkpt>
      <trkpt lat="45.04443" lon="5.55805">
        <ele>1111</ele>
        <time>2010-07-14T09:16:22Z</time>
      </trkpt>
      <trkpt lat="45.04424" lon="5.55779">
        <ele>1114</ele>
        <time>2010-07-14T09:16:30Z</time>
      </trkpt>
      <trkpt lat="45.04412" lon="5.55754">
        <ele>1118</ele>
        <time>2010-07-14T09:16:38Z</time>
      </trkpt>
      <trkpt lat="45.04404" lon="5.55729">
        <ele>1122</ele>
        <time>2010-07-14T09:16:50Z</time>
      </trkpt>
      <trkpt lat="45.04395" lon="5.55703">
        <ele>1126</ele>
        <time>2010-07-14T09:16:57Z</time>
      </trkpt>
      <trkpt lat="45.04388" lon="5.55676">
        <ele>1132</ele>
        <time>2010-07-14T09:17:05Z</time>
      </trkpt>
      <trkpt lat="45.04378" lon="5.55661">
        <ele>1139</ele>
        <time>2010-07-14T09:17:13Z</time>
      </trkpt>
      <trkpt lat="45.04365" lon="5.55642">
        <ele>1143</ele>
        <time>2010-07-14T09:17:25Z</time>
      </trkpt>
      <trkpt lat="45.04363" lon="5.55632">
        <ele>1145</ele>
        <time>2010-07-14T09:17:32Z</time>
      </trkpt>
      <trkpt lat="45.04358" lon="5.55624">
        <ele>1148</ele>
        <time>2010-07-14T09:17:41Z</time>
      </trkpt>
      <trkpt lat="45.04347" lon="5.55607">
        <ele>1152</ele>
        <time>2010-07-14T09:17:48Z</time>
      </trkpt>
      <trkpt lat="45.04345" lon="5.55597">
        <ele>1155</ele>
        <time>2010-07-14T09:17:56Z</time>
      </trkpt>
      <trkpt lat="45.0434" lon="5.55585">
        <ele>1157</ele>
        <time>2010-07-14T09:18:05Z</time>
      </trkpt>
      <trkpt lat="45.04335" lon="5.55572">
        <ele>1159</ele>
        <time>2010-07-14T09:18:12Z</time>
      </trkpt>
      <trkpt lat="45.04329" lon="5.55558">
        <ele>1162</ele>
        <time>2010-07-14T09:18:20Z</time>
      </trkpt>
      <trkpt lat="45.04322" lon="5.55542">
        <ele>1166</ele>
        <time>2010-07-14T09:18:28Z</time>
      </trkpt>
      <trkpt lat="45.04308" lon="5.5552">
        <ele>1169</ele>
        <time>2010-07-14T09:18:36Z</time>
      </trkpt>
      <trkpt lat="45.04304" lon="5.55513">
        <ele>1171</ele>
        <time>2010-07-14T09:18:43Z</time>
      </trkpt>
      <trkpt lat="45.04295" lon="5.55497">
        <ele>1171</ele>
        <time>2010-07-14T09:18:50Z</time>
      </trkpt>
      <trkpt lat="45.04288" lon="5.55483">
        <ele>1171</ele>
        <time>2010-07-14T09:18:59Z</time>
      </trkpt>
      <trkpt lat="45.04283" lon="5.55462">
        <ele>1171</ele>
        <time>2010-07-14T09:19:06Z</time>
      </trkpt>
      <trkpt lat="45.04272" lon="5.55437">
        <ele>1171</ele>
        <time>2010-07-14T09:19:13Z</time>
      </trkpt>
      <trkpt lat="45.04253" lon="5.55397">
        <ele>1171</ele>
        <time>2010-07-14T09:19:25Z</time>
      </trkpt>
      <trkpt lat="45.04233" lon="5.55363">
        <ele>1171</ele>
        <time>2010-07-14T09:19:33Z</time>
      </trkpt>
      <trkpt lat="45.04203" lon="5.55293">
        <ele>1171</ele>
        <time>2010-07-14T09:19:41Z</time>
      </trkpt>
      <trkpt lat="45.04174" lon="5.55247">
        <ele>1171</ele>
        <time>2010-07-14T09:19:48Z</time>
      </trkpt>
      <trkpt lat="45.04142" lon="5.55201">
        <ele>1171</ele>
        <time>2010-07-14T09:19:56Z</time>
      </trkpt>
      <trkpt lat="45.04139" lon="5.55142">
        <ele>1170</ele>
        <time>2010-07-14T09:20:03Z</time>
      </trkpt>
      <trkpt lat="45.04131" lon="5.55079">
        <ele>1163</ele>
        <time>2010-07-14T09:20:11Z</time>
      </trkpt>
      <trkpt lat="45.04149" lon="5.55022">
        <ele>1157</ele>
        <time>2010-07-14T09:20:19Z</time>
      </trkpt>
      <trkpt lat="45.0419" lon="5.54983">
        <ele>1148</ele>
        <time>2010-07-14T09:20:26Z</time>
      </trkpt>
      <trkpt lat="45.04218" lon="5.54948">
        <ele>1142</ele>
        <time>2010-07-14T09:20:33Z</time>
      </trkpt>
      <trkpt lat="45.04246" lon="5.54897">
        <ele>1134</ele>
        <time>2010-07-14T09:20:41Z</time>
      </trkpt>
      <trkpt lat="45.04265" lon="5.54865">
        <ele>1130</ele>
        <time>2010-07-14T09:20:48Z</time>
      </trkpt>
      <trkpt lat="45.04268" lon="5.54832">
        <ele>1129</ele>
        <time>2010-07-14T09:20:55Z</time>
      </trkpt>
      <trkpt lat="45.04238" lon="5.54816">
        <ele>1129</ele>
        <time>2010-07-14T09:21:03Z</time>
      </trkpt>
      <trkpt lat="45.04178" lon="5.54813">
        <ele>1129</ele>
        <time>2010-07-14T09:21:10Z</time>
      </trkpt>
      <trkpt lat="45.04156" lon="5.54758">
        <ele>1128</ele>
        <time>2010-07-14T09:21:19Z</time>
      </trkpt>
      <trkpt lat="45.0421" lon="5.54641">
        <ele>1124</ele>
        <time>2010-07-14T09:21:27Z</time>
      </trkpt>
      <trkpt lat="45.04229" lon="5.54626">
        <ele>1121</ele>
        <time>2010-07-14T09:21:34Z</time>
      </trkpt>
      <trkpt lat="45.04256" lon="5.54526">
        <ele>1111</ele>
        <time>2010-07-14T09:21:44Z</time>
      </trkpt>
      <trkpt lat="45.04239" lon="5.54394">
        <ele>1108</ele>
        <time>2010-07-14T09:21:52Z</time>
      </trkpt>
      <trkpt lat="45.042" lon="5.54238">
        <ele>1101</ele>
        <time>2010-07-14T09:22:00Z</time>
      </trkpt>
      <trkpt lat="45.04191" lon="5.54194">
        <ele>1098</ele>
        <time>2010-07-14T09:22:08Z</time>
      </trkpt>
      <trkpt lat="45.04151" lon="5.54156">
        <ele>1095</ele>
        <time>2010-07-14T09:22:15Z</time>
      </trkpt>
      <trkpt lat="45.04143" lon="5.5413">
        <ele>1092</ele>
        <time>2010-07-14T09:22:23Z</time>
      </trkpt>
      <trkpt lat="45.04143" lon="5.54101">
        <ele>1092</ele>
        <time>2010-07-14T09:22:31Z</time>
      </trkpt>
      <trkpt lat="45.04143" lon="5.54055">
        <ele>1092</ele>
        <time>2010-07-14T09:22:40Z</time>
      </trkpt>
      <trkpt lat="45.0414" lon="5.54013">
        <ele>1092</ele>
        <time>2010-07-14T09:22:47Z</time>
      </trkpt>
      <trkpt lat="45.04123" lon="5.53957">
        <ele>1091</ele>
        <time>2010-07-14T09:22:59Z</time>
      </trkpt>
      <trkpt lat="45.04116" lon="5.539">
        <ele>1091</ele>
        <time>2010-07-14T09:23:07Z</time>
      </trkpt>
      <trkpt lat="45.04108" lon="5.53888">
        <ele>1092</ele>
        <time>2010-07-14T09:23:15Z</time>
      </trkpt>
      <trkpt lat="45.04081" lon="5.53863">
        <ele>1095</ele>
        <time>2010-07-14T09:23:23Z</time>
      </trkpt>
      <trkpt lat="45.0406" lon="5.53849">
        <ele>1098</ele>
        <time>2010-07-14T09:23:30Z</time>
      </trkpt>
      <trkpt lat="45.04041" lon="5.53834">
        <ele>1100</ele>
        <time>2010-07-14T09:23:37Z</time>
      </trkpt>
      <trkpt lat="45.04018" lon="5.53814">
        <ele>1103</ele>
        <time>2010-07-14T09:23:44Z</time>
      </trkpt>
      <trkpt lat="45.03989" lon="5.53788">
        <ele>1103</ele>
        <time>2010-07-14T09:23:51Z</time>
      </trkpt>
      <trkpt lat="45.03967" lon="5.53758">
        <ele>1103</ele>
        <time>2010-07-14T09:23:58Z</time>
      </trkpt>
      <trkpt lat="45.03936" lon="5.53728">
        <ele>1103</ele>
        <time>2010-07-14T09:24:05Z</time>
      </trkpt>
      <trkpt lat="45.03914" lon="5.53711">
        <ele>1105</ele>
        <time>2010-07-14T09:24:12Z</time>
      </trkpt>
      <trkpt lat="45.03886" lon="5.53684">
        <ele>1106</ele>
        <time>2010-07-14T09:24:19Z</time>
      </trkpt>
      <trkpt lat="45.0385" lon="5.53642">
        <ele>1105</ele>
        <time>2010-07-14T09:24:26Z</time>
      </trkpt>
      <trkpt lat="45.03822" lon="5.53609">
        <ele>1102</ele>
        <time>2010-07-14T09:24:33Z</time>
      </trkpt>
      <trkpt lat="45.03791" lon="5.53576">
        <ele>1099</ele>
        <time>2010-07-14T09:24:40Z</time>
      </trkpt>
      <trkpt lat="45.03756" lon="5.53543">
        <ele>1098</ele>
        <time>2010-07-14T09:24:47Z</time>
      </trkpt>
      <trkpt lat="45.03721" lon="5.53513">
        <ele>1097</ele>
        <time>2010-07-14T09:24:54Z</time>
      </trkpt>
      <trkpt lat="45.03688" lon="5.53473">
        <ele>1097</ele>
        <time>2010-07-14T09:25:01Z</time>
      </trkpt>
      <trkpt lat="45.03674" lon="5.53449">
        <ele>1097</ele>
        <time>2010-07-14T09:25:08Z</time>
      </trkpt>
      <trkpt lat="45.03646" lon="5.53405">
        <ele>1097</ele>
        <time>2010-07-14T09:25:15Z</time>
      </trkpt>
      <trkpt lat="45.03619" lon="5.5338">
        <ele>1097</ele>
        <time>2010-07-14T09:25:24Z</time>
      </trkpt>
      <trkpt lat="45.03563" lon="5.53366">
        <ele>1096</ele>
        <time>2010-07-14T09:25:32Z</time>
      </trkpt>
      <trkpt lat="45.03532" lon="5.53359">
        <ele>1093</ele>
        <time>2010-07-14T09:25:39Z</time>
      </trkpt>
      <trkpt lat="45.03503" lon="5.53352">
        <ele>1090</ele>
        <time>2010-07-14T09:25:46Z</time>
      </trkpt>
      <trkpt lat="45.03473" lon="5.53337">
        <ele>1090</ele>
        <time>2010-07-14T09:25:53Z</time>
      </trkpt>
      <trkpt lat="45.03444" lon="5.53316">
        <ele>1090</ele>
        <time>2010-07-14T09:26:00Z</time>
      </trkpt>
      <trkpt lat="45.03419" lon="5.53297">
        <ele>1088</ele>
        <time>2010-07-14T09:26:07Z</time>
      </trkpt>
      <trkpt lat="45.03389" lon="5.53266">
        <ele>1084</ele>
        <time>2010-07-14T09:26:14Z</time>
      </trkpt>
      <trkpt lat="45.03369" lon="5.5323">
        <ele>1079</ele>
        <time>2010-07-14T09:26:21Z</time>
      </trkpt>
      <trkpt lat="45.03353" lon="5.53191">
        <ele>1076</ele>
        <time>2010-07-14T09:26:28Z</time>
      </trkpt>
      <trkpt lat="45.03344" lon="5.53147">
        <ele>1076</ele>
        <time>2010-07-14T09:26:35Z</time>
      </trkpt>
      <trkpt lat="45.03338" lon="5.53111">
        <ele>1076</ele>
        <time>2010-07-14T09:26:42Z</time>
      </trkpt>
      <trkpt lat="45.03331" lon="5.53098">
        <ele>1076</ele>
        <time>2010-07-14T09:26:49Z</time>
      </trkpt>
      <trkpt lat="45.03318" lon="5.53124">
        <ele>1078</ele>
        <time>2010-07-14T09:26:57Z</time>
      </trkpt>
      <trkpt lat="45.03298" lon="5.53141">
        <ele>1082</ele>
        <time>2010-07-14T09:27:05Z</time>
      </trkpt>
      <trkpt lat="45.03279" lon="5.53143">
        <ele>1085</ele>
        <time>2010-07-14T09:27:12Z</time>
      </trkpt>
      <trkpt lat="45.0326" lon="5.53113">
        <ele>1089</ele>
        <time>2010-07-14T09:27:20Z</time>
      </trkpt>
      <trkpt lat="45.03243" lon="5.53085">
        <ele>1092</ele>
        <time>2010-07-14T09:27:27Z</time>
      </trkpt>
      <trkpt lat="45.03223" lon="5.53065">
        <ele>1095</ele>
        <time>2010-07-14T09:27:34Z</time>
      </trkpt>
      <trkpt lat="45.03203" lon="5.53052">
        <ele>1097</ele>
        <time>2010-07-14T09:27:41Z</time>
      </trkpt>
      <trkpt lat="45.03186" lon="5.53039">
        <ele>1097</ele>
        <time>2010-07-14T09:27:48Z</time>
      </trkpt>
      <trkpt lat="45.0318" lon="5.53007">
        <ele>1097</ele>
        <time>2010-07-14T09:27:55Z</time>
      </trkpt>
      <trkpt lat="45.03157" lon="5.52949">
        <ele>1099</ele>
        <time>2010-07-14T09:28:03Z</time>
      </trkpt>
      <trkpt lat="45.03127" lon="5.52916">
        <ele>1100</ele>
        <time>2010-07-14T09:28:10Z</time>
      </trkpt>
      <trkpt lat="45.03108" lon="5.52866">
        <ele>1100</ele>
        <time>2010-07-14T09:28:18Z</time>
      </trkpt>
      <trkpt lat="45.03103" lon="5.52811">
        <ele>1100</ele>
        <time>2010-07-14T09:28:26Z</time>
      </trkpt>
      <trkpt lat="45.03097" lon="5.5277">
        <ele>1100</ele>
        <time>2010-07-14T09:28:33Z</time>
      </trkpt>
      <trkpt lat="45.03093" lon="5.52743">
        <ele>1100</ele>
        <time>2010-07-14T09:28:40Z</time>
      </trkpt>
      <trkpt lat="45.03075" lon="5.52756">
        <ele>1110</ele>
        <time>2010-07-14T09:28:47Z</time>
      </trkpt>
      <trkpt lat="45.03062" lon="5.52763">
        <ele>1108</ele>
        <time>2010-07-14T09:28:55Z</time>
      </trkpt>
      <trkpt lat="45.03043" lon="5.52767">
        <ele>1108</ele>
        <time>2010-07-14T09:29:02Z</time>
      </trkpt>
      <trkpt lat="45.03027" lon="5.52771">
        <ele>1108</ele>
        <time>2010-07-14T09:29:09Z</time>
      </trkpt>
      <trkpt lat="45.03012" lon="5.52773">
        <ele>1108</ele>
        <time>2010-07-14T09:29:16Z</time>
      </trkpt>
      <trkpt lat="45.03001" lon="5.52775">
        <ele>1108</ele>
        <time>2010-07-14T09:29:23Z</time>
      </trkpt>
      <trkpt lat="45.02976" lon="5.52777">
        <ele>1108</ele>
        <time>2010-07-14T09:29:36Z</time>
      </trkpt>
      <trkpt lat="45.02957" lon="5.52777">
        <ele>1108</ele>
        <time>2010-07-14T09:29:43Z</time>
      </trkpt>
      <trkpt lat="45.0294" lon="5.52778">
        <ele>1108</ele>
        <time>2010-07-14T09:29:50Z</time>
      </trkpt>
      <trkpt lat="45.02928" lon="5.52778">
        <ele>1108</ele>
        <time>2010-07-14T09:29:57Z</time>
      </trkpt>
      <trkpt lat="45.02917" lon="5.52754">
        <ele>1108</ele>
        <time>2010-07-14T09:30:05Z</time>
      </trkpt>
      <trkpt lat="45.02905" lon="5.52739">
        <ele>1108</ele>
        <time>2010-07-14T09:30:13Z</time>
      </trkpt>
      <trkpt lat="45.02888" lon="5.52724">
        <ele>1109</ele>
        <time>2010-07-14T09:30:20Z</time>
      </trkpt>
      <trkpt lat="45.02879" lon="5.52714">
        <ele>1109</ele>
        <time>2010-07-14T09:30:27Z</time>
      </trkpt>
      <trkpt lat="45.02863" lon="5.52697">
        <ele>1110</ele>
        <time>2010-07-14T09:30:35Z</time>
      </trkpt>
      <trkpt lat="45.02842" lon="5.52683">
        <ele>1110</ele>
        <time>2010-07-14T09:30:42Z</time>
      </trkpt>
      <trkpt lat="45.02826" lon="5.52674">
        <ele>1110</ele>
        <time>2010-07-14T09:30:49Z</time>
      </trkpt>
      <trkpt lat="45.02816" lon="5.52661">
        <ele>1110</ele>
        <time>2010-07-14T09:30:56Z</time>
      </trkpt>
      <trkpt lat="45.0281" lon="5.52651">
        <ele>1110</ele>
        <time>2010-07-14T09:31:03Z</time>
      </trkpt>
      <trkpt lat="45.02804" lon="5.52643">
        <ele>1111</ele>
        <time>2010-07-14T09:31:11Z</time>
      </trkpt>
      <trkpt lat="45.02795" lon="5.52619">
        <ele>1112</ele>
        <time>2010-07-14T09:31:19Z</time>
      </trkpt>
      <trkpt lat="45.02792" lon="5.52602">
        <ele>1112</ele>
        <time>2010-07-14T09:31:26Z</time>
      </trkpt>
      <trkpt lat="45.02795" lon="5.52578">
        <ele>1112</ele>
        <time>2010-07-14T09:31:33Z</time>
      </trkpt>
      <trkpt lat="45.02795" lon="5.52555">
        <ele>1112</ele>
        <time>2010-07-14T09:31:40Z</time>
      </trkpt>
      <trkpt lat="45.02793" lon="5.52537">
        <ele>1112</ele>
        <time>2010-07-14T09:31:47Z</time>
      </trkpt>
      <trkpt lat="45.02792" lon="5.52515">
        <ele>1113</ele>
        <time>2010-07-14T09:31:54Z</time>
      </trkpt>
      <trkpt lat="45.02793" lon="5.52499">
        <ele>1114</ele>
        <time>2010-07-14T09:32:03Z</time>
      </trkpt>
      <trkpt lat="45.02787" lon="5.52461">
        <ele>1114</ele>
        <time>2010-07-14T09:32:10Z</time>
      </trkpt>
      <trkpt lat="45.02776" lon="5.52435">
        <ele>1114</ele>
        <time>2010-07-14T09:32:17Z</time>
      </trkpt>
      <trkpt lat="45.02765" lon="5.52401">
        <ele>1115</ele>
        <time>2010-07-14T09:32:30Z</time>
      </trkpt>
      <trkpt lat="45.02758" lon="5.5238">
        <ele>1117</ele>
        <time>2010-07-14T09:32:37Z</time>
      </trkpt>
      <trkpt lat="45.02743" lon="5.52348">
        <ele>1118</ele>
        <time>2010-07-14T09:32:45Z</time>
      </trkpt>
      <trkpt lat="45.02736" lon="5.52323">
        <ele>1118</ele>
        <time>2010-07-14T09:32:52Z</time>
      </trkpt>
      <trkpt lat="45.02725" lon="5.52292">
        <ele>1118</ele>
        <time>2010-07-14T09:32:59Z</time>
      </trkpt>
      <trkpt lat="45.02716" lon="5.52265">
        <ele>1118</ele>
        <time>2010-07-14T09:33:06Z</time>
      </trkpt>
      <trkpt lat="45.02708" lon="5.52236">
        <ele>1118</ele>
        <time>2010-07-14T09:33:13Z</time>
      </trkpt>
      <trkpt lat="45.02696" lon="5.52217">
        <ele>1118</ele>
        <time>2010-07-14T09:33:21Z</time>
      </trkpt>
      <trkpt lat="45.02684" lon="5.52219">
        <ele>1118</ele>
        <time>2010-07-14T09:33:29Z</time>
      </trkpt>
      <trkpt lat="45.02673" lon="5.52209">
        <ele>1118</ele>
        <time>2010-07-14T09:33:37Z</time>
      </trkpt>
      <trkpt lat="45.0266" lon="5.52195">
        <ele>1118</ele>
        <time>2010-07-14T09:33:44Z</time>
      </trkpt>
      <trkpt lat="45.02651" lon="5.52183">
        <ele>1119</ele>
        <time>2010-07-14T09:33:51Z</time>
      </trkpt>
      <trkpt lat="45.02633" lon="5.52171">
        <ele>1120</ele>
        <time>2010-07-14T09:33:59Z</time>
      </trkpt>
      <trkpt lat="45.02621" lon="5.52155">
        <ele>1121</ele>
        <time>2010-07-14T09:34:07Z</time>
      </trkpt>
      <trkpt lat="45.02602" lon="5.52137">
        <ele>1121</ele>
        <time>2010-07-14T09:34:14Z</time>
      </trkpt>
      <trkpt lat="45.0259" lon="5.52126">
        <ele>1122</ele>
        <time>2010-07-14T09:34:21Z</time>
      </trkpt>
      <trkpt lat="45.02576" lon="5.52104">
        <ele>1123</ele>
        <time>2010-07-14T09:34:29Z</time>
      </trkpt>
      <trkpt lat="45.02601" lon="5.5207">
        <ele>1124</ele>
        <time>2010-07-14T09:34:37Z</time>
      </trkpt>
      <trkpt lat="45.02608" lon="5.52042">
        <ele>1124</ele>
        <time>2010-07-14T09:34:44Z</time>
      </trkpt>
      <trkpt lat="45.02604" lon="5.52036">
        <ele>1124</ele>
        <time>2010-07-14T09:34:52Z</time>
      </trkpt>
      <trkpt lat="45.02599" lon="5.52021">
        <ele>1124</ele>
        <time>2010-07-14T09:35:00Z</time>
      </trkpt>
      <trkpt lat="45.02591" lon="5.5201">
        <ele>1126</ele>
        <time>2010-07-14T09:35:09Z</time>
      </trkpt>
      <trkpt lat="45.02581" lon="5.51996">
        <ele>1128</ele>
        <time>2010-07-14T09:35:16Z</time>
      </trkpt>
      <trkpt lat="45.02574" lon="5.5199">
        <ele>1129</ele>
        <time>2010-07-14T09:35:24Z</time>
      </trkpt>
      <trkpt lat="45.02562" lon="5.51979">
        <ele>1129</ele>
        <time>2010-07-14T09:35:32Z</time>
      </trkpt>
      <trkpt lat="45.02557" lon="5.51975">
        <ele>1131</ele>
        <time>2010-07-14T09:35:40Z</time>
      </trkpt>
      <trkpt lat="45.02548" lon="5.51969">
        <ele>1132</ele>
        <time>2010-07-14T09:35:47Z</time>
      </trkpt>
      <trkpt lat="45.02536" lon="5.5196">
        <ele>1133</ele>
        <time>2010-07-14T09:35:56Z</time>
      </trkpt>
      <trkpt lat="45.0252" lon="5.51944">
        <ele>1133</ele>
        <time>2010-07-14T09:36:04Z</time>
      </trkpt>
      <trkpt lat="45.02515" lon="5.51928">
        <ele>1134</ele>
        <time>2010-07-14T09:36:13Z</time>
      </trkpt>
      <trkpt lat="45.0251" lon="5.5191">
        <ele>1136</ele>
        <time>2010-07-14T09:36:20Z</time>
      </trkpt>
      <trkpt lat="45.02499" lon="5.51896">
        <ele>1139</ele>
        <time>2010-07-14T09:36:28Z</time>
      </trkpt>
      <trkpt lat="45.02494" lon="5.51883">
        <ele>1141</ele>
        <time>2010-07-14T09:36:36Z</time>
      </trkpt>
      <trkpt lat="45.02486" lon="5.51868">
        <ele>1142</ele>
        <time>2010-07-14T09:36:43Z</time>
      </trkpt>
      <trkpt lat="45.02478" lon="5.51862">
        <ele>1143</ele>
        <time>2010-07-14T09:36:51Z</time>
      </trkpt>
      <trkpt lat="45.02467" lon="5.51842">
        <ele>1143</ele>
        <time>2010-07-14T09:36:59Z</time>
      </trkpt>
      <trkpt lat="45.02451" lon="5.51817">
        <ele>1143</ele>
        <time>2010-07-14T09:37:06Z</time>
      </trkpt>
      <trkpt lat="45.02428" lon="5.51776">
        <ele>1143</ele>
        <time>2010-07-14T09:37:13Z</time>
      </trkpt>
      <trkpt lat="45.0241" lon="5.51764">
        <ele>1143</ele>
        <time>2010-07-14T09:37:21Z</time>
      </trkpt>
      <trkpt lat="45.02388" lon="5.51757">
        <ele>1143</ele>
        <time>2010-07-14T09:37:28Z</time>
      </trkpt>
      <trkpt lat="45.0237" lon="5.51756">
        <ele>1143</ele>
        <time>2010-07-14T09:37:35Z</time>
      </trkpt>
      <trkpt lat="45.02356" lon="5.51754">
        <ele>1143</ele>
        <time>2010-07-14T09:37:42Z</time>
      </trkpt>
      <trkpt lat="45.02339" lon="5.5175">
        <ele>1143</ele>
        <time>2010-07-14T09:37:49Z</time>
      </trkpt>
      <trkpt lat="45.02324" lon="5.51748">
        <ele>1143</ele>
        <time>2010-07-14T09:37:56Z</time>
      </trkpt>
      <trkpt lat="45.02323" lon="5.51739">
        <ele>1144</ele>
        <time>2010-07-14T09:38:06Z</time>
      </trkpt>
      <trkpt lat="45.0232" lon="5.51712">
        <ele>1145</ele>
        <time>2010-07-14T09:38:14Z</time>
      </trkpt>
      <trkpt lat="45.0232" lon="5.51698">
        <ele>1147</ele>
        <time>2010-07-14T09:38:21Z</time>
      </trkpt>
      <trkpt lat="45.02325" lon="5.51683">
        <ele>1150</ele>
        <time>2010-07-14T09:38:28Z</time>
      </trkpt>
      <trkpt lat="45.02325" lon="5.51677">
        <ele>1153</ele>
        <time>2010-07-14T09:38:36Z</time>
      </trkpt>
      <trkpt lat="45.02328" lon="5.51676">
        <ele>1158</ele>
        <time>2010-07-14T09:38:47Z</time>
      </trkpt>
      <trkpt lat="45.02327" lon="5.51677">
        <ele>1159</ele>
        <time>2010-07-14T09:38:54Z</time>
      </trkpt>
      <trkpt lat="45.02325" lon="5.51676">
        <ele>1162</ele>
        <time>2010-07-14T09:39:04Z</time>
      </trkpt>
      <trkpt lat="45.02324" lon="5.51676">
        <ele>1165</ele>
        <time>2010-07-14T09:39:13Z</time>
      </trkpt>
      <trkpt lat="45.02326" lon="5.51675">
        <ele>1166</ele>
        <time>2010-07-14T09:39:30Z</time>
      </trkpt>
      <trkpt lat="45.02328" lon="5.51673">
        <ele>1166</ele>
        <time>2010-07-14T09:39:38Z</time>
      </trkpt>
      <trkpt lat="45.0233" lon="5.51671">
        <ele>1164</ele>
        <time>2010-07-14T09:39:48Z</time>
      </trkpt>
      <trkpt lat="45.02329" lon="5.5167">
        <ele>1162</ele>
        <time>2010-07-14T09:40:04Z</time>
      </trkpt>
      <trkpt lat="45.02327" lon="5.5167">
        <ele>1161</ele>
        <time>2010-07-14T09:40:13Z</time>
      </trkpt>
      <trkpt lat="45.02325" lon="5.51671">
        <ele>1160</ele>
        <time>2010-07-14T09:40:33Z</time>
      </trkpt>
      <trkpt lat="45.02323" lon="5.51673">
        <ele>1160</ele>
        <time>2010-07-14T09:40:51Z</time>
      </trkpt>
      <trkpt lat="45.02319" lon="5.51675">
        <ele>1164</ele>
        <time>2010-07-14T09:41:01Z</time>
      </trkpt>
      <trkpt lat="45.02318" lon="5.51675">
        <ele>1170</ele>
        <time>2010-07-14T09:41:10Z</time>
      </trkpt>
      <trkpt lat="45.02315" lon="5.51675">
        <ele>1179</ele>
        <time>2010-07-14T09:41:21Z</time>
      </trkpt>
      <trkpt lat="45.02315" lon="5.51672">
        <ele>1181</ele>
        <time>2010-07-14T09:41:28Z</time>
      </trkpt>
      <trkpt lat="45.02317" lon="5.51672">
        <ele>1182</ele>
        <time>2010-07-14T09:42:16Z</time>
      </trkpt>
      <trkpt lat="45.02319" lon="5.51672">
        <ele>1180</ele>
        <time>2010-07-14T09:42:34Z</time>
      </trkpt>
      <trkpt lat="45.0232" lon="5.51674">
        <ele>1180</ele>
        <time>2010-07-14T09:42:42Z</time>
      </trkpt>
      <trkpt lat="45.02327" lon="5.51674">
        <ele>1180</ele>
        <time>2010-07-14T09:42:51Z</time>
      </trkpt>
      <trkpt lat="45.02343" lon="5.51673">
        <ele>1180</ele>
        <time>2010-07-14T09:42:58Z</time>
      </trkpt>
      <trkpt lat="45.02361" lon="5.51665">
        <ele>1178</ele>
        <time>2010-07-14T09:43:05Z</time>
      </trkpt>
      <trkpt lat="45.02363" lon="5.51642">
        <ele>1173</ele>
        <time>2010-07-14T09:43:15Z</time>
      </trkpt>
      <trkpt lat="45.02365" lon="5.51625">
        <ele>1169</ele>
        <time>2010-07-14T09:43:23Z</time>
      </trkpt>
      <trkpt lat="45.0237" lon="5.51617">
        <ele>1167</ele>
        <time>2010-07-14T09:43:31Z</time>
      </trkpt>
      <trkpt lat="45.02376" lon="5.51604">
        <ele>1167</ele>
        <time>2010-07-14T09:43:40Z</time>
      </trkpt>
      <trkpt lat="45.02395" lon="5.51596">
        <ele>1167</ele>
        <time>2010-07-14T09:43:47Z</time>
      </trkpt>
      <trkpt lat="45.02401" lon="5.51596">
        <ele>1167</ele>
        <time>2010-07-14T09:43:55Z</time>
      </trkpt>
      <trkpt lat="45.02416" lon="5.5159">
        <ele>1167</ele>
        <time>2010-07-14T09:44:03Z</time>
      </trkpt>
      <trkpt lat="45.02428" lon="5.51581">
        <ele>1167</ele>
        <time>2010-07-14T09:44:12Z</time>
      </trkpt>
      <trkpt lat="45.02447" lon="5.51574">
        <ele>1168</ele>
        <time>2010-07-14T09:44:19Z</time>
      </trkpt>
      <trkpt lat="45.02457" lon="5.51568">
        <ele>1168</ele>
        <time>2010-07-14T09:44:28Z</time>
      </trkpt>
      <trkpt lat="45.02478" lon="5.51564">
        <ele>1168</ele>
        <time>2010-07-14T09:44:35Z</time>
      </trkpt>
      <trkpt lat="45.02489" lon="5.5156">
        <ele>1168</ele>
        <time>2010-07-14T09:44:43Z</time>
      </trkpt>
      <trkpt lat="45.025" lon="5.51555">
        <ele>1168</ele>
        <time>2010-07-14T09:44:50Z</time>
      </trkpt>
      <trkpt lat="45.02519" lon="5.51551">
        <ele>1170</ele>
        <time>2010-07-14T09:44:57Z</time>
      </trkpt>
      <trkpt lat="45.02526" lon="5.51547">
        <ele>1171</ele>
        <time>2010-07-14T09:45:04Z</time>
      </trkpt>
      <trkpt lat="45.02539" lon="5.51543">
        <ele>1174</ele>
        <time>2010-07-14T09:45:12Z</time>
      </trkpt>
      <trkpt lat="45.02552" lon="5.51537">
        <ele>1177</ele>
        <time>2010-07-14T09:45:19Z</time>
      </trkpt>
      <trkpt lat="45.02563" lon="5.51531">
        <ele>1179</ele>
        <time>2010-07-14T09:45:26Z</time>
      </trkpt>
      <trkpt lat="45.02586" lon="5.51524">
        <ele>1180</ele>
        <time>2010-07-14T09:45:33Z</time>
      </trkpt>
      <trkpt lat="45.02599" lon="5.5152">
        <ele>1181</ele>
        <time>2010-07-14T09:45:40Z</time>
      </trkpt>
      <trkpt lat="45.02613" lon="5.51517">
        <ele>1185</ele>
        <time>2010-07-14T09:45:47Z</time>
      </trkpt>
      <trkpt lat="45.02628" lon="5.51514">
        <ele>1190</ele>
        <time>2010-07-14T09:45:55Z</time>
      </trkpt>
      <trkpt lat="45.02645" lon="5.51512">
        <ele>1193</ele>
        <time>2010-07-14T09:46:02Z</time>
      </trkpt>
      <trkpt lat="45.02659" lon="5.515">
        <ele>1194</ele>
        <time>2010-07-14T09:46:10Z</time>
      </trkpt>
      <trkpt lat="45.02666" lon="5.51485">
        <ele>1194</ele>
        <time>2010-07-14T09:46:17Z</time>
      </trkpt>
      <trkpt lat="45.02671" lon="5.51467">
        <ele>1195</ele>
        <time>2010-07-14T09:46:25Z</time>
      </trkpt>
      <trkpt lat="45.0268" lon="5.51451">
        <ele>1195</ele>
        <time>2010-07-14T09:46:32Z</time>
      </trkpt>
      <trkpt lat="45.02692" lon="5.51436">
        <ele>1195</ele>
        <time>2010-07-14T09:46:40Z</time>
      </trkpt>
      <trkpt lat="45.02699" lon="5.51421">
        <ele>1196</ele>
        <time>2010-07-14T09:46:47Z</time>
      </trkpt>
      <trkpt lat="45.02713" lon="5.51401">
        <ele>1197</ele>
        <time>2010-07-14T09:46:54Z</time>
      </trkpt>
      <trkpt lat="45.02722" lon="5.51385">
        <ele>1197</ele>
        <time>2010-07-14T09:47:01Z</time>
      </trkpt>
      <trkpt lat="45.02729" lon="5.51373">
        <ele>1197</ele>
        <time>2010-07-14T09:47:08Z</time>
      </trkpt>
      <trkpt lat="45.02741" lon="5.51363">
        <ele>1200</ele>
        <time>2010-07-14T09:47:15Z</time>
      </trkpt>
      <trkpt lat="45.02753" lon="5.51349">
        <ele>1203</ele>
        <time>2010-07-14T09:47:22Z</time>
      </trkpt>
      <trkpt lat="45.0277" lon="5.5132">
        <ele>1205</ele>
        <time>2010-07-14T09:47:29Z</time>
      </trkpt>
      <trkpt lat="45.02789" lon="5.51277">
        <ele>1205</ele>
        <time>2010-07-14T09:47:36Z</time>
      </trkpt>
      <trkpt lat="45.02803" lon="5.51244">
        <ele>1205</ele>
        <time>2010-07-14T09:47:43Z</time>
      </trkpt>
      <trkpt lat="45.02812" lon="5.51213">
        <ele>1204</ele>
        <time>2010-07-14T09:47:50Z</time>
      </trkpt>
      <trkpt lat="45.02826" lon="5.51192">
        <ele>1204</ele>
        <time>2010-07-14T09:47:57Z</time>
      </trkpt>
      <trkpt lat="45.02847" lon="5.51184">
        <ele>1204</ele>
        <time>2010-07-14T09:48:04Z</time>
      </trkpt>
      <trkpt lat="45.02868" lon="5.51174">
        <ele>1204</ele>
        <time>2010-07-14T09:48:11Z</time>
      </trkpt>
      <trkpt lat="45.02888" lon="5.51161">
        <ele>1204</ele>
        <time>2010-07-14T09:48:18Z</time>
      </trkpt>
      <trkpt lat="45.02907" lon="5.51148">
        <ele>1205</ele>
        <time>2010-07-14T09:48:25Z</time>
      </trkpt>
      <trkpt lat="45.02924" lon="5.51138">
        <ele>1207</ele>
        <time>2010-07-14T09:48:32Z</time>
      </trkpt>
      <trkpt lat="45.02943" lon="5.5112">
        <ele>1207</ele>
        <time>2010-07-14T09:48:39Z</time>
      </trkpt>
      <trkpt lat="45.02955" lon="5.51097">
        <ele>1207</ele>
        <time>2010-07-14T09:48:46Z</time>
      </trkpt>
      <trkpt lat="45.02963" lon="5.51074">
        <ele>1207</ele>
        <time>2010-07-14T09:48:53Z</time>
      </trkpt>
      <trkpt lat="45.02972" lon="5.51044">
        <ele>1207</ele>
        <time>2010-07-14T09:49:00Z</time>
      </trkpt>
      <trkpt lat="45.02979" lon="5.51011">
        <ele>1207</ele>
        <time>2010-07-14T09:49:07Z</time>
      </trkpt>
      <trkpt lat="45.02983" lon="5.50989">
        <ele>1207</ele>
        <time>2010-07-14T09:49:15Z</time>
      </trkpt>
      <trkpt lat="45.03008" lon="5.5094">
        <ele>1207</ele>
        <time>2010-07-14T09:49:23Z</time>
      </trkpt>
      <trkpt lat="45.03026" lon="5.50937">
        <ele>1207</ele>
        <time>2010-07-14T09:49:31Z</time>
      </trkpt>
      <trkpt lat="45.03047" lon="5.50921">
        <ele>1207</ele>
        <time>2010-07-14T09:49:38Z</time>
      </trkpt>
      <trkpt lat="45.03054" lon="5.50905">
        <ele>1207</ele>
        <time>2010-07-14T09:49:45Z</time>
      </trkpt>
      <trkpt lat="45.03069" lon="5.50896">
        <ele>1209</ele>
        <time>2010-07-14T09:49:52Z</time>
      </trkpt>
      <trkpt lat="45.03083" lon="5.50886">
        <ele>1210</ele>
        <time>2010-07-14T09:49:59Z</time>
      </trkpt>
      <trkpt lat="45.03094" lon="5.50872">
        <ele>1210</ele>
        <time>2010-07-14T09:50:06Z</time>
      </trkpt>
      <trkpt lat="45.03109" lon="5.50859">
        <ele>1210</ele>
        <time>2010-07-14T09:50:13Z</time>
      </trkpt>
      <trkpt lat="45.0313" lon="5.50854">
        <ele>1211</ele>
        <time>2010-07-14T09:50:20Z</time>
      </trkpt>
      <trkpt lat="45.03147" lon="5.50854">
        <ele>1213</ele>
        <time>2010-07-14T09:50:27Z</time>
      </trkpt>
      <trkpt lat="45.03159" lon="5.50841">
        <ele>1217</ele>
        <time>2010-07-14T09:50:34Z</time>
      </trkpt>
      <trkpt lat="45.03167" lon="5.50811">
        <ele>1221</ele>
        <time>2010-07-14T09:50:41Z</time>
      </trkpt>
      <trkpt lat="45.03181" lon="5.50778">
        <ele>1223</ele>
        <time>2010-07-14T09:50:48Z</time>
      </trkpt>
      <trkpt lat="45.0321" lon="5.50761">
        <ele>1223</ele>
        <time>2010-07-14T09:50:55Z</time>
      </trkpt>
      <trkpt lat="45.03227" lon="5.50759">
        <ele>1223</ele>
        <time>2010-07-14T09:51:02Z</time>
      </trkpt>
      <trkpt lat="45.03244" lon="5.50762">
        <ele>1224</ele>
        <time>2010-07-14T09:51:09Z</time>
      </trkpt>
      <trkpt lat="45.03262" lon="5.50759">
        <ele>1225</ele>
        <time>2010-07-14T09:51:22Z</time>
      </trkpt>
      <trkpt lat="45.03307" lon="5.50774">
        <ele>1226</ele>
        <time>2010-07-14T09:51:29Z</time>
      </trkpt>
      <trkpt lat="45.03352" lon="5.5077">
        <ele>1228</ele>
        <time>2010-07-14T09:51:36Z</time>
      </trkpt>
      <trkpt lat="45.03363" lon="5.50764">
        <ele>1229</ele>
        <time>2010-07-14T09:51:44Z</time>
      </trkpt>
      <trkpt lat="45.03378" lon="5.50762">
        <ele>1230</ele>
        <time>2010-07-14T09:51:52Z</time>
      </trkpt>
      <trkpt lat="45.03421" lon="5.5076">
        <ele>1231</ele>
        <time>2010-07-14T09:52:01Z</time>
      </trkpt>
      <trkpt lat="45.03451" lon="5.50781">
        <ele>1233</ele>
        <time>2010-07-14T09:52:08Z</time>
      </trkpt>
      <trkpt lat="45.03507" lon="5.50792">
        <ele>1234</ele>
        <time>2010-07-14T09:52:16Z</time>
      </trkpt>
      <trkpt lat="45.03528" lon="5.50797">
        <ele>1234</ele>
        <time>2010-07-14T09:52:25Z</time>
      </trkpt>
      <trkpt lat="45.03547" lon="5.50799">
        <ele>1236</ele>
        <time>2010-07-14T09:52:32Z</time>
      </trkpt>
      <trkpt lat="45.03566" lon="5.50801">
        <ele>1237</ele>
        <time>2010-07-14T09:52:40Z</time>
      </trkpt>
      <trkpt lat="45.03581" lon="5.508">
        <ele>1237</ele>
        <time>2010-07-14T09:52:49Z</time>
      </trkpt>
      <trkpt lat="45.03608" lon="5.50801">
        <ele>1240</ele>
        <time>2010-07-14T09:52:56Z</time>
      </trkpt>
      <trkpt lat="45.03625" lon="5.50803">
        <ele>1241</ele>
        <time>2010-07-14T09:53:03Z</time>
      </trkpt>
      <trkpt lat="45.03638" lon="5.50804">
        <ele>1242</ele>
        <time>2010-07-14T09:53:12Z</time>
      </trkpt>
      <trkpt lat="45.03671" lon="5.50807">
        <ele>1244</ele>
        <time>2010-07-14T09:53:20Z</time>
      </trkpt>
      <trkpt lat="45.03675" lon="5.50779">
        <ele>1246</ele>
        <time>2010-07-14T09:53:30Z</time>
      </trkpt>
      <trkpt lat="45.03676" lon="5.5075">
        <ele>1247</ele>
        <time>2010-07-14T09:53:39Z</time>
      </trkpt>
      <trkpt lat="45.03676" lon="5.50712">
        <ele>1247</ele>
        <time>2010-07-14T09:53:47Z</time>
      </trkpt>
      <trkpt lat="45.03678" lon="5.50697">
        <ele>1247</ele>
        <time>2010-07-14T09:53:54Z</time>
      </trkpt>
      <trkpt lat="45.03684" lon="5.50689">
        <ele>1244</ele>
        <time>2010-07-14T09:54:02Z</time>
      </trkpt>
      <trkpt lat="45.03693" lon="5.50671">
        <ele>1243</ele>
        <time>2010-07-14T09:54:09Z</time>
      </trkpt>
      <trkpt lat="45.03697" lon="5.50657">
        <ele>1240</ele>
        <time>2010-07-14T09:54:17Z</time>
      </trkpt>
      <trkpt lat="45.03707" lon="5.50639">
        <ele>1240</ele>
        <time>2010-07-14T09:54:24Z</time>
      </trkpt>
      <trkpt lat="45.03714" lon="5.50618">
        <ele>1243</ele>
        <time>2010-07-14T09:54:34Z</time>
      </trkpt>
      <trkpt lat="45.03719" lon="5.50583">
        <ele>1246</ele>
        <time>2010-07-14T09:54:41Z</time>
      </trkpt>
      <trkpt lat="45.03725" lon="5.50564">
        <ele>1248</ele>
        <time>2010-07-14T09:54:49Z</time>
      </trkpt>
      <trkpt lat="45.0373" lon="5.50541">
        <ele>1250</ele>
        <time>2010-07-14T09:54:57Z</time>
      </trkpt>
      <trkpt lat="45.03737" lon="5.50527">
        <ele>1251</ele>
        <time>2010-07-14T09:55:04Z</time>
      </trkpt>
      <trkpt lat="45.03746" lon="5.50511">
        <ele>1253</ele>
        <time>2010-07-14T09:55:12Z</time>
      </trkpt>
      <trkpt lat="45.03757" lon="5.50489">
        <ele>1254</ele>
        <time>2010-07-14T09:55:19Z</time>
      </trkpt>
      <trkpt lat="45.03767" lon="5.50464">
        <ele>1254</ele>
        <time>2010-07-14T09:55:26Z</time>
      </trkpt>
      <trkpt lat="45.03775" lon="5.50457">
        <ele>1254</ele>
        <time>2010-07-14T09:55:34Z</time>
      </trkpt>
      <trkpt lat="45.03782" lon="5.50449">
        <ele>1254</ele>
        <time>2010-07-14T09:55:43Z</time>
      </trkpt>
      <trkpt lat="45.03789" lon="5.50437">
        <ele>1255</ele>
        <time>2010-07-14T09:55:52Z</time>
      </trkpt>
      <trkpt lat="45.03798" lon="5.50422">
        <ele>1258</ele>
        <time>2010-07-14T09:56:00Z</time>
      </trkpt>
      <trkpt lat="45.03801" lon="5.50409">
        <ele>1259</ele>
        <time>2010-07-14T09:56:08Z</time>
      </trkpt>
      <trkpt lat="45.03811" lon="5.50392">
        <ele>1261</ele>
        <time>2010-07-14T09:56:16Z</time>
      </trkpt>
      <trkpt lat="45.03827" lon="5.50373">
        <ele>1261</ele>
        <time>2010-07-14T09:56:25Z</time>
      </trkpt>
      <trkpt lat="45.03837" lon="5.5035">
        <ele>1259</ele>
        <time>2010-07-14T09:56:33Z</time>
      </trkpt>
      <trkpt lat="45.03844" lon="5.50339">
        <ele>1259</ele>
        <time>2010-07-14T09:56:40Z</time>
      </trkpt>
      <trkpt lat="45.03852" lon="5.50332">
        <ele>1259</ele>
        <time>2010-07-14T09:56:47Z</time>
      </trkpt>
      <trkpt lat="45.03857" lon="5.50318">
        <ele>1261</ele>
        <time>2010-07-14T09:56:55Z</time>
      </trkpt>
      <trkpt lat="45.03867" lon="5.50305">
        <ele>1265</ele>
        <time>2010-07-14T09:57:03Z</time>
      </trkpt>
      <trkpt lat="45.03873" lon="5.50294">
        <ele>1269</ele>
        <time>2010-07-14T09:57:12Z</time>
      </trkpt>
      <trkpt lat="45.03876" lon="5.50282">
        <ele>1270</ele>
        <time>2010-07-14T09:57:21Z</time>
      </trkpt>
      <trkpt lat="45.03876" lon="5.50278">
        <ele>1270</ele>
        <time>2010-07-14T09:57:30Z</time>
      </trkpt>
      <trkpt lat="45.03879" lon="5.50277">
        <ele>1270</ele>
        <time>2010-07-14T09:57:47Z</time>
      </trkpt>
      <trkpt lat="45.0388" lon="5.50277">
        <ele>1266</ele>
        <time>2010-07-14T09:57:58Z</time>
      </trkpt>
      <trkpt lat="45.03883" lon="5.50277">
        <ele>1266</ele>
        <time>2010-07-14T09:58:13Z</time>
      </trkpt>
      <trkpt lat="45.03886" lon="5.50279">
        <ele>1266</ele>
        <time>2010-07-14T09:58:21Z</time>
      </trkpt>
      <trkpt lat="45.03885" lon="5.50278">
        <ele>1266</ele>
        <time>2010-07-14T09:58:28Z</time>
      </trkpt>
      <trkpt lat="45.03886" lon="5.50276">
        <ele>1266</ele>
        <time>2010-07-14T09:58:37Z</time>
      </trkpt>
      <trkpt lat="45.0389" lon="5.50269">
        <ele>1267</ele>
        <time>2010-07-14T09:58:45Z</time>
      </trkpt>
      <trkpt lat="45.03893" lon="5.50261">
        <ele>1272</ele>
        <time>2010-07-14T09:58:52Z</time>
      </trkpt>
      <trkpt lat="45.03893" lon="5.5025">
        <ele>1275</ele>
        <time>2010-07-14T09:58:59Z</time>
      </trkpt>
      <trkpt lat="45.03891" lon="5.50241">
        <ele>1276</ele>
        <time>2010-07-14T09:59:06Z</time>
      </trkpt>
      <trkpt lat="45.03886" lon="5.50229">
        <ele>1279</ele>
        <time>2010-07-14T09:59:13Z</time>
      </trkpt>
      <trkpt lat="45.03888" lon="5.50217">
        <ele>1280</ele>
        <time>2010-07-14T09:59:20Z</time>
      </trkpt>
      <trkpt lat="45.03891" lon="5.50206">
        <ele>1280</ele>
        <time>2010-07-14T09:59:27Z</time>
      </trkpt>
      <trkpt lat="45.03893" lon="5.50195">
        <ele>1281</ele>
        <time>2010-07-14T09:59:34Z</time>
      </trkpt>
      <trkpt lat="45.03896" lon="5.50184">
        <ele>1282</ele>
        <time>2010-07-14T09:59:41Z</time>
      </trkpt>
      <trkpt lat="45.039" lon="5.50173">
        <ele>1282</ele>
        <time>2010-07-14T09:59:49Z</time>
      </trkpt>
      <trkpt lat="45.03903" lon="5.50162">
        <ele>1283</ele>
        <time>2010-07-14T09:59:56Z</time>
      </trkpt>
      <trkpt lat="45.03906" lon="5.50153">
        <ele>1286</ele>
        <time>2010-07-14T10:00:03Z</time>
      </trkpt>
      <trkpt lat="45.03911" lon="5.50143">
        <ele>1288</ele>
        <time>2010-07-14T10:00:10Z</time>
      </trkpt>
      <trkpt lat="45.03916" lon="5.50135">
        <ele>1288</ele>
        <time>2010-07-14T10:00:17Z</time>
      </trkpt>
      <trkpt lat="45.03923" lon="5.50126">
        <ele>1288</ele>
        <time>2010-07-14T10:00:24Z</time>
      </trkpt>
      <trkpt lat="45.03932" lon="5.50117">
        <ele>1290</ele>
        <time>2010-07-14T10:00:31Z</time>
      </trkpt>
      <trkpt lat="45.03942" lon="5.50109">
        <ele>1290</ele>
        <time>2010-07-14T10:00:38Z</time>
      </trkpt>
      <trkpt lat="45.0395" lon="5.50102">
        <ele>1290</ele>
        <time>2010-07-14T10:00:45Z</time>
      </trkpt>
      <trkpt lat="45.03952" lon="5.50099">
        <ele>1290</ele>
        <time>2010-07-14T10:00:57Z</time>
      </trkpt>
      <trkpt lat="45.03962" lon="5.5009">
        <ele>1290</ele>
        <time>2010-07-14T10:01:05Z</time>
      </trkpt>
      <trkpt lat="45.03978" lon="5.50086">
        <ele>1290</ele>
        <time>2010-07-14T10:01:12Z</time>
      </trkpt>
      <trkpt lat="45.04008" lon="5.50083">
        <ele>1290</ele>
        <time>2010-07-14T10:01:19Z</time>
      </trkpt>
      <trkpt lat="45.04029" lon="5.5009">
        <ele>1288</ele>
        <time>2010-07-14T10:01:26Z</time>
      </trkpt>
      <trkpt lat="45.04051" lon="5.50088">
        <ele>1283</ele>
        <time>2010-07-14T10:01:33Z</time>
      </trkpt>
      <trkpt lat="45.04073" lon="5.50089">
        <ele>1281</ele>
        <time>2010-07-14T10:01:40Z</time>
      </trkpt>
      <trkpt lat="45.04102" lon="5.50078">
        <ele>1277</ele>
        <time>2010-07-14T10:01:47Z</time>
      </trkpt>
      <trkpt lat="45.04156" lon="5.50062">
        <ele>1277</ele>
        <time>2010-07-14T10:01:55Z</time>
      </trkpt>
      <trkpt lat="45.04192" lon="5.50042">
        <ele>1277</ele>
        <time>2010-07-14T10:02:02Z</time>
      </trkpt>
      <trkpt lat="45.04213" lon="5.50021">
        <ele>1277</ele>
        <time>2010-07-14T10:02:11Z</time>
      </trkpt>
      <trkpt lat="45.04242" lon="5.49984">
        <ele>1278</ele>
        <time>2010-07-14T10:02:19Z</time>
      </trkpt>
      <trkpt lat="45.04253" lon="5.49965">
        <ele>1278</ele>
        <time>2010-07-14T10:02:26Z</time>
      </trkpt>
      <trkpt lat="45.04259" lon="5.49937">
        <ele>1278</ele>
        <time>2010-07-14T10:02:36Z</time>
      </trkpt>
      <trkpt lat="45.04254" lon="5.49915">
        <ele>1278</ele>
        <time>2010-07-14T10:02:43Z</time>
      </trkpt>
      <trkpt lat="45.04253" lon="5.49914">
        <ele>1278</ele>
        <time>2010-07-14T10:02:52Z</time>
      </trkpt>
      <trkpt lat="45.04251" lon="5.49915">
        <ele>1282</ele>
        <time>2010-07-14T10:03:01Z</time>
      </trkpt>
      <trkpt lat="45.04248" lon="5.49917">
        <ele>1282</ele>
        <time>2010-07-14T10:03:09Z</time>
      </trkpt>
      <trkpt lat="45.0425" lon="5.49915">
        <ele>1283</ele>
        <time>2010-07-14T10:03:28Z</time>
      </trkpt>
      <trkpt lat="45.04251" lon="5.49917">
        <ele>1283</ele>
        <time>2010-07-14T10:03:36Z</time>
      </trkpt>
      <trkpt lat="45.04251" lon="5.49916">
        <ele>1283</ele>
        <time>2010-07-14T10:04:06Z</time>
      </trkpt>
      <trkpt lat="45.04254" lon="5.49913">
        <ele>1280</ele>
        <time>2010-07-14T10:04:14Z</time>
      </trkpt>
      <trkpt lat="45.04255" lon="5.49912">
        <ele>1272</ele>
        <time>2010-07-14T10:04:31Z</time>
      </trkpt>
      <trkpt lat="45.04256" lon="5.49911">
        <ele>1266</ele>
        <time>2010-07-14T10:04:48Z</time>
      </trkpt>
      <trkpt lat="45.04257" lon="5.4991">
        <ele>1268</ele>
        <time>2010-07-14T10:04:56Z</time>
      </trkpt>
      <trkpt lat="45.04258" lon="5.4991">
        <ele>1273</ele>
        <time>2010-07-14T10:05:08Z</time>
      </trkpt>
      <trkpt lat="45.04264" lon="5.49912">
        <ele>1275</ele>
        <time>2010-07-14T10:05:15Z</time>
      </trkpt>
      <trkpt lat="45.04272" lon="5.49899">
        <ele>1278</ele>
        <time>2010-07-14T10:05:23Z</time>
      </trkpt>
      <trkpt lat="45.04282" lon="5.49871">
        <ele>1281</ele>
        <time>2010-07-14T10:05:30Z</time>
      </trkpt>
      <trkpt lat="45.0428" lon="5.49858">
        <ele>1284</ele>
        <time>2010-07-14T10:05:39Z</time>
      </trkpt>
      <trkpt lat="45.04276" lon="5.4984">
        <ele>1288</ele>
        <time>2010-07-14T10:05:47Z</time>
      </trkpt>
      <trkpt lat="45.04272" lon="5.49821">
        <ele>1292</ele>
        <time>2010-07-14T10:05:56Z</time>
      </trkpt>
      <trkpt lat="45.04269" lon="5.49805">
        <ele>1295</ele>
        <time>2010-07-14T10:06:04Z</time>
      </trkpt>
      <trkpt lat="45.04266" lon="5.49786">
        <ele>1298</ele>
        <time>2010-07-14T10:06:11Z</time>
      </trkpt>
      <trkpt lat="45.04261" lon="5.49766">
        <ele>1302</ele>
        <time>2010-07-14T10:06:21Z</time>
      </trkpt>
      <trkpt lat="45.04247" lon="5.49756">
        <ele>1307</ele>
        <time>2010-07-14T10:06:31Z</time>
      </trkpt>
      <trkpt lat="45.04235" lon="5.49747">
        <ele>1312</ele>
        <time>2010-07-14T10:06:39Z</time>
      </trkpt>
      <trkpt lat="45.04224" lon="5.49742">
        <ele>1315</ele>
        <time>2010-07-14T10:06:47Z</time>
      </trkpt>
      <trkpt lat="45.04205" lon="5.49732">
        <ele>1317</ele>
        <time>2010-07-14T10:06:54Z</time>
      </trkpt>
      <trkpt lat="45.04194" lon="5.49724">
        <ele>1317</ele>
        <time>2010-07-14T10:07:04Z</time>
      </trkpt>
      <trkpt lat="45.0418" lon="5.49716">
        <ele>1317</ele>
        <time>2010-07-14T10:07:11Z</time>
      </trkpt>
      <trkpt lat="45.04166" lon="5.49707">
        <ele>1317</ele>
        <time>2010-07-14T10:07:23Z</time>
      </trkpt>
      <trkpt lat="45.04155" lon="5.497">
        <ele>1317</ele>
        <time>2010-07-14T10:07:30Z</time>
      </trkpt>
      <trkpt lat="45.04137" lon="5.49693">
        <ele>1317</ele>
        <time>2010-07-14T10:07:40Z</time>
      </trkpt>
      <trkpt lat="45.04126" lon="5.49688">
        <ele>1317</ele>
        <time>2010-07-14T10:07:47Z</time>
      </trkpt>
      <trkpt lat="45.04115" lon="5.49684">
        <ele>1317</ele>
        <time>2010-07-14T10:07:55Z</time>
      </trkpt>
      <trkpt lat="45.04106" lon="5.49683">
        <ele>1318</ele>
        <time>2010-07-14T10:08:02Z</time>
      </trkpt>
      <trkpt lat="45.04095" lon="5.49679">
        <ele>1319</ele>
        <time>2010-07-14T10:08:10Z</time>
      </trkpt>
      <trkpt lat="45.04084" lon="5.49676">
        <ele>1320</ele>
        <time>2010-07-14T10:08:17Z</time>
      </trkpt>
      <trkpt lat="45.04071" lon="5.49672">
        <ele>1321</ele>
        <time>2010-07-14T10:08:25Z</time>
      </trkpt>
      <trkpt lat="45.0406" lon="5.4967">
        <ele>1322</ele>
        <time>2010-07-14T10:08:32Z</time>
      </trkpt>
      <trkpt lat="45.04047" lon="5.49664">
        <ele>1325</ele>
        <time>2010-07-14T10:08:40Z</time>
      </trkpt>
      <trkpt lat="45.04039" lon="5.49657">
        <ele>1327</ele>
        <time>2010-07-14T10:08:47Z</time>
      </trkpt>
      <trkpt lat="45.04026" lon="5.49648">
        <ele>1331</ele>
        <time>2010-07-14T10:08:56Z</time>
      </trkpt>
      <trkpt lat="45.04014" lon="5.49644">
        <ele>1333</ele>
        <time>2010-07-14T10:09:03Z</time>
      </trkpt>
      <trkpt lat="45.04002" lon="5.49642">
        <ele>1334</ele>
        <time>2010-07-14T10:09:10Z</time>
      </trkpt>
      <trkpt lat="45.0399" lon="5.49637">
        <ele>1334</ele>
        <time>2010-07-14T10:09:17Z</time>
      </trkpt>
      <trkpt lat="45.03976" lon="5.49634">
        <ele>1334</ele>
        <time>2010-07-14T10:09:25Z</time>
      </trkpt>
      <trkpt lat="45.03965" lon="5.49631">
        <ele>1334</ele>
        <time>2010-07-14T10:09:32Z</time>
      </trkpt>
      <trkpt lat="45.03953" lon="5.49626">
        <ele>1336</ele>
        <time>2010-07-14T10:09:40Z</time>
      </trkpt>
      <trkpt lat="45.03944" lon="5.49622">
        <ele>1338</ele>
        <time>2010-07-14T10:09:48Z</time>
      </trkpt>
      <trkpt lat="45.0393" lon="5.49617">
        <ele>1339</ele>
        <time>2010-07-14T10:09:55Z</time>
      </trkpt>
      <trkpt lat="45.03918" lon="5.49608">
        <ele>1340</ele>
        <time>2010-07-14T10:10:02Z</time>
      </trkpt>
      <trkpt lat="45.0391" lon="5.49597">
        <ele>1340</ele>
        <time>2010-07-14T10:10:11Z</time>
      </trkpt>
      <trkpt lat="45.03906" lon="5.49592">
        <ele>1340</ele>
        <time>2010-07-14T10:10:18Z</time>
      </trkpt>
      <trkpt lat="45.03915" lon="5.49588">
        <ele>1343</ele>
        <time>2010-07-14T10:10:25Z</time>
      </trkpt>
      <trkpt lat="45.03921" lon="5.4958">
        <ele>1346</ele>
        <time>2010-07-14T10:10:34Z</time>
      </trkpt>
      <trkpt lat="45.03927" lon="5.49576">
        <ele>1346</ele>
        <time>2010-07-14T10:10:42Z</time>
      </trkpt>
      <trkpt lat="45.03935" lon="5.49571">
        <ele>1348</ele>
        <time>2010-07-14T10:10:50Z</time>
      </trkpt>
      <trkpt lat="45.03942" lon="5.49564">
        <ele>1352</ele>
        <time>2010-07-14T10:10:57Z</time>
      </trkpt>
      <trkpt lat="45.03948" lon="5.49558">
        <ele>1356</ele>
        <time>2010-07-14T10:11:05Z</time>
      </trkpt>
      <trkpt lat="45.0395" lon="5.49558">
        <ele>1357</ele>
        <time>2010-07-14T10:11:12Z</time>
      </trkpt>
      <trkpt lat="45.03952" lon="5.49551">
        <ele>1358</ele>
        <time>2010-07-14T10:11:21Z</time>
      </trkpt>
      <trkpt lat="45.03957" lon="5.49546">
        <ele>1358</ele>
        <time>2010-07-14T10:11:30Z</time>
      </trkpt>
      <trkpt lat="45.03958" lon="5.49541">
        <ele>1358</ele>
        <time>2010-07-14T10:11:37Z</time>
      </trkpt>
      <trkpt lat="45.03958" lon="5.49541">
        <ele>1358</ele>
        <time>2010-07-14T10:11:46Z</time>
      </trkpt>
      <trkpt lat="45.03957" lon="5.49543">
        <ele>1359</ele>
        <time>2010-07-14T10:12:14Z</time>
      </trkpt>
      <trkpt lat="45.03959" lon="5.49542">
        <ele>1359</ele>
        <time>2010-07-14T10:12:23Z</time>
      </trkpt>
      <trkpt lat="45.03963" lon="5.49541">
        <ele>1362</ele>
        <time>2010-07-14T10:12:31Z</time>
      </trkpt>
      <trkpt lat="45.03964" lon="5.49539">
        <ele>1367</ele>
        <time>2010-07-14T10:12:55Z</time>
      </trkpt>
      <trkpt lat="45.03964" lon="5.49534">
        <ele>1367</ele>
        <time>2010-07-14T10:13:04Z</time>
      </trkpt>
      <trkpt lat="45.03966" lon="5.49526">
        <ele>1367</ele>
        <time>2010-07-14T10:13:12Z</time>
      </trkpt>
      <trkpt lat="45.0397" lon="5.49521">
        <ele>1367</ele>
        <time>2010-07-14T10:13:21Z</time>
      </trkpt>
      <trkpt lat="45.03973" lon="5.49516">
        <ele>1367</ele>
        <time>2010-07-14T10:13:28Z</time>
      </trkpt>
      <trkpt lat="45.0398" lon="5.49514">
        <ele>1369</ele>
        <time>2010-07-14T10:13:36Z</time>
      </trkpt>
      <trkpt lat="45.03986" lon="5.49513">
        <ele>1372</ele>
        <time>2010-07-14T10:13:45Z</time>
      </trkpt>
      <trkpt lat="45.03991" lon="5.49513">
        <ele>1375</ele>
        <time>2010-07-14T10:13:52Z</time>
      </trkpt>
      <trkpt lat="45.04002" lon="5.49511">
        <ele>1376</ele>
        <time>2010-07-14T10:14:00Z</time>
      </trkpt>
      <trkpt lat="45.0401" lon="5.49511">
        <ele>1376</ele>
        <time>2010-07-14T10:14:08Z</time>
      </trkpt>
      <trkpt lat="45.04018" lon="5.49508">
        <ele>1376</ele>
        <time>2010-07-14T10:14:16Z</time>
      </trkpt>
      <trkpt lat="45.04033" lon="5.49506">
        <ele>1376</ele>
        <time>2010-07-14T10:14:23Z</time>
      </trkpt>
      <trkpt lat="45.04043" lon="5.49503">
        <ele>1377</ele>
        <time>2010-07-14T10:14:30Z</time>
      </trkpt>
      <trkpt lat="45.04051" lon="5.49499">
        <ele>1379</ele>
        <time>2010-07-14T10:14:37Z</time>
      </trkpt>
      <trkpt lat="45.04063" lon="5.49492">
        <ele>1379</ele>
        <time>2010-07-14T10:14:46Z</time>
      </trkpt>
      <trkpt lat="45.0407" lon="5.49486">
        <ele>1380</ele>
        <time>2010-07-14T10:14:53Z</time>
      </trkpt>
      <trkpt lat="45.04072" lon="5.49473">
        <ele>1381</ele>
        <time>2010-07-14T10:15:01Z</time>
      </trkpt>
      <trkpt lat="45.04075" lon="5.49461">
        <ele>1381</ele>
        <time>2010-07-14T10:15:08Z</time>
      </trkpt>
      <trkpt lat="45.04077" lon="5.49452">
        <ele>1386</ele>
        <time>2010-07-14T10:15:17Z</time>
      </trkpt>
      <trkpt lat="45.04076" lon="5.49448">
        <ele>1389</ele>
        <time>2010-07-14T10:15:26Z</time>
      </trkpt>
      <trkpt lat="45.04074" lon="5.4944">
        <ele>1392</ele>
        <time>2010-07-14T10:15:33Z</time>
      </trkpt>
      <trkpt lat="45.04072" lon="5.49428">
        <ele>1392</ele>
        <time>2010-07-14T10:15:41Z</time>
      </trkpt>
      <trkpt lat="45.04072" lon="5.49416">
        <ele>1392</ele>
        <time>2010-07-14T10:15:48Z</time>
      </trkpt>
      <trkpt lat="45.04071" lon="5.49406">
        <ele>1392</ele>
        <time>2010-07-14T10:15:55Z</time>
      </trkpt>
      <trkpt lat="45.04068" lon="5.49398">
        <ele>1394</ele>
        <time>2010-07-14T10:16:02Z</time>
      </trkpt>
      <trkpt lat="45.04064" lon="5.49389">
        <ele>1394</ele>
        <time>2010-07-14T10:16:11Z</time>
      </trkpt>
      <trkpt lat="45.04066" lon="5.49386">
        <ele>1394</ele>
        <time>2010-07-14T10:16:21Z</time>
      </trkpt>
      <trkpt lat="45.04064" lon="5.49377">
        <ele>1397</ele>
        <time>2010-07-14T10:16:29Z</time>
      </trkpt>
      <trkpt lat="45.0407" lon="5.49371">
        <ele>1399</ele>
        <time>2010-07-14T10:16:39Z</time>
      </trkpt>
      <trkpt lat="45.0407" lon="5.49369">
        <ele>1400</ele>
        <time>2010-07-14T10:16:48Z</time>
      </trkpt>
      <trkpt lat="45.04074" lon="5.49368">
        <ele>1400</ele>
        <time>2010-07-14T10:16:56Z</time>
      </trkpt>
      <trkpt lat="45.04078" lon="5.49367">
        <ele>1400</ele>
        <time>2010-07-14T10:17:03Z</time>
      </trkpt>
      <trkpt lat="45.04082" lon="5.49365">
        <ele>1402</ele>
        <time>2010-07-14T10:17:10Z</time>
      </trkpt>
      <trkpt lat="45.04088" lon="5.49362">
        <ele>1402</ele>
        <time>2010-07-14T10:17:18Z</time>
      </trkpt>
      <trkpt lat="45.04091" lon="5.4936">
        <ele>1402</ele>
        <time>2010-07-14T10:17:25Z</time>
      </trkpt>
      <trkpt lat="45.04098" lon="5.49357">
        <ele>1403</ele>
        <time>2010-07-14T10:17:32Z</time>
      </trkpt>
      <trkpt lat="45.04105" lon="5.49356">
        <ele>1403</ele>
        <time>2010-07-14T10:17:40Z</time>
      </trkpt>
      <trkpt lat="45.04109" lon="5.49355">
        <ele>1405</ele>
        <time>2010-07-14T10:17:47Z</time>
      </trkpt>
      <trkpt lat="45.04109" lon="5.49349">
        <ele>1405</ele>
        <time>2010-07-14T10:17:59Z</time>
      </trkpt>
      <trkpt lat="45.04111" lon="5.49351">
        <ele>1410</ele>
        <time>2010-07-14T10:18:07Z</time>
      </trkpt>
      <trkpt lat="45.0411" lon="5.49354">
        <ele>1414</ele>
        <time>2010-07-14T10:18:16Z</time>
      </trkpt>
      <trkpt lat="45.04112" lon="5.49354">
        <ele>1415</ele>
        <time>2010-07-14T10:18:23Z</time>
      </trkpt>
      <trkpt lat="45.04118" lon="5.49353">
        <ele>1415</ele>
        <time>2010-07-14T10:18:30Z</time>
      </trkpt>
      <trkpt lat="45.04126" lon="5.49351">
        <ele>1415</ele>
        <time>2010-07-14T10:18:37Z</time>
      </trkpt>
      <trkpt lat="45.04137" lon="5.49352">
        <ele>1413</ele>
        <time>2010-07-14T10:18:45Z</time>
      </trkpt>
      <trkpt lat="45.04148" lon="5.4935">
        <ele>1411</ele>
        <time>2010-07-14T10:18:52Z</time>
      </trkpt>
      <trkpt lat="45.0416" lon="5.49349">
        <ele>1410</ele>
        <time>2010-07-14T10:19:00Z</time>
      </trkpt>
      <trkpt lat="45.04168" lon="5.49347">
        <ele>1410</ele>
        <time>2010-07-14T10:19:07Z</time>
      </trkpt>
      <trkpt lat="45.04179" lon="5.49346">
        <ele>1410</ele>
        <time>2010-07-14T10:19:15Z</time>
      </trkpt>
      <trkpt lat="45.0419" lon="5.49346">
        <ele>1413</ele>
        <time>2010-07-14T10:19:22Z</time>
      </trkpt>
      <trkpt lat="45.04202" lon="5.49344">
        <ele>1416</ele>
        <time>2010-07-14T10:19:31Z</time>
      </trkpt>
      <trkpt lat="45.04212" lon="5.49341">
        <ele>1416</ele>
        <time>2010-07-14T10:19:38Z</time>
      </trkpt>
      <trkpt lat="45.04223" lon="5.49337">
        <ele>1416</ele>
        <time>2010-07-14T10:19:45Z</time>
      </trkpt>
      <trkpt lat="45.04232" lon="5.49336">
        <ele>1418</ele>
        <time>2010-07-14T10:19:52Z</time>
      </trkpt>
      <trkpt lat="45.04247" lon="5.49333">
        <ele>1418</ele>
        <time>2010-07-14T10:20:00Z</time>
      </trkpt>
      <trkpt lat="45.04258" lon="5.49333">
        <ele>1418</ele>
        <time>2010-07-14T10:20:07Z</time>
      </trkpt>
      <trkpt lat="45.04269" lon="5.49335">
        <ele>1418</ele>
        <time>2010-07-14T10:20:15Z</time>
      </trkpt>
      <trkpt lat="45.04281" lon="5.49331">
        <ele>1418</ele>
        <time>2010-07-14T10:20:22Z</time>
      </trkpt>
      <trkpt lat="45.04292" lon="5.49336">
        <ele>1418</ele>
        <time>2010-07-14T10:20:30Z</time>
      </trkpt>
      <trkpt lat="45.04304" lon="5.49332">
        <ele>1418</ele>
        <time>2010-07-14T10:20:37Z</time>
      </trkpt>
      <trkpt lat="45.04313" lon="5.49329">
        <ele>1418</ele>
        <time>2010-07-14T10:20:45Z</time>
      </trkpt>
      <trkpt lat="45.04325" lon="5.4933">
        <ele>1419</ele>
        <time>2010-07-14T10:20:52Z</time>
      </trkpt>
      <trkpt lat="45.04341" lon="5.49328">
        <ele>1420</ele>
        <time>2010-07-14T10:21:00Z</time>
      </trkpt>
      <trkpt lat="45.04347" lon="5.49323">
        <ele>1421</ele>
        <time>2010-07-14T10:21:07Z</time>
      </trkpt>
      <trkpt lat="45.0436" lon="5.49319">
        <ele>1421</ele>
        <time>2010-07-14T10:21:15Z</time>
      </trkpt>
      <trkpt lat="45.04371" lon="5.49312">
        <ele>1421</ele>
        <time>2010-07-14T10:21:22Z</time>
      </trkpt>
      <trkpt lat="45.04391" lon="5.49306">
        <ele>1423</ele>
        <time>2010-07-14T10:21:30Z</time>
      </trkpt>
      <trkpt lat="45.04402" lon="5.49304">
        <ele>1426</ele>
        <time>2010-07-14T10:21:37Z</time>
      </trkpt>
      <trkpt lat="45.04412" lon="5.49301">
        <ele>1429</ele>
        <time>2010-07-14T10:21:45Z</time>
      </trkpt>
      <trkpt lat="45.04422" lon="5.49296">
        <ele>1429</ele>
        <time>2010-07-14T10:21:53Z</time>
      </trkpt>
      <trkpt lat="45.04429" lon="5.49293">
        <ele>1430</ele>
        <time>2010-07-14T10:22:01Z</time>
      </trkpt>
      <trkpt lat="45.04438" lon="5.49286">
        <ele>1430</ele>
        <time>2010-07-14T10:22:08Z</time>
      </trkpt>
      <trkpt lat="45.04447" lon="5.4928">
        <ele>1431</ele>
        <time>2010-07-14T10:22:15Z</time>
      </trkpt>
      <trkpt lat="45.04457" lon="5.49277">
        <ele>1435</ele>
        <time>2010-07-14T10:22:22Z</time>
      </trkpt>
      <trkpt lat="45.04469" lon="5.49272">
        <ele>1438</ele>
        <time>2010-07-14T10:22:30Z</time>
      </trkpt>
      <trkpt lat="45.04481" lon="5.49264">
        <ele>1438</ele>
        <time>2010-07-14T10:22:38Z</time>
      </trkpt>
      <trkpt lat="45.04488" lon="5.49254">
        <ele>1438</ele>
        <time>2010-07-14T10:22:45Z</time>
      </trkpt>
      <trkpt lat="45.04494" lon="5.4925">
        <ele>1438</ele>
        <time>2010-07-14T10:22:52Z</time>
      </trkpt>
      <trkpt lat="45.04494" lon="5.49247">
        <ele>1438</ele>
        <time>2010-07-14T10:23:05Z</time>
      </trkpt>
      <trkpt lat="45.04496" lon="5.49245">
        <ele>1438</ele>
        <time>2010-07-14T10:23:13Z</time>
      </trkpt>
      <trkpt lat="45.04498" lon="5.49242">
        <ele>1438</ele>
        <time>2010-07-14T10:23:20Z</time>
      </trkpt>
      <trkpt lat="45.04507" lon="5.4923">
        <ele>1439</ele>
        <time>2010-07-14T10:23:28Z</time>
      </trkpt>
      <trkpt lat="45.04512" lon="5.49219">
        <ele>1445</ele>
        <time>2010-07-14T10:23:35Z</time>
      </trkpt>
      <trkpt lat="45.04516" lon="5.49209">
        <ele>1447</ele>
        <time>2010-07-14T10:23:42Z</time>
      </trkpt>
      <trkpt lat="45.0452" lon="5.49195">
        <ele>1447</ele>
        <time>2010-07-14T10:23:50Z</time>
      </trkpt>
      <trkpt lat="45.04523" lon="5.49185">
        <ele>1448</ele>
        <time>2010-07-14T10:23:57Z</time>
      </trkpt>
      <trkpt lat="45.04525" lon="5.49173">
        <ele>1448</ele>
        <time>2010-07-14T10:24:05Z</time>
      </trkpt>
      <trkpt lat="45.04526" lon="5.4917">
        <ele>1448</ele>
        <time>2010-07-14T10:24:17Z</time>
      </trkpt>
      <trkpt lat="45.04527" lon="5.49166">
        <ele>1450</ele>
        <time>2010-07-14T10:24:25Z</time>
      </trkpt>
      <trkpt lat="45.04528" lon="5.49161">
        <ele>1451</ele>
        <time>2010-07-14T10:24:32Z</time>
      </trkpt>
      <trkpt lat="45.0453" lon="5.49153">
        <ele>1451</ele>
        <time>2010-07-14T10:24:42Z</time>
      </trkpt>
      <trkpt lat="45.04532" lon="5.49148">
        <ele>1451</ele>
        <time>2010-07-14T10:24:51Z</time>
      </trkpt>
      <trkpt lat="45.04533" lon="5.49142">
        <ele>1454</ele>
        <time>2010-07-14T10:24:59Z</time>
      </trkpt>
      <trkpt lat="45.04536" lon="5.49134">
        <ele>1457</ele>
        <time>2010-07-14T10:25:07Z</time>
      </trkpt>
      <trkpt lat="45.04538" lon="5.49131">
        <ele>1458</ele>
        <time>2010-07-14T10:25:15Z</time>
      </trkpt>
      <trkpt lat="45.04538" lon="5.49129">
        <ele>1460</ele>
        <time>2010-07-14T10:25:25Z</time>
      </trkpt>
      <trkpt lat="45.04536" lon="5.49123">
        <ele>1462</ele>
        <time>2010-07-14T10:25:33Z</time>
      </trkpt>
      <trkpt lat="45.04536" lon="5.49111">
        <ele>1462</ele>
        <time>2010-07-14T10:25:40Z</time>
      </trkpt>
      <trkpt lat="45.04537" lon="5.49093">
        <ele>1463</ele>
        <time>2010-07-14T10:25:47Z</time>
      </trkpt>
      <trkpt lat="45.04537" lon="5.49085">
        <ele>1463</ele>
        <time>2010-07-14T10:25:55Z</time>
      </trkpt>
      <trkpt lat="45.04539" lon="5.49079">
        <ele>1463</ele>
        <time>2010-07-14T10:26:02Z</time>
      </trkpt>
      <trkpt lat="45.04545" lon="5.49068">
        <ele>1463</ele>
        <time>2010-07-14T10:26:10Z</time>
      </trkpt>
      <trkpt lat="45.04554" lon="5.49055">
        <ele>1462</ele>
        <time>2010-07-14T10:26:18Z</time>
      </trkpt>
      <trkpt lat="45.0456" lon="5.49049">
        <ele>1461</ele>
        <time>2010-07-14T10:26:27Z</time>
      </trkpt>
      <trkpt lat="45.0457" lon="5.49043">
        <ele>1461</ele>
        <time>2010-07-14T10:26:35Z</time>
      </trkpt>
      <trkpt lat="45.0458" lon="5.49037">
        <ele>1461</ele>
        <time>2010-07-14T10:26:42Z</time>
      </trkpt>
      <trkpt lat="45.04589" lon="5.49027">
        <ele>1461</ele>
        <time>2010-07-14T10:26:51Z</time>
      </trkpt>
      <trkpt lat="45.04601" lon="5.49026">
        <ele>1463</ele>
        <time>2010-07-14T10:26:58Z</time>
      </trkpt>
      <trkpt lat="45.04609" lon="5.49026">
        <ele>1465</ele>
        <time>2010-07-14T10:27:05Z</time>
      </trkpt>
      <trkpt lat="45.04617" lon="5.49027">
        <ele>1467</ele>
        <time>2010-07-14T10:27:12Z</time>
      </trkpt>
      <trkpt lat="45.04626" lon="5.49023">
        <ele>1469</ele>
        <time>2010-07-14T10:27:21Z</time>
      </trkpt>
      <trkpt lat="45.04635" lon="5.49022">
        <ele>1472</ele>
        <time>2010-07-14T10:27:28Z</time>
      </trkpt>
      <trkpt lat="45.04641" lon="5.49019">
        <ele>1473</ele>
        <time>2010-07-14T10:27:36Z</time>
      </trkpt>
      <trkpt lat="45.04651" lon="5.49016">
        <ele>1473</ele>
        <time>2010-07-14T10:27:43Z</time>
      </trkpt>
      <trkpt lat="45.04656" lon="5.4901">
        <ele>1476</ele>
        <time>2010-07-14T10:27:50Z</time>
      </trkpt>
      <trkpt lat="45.04663" lon="5.49007">
        <ele>1478</ele>
        <time>2010-07-14T10:27:57Z</time>
      </trkpt>
      <trkpt lat="45.04669" lon="5.49004">
        <ele>1479</ele>
        <time>2010-07-14T10:28:04Z</time>
      </trkpt>
      <trkpt lat="45.04676" lon="5.48995">
        <ele>1482</ele>
        <time>2010-07-14T10:28:12Z</time>
      </trkpt>
      <trkpt lat="45.04682" lon="5.48986">
        <ele>1482</ele>
        <time>2010-07-14T10:28:20Z</time>
      </trkpt>
      <trkpt lat="45.04692" lon="5.48975">
        <ele>1482</ele>
        <time>2010-07-14T10:28:27Z</time>
      </trkpt>
      <trkpt lat="45.04699" lon="5.48968">
        <ele>1482</ele>
        <time>2010-07-14T10:28:34Z</time>
      </trkpt>
      <trkpt lat="45.04704" lon="5.48963">
        <ele>1483</ele>
        <time>2010-07-14T10:28:43Z</time>
      </trkpt>
      <trkpt lat="45.04714" lon="5.48949">
        <ele>1483</ele>
        <time>2010-07-14T10:28:50Z</time>
      </trkpt>
      <trkpt lat="45.04723" lon="5.48943">
        <ele>1483</ele>
        <time>2010-07-14T10:28:58Z</time>
      </trkpt>
      <trkpt lat="45.04729" lon="5.48932">
        <ele>1486</ele>
        <time>2010-07-14T10:29:05Z</time>
      </trkpt>
      <trkpt lat="45.04738" lon="5.48923">
        <ele>1489</ele>
        <time>2010-07-14T10:29:14Z</time>
      </trkpt>
      <trkpt lat="45.04746" lon="5.48915">
        <ele>1492</ele>
        <time>2010-07-14T10:29:21Z</time>
      </trkpt>
      <trkpt lat="45.04758" lon="5.48908">
        <ele>1495</ele>
        <time>2010-07-14T10:29:29Z</time>
      </trkpt>
      <trkpt lat="45.04769" lon="5.48892">
        <ele>1499</ele>
        <time>2010-07-14T10:29:36Z</time>
      </trkpt>
      <trkpt lat="45.04774" lon="5.48886">
        <ele>1501</ele>
        <time>2010-07-14T10:29:44Z</time>
      </trkpt>
      <trkpt lat="45.04781" lon="5.48874">
        <ele>1503</ele>
        <time>2010-07-14T10:29:52Z</time>
      </trkpt>
      <trkpt lat="45.04799" lon="5.48861">
        <ele>1504</ele>
        <time>2010-07-14T10:30:00Z</time>
      </trkpt>
      <trkpt lat="45.04803" lon="5.48856">
        <ele>1506</ele>
        <time>2010-07-14T10:30:08Z</time>
      </trkpt>
      <trkpt lat="45.04811" lon="5.48843">
        <ele>1507</ele>
        <time>2010-07-14T10:30:17Z</time>
      </trkpt>
      <trkpt lat="45.04825" lon="5.48833">
        <ele>1510</ele>
        <time>2010-07-14T10:30:24Z</time>
      </trkpt>
      <trkpt lat="45.04833" lon="5.48824">
        <ele>1513</ele>
        <time>2010-07-14T10:30:32Z</time>
      </trkpt>
      <trkpt lat="45.04842" lon="5.48807">
        <ele>1513</ele>
        <time>2010-07-14T10:30:40Z</time>
      </trkpt>
      <trkpt lat="45.04848" lon="5.4879">
        <ele>1513</ele>
        <time>2010-07-14T10:30:49Z</time>
      </trkpt>
      <trkpt lat="45.04859" lon="5.48753">
        <ele>1513</ele>
        <time>2010-07-14T10:30:57Z</time>
      </trkpt>
      <trkpt lat="45.04864" lon="5.4873">
        <ele>1512</ele>
        <time>2010-07-14T10:31:05Z</time>
      </trkpt>
      <trkpt lat="45.04867" lon="5.48698">
        <ele>1509</ele>
        <time>2010-07-14T10:31:13Z</time>
      </trkpt>
      <trkpt lat="45.04861" lon="5.48692">
        <ele>1506</ele>
        <time>2010-07-14T10:31:22Z</time>
      </trkpt>
      <trkpt lat="45.0486" lon="5.48692">
        <ele>1505</ele>
        <time>2010-07-14T10:31:32Z</time>
      </trkpt>
      <trkpt lat="45.04853" lon="5.48683">
        <ele>1505</ele>
        <time>2010-07-14T10:31:39Z</time>
      </trkpt>
      <trkpt lat="45.04866" lon="5.48676">
        <ele>1503</ele>
        <time>2010-07-14T10:31:47Z</time>
      </trkpt>
      <trkpt lat="45.04884" lon="5.4866">
        <ele>1503</ele>
        <time>2010-07-14T10:31:55Z</time>
      </trkpt>
      <trkpt lat="45.04893" lon="5.48645">
        <ele>1505</ele>
        <time>2010-07-14T10:32:02Z</time>
      </trkpt>
      <trkpt lat="45.04894" lon="5.48642">
        <ele>1506</ele>
        <time>2010-07-14T10:32:18Z</time>
      </trkpt>
      <trkpt lat="45.04892" lon="5.48639">
        <ele>1506</ele>
        <time>2010-07-14T10:32:26Z</time>
      </trkpt>
      <trkpt lat="45.04879" lon="5.4862">
        <ele>1506</ele>
        <time>2010-07-14T10:32:34Z</time>
      </trkpt>
      <trkpt lat="45.04865" lon="5.48603">
        <ele>1501</ele>
        <time>2010-07-14T10:32:42Z</time>
      </trkpt>
      <trkpt lat="45.04848" lon="5.48587">
        <ele>1498</ele>
        <time>2010-07-14T10:32:49Z</time>
      </trkpt>
      <trkpt lat="45.04834" lon="5.48576">
        <ele>1497</ele>
        <time>2010-07-14T10:32:56Z</time>
      </trkpt>
      <trkpt lat="45.04819" lon="5.48564">
        <ele>1497</ele>
        <time>2010-07-14T10:33:04Z</time>
      </trkpt>
      <trkpt lat="45.04809" lon="5.48558">
        <ele>1497</ele>
        <time>2010-07-14T10:33:13Z</time>
      </trkpt>
      <trkpt lat="45.04803" lon="5.48564">
        <ele>1497</ele>
        <time>2010-07-14T10:33:21Z</time>
      </trkpt>
      <trkpt lat="45.04807" lon="5.48576">
        <ele>1497</ele>
        <time>2010-07-14T10:33:29Z</time>
      </trkpt>
      <trkpt lat="45.04801" lon="5.48582">
        <ele>1497</ele>
        <time>2010-07-14T10:33:38Z</time>
      </trkpt>
      <trkpt lat="45.04802" lon="5.48558">
        <ele>1506</ele>
        <time>2010-07-14T10:33:50Z</time>
      </trkpt>
      <trkpt lat="45.048" lon="5.48553">
        <ele>1509</ele>
        <time>2010-07-14T10:34:04Z</time>
      </trkpt>
      <trkpt lat="45.04787" lon="5.48542">
        <ele>1509</ele>
        <time>2010-07-14T10:34:13Z</time>
      </trkpt>
      <trkpt lat="45.04774" lon="5.48529">
        <ele>1509</ele>
        <time>2010-07-14T10:34:23Z</time>
      </trkpt>
      <trkpt lat="45.04762" lon="5.48518">
        <ele>1509</ele>
        <time>2010-07-14T10:34:30Z</time>
      </trkpt>
      <trkpt lat="45.04745" lon="5.48509">
        <ele>1509</ele>
        <time>2010-07-14T10:34:38Z</time>
      </trkpt>
      <trkpt lat="45.04724" lon="5.48496">
        <ele>1509</ele>
        <time>2010-07-14T10:34:45Z</time>
      </trkpt>
      <trkpt lat="45.04714" lon="5.48491">
        <ele>1509</ele>
        <time>2010-07-14T10:34:53Z</time>
      </trkpt>
      <trkpt lat="45.04698" lon="5.48485">
        <ele>1509</ele>
        <time>2010-07-14T10:35:00Z</time>
      </trkpt>
      <trkpt lat="45.04682" lon="5.4848">
        <ele>1508</ele>
        <time>2010-07-14T10:35:21Z</time>
      </trkpt>
      <trkpt lat="45.04674" lon="5.48474">
        <ele>1508</ele>
        <time>2010-07-14T10:35:29Z</time>
      </trkpt>
      <trkpt lat="45.04664" lon="5.48466">
        <ele>1508</ele>
        <time>2010-07-14T10:35:36Z</time>
      </trkpt>
      <trkpt lat="45.0466" lon="5.48462">
        <ele>1508</ele>
        <time>2010-07-14T10:35:43Z</time>
      </trkpt>
      <trkpt lat="45.04653" lon="5.48457">
        <ele>1508</ele>
        <time>2010-07-14T10:35:51Z</time>
      </trkpt>
      <trkpt lat="45.04641" lon="5.48448">
        <ele>1508</ele>
        <time>2010-07-14T10:35:59Z</time>
      </trkpt>
      <trkpt lat="45.04623" lon="5.48435">
        <ele>1508</ele>
        <time>2010-07-14T10:36:06Z</time>
      </trkpt>
      <trkpt lat="45.04616" lon="5.4843">
        <ele>1508</ele>
        <time>2010-07-14T10:36:14Z</time>
      </trkpt>
      <trkpt lat="45.04604" lon="5.48421">
        <ele>1508</ele>
        <time>2010-07-14T10:36:21Z</time>
      </trkpt>
      <trkpt lat="45.04588" lon="5.4841">
        <ele>1508</ele>
        <time>2010-07-14T10:36:29Z</time>
      </trkpt>
      <trkpt lat="45.04577" lon="5.48403">
        <ele>1509</ele>
        <time>2010-07-14T10:36:36Z</time>
      </trkpt>
      <trkpt lat="45.04561" lon="5.48389">
        <ele>1509</ele>
        <time>2010-07-14T10:36:45Z</time>
      </trkpt>
      <trkpt lat="45.04549" lon="5.48374">
        <ele>1509</ele>
        <time>2010-07-14T10:36:52Z</time>
      </trkpt>
      <trkpt lat="45.04538" lon="5.48362">
        <ele>1510</ele>
        <time>2010-07-14T10:37:00Z</time>
      </trkpt>
      <trkpt lat="45.04522" lon="5.48344">
        <ele>1511</ele>
        <time>2010-07-14T10:37:07Z</time>
      </trkpt>
      <trkpt lat="45.04515" lon="5.48321">
        <ele>1512</ele>
        <time>2010-07-14T10:37:16Z</time>
      </trkpt>
      <trkpt lat="45.04514" lon="5.48321">
        <ele>1512</ele>
        <time>2010-07-14T10:37:25Z</time>
      </trkpt>
      <trkpt lat="45.04512" lon="5.48321">
        <ele>1512</ele>
        <time>2010-07-14T10:37:35Z</time>
      </trkpt>
      <trkpt lat="45.04514" lon="5.48322">
        <ele>1512</ele>
        <time>2010-07-14T10:37:45Z</time>
      </trkpt>
      <trkpt lat="45.04511" lon="5.48318">
        <ele>1512</ele>
        <time>2010-07-14T10:37:54Z</time>
      </trkpt>
      <trkpt lat="45.04509" lon="5.48319">
        <ele>1512</ele>
        <time>2010-07-14T10:38:15Z</time>
      </trkpt>
      <trkpt lat="45.04509" lon="5.48317">
        <ele>1512</ele>
        <time>2010-07-14T10:38:43Z</time>
      </trkpt>
      <trkpt lat="45.04508" lon="5.48315">
        <ele>1512</ele>
        <time>2010-07-14T10:38:55Z</time>
      </trkpt>
      <trkpt lat="45.04507" lon="5.48314">
        <ele>1512</ele>
        <time>2010-07-14T10:39:05Z</time>
      </trkpt>
      <trkpt lat="45.04508" lon="5.48314">
        <ele>1512</ele>
        <time>2010-07-14T10:39:44Z</time>
      </trkpt>
      <trkpt lat="45.04508" lon="5.48316">
        <ele>1512</ele>
        <time>2010-07-14T10:39:53Z</time>
      </trkpt>
      <trkpt lat="45.04509" lon="5.48317">
        <ele>1512</ele>
        <time>2010-07-14T10:40:01Z</time>
      </trkpt>
      <trkpt lat="45.0451" lon="5.48318">
        <ele>1511</ele>
        <time>2010-07-14T10:40:19Z</time>
      </trkpt>
      <trkpt lat="45.04511" lon="5.4832">
        <ele>1509</ele>
        <time>2010-07-14T10:40:49Z</time>
      </trkpt>
      <trkpt lat="45.04512" lon="5.48322">
        <ele>1507</ele>
        <time>2010-07-14T10:41:30Z</time>
      </trkpt>
      <trkpt lat="45.04511" lon="5.4832">
        <ele>1506</ele>
        <time>2010-07-14T10:41:48Z</time>
      </trkpt>
      <trkpt lat="45.04509" lon="5.48317">
        <ele>1506</ele>
        <time>2010-07-14T10:41:58Z</time>
      </trkpt>
      <trkpt lat="45.0451" lon="5.48316">
        <ele>1510</ele>
        <time>2010-07-14T10:42:11Z</time>
      </trkpt>
      <trkpt lat="45.04511" lon="5.48319">
        <ele>1510</ele>
        <time>2010-07-14T10:42:18Z</time>
      </trkpt>
      <trkpt lat="45.04512" lon="5.4832">
        <ele>1508</ele>
        <time>2010-07-14T10:42:37Z</time>
      </trkpt>
      <trkpt lat="45.04513" lon="5.48321">
        <ele>1505</ele>
        <time>2010-07-14T10:42:46Z</time>
      </trkpt>
      <trkpt lat="45.04513" lon="5.48319">
        <ele>1505</ele>
        <time>2010-07-14T10:42:55Z</time>
      </trkpt>
      <trkpt lat="45.04512" lon="5.48318">
        <ele>1505</ele>
        <time>2010-07-14T10:43:06Z</time>
      </trkpt>
      <trkpt lat="45.04512" lon="5.48316">
        <ele>1505</ele>
        <time>2010-07-14T10:43:45Z</time>
      </trkpt>
      <trkpt lat="45.0451" lon="5.48315">
        <ele>1505</ele>
        <time>2010-07-14T10:43:55Z</time>
      </trkpt>
      <trkpt lat="45.04511" lon="5.48315">
        <ele>1506</ele>
        <time>2010-07-14T10:45:12Z</time>
      </trkpt>
      <trkpt lat="45.0451" lon="5.48316">
        <ele>1507</ele>
        <time>2010-07-14T10:45:23Z</time>
      </trkpt>
      <trkpt lat="45.04509" lon="5.48317">
        <ele>1510</ele>
        <time>2010-07-14T10:45:33Z</time>
      </trkpt>
      <trkpt lat="45.04506" lon="5.48316">
        <ele>1514</ele>
        <time>2010-07-14T10:45:50Z</time>
      </trkpt>
      <trkpt lat="45.04507" lon="5.48312">
        <ele>1516</ele>
        <time>2010-07-14T10:45:59Z</time>
      </trkpt>
      <trkpt lat="45.045" lon="5.48305">
        <ele>1517</ele>
        <time>2010-07-14T10:46:08Z</time>
      </trkpt>
      <trkpt lat="45.04491" lon="5.48296">
        <ele>1517</ele>
        <time>2010-07-14T10:46:16Z</time>
      </trkpt>
      <trkpt lat="45.0449" lon="5.48295">
        <ele>1518</ele>
        <time>2010-07-14T10:46:27Z</time>
      </trkpt>
      <trkpt lat="45.04488" lon="5.48295">
        <ele>1518</ele>
        <time>2010-07-14T10:46:38Z</time>
      </trkpt>
      <trkpt lat="45.04486" lon="5.48296">
        <ele>1518</ele>
        <time>2010-07-14T10:46:46Z</time>
      </trkpt>
      <trkpt lat="45.04485" lon="5.48299">
        <ele>1520</ele>
        <time>2010-07-14T10:46:57Z</time>
      </trkpt>
      <trkpt lat="45.04486" lon="5.48297">
        <ele>1523</ele>
        <time>2010-07-14T10:47:06Z</time>
      </trkpt>
      <trkpt lat="45.04487" lon="5.48299">
        <ele>1524</ele>
        <time>2010-07-14T10:47:26Z</time>
      </trkpt>
      <trkpt lat="45.04485" lon="5.48301">
        <ele>1525</ele>
        <time>2010-07-14T10:47:34Z</time>
      </trkpt>
      <trkpt lat="45.04486" lon="5.48298">
        <ele>1525</ele>
        <time>2010-07-14T10:47:50Z</time>
      </trkpt>
      <trkpt lat="45.0448" lon="5.48294">
        <ele>1525</ele>
        <time>2010-07-14T10:47:58Z</time>
      </trkpt>
      <trkpt lat="45.04481" lon="5.48312">
        <ele>1524</ele>
        <time>2010-07-14T10:48:05Z</time>
      </trkpt>
      <trkpt lat="45.04497" lon="5.48363">
        <ele>1519</ele>
        <time>2010-07-14T10:48:13Z</time>
      </trkpt>
      <trkpt lat="45.04464" lon="5.48338">
        <ele>1513</ele>
        <time>2010-07-14T10:48:25Z</time>
      </trkpt>
      <trkpt lat="45.04403" lon="5.4825">
        <ele>1510</ele>
        <time>2010-07-14T10:48:33Z</time>
      </trkpt>
      <trkpt lat="45.04393" lon="5.48231">
        <ele>1507</ele>
        <time>2010-07-14T10:48:41Z</time>
      </trkpt>
      <trkpt lat="45.04382" lon="5.4817">
        <ele>1499</ele>
        <time>2010-07-14T10:48:49Z</time>
      </trkpt>
      <trkpt lat="45.04416" lon="5.48121">
        <ele>1489</ele>
        <time>2010-07-14T10:48:58Z</time>
      </trkpt>
      <trkpt lat="45.04472" lon="5.48094">
        <ele>1486</ele>
        <time>2010-07-14T10:49:06Z</time>
      </trkpt>
      <trkpt lat="45.04546" lon="5.48069">
        <ele>1483</ele>
        <time>2010-07-14T10:49:14Z</time>
      </trkpt>
      <trkpt lat="45.04576" lon="5.48062">
        <ele>1477</ele>
        <time>2010-07-14T10:49:22Z</time>
      </trkpt>
      <trkpt lat="45.04636" lon="5.48046">
        <ele>1471</ele>
        <time>2010-07-14T10:49:30Z</time>
      </trkpt>
      <trkpt lat="45.04701" lon="5.48034">
        <ele>1465</ele>
        <time>2010-07-14T10:49:37Z</time>
      </trkpt>
      <trkpt lat="45.0476" lon="5.48026">
        <ele>1459</ele>
        <time>2010-07-14T10:49:45Z</time>
      </trkpt>
      <trkpt lat="45.04827" lon="5.48014">
        <ele>1453</ele>
        <time>2010-07-14T10:49:52Z</time>
      </trkpt>
      <trkpt lat="45.04884" lon="5.4801">
        <ele>1447</ele>
        <time>2010-07-14T10:50:00Z</time>
      </trkpt>
      <trkpt lat="45.04965" lon="5.48001">
        <ele>1441</ele>
        <time>2010-07-14T10:50:08Z</time>
      </trkpt>
      <trkpt lat="45.05031" lon="5.47999">
        <ele>1435</ele>
        <time>2010-07-14T10:50:15Z</time>
      </trkpt>
      <trkpt lat="45.05096" lon="5.48003">
        <ele>1429</ele>
        <time>2010-07-14T10:50:23Z</time>
      </trkpt>
      <trkpt lat="45.05049" lon="5.47986">
        <ele>1421</ele>
        <time>2010-07-14T10:50:32Z</time>
      </trkpt>
      <trkpt lat="45.05005" lon="5.47968">
        <ele>1416</ele>
        <time>2010-07-14T10:50:40Z</time>
      </trkpt>
      <trkpt lat="45.04942" lon="5.47947">
        <ele>1413</ele>
        <time>2010-07-14T10:50:48Z</time>
      </trkpt>
      <trkpt lat="45.04889" lon="5.47928">
        <ele>1409</ele>
        <time>2010-07-14T10:50:55Z</time>
      </trkpt>
      <trkpt lat="45.04863" lon="5.47918">
        <ele>1405</ele>
        <time>2010-07-14T10:51:03Z</time>
      </trkpt>
      <trkpt lat="45.04865" lon="5.47918">
        <ele>1402</ele>
        <time>2010-07-14T10:51:13Z</time>
      </trkpt>
      <trkpt lat="45.04866" lon="5.47921">
        <ele>1402</ele>
        <time>2010-07-14T10:51:22Z</time>
      </trkpt>
      <trkpt lat="45.04868" lon="5.47921">
        <ele>1402</ele>
        <time>2010-07-14T10:51:31Z</time>
      </trkpt>
      <trkpt lat="45.04874" lon="5.47922">
        <ele>1402</ele>
        <time>2010-07-14T10:51:40Z</time>
      </trkpt>
      <trkpt lat="45.04873" lon="5.4792">
        <ele>1402</ele>
        <time>2010-07-14T10:51:50Z</time>
      </trkpt>
      <trkpt lat="45.04867" lon="5.47922">
        <ele>1402</ele>
        <time>2010-07-14T10:52:02Z</time>
      </trkpt>
      <trkpt lat="45.04865" lon="5.47923">
        <ele>1402</ele>
        <time>2010-07-14T10:52:09Z</time>
      </trkpt>
      <trkpt lat="45.04861" lon="5.47919">
        <ele>1402</ele>
        <time>2010-07-14T10:52:18Z</time>
      </trkpt>
      <trkpt lat="45.04861" lon="5.47916">
        <ele>1402</ele>
        <time>2010-07-14T10:52:28Z</time>
      </trkpt>
      <trkpt lat="45.04862" lon="5.47917">
        <ele>1403</ele>
        <time>2010-07-14T10:52:38Z</time>
      </trkpt>
      <trkpt lat="45.04862" lon="5.47917">
        <ele>1403</ele>
        <time>2010-07-14T10:52:47Z</time>
      </trkpt>
      <trkpt lat="45.04853" lon="5.47919">
        <ele>1403</ele>
        <time>2010-07-14T10:52:57Z</time>
      </trkpt>
      <trkpt lat="45.0485" lon="5.4792">
        <ele>1403</ele>
        <time>2010-07-14T10:53:08Z</time>
      </trkpt>
      <trkpt lat="45.04848" lon="5.47917">
        <ele>1403</ele>
        <time>2010-07-14T10:53:17Z</time>
      </trkpt>
      <trkpt lat="45.04834" lon="5.47907">
        <ele>1403</ele>
        <time>2010-07-14T10:53:24Z</time>
      </trkpt>
      <trkpt lat="45.04785" lon="5.4788">
        <ele>1403</ele>
        <time>2010-07-14T10:53:32Z</time>
      </trkpt>
      <trkpt lat="45.04724" lon="5.4785">
        <ele>1400</ele>
        <time>2010-07-14T10:53:40Z</time>
      </trkpt>
      <trkpt lat="45.04646" lon="5.47816">
        <ele>1397</ele>
        <time>2010-07-14T10:53:48Z</time>
      </trkpt>
      <trkpt lat="45.04585" lon="5.47778">
        <ele>1394</ele>
        <time>2010-07-14T10:53:55Z</time>
      </trkpt>
      <trkpt lat="45.04523" lon="5.47694">
        <ele>1387</ele>
        <time>2010-07-14T10:54:04Z</time>
      </trkpt>
      <trkpt lat="45.04527" lon="5.47655">
        <ele>1380</ele>
        <time>2010-07-14T10:54:14Z</time>
      </trkpt>
      <trkpt lat="45.04521" lon="5.47655">
        <ele>1377</ele>
        <time>2010-07-14T10:54:23Z</time>
      </trkpt>
      <trkpt lat="45.04498" lon="5.47649">
        <ele>1375</ele>
        <time>2010-07-14T10:54:32Z</time>
      </trkpt>
      <trkpt lat="45.04461" lon="5.47644">
        <ele>1375</ele>
        <time>2010-07-14T10:54:39Z</time>
      </trkpt>
      <trkpt lat="45.04431" lon="5.47646">
        <ele>1375</ele>
        <time>2010-07-14T10:54:48Z</time>
      </trkpt>
      <trkpt lat="45.04394" lon="5.47653">
        <ele>1371</ele>
        <time>2010-07-14T10:54:56Z</time>
      </trkpt>
      <trkpt lat="45.04358" lon="5.47657">
        <ele>1369</ele>
        <time>2010-07-14T10:55:05Z</time>
      </trkpt>
      <trkpt lat="45.0431" lon="5.47643">
        <ele>1369</ele>
        <time>2010-07-14T10:55:13Z</time>
      </trkpt>
      <trkpt lat="45.04262" lon="5.47634">
        <ele>1372</ele>
        <time>2010-07-14T10:55:21Z</time>
      </trkpt>
      <trkpt lat="45.04243" lon="5.47633">
        <ele>1374</ele>
        <time>2010-07-14T10:55:29Z</time>
      </trkpt>
      <trkpt lat="45.04208" lon="5.47652">
        <ele>1377</ele>
        <time>2010-07-14T10:55:37Z</time>
      </trkpt>
      <trkpt lat="45.04156" lon="5.47662">
        <ele>1378</ele>
        <time>2010-07-14T10:55:44Z</time>
      </trkpt>
      <trkpt lat="45.04093" lon="5.47678">
        <ele>1377</ele>
        <time>2010-07-14T10:55:52Z</time>
      </trkpt>
      <trkpt lat="45.04028" lon="5.47715">
        <ele>1371</ele>
        <time>2010-07-14T10:56:01Z</time>
      </trkpt>
      <trkpt lat="45.03926" lon="5.47756">
        <ele>1366</ele>
        <time>2010-07-14T10:56:09Z</time>
      </trkpt>
      <trkpt lat="45.03814" lon="5.47793">
        <ele>1360</ele>
        <time>2010-07-14T10:56:17Z</time>
      </trkpt>
      <trkpt lat="45.03776" lon="5.47802">
        <ele>1355</ele>
        <time>2010-07-14T10:56:25Z</time>
      </trkpt>
      <trkpt lat="45.03739" lon="5.47844">
        <ele>1343</ele>
        <time>2010-07-14T10:56:34Z</time>
      </trkpt>
      <trkpt lat="45.03707" lon="5.47879">
        <ele>1336</ele>
        <time>2010-07-14T10:56:42Z</time>
      </trkpt>
      <trkpt lat="45.03661" lon="5.47936">
        <ele>1331</ele>
        <time>2010-07-14T10:56:49Z</time>
      </trkpt>
      <trkpt lat="45.03595" lon="5.47965">
        <ele>1326</ele>
        <time>2010-07-14T10:57:01Z</time>
      </trkpt>
      <trkpt lat="45.03555" lon="5.47966">
        <ele>1323</ele>
        <time>2010-07-14T10:57:08Z</time>
      </trkpt>
      <trkpt lat="45.03514" lon="5.47969">
        <ele>1319</ele>
        <time>2010-07-14T10:57:15Z</time>
      </trkpt>
      <trkpt lat="45.03452" lon="5.47973">
        <ele>1314</ele>
        <time>2010-07-14T10:57:23Z</time>
      </trkpt>
      <trkpt lat="45.03379" lon="5.47951">
        <ele>1311</ele>
        <time>2010-07-14T10:57:31Z</time>
      </trkpt>
      <trkpt lat="45.0334" lon="5.47902">
        <ele>1304</ele>
        <time>2010-07-14T10:57:40Z</time>
      </trkpt>
      <trkpt lat="45.03286" lon="5.47827">
        <ele>1298</ele>
        <time>2010-07-14T10:57:48Z</time>
      </trkpt>
      <trkpt lat="45.03232" lon="5.47788">
        <ele>1293</ele>
        <time>2010-07-14T10:57:57Z</time>
      </trkpt>
      <trkpt lat="45.0319" lon="5.47785">
        <ele>1290</ele>
        <time>2010-07-14T10:58:05Z</time>
      </trkpt>
      <trkpt lat="45.03146" lon="5.4778">
        <ele>1287</ele>
        <time>2010-07-14T10:58:13Z</time>
      </trkpt>
      <trkpt lat="45.03112" lon="5.4777">
        <ele>1286</ele>
        <time>2010-07-14T10:58:21Z</time>
      </trkpt>
      <trkpt lat="45.03077" lon="5.47748">
        <ele>1286</ele>
        <time>2010-07-14T10:58:29Z</time>
      </trkpt>
      <trkpt lat="45.03043" lon="5.47738">
        <ele>1286</ele>
        <time>2010-07-14T10:58:37Z</time>
      </trkpt>
      <trkpt lat="45.03013" lon="5.47729">
        <ele>1285</ele>
        <time>2010-07-14T10:58:45Z</time>
      </trkpt>
      <trkpt lat="45.02967" lon="5.4772">
        <ele>1284</ele>
        <time>2010-07-14T10:58:53Z</time>
      </trkpt>
      <trkpt lat="45.02919" lon="5.47714">
        <ele>1284</ele>
        <time>2010-07-14T10:59:01Z</time>
      </trkpt>
      <trkpt lat="45.02895" lon="5.47708">
        <ele>1284</ele>
        <time>2010-07-14T10:59:09Z</time>
      </trkpt>
      <trkpt lat="45.02865" lon="5.47702">
        <ele>1284</ele>
        <time>2010-07-14T10:59:17Z</time>
      </trkpt>
      <trkpt lat="45.02836" lon="5.47697">
        <ele>1283</ele>
        <time>2010-07-14T10:59:25Z</time>
      </trkpt>
      <trkpt lat="45.02772" lon="5.47708">
        <ele>1279</ele>
        <time>2010-07-14T10:59:34Z</time>
      </trkpt>
      <trkpt lat="45.02717" lon="5.47718">
        <ele>1276</ele>
        <time>2010-07-14T10:59:42Z</time>
      </trkpt>
      <trkpt lat="45.02649" lon="5.4771">
        <ele>1273</ele>
        <time>2010-07-14T10:59:50Z</time>
      </trkpt>
      <trkpt lat="45.02604" lon="5.47698">
        <ele>1272</ele>
        <time>2010-07-14T10:59:57Z</time>
      </trkpt>
      <trkpt lat="45.02556" lon="5.47684">
        <ele>1270</ele>
        <time>2010-07-14T11:00:04Z</time>
      </trkpt>
      <trkpt lat="45.02517" lon="5.47675">
        <ele>1270</ele>
        <time>2010-07-14T11:00:16Z</time>
      </trkpt>
      <trkpt lat="45.0248" lon="5.47669">
        <ele>1270</ele>
        <time>2010-07-14T11:00:23Z</time>
      </trkpt>
      <trkpt lat="45.02452" lon="5.47666">
        <ele>1270</ele>
        <time>2010-07-14T11:00:30Z</time>
      </trkpt>
      <trkpt lat="45.02423" lon="5.47662">
        <ele>1270</ele>
        <time>2010-07-14T11:00:37Z</time>
      </trkpt>
      <trkpt lat="45.02393" lon="5.47652">
        <ele>1271</ele>
        <time>2010-07-14T11:00:48Z</time>
      </trkpt>
      <trkpt lat="45.02359" lon="5.47641">
        <ele>1274</ele>
        <time>2010-07-14T11:00:56Z</time>
      </trkpt>
      <trkpt lat="45.02325" lon="5.47635">
        <ele>1277</ele>
        <time>2010-07-14T11:01:08Z</time>
      </trkpt>
      <trkpt lat="45.02289" lon="5.47623">
        <ele>1282</ele>
        <time>2010-07-14T11:01:16Z</time>
      </trkpt>
      <trkpt lat="45.02261" lon="5.47612">
        <ele>1285</ele>
        <time>2010-07-14T11:01:23Z</time>
      </trkpt>
      <trkpt lat="45.02234" lon="5.47603">
        <ele>1287</ele>
        <time>2010-07-14T11:01:34Z</time>
      </trkpt>
      <trkpt lat="45.02199" lon="5.47599">
        <ele>1288</ele>
        <time>2010-07-14T11:01:42Z</time>
      </trkpt>
      <trkpt lat="45.02165" lon="5.47589">
        <ele>1288</ele>
        <time>2010-07-14T11:01:55Z</time>
      </trkpt>
      <trkpt lat="45.02126" lon="5.4757">
        <ele>1291</ele>
        <time>2010-07-14T11:02:02Z</time>
      </trkpt>
      <trkpt lat="45.02106" lon="5.47562">
        <ele>1295</ele>
        <time>2010-07-14T11:02:09Z</time>
      </trkpt>
      <trkpt lat="45.02074" lon="5.47556">
        <ele>1298</ele>
        <time>2010-07-14T11:02:16Z</time>
      </trkpt>
      <trkpt lat="45.02052" lon="5.47526">
        <ele>1301</ele>
        <time>2010-07-14T11:02:24Z</time>
      </trkpt>
      <trkpt lat="45.02044" lon="5.47491">
        <ele>1304</ele>
        <time>2010-07-14T11:02:31Z</time>
      </trkpt>
      <trkpt lat="45.02042" lon="5.4747">
        <ele>1304</ele>
        <time>2010-07-14T11:02:39Z</time>
      </trkpt>
      <trkpt lat="45.02034" lon="5.47433">
        <ele>1304</ele>
        <time>2010-07-14T11:02:46Z</time>
      </trkpt>
      <trkpt lat="45.02019" lon="5.47409">
        <ele>1305</ele>
        <time>2010-07-14T11:02:53Z</time>
      </trkpt>
      <trkpt lat="45.02" lon="5.47383">
        <ele>1305</ele>
        <time>2010-07-14T11:03:00Z</time>
      </trkpt>
      <trkpt lat="45.01983" lon="5.47352">
        <ele>1305</ele>
        <time>2010-07-14T11:03:12Z</time>
      </trkpt>
      <trkpt lat="45.01965" lon="5.47328">
        <ele>1308</ele>
        <time>2010-07-14T11:03:19Z</time>
      </trkpt>
      <trkpt lat="45.01944" lon="5.47316">
        <ele>1310</ele>
        <time>2010-07-14T11:03:27Z</time>
      </trkpt>
      <trkpt lat="45.01917" lon="5.47303">
        <ele>1310</ele>
        <time>2010-07-14T11:03:38Z</time>
      </trkpt>
      <trkpt lat="45.01887" lon="5.47288">
        <ele>1312</ele>
        <time>2010-07-14T11:03:46Z</time>
      </trkpt>
      <trkpt lat="45.01859" lon="5.47274">
        <ele>1312</ele>
        <time>2010-07-14T11:03:57Z</time>
      </trkpt>
      <trkpt lat="45.01833" lon="5.47252">
        <ele>1315</ele>
        <time>2010-07-14T11:04:05Z</time>
      </trkpt>
      <trkpt lat="45.01813" lon="5.47243">
        <ele>1316</ele>
        <time>2010-07-14T11:04:12Z</time>
      </trkpt>
      <trkpt lat="45.01791" lon="5.47237">
        <ele>1316</ele>
        <time>2010-07-14T11:04:19Z</time>
      </trkpt>
      <trkpt lat="45.01761" lon="5.47233">
        <ele>1315</ele>
        <time>2010-07-14T11:04:26Z</time>
      </trkpt>
      <trkpt lat="45.01738" lon="5.47228">
        <ele>1315</ele>
        <time>2010-07-14T11:04:33Z</time>
      </trkpt>
      <trkpt lat="45.01732" lon="5.47229">
        <ele>1315</ele>
        <time>2010-07-14T11:04:48Z</time>
      </trkpt>
      <trkpt lat="45.01718" lon="5.47228">
        <ele>1317</ele>
        <time>2010-07-14T11:05:03Z</time>
      </trkpt>
      <trkpt lat="45.01711" lon="5.47227">
        <ele>1319</ele>
        <time>2010-07-14T11:05:11Z</time>
      </trkpt>
      <trkpt lat="45.01697" lon="5.47235">
        <ele>1321</ele>
        <time>2010-07-14T11:05:19Z</time>
      </trkpt>
      <trkpt lat="45.01689" lon="5.47238">
        <ele>1321</ele>
        <time>2010-07-14T11:05:26Z</time>
      </trkpt>
      <trkpt lat="45.01671" lon="5.47223">
        <ele>1321</ele>
        <time>2010-07-14T11:05:34Z</time>
      </trkpt>
      <trkpt lat="45.01645" lon="5.47222">
        <ele>1321</ele>
        <time>2010-07-14T11:05:41Z</time>
      </trkpt>
      <trkpt lat="45.01622" lon="5.47226">
        <ele>1319</ele>
        <time>2010-07-14T11:05:50Z</time>
      </trkpt>
      <trkpt lat="45.0159" lon="5.47246">
        <ele>1319</ele>
        <time>2010-07-14T11:05:58Z</time>
      </trkpt>
      <trkpt lat="45.01569" lon="5.47255">
        <ele>1319</ele>
        <time>2010-07-14T11:06:05Z</time>
      </trkpt>
      <trkpt lat="45.0156" lon="5.47254">
        <ele>1321</ele>
        <time>2010-07-14T11:06:13Z</time>
      </trkpt>
      <trkpt lat="45.01539" lon="5.47219">
        <ele>1322</ele>
        <time>2010-07-14T11:06:20Z</time>
      </trkpt>
      <trkpt lat="45.01516" lon="5.47179">
        <ele>1322</ele>
        <time>2010-07-14T11:06:27Z</time>
      </trkpt>
      <trkpt lat="45.01508" lon="5.47158">
        <ele>1322</ele>
        <time>2010-07-14T11:06:34Z</time>
      </trkpt>
      <trkpt lat="45.01499" lon="5.47153">
        <ele>1322</ele>
        <time>2010-07-14T11:06:42Z</time>
      </trkpt>
      <trkpt lat="45.01485" lon="5.47153">
        <ele>1322</ele>
        <time>2010-07-14T11:06:50Z</time>
      </trkpt>
      <trkpt lat="45.01462" lon="5.47134">
        <ele>1320</ele>
        <time>2010-07-14T11:06:57Z</time>
      </trkpt>
      <trkpt lat="45.01447" lon="5.47113">
        <ele>1317</ele>
        <time>2010-07-14T11:07:04Z</time>
      </trkpt>
      <trkpt lat="45.01439" lon="5.47086">
        <ele>1314</ele>
        <time>2010-07-14T11:07:11Z</time>
      </trkpt>
      <trkpt lat="45.01435" lon="5.47043">
        <ele>1313</ele>
        <time>2010-07-14T11:07:18Z</time>
      </trkpt>
      <trkpt lat="45.01439" lon="5.47">
        <ele>1310</ele>
        <time>2010-07-14T11:07:25Z</time>
      </trkpt>
      <trkpt lat="45.01442" lon="5.47001">
        <ele>1306</ele>
        <time>2010-07-14T11:07:33Z</time>
      </trkpt>
      <trkpt lat="45.01443" lon="5.47001">
        <ele>1302</ele>
        <time>2010-07-14T11:07:50Z</time>
      </trkpt>
      <trkpt lat="45.01441" lon="5.47">
        <ele>1302</ele>
        <time>2010-07-14T11:07:57Z</time>
      </trkpt>
      <trkpt lat="45.01438" lon="5.46998">
        <ele>1302</ele>
        <time>2010-07-14T11:08:06Z</time>
      </trkpt>
      <trkpt lat="45.01431" lon="5.46997">
        <ele>1302</ele>
        <time>2010-07-14T11:08:14Z</time>
      </trkpt>
      <trkpt lat="45.01425" lon="5.46995">
        <ele>1305</ele>
        <time>2010-07-14T11:08:22Z</time>
      </trkpt>
      <trkpt lat="45.01422" lon="5.46999">
        <ele>1308</ele>
        <time>2010-07-14T11:08:30Z</time>
      </trkpt>
      <trkpt lat="45.01419" lon="5.47003">
        <ele>1309</ele>
        <time>2010-07-14T11:08:38Z</time>
      </trkpt>
      <trkpt lat="45.01422" lon="5.47008">
        <ele>1308</ele>
        <time>2010-07-14T11:08:45Z</time>
      </trkpt>
      <trkpt lat="45.0142" lon="5.47008">
        <ele>1302</ele>
        <time>2010-07-14T11:09:01Z</time>
      </trkpt>
      <trkpt lat="45.01418" lon="5.47007">
        <ele>1300</ele>
        <time>2010-07-14T11:09:09Z</time>
      </trkpt>
      <trkpt lat="45.01417" lon="5.47004">
        <ele>1300</ele>
        <time>2010-07-14T11:09:17Z</time>
      </trkpt>
      <trkpt lat="45.01418" lon="5.47004">
        <ele>1300</ele>
        <time>2010-07-14T11:09:28Z</time>
      </trkpt>
      <trkpt lat="45.01417" lon="5.47001">
        <ele>1295</ele>
        <time>2010-07-14T11:10:02Z</time>
      </trkpt>
      <trkpt lat="45.01418" lon="5.47007">
        <ele>1295</ele>
        <time>2010-07-14T11:10:11Z</time>
      </trkpt>
      <trkpt lat="45.01421" lon="5.47014">
        <ele>1291</ele>
        <time>2010-07-14T11:10:19Z</time>
      </trkpt>
      <trkpt lat="45.01419" lon="5.47015">
        <ele>1288</ele>
        <time>2010-07-14T11:10:27Z</time>
      </trkpt>
      <trkpt lat="45.01413" lon="5.47009">
        <ele>1289</ele>
        <time>2010-07-14T11:10:35Z</time>
      </trkpt>
      <trkpt lat="45.01414" lon="5.47006">
        <ele>1296</ele>
        <time>2010-07-14T11:10:50Z</time>
      </trkpt>
      <trkpt lat="45.01412" lon="5.46999">
        <ele>1299</ele>
        <time>2010-07-14T11:10:58Z</time>
      </trkpt>
      <trkpt lat="45.01414" lon="5.47005">
        <ele>1303</ele>
        <time>2010-07-14T11:11:08Z</time>
      </trkpt>
      <trkpt lat="45.01412" lon="5.47005">
        <ele>1304</ele>
        <time>2010-07-14T11:11:17Z</time>
      </trkpt>
      <trkpt lat="45.01411" lon="5.47004">
        <ele>1305</ele>
        <time>2010-07-14T11:11:24Z</time>
      </trkpt>
      <trkpt lat="45.01412" lon="5.47005">
        <ele>1306</ele>
        <time>2010-07-14T11:11:33Z</time>
      </trkpt>
      <trkpt lat="45.0141" lon="5.47002">
        <ele>1306</ele>
        <time>2010-07-14T11:11:41Z</time>
      </trkpt>
      <trkpt lat="45.01408" lon="5.47">
        <ele>1308</ele>
        <time>2010-07-14T11:11:50Z</time>
      </trkpt>
      <trkpt lat="45.01407" lon="5.46998">
        <ele>1308</ele>
        <time>2010-07-14T11:12:00Z</time>
      </trkpt>
      <trkpt lat="45.01408" lon="5.46996">
        <ele>1310</ele>
        <time>2010-07-14T11:12:09Z</time>
      </trkpt>
      <trkpt lat="45.01406" lon="5.46995">
        <ele>1310</ele>
        <time>2010-07-14T11:12:18Z</time>
      </trkpt>
      <trkpt lat="45.01405" lon="5.46997">
        <ele>1310</ele>
        <time>2010-07-14T11:12:25Z</time>
      </trkpt>
      <trkpt lat="45.01404" lon="5.46999">
        <ele>1310</ele>
        <time>2010-07-14T11:12:33Z</time>
      </trkpt>
      <trkpt lat="45.01405" lon="5.47003">
        <ele>1310</ele>
        <time>2010-07-14T11:12:42Z</time>
      </trkpt>
      <trkpt lat="45.01408" lon="5.47005">
        <ele>1309</ele>
        <time>2010-07-14T11:12:50Z</time>
      </trkpt>
      <trkpt lat="45.01408" lon="5.47006">
        <ele>1309</ele>
        <time>2010-07-14T11:13:07Z</time>
      </trkpt>
      <trkpt lat="45.01408" lon="5.47007">
        <ele>1308</ele>
        <time>2010-07-14T11:13:15Z</time>
      </trkpt>
      <trkpt lat="45.01411" lon="5.47012">
        <ele>1305</ele>
        <time>2010-07-14T11:13:24Z</time>
      </trkpt>
      <trkpt lat="45.01417" lon="5.47013">
        <ele>1303</ele>
        <time>2010-07-14T11:13:32Z</time>
      </trkpt>
      <trkpt lat="45.01423" lon="5.47021">
        <ele>1299</ele>
        <time>2010-07-14T11:13:40Z</time>
      </trkpt>
      <trkpt lat="45.01419" lon="5.4702">
        <ele>1296</ele>
        <time>2010-07-14T11:13:48Z</time>
      </trkpt>
      <trkpt lat="45.01414" lon="5.47014">
        <ele>1296</ele>
        <time>2010-07-14T11:13:58Z</time>
      </trkpt>
      <trkpt lat="45.01417" lon="5.47014">
        <ele>1297</ele>
        <time>2010-07-14T11:14:05Z</time>
      </trkpt>
      <trkpt lat="45.01412" lon="5.47008">
        <ele>1300</ele>
        <time>2010-07-14T11:14:13Z</time>
      </trkpt>
      <trkpt lat="45.01403" lon="5.46997">
        <ele>1308</ele>
        <time>2010-07-14T11:14:22Z</time>
      </trkpt>
      <trkpt lat="45.01409" lon="5.47">
        <ele>1316</ele>
        <time>2010-07-14T11:14:29Z</time>
      </trkpt>
      <trkpt lat="45.01413" lon="5.46998">
        <ele>1318</ele>
        <time>2010-07-14T11:14:38Z</time>
      </trkpt>
      <trkpt lat="45.01412" lon="5.47002">
        <ele>1318</ele>
        <time>2010-07-14T11:14:47Z</time>
      </trkpt>
      <trkpt lat="45.01407" lon="5.47009">
        <ele>1317</ele>
        <time>2010-07-14T11:14:55Z</time>
      </trkpt>
      <trkpt lat="45.01398" lon="5.47035">
        <ele>1313</ele>
        <time>2010-07-14T11:15:03Z</time>
      </trkpt>
      <trkpt lat="45.01387" lon="5.47062">
        <ele>1305</ele>
        <time>2010-07-14T11:15:11Z</time>
      </trkpt>
      <trkpt lat="45.01387" lon="5.47074">
        <ele>1293</ele>
        <time>2010-07-14T11:15:20Z</time>
      </trkpt>
      <trkpt lat="45.01382" lon="5.47072">
        <ele>1287</ele>
        <time>2010-07-14T11:15:28Z</time>
      </trkpt>
      <trkpt lat="45.01379" lon="5.47059">
        <ele>1283</ele>
        <time>2010-07-14T11:15:35Z</time>
      </trkpt>
      <trkpt lat="45.01365" lon="5.47044">
        <ele>1280</ele>
        <time>2010-07-14T11:15:42Z</time>
      </trkpt>
      <trkpt lat="45.01363" lon="5.47053">
        <ele>1279</ele>
        <time>2010-07-14T11:15:50Z</time>
      </trkpt>
      <trkpt lat="45.01359" lon="5.47066">
        <ele>1282</ele>
        <time>2010-07-14T11:15:59Z</time>
      </trkpt>
      <trkpt lat="45.01352" lon="5.47074">
        <ele>1285</ele>
        <time>2010-07-14T11:16:07Z</time>
      </trkpt>
      <trkpt lat="45.01349" lon="5.47099">
        <ele>1290</ele>
        <time>2010-07-14T11:16:15Z</time>
      </trkpt>
      <trkpt lat="45.0135" lon="5.47119">
        <ele>1293</ele>
        <time>2010-07-14T11:16:27Z</time>
      </trkpt>
      <trkpt lat="45.01351" lon="5.47128">
        <ele>1296</ele>
        <time>2010-07-14T11:16:37Z</time>
      </trkpt>
      <trkpt lat="45.0135" lon="5.47115">
        <ele>1296</ele>
        <time>2010-07-14T11:16:45Z</time>
      </trkpt>
      <trkpt lat="45.01348" lon="5.47078">
        <ele>1296</ele>
        <time>2010-07-14T11:16:53Z</time>
      </trkpt>
      <trkpt lat="45.01331" lon="5.47037">
        <ele>1295</ele>
        <time>2010-07-14T11:17:00Z</time>
      </trkpt>
      <trkpt lat="45.01326" lon="5.47029">
        <ele>1295</ele>
        <time>2010-07-14T11:17:08Z</time>
      </trkpt>
      <trkpt lat="45.01318" lon="5.47024">
        <ele>1295</ele>
        <time>2010-07-14T11:17:16Z</time>
      </trkpt>
      <trkpt lat="45.01273" lon="5.46996">
        <ele>1295</ele>
        <time>2010-07-14T11:17:23Z</time>
      </trkpt>
      <trkpt lat="45.01249" lon="5.46996">
        <ele>1292</ele>
        <time>2010-07-14T11:17:30Z</time>
      </trkpt>
      <trkpt lat="45.0119" lon="5.46988">
        <ele>1288</ele>
        <time>2010-07-14T11:17:38Z</time>
      </trkpt>
      <trkpt lat="45.01149" lon="5.46976">
        <ele>1285</ele>
        <time>2010-07-14T11:17:45Z</time>
      </trkpt>
      <trkpt lat="45.01133" lon="5.46973">
        <ele>1281</ele>
        <time>2010-07-14T11:17:53Z</time>
      </trkpt>
      <trkpt lat="45.01132" lon="5.46972">
        <ele>1280</ele>
        <time>2010-07-14T11:18:07Z</time>
      </trkpt>
      <trkpt lat="45.01133" lon="5.46972">
        <ele>1279</ele>
        <time>2010-07-14T11:18:15Z</time>
      </trkpt>
      <trkpt lat="45.01135" lon="5.46972">
        <ele>1277</ele>
        <time>2010-07-14T11:18:24Z</time>
      </trkpt>
      <trkpt lat="45.01136" lon="5.46972">
        <ele>1276</ele>
        <time>2010-07-14T11:18:32Z</time>
      </trkpt>
      <trkpt lat="45.01135" lon="5.46971">
        <ele>1276</ele>
        <time>2010-07-14T11:18:42Z</time>
      </trkpt>
      <trkpt lat="45.01133" lon="5.4697">
        <ele>1275</ele>
        <time>2010-07-14T11:18:51Z</time>
      </trkpt>
      <trkpt lat="45.01131" lon="5.46972">
        <ele>1275</ele>
        <time>2010-07-14T11:18:59Z</time>
      </trkpt>
      <trkpt lat="45.01114" lon="5.46975">
        <ele>1274</ele>
        <time>2010-07-14T11:19:07Z</time>
      </trkpt>
      <trkpt lat="45.0108" lon="5.46982">
        <ele>1273</ele>
        <time>2010-07-14T11:19:14Z</time>
      </trkpt>
      <trkpt lat="45.01035" lon="5.46995">
        <ele>1271</ele>
        <time>2010-07-14T11:19:21Z</time>
      </trkpt>
      <trkpt lat="45.01002" lon="5.47016">
        <ele>1269</ele>
        <time>2010-07-14T11:19:28Z</time>
      </trkpt>
      <trkpt lat="45.00912" lon="5.471">
        <ele>1264</ele>
        <time>2010-07-14T11:19:36Z</time>
      </trkpt>
      <trkpt lat="45.00844" lon="5.47101">
        <ele>1257</ele>
        <time>2010-07-14T11:19:44Z</time>
      </trkpt>
      <trkpt lat="45.00776" lon="5.47115">
        <ele>1251</ele>
        <time>2010-07-14T11:19:51Z</time>
      </trkpt>
      <trkpt lat="45.00793" lon="5.4707">
        <ele>1243</ele>
        <time>2010-07-14T11:19:59Z</time>
      </trkpt>
      <trkpt lat="45.00833" lon="5.47005">
        <ele>1238</ele>
        <time>2010-07-14T11:20:06Z</time>
      </trkpt>
      <trkpt lat="45.00809" lon="5.46948">
        <ele>1234</ele>
        <time>2010-07-14T11:20:14Z</time>
      </trkpt>
      <trkpt lat="45.00711" lon="5.46948">
        <ele>1229</ele>
        <time>2010-07-14T11:20:21Z</time>
      </trkpt>
      <trkpt lat="45.00668" lon="5.46924">
        <ele>1224</ele>
        <time>2010-07-14T11:20:28Z</time>
      </trkpt>
      <trkpt lat="45.00595" lon="5.4698">
        <ele>1216</ele>
        <time>2010-07-14T11:20:36Z</time>
      </trkpt>
      <trkpt lat="45.00541" lon="5.46934">
        <ele>1211</ele>
        <time>2010-07-14T11:20:44Z</time>
      </trkpt>
      <trkpt lat="45.00464" lon="5.46862">
        <ele>1205</ele>
        <time>2010-07-14T11:20:52Z</time>
      </trkpt>
      <trkpt lat="45.00382" lon="5.46785">
        <ele>1199</ele>
        <time>2010-07-14T11:21:00Z</time>
      </trkpt>
      <trkpt lat="45.00344" lon="5.46737">
        <ele>1193</ele>
        <time>2010-07-14T11:21:07Z</time>
      </trkpt>
      <trkpt lat="45.00409" lon="5.46766">
        <ele>1185</ele>
        <time>2010-07-14T11:21:15Z</time>
      </trkpt>
      <trkpt lat="45.00493" lon="5.46783">
        <ele>1178</ele>
        <time>2010-07-14T11:21:23Z</time>
      </trkpt>
      <trkpt lat="45.00571" lon="5.46789">
        <ele>1172</ele>
        <time>2010-07-14T11:21:30Z</time>
      </trkpt>
      <trkpt lat="45.00639" lon="5.46784">
        <ele>1166</ele>
        <time>2010-07-14T11:21:37Z</time>
      </trkpt>
      <trkpt lat="45.00717" lon="5.46786">
        <ele>1160</ele>
        <time>2010-07-14T11:21:44Z</time>
      </trkpt>
      <trkpt lat="45.00807" lon="5.46778">
        <ele>1152</ele>
        <time>2010-07-14T11:21:52Z</time>
      </trkpt>
      <trkpt lat="45.00889" lon="5.46772">
        <ele>1146</ele>
        <time>2010-07-14T11:21:59Z</time>
      </trkpt>
      <trkpt lat="45.00968" lon="5.46766">
        <ele>1138</ele>
        <time>2010-07-14T11:22:11Z</time>
      </trkpt>
      <trkpt lat="45.01054" lon="5.46732">
        <ele>1130</ele>
        <time>2010-07-14T11:22:18Z</time>
      </trkpt>
      <trkpt lat="45.0117" lon="5.46697">
        <ele>1123</ele>
        <time>2010-07-14T11:22:26Z</time>
      </trkpt>
      <trkpt lat="45.01292" lon="5.46651">
        <ele>1114</ele>
        <time>2010-07-14T11:22:38Z</time>
      </trkpt>
      <trkpt lat="45.0134" lon="5.46617">
        <ele>1106</ele>
        <time>2010-07-14T11:22:46Z</time>
      </trkpt>
      <trkpt lat="45.01347" lon="5.46616">
        <ele>1102</ele>
        <time>2010-07-14T11:22:54Z</time>
      </trkpt>
      <trkpt lat="45.0135" lon="5.4662">
        <ele>1099</ele>
        <time>2010-07-14T11:23:02Z</time>
      </trkpt>
      <trkpt lat="45.01347" lon="5.46621">
        <ele>1097</ele>
        <time>2010-07-14T11:23:10Z</time>
      </trkpt>
      <trkpt lat="45.01344" lon="5.46619">
        <ele>1096</ele>
        <time>2010-07-14T11:23:18Z</time>
      </trkpt>
      <trkpt lat="45.01337" lon="5.46615">
        <ele>1096</ele>
        <time>2010-07-14T11:23:26Z</time>
      </trkpt>
      <trkpt lat="45.01335" lon="5.46615">
        <ele>1094</ele>
        <time>2010-07-14T11:23:37Z</time>
      </trkpt>
      <trkpt lat="45.01338" lon="5.46619">
        <ele>1092</ele>
        <time>2010-07-14T11:23:47Z</time>
      </trkpt>
      <trkpt lat="45.01341" lon="5.46619">
        <ele>1090</ele>
        <time>2010-07-14T11:23:59Z</time>
      </trkpt>
      <trkpt lat="45.01342" lon="5.46616">
        <ele>1090</ele>
        <time>2010-07-14T11:24:13Z</time>
      </trkpt>
      <trkpt lat="45.01349" lon="5.46623">
        <ele>1090</ele>
        <time>2010-07-14T11:24:21Z</time>
      </trkpt>
      <trkpt lat="45.01358" lon="5.46631">
        <ele>1088</ele>
        <time>2010-07-14T11:24:29Z</time>
      </trkpt>
      <trkpt lat="45.0137" lon="5.46634">
        <ele>1079</ele>
        <time>2010-07-14T11:24:37Z</time>
      </trkpt>
      <trkpt lat="45.01368" lon="5.46632">
        <ele>1074</ele>
        <time>2010-07-14T11:24:45Z</time>
      </trkpt>
      <trkpt lat="45.01364" lon="5.46633">
        <ele>1074</ele>
        <time>2010-07-14T11:24:53Z</time>
      </trkpt>
      <trkpt lat="45.01363" lon="5.46633">
        <ele>1074</ele>
        <time>2010-07-14T11:25:00Z</time>
      </trkpt>
      <trkpt lat="45.01359" lon="5.46632">
        <ele>1073</ele>
        <time>2010-07-14T11:25:08Z</time>
      </trkpt>
      <trkpt lat="45.01354" lon="5.4663">
        <ele>1073</ele>
        <time>2010-07-14T11:25:23Z</time>
      </trkpt>
      <trkpt lat="45.01359" lon="5.46632">
        <ele>1073</ele>
        <time>2010-07-14T11:25:31Z</time>
      </trkpt>
      <trkpt lat="45.01364" lon="5.46632">
        <ele>1073</ele>
        <time>2010-07-14T11:25:40Z</time>
      </trkpt>
      <trkpt lat="45.01362" lon="5.46632">
        <ele>1073</ele>
        <time>2010-07-14T11:25:48Z</time>
      </trkpt>
      <trkpt lat="45.01365" lon="5.46631">
        <ele>1073</ele>
        <time>2010-07-14T11:25:56Z</time>
      </trkpt>
      <trkpt lat="45.01358" lon="5.46624">
        <ele>1077</ele>
        <time>2010-07-14T11:26:04Z</time>
      </trkpt>
      <trkpt lat="45.01345" lon="5.46617">
        <ele>1084</ele>
        <time>2010-07-14T11:26:13Z</time>
      </trkpt>
      <trkpt lat="45.01336" lon="5.46619">
        <ele>1090</ele>
        <time>2010-07-14T11:26:21Z</time>
      </trkpt>
      <trkpt lat="45.01315" lon="5.46625">
        <ele>1095</ele>
        <time>2010-07-14T11:26:28Z</time>
      </trkpt>
      <trkpt lat="45.01295" lon="5.46635">
        <ele>1101</ele>
        <time>2010-07-14T11:26:35Z</time>
      </trkpt>
      <trkpt lat="45.0128" lon="5.4665">
        <ele>1105</ele>
        <time>2010-07-14T11:26:43Z</time>
      </trkpt>
      <trkpt lat="45.01269" lon="5.4666">
        <ele>1108</ele>
        <time>2010-07-14T11:26:50Z</time>
      </trkpt>
      <trkpt lat="45.0125" lon="5.46669">
        <ele>1110</ele>
        <time>2010-07-14T11:27:02Z</time>
      </trkpt>
      <trkpt lat="45.01235" lon="5.46676">
        <ele>1110</ele>
        <time>2010-07-14T11:27:10Z</time>
      </trkpt>
      <trkpt lat="45.01232" lon="5.46677">
        <ele>1110</ele>
        <time>2010-07-14T11:27:17Z</time>
      </trkpt>
      <trkpt lat="45.0123" lon="5.46677">
        <ele>1110</ele>
        <time>2010-07-14T11:27:26Z</time>
      </trkpt>
      <trkpt lat="45.01228" lon="5.46677">
        <ele>1110</ele>
        <time>2010-07-14T11:27:35Z</time>
      </trkpt>
      <trkpt lat="45.01229" lon="5.46676">
        <ele>1110</ele>
        <time>2010-07-14T11:27:57Z</time>
      </trkpt>
      <trkpt lat="45.01231" lon="5.46676">
        <ele>1110</ele>
        <time>2010-07-14T11:28:20Z</time>
      </trkpt>
      <trkpt lat="45.01223" lon="5.46682">
        <ele>1110</ele>
        <time>2010-07-14T11:28:28Z</time>
      </trkpt>
      <trkpt lat="45.01217" lon="5.46685">
        <ele>1110</ele>
        <time>2010-07-14T11:28:35Z</time>
      </trkpt>
      <trkpt lat="45.01199" lon="5.46693">
        <ele>1110</ele>
        <time>2010-07-14T11:28:43Z</time>
      </trkpt>
      <trkpt lat="45.01187" lon="5.46698">
        <ele>1110</ele>
        <time>2010-07-14T11:28:50Z</time>
      </trkpt>
      <trkpt lat="45.01175" lon="5.46701">
        <ele>1110</ele>
        <time>2010-07-14T11:28:57Z</time>
      </trkpt>
      <trkpt lat="45.0116" lon="5.46709">
        <ele>1110</ele>
        <time>2010-07-14T11:29:08Z</time>
      </trkpt>
      <trkpt lat="45.01142" lon="5.46714">
        <ele>1110</ele>
        <time>2010-07-14T11:29:16Z</time>
      </trkpt>
      <trkpt lat="45.01125" lon="5.46717">
        <ele>1110</ele>
        <time>2010-07-14T11:29:25Z</time>
      </trkpt>
      <trkpt lat="45.01111" lon="5.46721">
        <ele>1110</ele>
        <time>2010-07-14T11:29:32Z</time>
      </trkpt>
      <trkpt lat="45.01097" lon="5.46722">
        <ele>1110</ele>
        <time>2010-07-14T11:29:39Z</time>
      </trkpt>
      <trkpt lat="45.01083" lon="5.46726">
        <ele>1112</ele>
        <time>2010-07-14T11:29:46Z</time>
      </trkpt>
      <trkpt lat="45.01071" lon="5.46731">
        <ele>1112</ele>
        <time>2010-07-14T11:29:53Z</time>
      </trkpt>
      <trkpt lat="45.01057" lon="5.46736">
        <ele>1113</ele>
        <time>2010-07-14T11:30:00Z</time>
      </trkpt>
      <trkpt lat="45.0104" lon="5.46747">
        <ele>1114</ele>
        <time>2010-07-14T11:30:11Z</time>
      </trkpt>
      <trkpt lat="45.01023" lon="5.46757">
        <ele>1115</ele>
        <time>2010-07-14T11:30:19Z</time>
      </trkpt>
      <trkpt lat="45.0101" lon="5.46763">
        <ele>1117</ele>
        <time>2010-07-14T11:30:26Z</time>
      </trkpt>
      <trkpt lat="45.00993" lon="5.46763">
        <ele>1121</ele>
        <time>2010-07-14T11:30:34Z</time>
      </trkpt>
      <trkpt lat="45.00979" lon="5.46767">
        <ele>1123</ele>
        <time>2010-07-14T11:30:41Z</time>
      </trkpt>
      <trkpt lat="45.0096" lon="5.46765">
        <ele>1126</ele>
        <time>2010-07-14T11:30:52Z</time>
      </trkpt>
      <trkpt lat="45.00938" lon="5.46763">
        <ele>1130</ele>
        <time>2010-07-14T11:31:00Z</time>
      </trkpt>
      <trkpt lat="45.00923" lon="5.46765">
        <ele>1134</ele>
        <time>2010-07-14T11:31:07Z</time>
      </trkpt>
      <trkpt lat="45.00907" lon="5.46768">
        <ele>1137</ele>
        <time>2010-07-14T11:31:14Z</time>
      </trkpt>
      <trkpt lat="45.0089" lon="5.46771">
        <ele>1139</ele>
        <time>2010-07-14T11:31:21Z</time>
      </trkpt>
      <trkpt lat="45.00871" lon="5.46768">
        <ele>1141</ele>
        <time>2010-07-14T11:31:32Z</time>
      </trkpt>
      <trkpt lat="45.00846" lon="5.4677">
        <ele>1143</ele>
        <time>2010-07-14T11:31:40Z</time>
      </trkpt>
      <trkpt lat="45.00832" lon="5.46769">
        <ele>1145</ele>
        <time>2010-07-14T11:31:47Z</time>
      </trkpt>
      <trkpt lat="45.00815" lon="5.46772">
        <ele>1147</ele>
        <time>2010-07-14T11:31:54Z</time>
      </trkpt>
      <trkpt lat="45.00798" lon="5.46772">
        <ele>1148</ele>
        <time>2010-07-14T11:32:01Z</time>
      </trkpt>
      <trkpt lat="45.00779" lon="5.4678">
        <ele>1149</ele>
        <time>2010-07-14T11:32:12Z</time>
      </trkpt>
      <trkpt lat="45.00757" lon="5.46781">
        <ele>1151</ele>
        <time>2010-07-14T11:32:20Z</time>
      </trkpt>
      <trkpt lat="45.0074" lon="5.46777">
        <ele>1153</ele>
        <time>2010-07-14T11:32:27Z</time>
      </trkpt>
      <trkpt lat="45.00726" lon="5.46778">
        <ele>1155</ele>
        <time>2010-07-14T11:32:34Z</time>
      </trkpt>
      <trkpt lat="45.00711" lon="5.46777">
        <ele>1156</ele>
        <time>2010-07-14T11:32:41Z</time>
      </trkpt>
      <trkpt lat="45.00698" lon="5.46776">
        <ele>1158</ele>
        <time>2010-07-14T11:32:48Z</time>
      </trkpt>
      <trkpt lat="45.00689" lon="5.46777">
        <ele>1161</ele>
        <time>2010-07-14T11:32:56Z</time>
      </trkpt>
      <trkpt lat="45.00661" lon="5.46775">
        <ele>1161</ele>
        <time>2010-07-14T11:33:04Z</time>
      </trkpt>
      <trkpt lat="45.00645" lon="5.4677">
        <ele>1161</ele>
        <time>2010-07-14T11:33:11Z</time>
      </trkpt>
      <trkpt lat="45.00631" lon="5.4678">
        <ele>1161</ele>
        <time>2010-07-14T11:33:18Z</time>
      </trkpt>
      <trkpt lat="45.00606" lon="5.46788">
        <ele>1161</ele>
        <time>2010-07-14T11:33:30Z</time>
      </trkpt>
      <trkpt lat="45.0059" lon="5.46792">
        <ele>1161</ele>
        <time>2010-07-14T11:33:37Z</time>
      </trkpt>
      <trkpt lat="45.00577" lon="5.46788">
        <ele>1161</ele>
        <time>2010-07-14T11:33:44Z</time>
      </trkpt>
      <trkpt lat="45.00565" lon="5.46783">
        <ele>1161</ele>
        <time>2010-07-14T11:33:51Z</time>
      </trkpt>
      <trkpt lat="45.00562" lon="5.46779">
        <ele>1161</ele>
        <time>2010-07-14T11:34:07Z</time>
      </trkpt>
      <trkpt lat="45.00562" lon="5.46777">
        <ele>1162</ele>
        <time>2010-07-14T11:34:15Z</time>
      </trkpt>
      <trkpt lat="45.00563" lon="5.46775">
        <ele>1166</ele>
        <time>2010-07-14T11:34:26Z</time>
      </trkpt>
      <trkpt lat="45.00571" lon="5.46785">
        <ele>1167</ele>
        <time>2010-07-14T11:34:34Z</time>
      </trkpt>
      <trkpt lat="45.00598" lon="5.46791">
        <ele>1167</ele>
        <time>2010-07-14T11:34:41Z</time>
      </trkpt>
      <trkpt lat="45.00641" lon="5.46781">
        <ele>1162</ele>
        <time>2010-07-14T11:34:48Z</time>
      </trkpt>
      <trkpt lat="45.00701" lon="5.46781">
        <ele>1156</ele>
        <time>2010-07-14T11:34:56Z</time>
      </trkpt>
      <trkpt lat="45.00798" lon="5.4678">
        <ele>1148</ele>
        <time>2010-07-14T11:35:07Z</time>
      </trkpt>
      <trkpt lat="45.00912" lon="5.46772">
        <ele>1137</ele>
        <time>2010-07-14T11:35:15Z</time>
      </trkpt>
      <trkpt lat="45.00985" lon="5.46766">
        <ele>1128</ele>
        <time>2010-07-14T11:35:22Z</time>
      </trkpt>
      <trkpt lat="45.01062" lon="5.46738">
        <ele>1120</ele>
        <time>2010-07-14T11:35:29Z</time>
      </trkpt>
      <trkpt lat="45.01184" lon="5.467">
        <ele>1109</ele>
        <time>2010-07-14T11:35:41Z</time>
      </trkpt>
      <trkpt lat="45.01305" lon="5.46647">
        <ele>1099</ele>
        <time>2010-07-14T11:35:49Z</time>
      </trkpt>
      <trkpt lat="45.01377" lon="5.46584">
        <ele>1093</ele>
        <time>2010-07-14T11:35:56Z</time>
      </trkpt>
      <trkpt lat="45.01394" lon="5.46555">
        <ele>1089</ele>
        <time>2010-07-14T11:36:03Z</time>
      </trkpt>
      <trkpt lat="45.0139" lon="5.46558">
        <ele>1085</ele>
        <time>2010-07-14T11:36:12Z</time>
      </trkpt>
      <trkpt lat="45.01394" lon="5.46562">
        <ele>1081</ele>
        <time>2010-07-14T11:36:21Z</time>
      </trkpt>
      <trkpt lat="45.01353" lon="5.46565">
        <ele>1081</ele>
        <time>2010-07-14T11:36:28Z</time>
      </trkpt>
      <trkpt lat="45.01284" lon="5.46582">
        <ele>1084</ele>
        <time>2010-07-14T11:36:36Z</time>
      </trkpt>
      <trkpt lat="45.01202" lon="5.46601">
        <ele>1083</ele>
        <time>2010-07-14T11:36:48Z</time>
      </trkpt>
      <trkpt lat="45.01115" lon="5.46617">
        <ele>1076</ele>
        <time>2010-07-14T11:36:56Z</time>
      </trkpt>
      <trkpt lat="45.01051" lon="5.46617">
        <ele>1064</ele>
        <time>2010-07-14T11:37:08Z</time>
      </trkpt>
      <trkpt lat="45.00987" lon="5.46607">
        <ele>1052</ele>
        <time>2010-07-14T11:37:16Z</time>
      </trkpt>
      <trkpt lat="45.00934" lon="5.46596">
        <ele>1045</ele>
        <time>2010-07-14T11:37:23Z</time>
      </trkpt>
      <trkpt lat="45.00867" lon="5.46575">
        <ele>1037</ele>
        <time>2010-07-14T11:37:35Z</time>
      </trkpt>
      <trkpt lat="45.008" lon="5.46557">
        <ele>1029</ele>
        <time>2010-07-14T11:37:44Z</time>
      </trkpt>
      <trkpt lat="45.00811" lon="5.46549">
        <ele>1021</ele>
        <time>2010-07-14T11:37:52Z</time>
      </trkpt>
      <trkpt lat="45.00817" lon="5.46549">
        <ele>1015</ele>
        <time>2010-07-14T11:38:00Z</time>
      </trkpt>
      <trkpt lat="45.00817" lon="5.46549">
        <ele>1007</ele>
        <time>2010-07-14T11:38:10Z</time>
      </trkpt>
      <trkpt lat="45.00819" lon="5.4655">
        <ele>1007</ele>
        <time>2010-07-14T11:38:33Z</time>
      </trkpt>
      <trkpt lat="45.00834" lon="5.46546">
        <ele>1007</ele>
        <time>2010-07-14T11:38:41Z</time>
      </trkpt>
      <trkpt lat="45.00892" lon="5.4654">
        <ele>1007</ele>
        <time>2010-07-14T11:38:53Z</time>
      </trkpt>
      <trkpt lat="45.00968" lon="5.46518">
        <ele>1005</ele>
        <time>2010-07-14T11:39:01Z</time>
      </trkpt>
      <trkpt lat="45.01022" lon="5.46505">
        <ele>1002</ele>
        <time>2010-07-14T11:39:08Z</time>
      </trkpt>
      <trkpt lat="45.01081" lon="5.4648">
        <ele>998</ele>
        <time>2010-07-14T11:39:16Z</time>
      </trkpt>
      <trkpt lat="45.01089" lon="5.46467">
        <ele>992</ele>
        <time>2010-07-14T11:39:23Z</time>
      </trkpt>
      <trkpt lat="45.0102" lon="5.46459">
        <ele>989</ele>
        <time>2010-07-14T11:39:31Z</time>
      </trkpt>
      <trkpt lat="45.00984" lon="5.46441">
        <ele>987</ele>
        <time>2010-07-14T11:39:38Z</time>
      </trkpt>
      <trkpt lat="45.00885" lon="5.46421">
        <ele>980</ele>
        <time>2010-07-14T11:39:46Z</time>
      </trkpt>
      <trkpt lat="45.00791" lon="5.4639">
        <ele>968</ele>
        <time>2010-07-14T11:39:58Z</time>
      </trkpt>
      <trkpt lat="45.00726" lon="5.46382">
        <ele>953</ele>
        <time>2010-07-14T11:40:06Z</time>
      </trkpt>
      <trkpt lat="45.00672" lon="5.46372">
        <ele>942</ele>
        <time>2010-07-14T11:40:13Z</time>
      </trkpt>
      <trkpt lat="45.00607" lon="5.46343">
        <ele>930</ele>
        <time>2010-07-14T11:40:21Z</time>
      </trkpt>
      <trkpt lat="45.00509" lon="5.46292">
        <ele>922</ele>
        <time>2010-07-14T11:40:33Z</time>
      </trkpt>
      <trkpt lat="45.00458" lon="5.46243">
        <ele>913</ele>
        <time>2010-07-14T11:40:40Z</time>
      </trkpt>
      <trkpt lat="45.00414" lon="5.46197">
        <ele>904</ele>
        <time>2010-07-14T11:40:47Z</time>
      </trkpt>
      <trkpt lat="45.00377" lon="5.4617">
        <ele>895</ele>
        <time>2010-07-14T11:40:54Z</time>
      </trkpt>
      <trkpt lat="45.00334" lon="5.46156">
        <ele>886</ele>
        <time>2010-07-14T11:41:01Z</time>
      </trkpt>
      <trkpt lat="45.0032" lon="5.46139">
        <ele>877</ele>
        <time>2010-07-14T11:41:09Z</time>
      </trkpt>
      <trkpt lat="45.00266" lon="5.4609">
        <ele>865</ele>
        <time>2010-07-14T11:41:17Z</time>
      </trkpt>
      <trkpt lat="45.00226" lon="5.46078">
        <ele>858</ele>
        <time>2010-07-14T11:41:24Z</time>
      </trkpt>
      <trkpt lat="45.00187" lon="5.46071">
        <ele>852</ele>
        <time>2010-07-14T11:41:31Z</time>
      </trkpt>
      <trkpt lat="45.00152" lon="5.46">
        <ele>844</ele>
        <time>2010-07-14T11:41:39Z</time>
      </trkpt>
      <trkpt lat="45.00143" lon="5.45933">
        <ele>838</ele>
        <time>2010-07-14T11:41:46Z</time>
      </trkpt>
      <trkpt lat="45.00135" lon="5.45848">
        <ele>829</ele>
        <time>2010-07-14T11:41:54Z</time>
      </trkpt>
      <trkpt lat="45.00139" lon="5.45779">
        <ele>823</ele>
        <time>2010-07-14T11:42:01Z</time>
      </trkpt>
      <trkpt lat="45.00164" lon="5.45677">
        <ele>815</ele>
        <time>2010-07-14T11:42:09Z</time>
      </trkpt>
      <trkpt lat="45.00233" lon="5.45612">
        <ele>809</ele>
        <time>2010-07-14T11:42:16Z</time>
      </trkpt>
      <trkpt lat="45.00295" lon="5.45478">
        <ele>799</ele>
        <time>2010-07-14T11:42:25Z</time>
      </trkpt>
      <trkpt lat="45.0032" lon="5.45346">
        <ele>788</ele>
        <time>2010-07-14T11:42:33Z</time>
      </trkpt>
      <trkpt lat="45.00339" lon="5.45218">
        <ele>781</ele>
        <time>2010-07-14T11:42:45Z</time>
      </trkpt>
      <trkpt lat="45.00349" lon="5.45174">
        <ele>769</ele>
        <time>2010-07-14T11:42:52Z</time>
      </trkpt>
      <trkpt lat="45.00363" lon="5.45164">
        <ele>763</ele>
        <time>2010-07-14T11:42:59Z</time>
      </trkpt>
      <trkpt lat="45.00378" lon="5.45174">
        <ele>757</ele>
        <time>2010-07-14T11:43:06Z</time>
      </trkpt>
      <trkpt lat="45.00385" lon="5.45178">
        <ele>752</ele>
        <time>2010-07-14T11:43:15Z</time>
      </trkpt>
      <trkpt lat="45.00397" lon="5.45194">
        <ele>747</ele>
        <time>2010-07-14T11:43:23Z</time>
      </trkpt>
      <trkpt lat="45.00401" lon="5.452">
        <ele>743</ele>
        <time>2010-07-14T11:43:30Z</time>
      </trkpt>
      <trkpt lat="45.00434" lon="5.45268">
        <ele>739</ele>
        <time>2010-07-14T11:43:38Z</time>
      </trkpt>
      <trkpt lat="45.00475" lon="5.45291">
        <ele>736</ele>
        <time>2010-07-14T11:43:45Z</time>
      </trkpt>
      <trkpt lat="45.00497" lon="5.45221">
        <ele>733</ele>
        <time>2010-07-14T11:43:52Z</time>
      </trkpt>
      <trkpt lat="45.00507" lon="5.45152">
        <ele>728</ele>
        <time>2010-07-14T11:44:00Z</time>
      </trkpt>
      <trkpt lat="45.00508" lon="5.45097">
        <ele>725</ele>
        <time>2010-07-14T11:44:08Z</time>
      </trkpt>
      <trkpt lat="45.00508" lon="5.45084">
        <ele>722</ele>
        <time>2010-07-14T11:44:15Z</time>
      </trkpt>
      <trkpt lat="45.00505" lon="5.45074">
        <ele>720</ele>
        <time>2010-07-14T11:44:22Z</time>
      </trkpt>
      <trkpt lat="45.00498" lon="5.45044">
        <ele>719</ele>
        <time>2010-07-14T11:44:29Z</time>
      </trkpt>
      <trkpt lat="45.00475" lon="5.45011">
        <ele>719</ele>
        <time>2010-07-14T11:44:37Z</time>
      </trkpt>
      <trkpt lat="45.00476" lon="5.44973">
        <ele>719</ele>
        <time>2010-07-14T11:44:45Z</time>
      </trkpt>
      <trkpt lat="45.00464" lon="5.44919">
        <ele>719</ele>
        <time>2010-07-14T11:44:53Z</time>
      </trkpt>
      <trkpt lat="45.00454" lon="5.44883">
        <ele>718</ele>
        <time>2010-07-14T11:45:00Z</time>
      </trkpt>
      <trkpt lat="45.00444" lon="5.44847">
        <ele>716</ele>
        <time>2010-07-14T11:45:07Z</time>
      </trkpt>
      <trkpt lat="45.00434" lon="5.44812">
        <ele>715</ele>
        <time>2010-07-14T11:45:14Z</time>
      </trkpt>
      <trkpt lat="45.00419" lon="5.44779">
        <ele>715</ele>
        <time>2010-07-14T11:45:21Z</time>
      </trkpt>
      <trkpt lat="45.00397" lon="5.44735">
        <ele>715</ele>
        <time>2010-07-14T11:45:33Z</time>
      </trkpt>
      <trkpt lat="45.00399" lon="5.44735">
        <ele>716</ele>
        <time>2010-07-14T11:45:43Z</time>
      </trkpt>
      <trkpt lat="45.00399" lon="5.4474">
        <ele>717</ele>
        <time>2010-07-14T11:45:51Z</time>
      </trkpt>
      <trkpt lat="45.00397" lon="5.44744">
        <ele>718</ele>
        <time>2010-07-14T11:46:00Z</time>
      </trkpt>
      <trkpt lat="45.00399" lon="5.4474">
        <ele>718</ele>
        <time>2010-07-14T11:46:09Z</time>
      </trkpt>
      <trkpt lat="45.00397" lon="5.44738">
        <ele>720</ele>
        <time>2010-07-14T11:46:18Z</time>
      </trkpt>
      <trkpt lat="45.00396" lon="5.44736">
        <ele>721</ele>
        <time>2010-07-14T11:46:26Z</time>
      </trkpt>
      <trkpt lat="45.00397" lon="5.44735">
        <ele>721</ele>
        <time>2010-07-14T11:46:34Z</time>
      </trkpt>
      <trkpt lat="45.00399" lon="5.44734">
        <ele>722</ele>
        <time>2010-07-14T11:46:51Z</time>
      </trkpt>
      <trkpt lat="45.00399" lon="5.44736">
        <ele>722</ele>
        <time>2010-07-14T11:46:58Z</time>
      </trkpt>
      <trkpt lat="45.00399" lon="5.44738">
        <ele>722</ele>
        <time>2010-07-14T11:47:07Z</time>
      </trkpt>
      <trkpt lat="45.00398" lon="5.44737">
        <ele>723</ele>
        <time>2010-07-14T11:47:15Z</time>
      </trkpt>
      <trkpt lat="45.00395" lon="5.44736">
        <ele>724</ele>
        <time>2010-07-14T11:47:25Z</time>
      </trkpt>
      <trkpt lat="45.00392" lon="5.44735">
        <ele>724</ele>
        <time>2010-07-14T11:47:32Z</time>
      </trkpt>
      <trkpt lat="45.00388" lon="5.44733">
        <ele>723</ele>
        <time>2010-07-14T11:47:41Z</time>
      </trkpt>
      <trkpt lat="45.0039" lon="5.44733">
        <ele>722</ele>
        <time>2010-07-14T11:47:49Z</time>
      </trkpt>
      <trkpt lat="45.00391" lon="5.44732">
        <ele>721</ele>
        <time>2010-07-14T11:47:58Z</time>
      </trkpt>
      <trkpt lat="45.00393" lon="5.44732">
        <ele>721</ele>
        <time>2010-07-14T11:48:05Z</time>
      </trkpt>
      <trkpt lat="45.00395" lon="5.44733">
        <ele>721</ele>
        <time>2010-07-14T11:48:14Z</time>
      </trkpt>
      <trkpt lat="45.00398" lon="5.44735">
        <ele>723</ele>
        <time>2010-07-14T11:48:23Z</time>
      </trkpt>
      <trkpt lat="45.00399" lon="5.44734">
        <ele>727</ele>
        <time>2010-07-14T11:48:32Z</time>
      </trkpt>
      <trkpt lat="45.00402" lon="5.44734">
        <ele>729</ele>
        <time>2010-07-14T11:48:39Z</time>
      </trkpt>
      <trkpt lat="45.004" lon="5.44734">
        <ele>736</ele>
        <time>2010-07-14T11:48:56Z</time>
      </trkpt>
      <trkpt lat="45.00396" lon="5.44735">
        <ele>737</ele>
        <time>2010-07-14T11:49:23Z</time>
      </trkpt>
      <trkpt lat="45.00393" lon="5.44737">
        <ele>735</ele>
        <time>2010-07-14T11:49:33Z</time>
      </trkpt>
      <trkpt lat="45.00391" lon="5.44744">
        <ele>732</ele>
        <time>2010-07-14T11:49:41Z</time>
      </trkpt>
      <trkpt lat="45.00376" lon="5.44736">
        <ele>728</ele>
        <time>2010-07-14T11:49:48Z</time>
      </trkpt>
      <trkpt lat="45.00352" lon="5.44736">
        <ele>728</ele>
        <time>2010-07-14T11:49:56Z</time>
      </trkpt>
      <trkpt lat="45.00344" lon="5.44746">
        <ele>728</ele>
        <time>2010-07-14T11:50:03Z</time>
      </trkpt>
      <trkpt lat="45.00328" lon="5.44757">
        <ele>728</ele>
        <time>2010-07-14T11:50:11Z</time>
      </trkpt>
      <trkpt lat="45.00317" lon="5.44761">
        <ele>728</ele>
        <time>2010-07-14T11:50:18Z</time>
      </trkpt>
      <trkpt lat="45.00297" lon="5.44756">
        <ele>728</ele>
        <time>2010-07-14T11:50:27Z</time>
      </trkpt>
      <trkpt lat="45.00279" lon="5.44753">
        <ele>728</ele>
        <time>2010-07-14T11:50:35Z</time>
      </trkpt>
      <trkpt lat="45.00254" lon="5.44751">
        <ele>728</ele>
        <time>2010-07-14T11:50:46Z</time>
      </trkpt>
      <trkpt lat="45.00235" lon="5.44751">
        <ele>728</ele>
        <time>2010-07-14T11:50:53Z</time>
      </trkpt>
      <trkpt lat="45.00211" lon="5.44746">
        <ele>729</ele>
        <time>2010-07-14T11:51:01Z</time>
      </trkpt>
      <trkpt lat="45.00203" lon="5.44737">
        <ele>729</ele>
        <time>2010-07-14T11:51:08Z</time>
      </trkpt>
      <trkpt lat="45.00193" lon="5.44722">
        <ele>729</ele>
        <time>2010-07-14T11:51:15Z</time>
      </trkpt>
      <trkpt lat="45.00177" lon="5.44706">
        <ele>730</ele>
        <time>2010-07-14T11:51:23Z</time>
      </trkpt>
      <trkpt lat="45.00156" lon="5.44696">
        <ele>732</ele>
        <time>2010-07-14T11:51:31Z</time>
      </trkpt>
      <trkpt lat="45.00145" lon="5.44692">
        <ele>732</ele>
        <time>2010-07-14T11:51:38Z</time>
      </trkpt>
      <trkpt lat="45.00132" lon="5.44696">
        <ele>733</ele>
        <time>2010-07-14T11:51:45Z</time>
      </trkpt>
      <trkpt lat="45.00106" lon="5.447">
        <ele>735</ele>
        <time>2010-07-14T11:51:57Z</time>
      </trkpt>
      <trkpt lat="45.00079" lon="5.44705">
        <ele>737</ele>
        <time>2010-07-14T11:52:05Z</time>
      </trkpt>
      <trkpt lat="45.00061" lon="5.44709">
        <ele>738</ele>
        <time>2010-07-14T11:52:12Z</time>
      </trkpt>
      <trkpt lat="45.00045" lon="5.44703">
        <ele>740</ele>
        <time>2010-07-14T11:52:19Z</time>
      </trkpt>
      <trkpt lat="45.00041" lon="5.44688">
        <ele>741</ele>
        <time>2010-07-14T11:52:26Z</time>
      </trkpt>
      <trkpt lat="45.0004" lon="5.44664">
        <ele>741</ele>
        <time>2010-07-14T11:52:33Z</time>
      </trkpt>
      <trkpt lat="45.00037" lon="5.4463">
        <ele>741</ele>
        <time>2010-07-14T11:52:41Z</time>
      </trkpt>
      <trkpt lat="45.00033" lon="5.44606">
        <ele>743</ele>
        <time>2010-07-14T11:52:48Z</time>
      </trkpt>
      <trkpt lat="45.00026" lon="5.44582">
        <ele>744</ele>
        <time>2010-07-14T11:52:55Z</time>
      </trkpt>
      <trkpt lat="45.00015" lon="5.4455">
        <ele>744</ele>
        <time>2010-07-14T11:53:02Z</time>
      </trkpt>
      <trkpt lat="45" lon="5.44519">
        <ele>744</ele>
        <time>2010-07-14T11:53:09Z</time>
      </trkpt>
      <trkpt lat="44.99984" lon="5.44483">
        <ele>744</ele>
        <time>2010-07-14T11:53:16Z</time>
      </trkpt>
      <trkpt lat="44.99983" lon="5.44452">
        <ele>742</ele>
        <time>2010-07-14T11:53:23Z</time>
      </trkpt>
      <trkpt lat="44.9999" lon="5.44429">
        <ele>742</ele>
        <time>2010-07-14T11:53:30Z</time>
      </trkpt>
      <trkpt lat="45" lon="5.44421">
        <ele>742</ele>
        <time>2010-07-14T11:53:37Z</time>
      </trkpt>
      <trkpt lat="45.00009" lon="5.44409">
        <ele>742</ele>
        <time>2010-07-14T11:53:45Z</time>
      </trkpt>
      <trkpt lat="45.0004" lon="5.44383">
        <ele>742</ele>
        <time>2010-07-14T11:53:52Z</time>
      </trkpt>
      <trkpt lat="45.001" lon="5.44322">
        <ele>742</ele>
        <time>2010-07-14T11:54:00Z</time>
      </trkpt>
      <trkpt lat="45.00118" lon="5.44263">
        <ele>742</ele>
        <time>2010-07-14T11:54:07Z</time>
      </trkpt>
      <trkpt lat="45.00115" lon="5.44186">
        <ele>738</ele>
        <time>2010-07-14T11:54:15Z</time>
      </trkpt>
      <trkpt lat="45.00106" lon="5.44163">
        <ele>734</ele>
        <time>2010-07-14T11:54:24Z</time>
      </trkpt>
      <trkpt lat="45.00071" lon="5.44166">
        <ele>731</ele>
        <time>2010-07-14T11:54:31Z</time>
      </trkpt>
      <trkpt lat="44.99998" lon="5.4418">
        <ele>727</ele>
        <time>2010-07-14T11:54:39Z</time>
      </trkpt>
      <trkpt lat="44.9996" lon="5.44199">
        <ele>724</ele>
        <time>2010-07-14T11:54:47Z</time>
      </trkpt>
      <trkpt lat="44.9992" lon="5.44195">
        <ele>718</ele>
        <time>2010-07-14T11:54:54Z</time>
      </trkpt>
      <trkpt lat="44.99884" lon="5.44196">
        <ele>708</ele>
        <time>2010-07-14T11:55:04Z</time>
      </trkpt>
      <trkpt lat="44.99915" lon="5.44097">
        <ele>702</ele>
        <time>2010-07-14T11:55:12Z</time>
      </trkpt>
      <trkpt lat="44.99913" lon="5.44043">
        <ele>697</ele>
        <time>2010-07-14T11:55:20Z</time>
      </trkpt>
      <trkpt lat="44.99896" lon="5.44047">
        <ele>693</ele>
        <time>2010-07-14T11:55:29Z</time>
      </trkpt>
      <trkpt lat="44.99894" lon="5.44019">
        <ele>693</ele>
        <time>2010-07-14T11:55:37Z</time>
      </trkpt>
      <trkpt lat="44.999" lon="5.43958">
        <ele>690</ele>
        <time>2010-07-14T11:55:45Z</time>
      </trkpt>
      <trkpt lat="44.99894" lon="5.43915">
        <ele>688</ele>
        <time>2010-07-14T11:55:53Z</time>
      </trkpt>
      <trkpt lat="44.9989" lon="5.43886">
        <ele>688</ele>
        <time>2010-07-14T11:56:00Z</time>
      </trkpt>
      <trkpt lat="44.99898" lon="5.43871">
        <ele>688</ele>
        <time>2010-07-14T11:56:08Z</time>
      </trkpt>
      <trkpt lat="44.99892" lon="5.43845">
        <ele>688</ele>
        <time>2010-07-14T11:56:16Z</time>
      </trkpt>
      <trkpt lat="44.99889" lon="5.43825">
        <ele>689</ele>
        <time>2010-07-14T11:56:25Z</time>
      </trkpt>
      <trkpt lat="44.99906" lon="5.43802">
        <ele>693</ele>
        <time>2010-07-14T11:56:33Z</time>
      </trkpt>
      <trkpt lat="44.99919" lon="5.43786">
        <ele>696</ele>
        <time>2010-07-14T11:56:40Z</time>
      </trkpt>
      <trkpt lat="44.99934" lon="5.43773">
        <ele>700</ele>
        <time>2010-07-14T11:56:48Z</time>
      </trkpt>
      <trkpt lat="44.99946" lon="5.43751">
        <ele>701</ele>
        <time>2010-07-14T11:57:00Z</time>
      </trkpt>
      <trkpt lat="44.9995" lon="5.43738">
        <ele>700</ele>
        <time>2010-07-14T11:57:09Z</time>
      </trkpt>
      <trkpt lat="44.99961" lon="5.43727">
        <ele>700</ele>
        <time>2010-07-14T11:57:17Z</time>
      </trkpt>
      <trkpt lat="44.99974" lon="5.43719">
        <ele>700</ele>
        <time>2010-07-14T11:57:24Z</time>
      </trkpt>
      <trkpt lat="44.9999" lon="5.43712">
        <ele>706</ele>
        <time>2010-07-14T11:57:35Z</time>
      </trkpt>
      <trkpt lat="44.99996" lon="5.43701">
        <ele>709</ele>
        <time>2010-07-14T11:57:43Z</time>
      </trkpt>
      <trkpt lat="45.00003" lon="5.43689">
        <ele>710</ele>
        <time>2010-07-14T11:57:51Z</time>
      </trkpt>
      <trkpt lat="45.00005" lon="5.43669">
        <ele>710</ele>
        <time>2010-07-14T11:57:59Z</time>
      </trkpt>
      <trkpt lat="45.00001" lon="5.43642">
        <ele>711</ele>
        <time>2010-07-14T11:58:07Z</time>
      </trkpt>
      <trkpt lat="44.99995" lon="5.43629">
        <ele>712</ele>
        <time>2010-07-14T11:58:15Z</time>
      </trkpt>
      <trkpt lat="44.9998" lon="5.43611">
        <ele>713</ele>
        <time>2010-07-14T11:58:23Z</time>
      </trkpt>
      <trkpt lat="44.99972" lon="5.43604">
        <ele>713</ele>
        <time>2010-07-14T11:58:31Z</time>
      </trkpt>
      <trkpt lat="44.99964" lon="5.43598">
        <ele>714</ele>
        <time>2010-07-14T11:58:39Z</time>
      </trkpt>
      <trkpt lat="44.99951" lon="5.4359">
        <ele>715</ele>
        <time>2010-07-14T11:58:46Z</time>
      </trkpt>
      <trkpt lat="44.99942" lon="5.43584">
        <ele>719</ele>
        <time>2010-07-14T11:58:54Z</time>
      </trkpt>
      <trkpt lat="44.99933" lon="5.43568">
        <ele>723</ele>
        <time>2010-07-14T11:59:03Z</time>
      </trkpt>
      <trkpt lat="44.9992" lon="5.43564">
        <ele>728</ele>
        <time>2010-07-14T11:59:11Z</time>
      </trkpt>
      <trkpt lat="44.99894" lon="5.4357">
        <ele>735</ele>
        <time>2010-07-14T11:59:18Z</time>
      </trkpt>
      <trkpt lat="44.99876" lon="5.43561">
        <ele>738</ele>
        <time>2010-07-14T11:59:25Z</time>
      </trkpt>
      <trkpt lat="44.99856" lon="5.43556">
        <ele>741</ele>
        <time>2010-07-14T11:59:32Z</time>
      </trkpt>
      <trkpt lat="44.99831" lon="5.43555">
        <ele>743</ele>
        <time>2010-07-14T11:59:41Z</time>
      </trkpt>
      <trkpt lat="44.9982" lon="5.43545">
        <ele>743</ele>
        <time>2010-07-14T11:59:48Z</time>
      </trkpt>
      <trkpt lat="44.9979" lon="5.43561">
        <ele>743</ele>
        <time>2010-07-14T11:59:56Z</time>
      </trkpt>
      <trkpt lat="44.99764" lon="5.43576">
        <ele>742</ele>
        <time>2010-07-14T12:00:04Z</time>
      </trkpt>
      <trkpt lat="44.99745" lon="5.4358">
        <ele>742</ele>
        <time>2010-07-14T12:00:12Z</time>
      </trkpt>
      <trkpt lat="44.99731" lon="5.43582">
        <ele>742</ele>
        <time>2010-07-14T12:00:19Z</time>
      </trkpt>
      <trkpt lat="44.99712" lon="5.43588">
        <ele>746</ele>
        <time>2010-07-14T12:00:27Z</time>
      </trkpt>
      <trkpt lat="44.99692" lon="5.43589">
        <ele>749</ele>
        <time>2010-07-14T12:00:34Z</time>
      </trkpt>
      <trkpt lat="44.99673" lon="5.43592">
        <ele>752</ele>
        <time>2010-07-14T12:00:41Z</time>
      </trkpt>
      <trkpt lat="44.99643" lon="5.43596">
        <ele>758</ele>
        <time>2010-07-14T12:00:53Z</time>
      </trkpt>
      <trkpt lat="44.99622" lon="5.43595">
        <ele>765</ele>
        <time>2010-07-14T12:01:02Z</time>
      </trkpt>
      <trkpt lat="44.99616" lon="5.43595">
        <ele>767</ele>
        <time>2010-07-14T12:01:09Z</time>
      </trkpt>
      <trkpt lat="44.99604" lon="5.43597">
        <ele>766</ele>
        <time>2010-07-14T12:01:17Z</time>
      </trkpt>
      <trkpt lat="44.99596" lon="5.43601">
        <ele>763</ele>
        <time>2010-07-14T12:01:24Z</time>
      </trkpt>
      <trkpt lat="44.99585" lon="5.43603">
        <ele>760</ele>
        <time>2010-07-14T12:01:32Z</time>
      </trkpt>
      <trkpt lat="44.99573" lon="5.43594">
        <ele>756</ele>
        <time>2010-07-14T12:01:41Z</time>
      </trkpt>
      <trkpt lat="44.99564" lon="5.43588">
        <ele>753</ele>
        <time>2010-07-14T12:01:49Z</time>
      </trkpt>
      <trkpt lat="44.99545" lon="5.43584">
        <ele>749</ele>
        <time>2010-07-14T12:01:57Z</time>
      </trkpt>
      <trkpt lat="44.99533" lon="5.43586">
        <ele>746</ele>
        <time>2010-07-14T12:02:04Z</time>
      </trkpt>
      <trkpt lat="44.99521" lon="5.43585">
        <ele>745</ele>
        <time>2010-07-14T12:02:11Z</time>
      </trkpt>
      <trkpt lat="44.99505" lon="5.43584">
        <ele>745</ele>
        <time>2010-07-14T12:02:23Z</time>
      </trkpt>
      <trkpt lat="44.99487" lon="5.43583">
        <ele>745</ele>
        <time>2010-07-14T12:02:30Z</time>
      </trkpt>
      <trkpt lat="44.99476" lon="5.43582">
        <ele>745</ele>
        <time>2010-07-14T12:02:37Z</time>
      </trkpt>
      <trkpt lat="44.99468" lon="5.43582">
        <ele>745</ele>
        <time>2010-07-14T12:02:44Z</time>
      </trkpt>
      <trkpt lat="44.99459" lon="5.43578">
        <ele>745</ele>
        <time>2010-07-14T12:02:52Z</time>
      </trkpt>
      <trkpt lat="44.99449" lon="5.43572">
        <ele>745</ele>
        <time>2010-07-14T12:03:01Z</time>
      </trkpt>
      <trkpt lat="44.99449" lon="5.43566">
        <ele>745</ele>
        <time>2010-07-14T12:03:08Z</time>
      </trkpt>
      <trkpt lat="44.99441" lon="5.43553">
        <ele>745</ele>
        <time>2010-07-14T12:03:16Z</time>
      </trkpt>
      <trkpt lat="44.99427" lon="5.43541">
        <ele>745</ele>
        <time>2010-07-14T12:03:24Z</time>
      </trkpt>
      <trkpt lat="44.99417" lon="5.43537">
        <ele>747</ele>
        <time>2010-07-14T12:03:32Z</time>
      </trkpt>
      <trkpt lat="44.99397" lon="5.43529">
        <ele>751</ele>
        <time>2010-07-14T12:03:44Z</time>
      </trkpt>
      <trkpt lat="44.99384" lon="5.4352">
        <ele>756</ele>
        <time>2010-07-14T12:03:51Z</time>
      </trkpt>
      <trkpt lat="44.99375" lon="5.43512">
        <ele>761</ele>
        <time>2010-07-14T12:03:58Z</time>
      </trkpt>
      <trkpt lat="44.99367" lon="5.43509">
        <ele>766</ele>
        <time>2010-07-14T12:04:07Z</time>
      </trkpt>
      <trkpt lat="44.99356" lon="5.43506">
        <ele>770</ele>
        <time>2010-07-14T12:04:15Z</time>
      </trkpt>
      <trkpt lat="44.99344" lon="5.43502">
        <ele>774</ele>
        <time>2010-07-14T12:04:23Z</time>
      </trkpt>
      <trkpt lat="44.99329" lon="5.43496">
        <ele>777</ele>
        <time>2010-07-14T12:04:35Z</time>
      </trkpt>
      <trkpt lat="44.99311" lon="5.43494">
        <ele>782</ele>
        <time>2010-07-14T12:04:44Z</time>
      </trkpt>
      <trkpt lat="44.99294" lon="5.43497">
        <ele>788</ele>
        <time>2010-07-14T12:04:53Z</time>
      </trkpt>
      <trkpt lat="44.99287" lon="5.43494">
        <ele>790</ele>
        <time>2010-07-14T12:05:01Z</time>
      </trkpt>
      <trkpt lat="44.99281" lon="5.4349">
        <ele>790</ele>
        <time>2010-07-14T12:05:10Z</time>
      </trkpt>
      <trkpt lat="44.99271" lon="5.43483">
        <ele>790</ele>
        <time>2010-07-14T12:05:17Z</time>
      </trkpt>
      <trkpt lat="44.99266" lon="5.43481">
        <ele>789</ele>
        <time>2010-07-14T12:05:25Z</time>
      </trkpt>
      <trkpt lat="44.99258" lon="5.4348">
        <ele>789</ele>
        <time>2010-07-14T12:05:34Z</time>
      </trkpt>
      <trkpt lat="44.99246" lon="5.43477">
        <ele>789</ele>
        <time>2010-07-14T12:05:42Z</time>
      </trkpt>
      <trkpt lat="44.99234" lon="5.43466">
        <ele>790</ele>
        <time>2010-07-14T12:05:50Z</time>
      </trkpt>
      <trkpt lat="44.99226" lon="5.43461">
        <ele>791</ele>
        <time>2010-07-14T12:05:57Z</time>
      </trkpt>
      <trkpt lat="44.99222" lon="5.43459">
        <ele>795</ele>
        <time>2010-07-14T12:06:05Z</time>
      </trkpt>
      <trkpt lat="44.9921" lon="5.43457">
        <ele>799</ele>
        <time>2010-07-14T12:06:13Z</time>
      </trkpt>
      <trkpt lat="44.992" lon="5.43454">
        <ele>803</ele>
        <time>2010-07-14T12:06:21Z</time>
      </trkpt>
      <trkpt lat="44.99193" lon="5.43452">
        <ele>807</ele>
        <time>2010-07-14T12:06:29Z</time>
      </trkpt>
      <trkpt lat="44.99185" lon="5.43449">
        <ele>811</ele>
        <time>2010-07-14T12:06:37Z</time>
      </trkpt>
      <trkpt lat="44.99178" lon="5.43443">
        <ele>815</ele>
        <time>2010-07-14T12:06:46Z</time>
      </trkpt>
      <trkpt lat="44.99174" lon="5.43443">
        <ele>819</ele>
        <time>2010-07-14T12:06:54Z</time>
      </trkpt>
      <trkpt lat="44.99165" lon="5.43441">
        <ele>823</ele>
        <time>2010-07-14T12:07:03Z</time>
      </trkpt>
      <trkpt lat="44.99159" lon="5.43441">
        <ele>829</ele>
        <time>2010-07-14T12:07:11Z</time>
      </trkpt>
      <trkpt lat="44.99151" lon="5.43441">
        <ele>833</ele>
        <time>2010-07-14T12:07:19Z</time>
      </trkpt>
      <trkpt lat="44.99143" lon="5.4344">
        <ele>834</ele>
        <time>2010-07-14T12:07:27Z</time>
      </trkpt>
      <trkpt lat="44.99126" lon="5.4344">
        <ele>838</ele>
        <time>2010-07-14T12:07:41Z</time>
      </trkpt>
      <trkpt lat="44.99116" lon="5.43438">
        <ele>838</ele>
        <time>2010-07-14T12:07:50Z</time>
      </trkpt>
      <trkpt lat="44.9911" lon="5.43441">
        <ele>836</ele>
        <time>2010-07-14T12:07:58Z</time>
      </trkpt>
      <trkpt lat="44.99104" lon="5.43444">
        <ele>833</ele>
        <time>2010-07-14T12:08:05Z</time>
      </trkpt>
      <trkpt lat="44.99092" lon="5.43446">
        <ele>829</ele>
        <time>2010-07-14T12:08:14Z</time>
      </trkpt>
      <trkpt lat="44.99077" lon="5.43447">
        <ele>828</ele>
        <time>2010-07-14T12:08:22Z</time>
      </trkpt>
      <trkpt lat="44.99071" lon="5.43448">
        <ele>828</ele>
        <time>2010-07-14T12:08:30Z</time>
      </trkpt>
      <trkpt lat="44.99067" lon="5.43451">
        <ele>828</ele>
        <time>2010-07-14T12:08:38Z</time>
      </trkpt>
      <trkpt lat="44.99059" lon="5.43454">
        <ele>828</ele>
        <time>2010-07-14T12:08:47Z</time>
      </trkpt>
      <trkpt lat="44.99046" lon="5.43458">
        <ele>828</ele>
        <time>2010-07-14T12:08:54Z</time>
      </trkpt>
      <trkpt lat="44.99032" lon="5.43459">
        <ele>828</ele>
        <time>2010-07-14T12:09:02Z</time>
      </trkpt>
      <trkpt lat="44.99017" lon="5.43458">
        <ele>828</ele>
        <time>2010-07-14T12:09:09Z</time>
      </trkpt>
      <trkpt lat="44.99003" lon="5.43462">
        <ele>828</ele>
        <time>2010-07-14T12:09:16Z</time>
      </trkpt>
      <trkpt lat="44.98985" lon="5.43461">
        <ele>829</ele>
        <time>2010-07-14T12:09:24Z</time>
      </trkpt>
      <trkpt lat="44.9897" lon="5.43454">
        <ele>832</ele>
        <time>2010-07-14T12:09:31Z</time>
      </trkpt>
      <trkpt lat="44.98949" lon="5.43445">
        <ele>836</ele>
        <time>2010-07-14T12:09:44Z</time>
      </trkpt>
      <trkpt lat="44.98941" lon="5.43442">
        <ele>838</ele>
        <time>2010-07-14T12:09:51Z</time>
      </trkpt>
      <trkpt lat="44.98927" lon="5.43441">
        <ele>838</ele>
        <time>2010-07-14T12:09:59Z</time>
      </trkpt>
      <trkpt lat="44.98913" lon="5.43441">
        <ele>838</ele>
        <time>2010-07-14T12:10:06Z</time>
      </trkpt>
      <trkpt lat="44.98898" lon="5.43438">
        <ele>837</ele>
        <time>2010-07-14T12:10:15Z</time>
      </trkpt>
      <trkpt lat="44.98875" lon="5.43434">
        <ele>837</ele>
        <time>2010-07-14T12:10:22Z</time>
      </trkpt>
      <trkpt lat="44.98861" lon="5.43429">
        <ele>837</ele>
        <time>2010-07-14T12:10:29Z</time>
      </trkpt>
      <trkpt lat="44.98843" lon="5.43425">
        <ele>839</ele>
        <time>2010-07-14T12:10:37Z</time>
      </trkpt>
      <trkpt lat="44.98827" lon="5.43423">
        <ele>839</ele>
        <time>2010-07-14T12:10:44Z</time>
      </trkpt>
      <trkpt lat="44.98814" lon="5.43422">
        <ele>838</ele>
        <time>2010-07-14T12:10:52Z</time>
      </trkpt>
      <trkpt lat="44.98803" lon="5.4342">
        <ele>836</ele>
        <time>2010-07-14T12:11:00Z</time>
      </trkpt>
      <trkpt lat="44.98787" lon="5.43415">
        <ele>835</ele>
        <time>2010-07-14T12:11:07Z</time>
      </trkpt>
      <trkpt lat="44.98764" lon="5.43409">
        <ele>835</ele>
        <time>2010-07-14T12:11:14Z</time>
      </trkpt>
      <trkpt lat="44.98754" lon="5.4341">
        <ele>836</ele>
        <time>2010-07-14T12:11:22Z</time>
      </trkpt>
      <trkpt lat="44.98739" lon="5.43399">
        <ele>838</ele>
        <time>2010-07-14T12:11:29Z</time>
      </trkpt>
      <trkpt lat="44.98728" lon="5.43397">
        <ele>841</ele>
        <time>2010-07-14T12:11:37Z</time>
      </trkpt>
      <trkpt lat="44.98713" lon="5.43402">
        <ele>843</ele>
        <time>2010-07-14T12:11:47Z</time>
      </trkpt>
      <trkpt lat="44.98698" lon="5.43403">
        <ele>845</ele>
        <time>2010-07-14T12:11:55Z</time>
      </trkpt>
      <trkpt lat="44.9867" lon="5.43398">
        <ele>848</ele>
        <time>2010-07-14T12:12:03Z</time>
      </trkpt>
      <trkpt lat="44.98653" lon="5.43398">
        <ele>852</ele>
        <time>2010-07-14T12:12:11Z</time>
      </trkpt>
      <trkpt lat="44.98645" lon="5.43394">
        <ele>857</ele>
        <time>2010-07-14T12:12:20Z</time>
      </trkpt>
      <trkpt lat="44.98627" lon="5.43388">
        <ele>861</ele>
        <time>2010-07-14T12:12:28Z</time>
      </trkpt>
      <trkpt lat="44.98621" lon="5.43385">
        <ele>863</ele>
        <time>2010-07-14T12:12:35Z</time>
      </trkpt>
      <trkpt lat="44.98609" lon="5.43381">
        <ele>866</ele>
        <time>2010-07-14T12:12:43Z</time>
      </trkpt>
      <trkpt lat="44.98592" lon="5.43382">
        <ele>870</ele>
        <time>2010-07-14T12:12:52Z</time>
      </trkpt>
      <trkpt lat="44.98581" lon="5.43382">
        <ele>873</ele>
        <time>2010-07-14T12:13:00Z</time>
      </trkpt>
      <trkpt lat="44.98571" lon="5.43383">
        <ele>876</ele>
        <time>2010-07-14T12:13:08Z</time>
      </trkpt>
      <trkpt lat="44.98557" lon="5.43382">
        <ele>876</ele>
        <time>2010-07-14T12:13:16Z</time>
      </trkpt>
      <trkpt lat="44.9855" lon="5.43381">
        <ele>876</ele>
        <time>2010-07-14T12:13:23Z</time>
      </trkpt>
      <trkpt lat="44.98548" lon="5.43381">
        <ele>875</ele>
        <time>2010-07-14T12:13:31Z</time>
      </trkpt>
      <trkpt lat="44.98521" lon="5.4338">
        <ele>870</ele>
        <time>2010-07-14T12:13:40Z</time>
      </trkpt>
      <trkpt lat="44.98499" lon="5.43368">
        <ele>862</ele>
        <time>2010-07-14T12:13:47Z</time>
      </trkpt>
      <trkpt lat="44.9847" lon="5.4335">
        <ele>861</ele>
        <time>2010-07-14T12:13:55Z</time>
      </trkpt>
      <trkpt lat="44.98439" lon="5.43362">
        <ele>861</ele>
        <time>2010-07-14T12:14:03Z</time>
      </trkpt>
      <trkpt lat="44.98396" lon="5.43361">
        <ele>860</ele>
        <time>2010-07-14T12:14:11Z</time>
      </trkpt>
      <trkpt lat="44.98353" lon="5.43362">
        <ele>859</ele>
        <time>2010-07-14T12:14:18Z</time>
      </trkpt>
      <trkpt lat="44.98317" lon="5.43366">
        <ele>859</ele>
        <time>2010-07-14T12:14:26Z</time>
      </trkpt>
      <trkpt lat="44.98275" lon="5.43364">
        <ele>859</ele>
        <time>2010-07-14T12:14:34Z</time>
      </trkpt>
      <trkpt lat="44.98226" lon="5.43353">
        <ele>859</ele>
        <time>2010-07-14T12:14:46Z</time>
      </trkpt>
      <trkpt lat="44.98149" lon="5.43332">
        <ele>857</ele>
        <time>2010-07-14T12:14:53Z</time>
      </trkpt>
      <trkpt lat="44.98125" lon="5.43325">
        <ele>854</ele>
        <time>2010-07-14T12:15:00Z</time>
      </trkpt>
      <trkpt lat="44.98104" lon="5.43323">
        <ele>852</ele>
        <time>2010-07-14T12:15:07Z</time>
      </trkpt>
      <trkpt lat="44.98091" lon="5.43322">
        <ele>853</ele>
        <time>2010-07-14T12:15:15Z</time>
      </trkpt>
      <trkpt lat="44.98075" lon="5.43313">
        <ele>857</ele>
        <time>2010-07-14T12:15:27Z</time>
      </trkpt>
      <trkpt lat="44.98061" lon="5.43301">
        <ele>860</ele>
        <time>2010-07-14T12:15:34Z</time>
      </trkpt>
      <trkpt lat="44.98054" lon="5.43299">
        <ele>864</ele>
        <time>2010-07-14T12:15:43Z</time>
      </trkpt>
      <trkpt lat="44.98031" lon="5.43295">
        <ele>871</ele>
        <time>2010-07-14T12:15:51Z</time>
      </trkpt>
      <trkpt lat="44.98026" lon="5.43291">
        <ele>875</ele>
        <time>2010-07-14T12:16:01Z</time>
      </trkpt>
      <trkpt lat="44.98026" lon="5.43291">
        <ele>873</ele>
        <time>2010-07-14T12:16:13Z</time>
      </trkpt>
      <trkpt lat="44.98024" lon="5.43289">
        <ele>867</ele>
        <time>2010-07-14T12:16:31Z</time>
      </trkpt>
      <trkpt lat="44.98016" lon="5.43287">
        <ele>866</ele>
        <time>2010-07-14T12:16:39Z</time>
      </trkpt>
      <trkpt lat="44.98003" lon="5.43289">
        <ele>865</ele>
        <time>2010-07-14T12:16:46Z</time>
      </trkpt>
      <trkpt lat="44.97988" lon="5.43285">
        <ele>869</ele>
        <time>2010-07-14T12:16:54Z</time>
      </trkpt>
      <trkpt lat="44.97976" lon="5.43279">
        <ele>870</ele>
        <time>2010-07-14T12:17:01Z</time>
      </trkpt>
      <trkpt lat="44.97961" lon="5.43276">
        <ele>870</ele>
        <time>2010-07-14T12:17:08Z</time>
      </trkpt>
      <trkpt lat="44.97947" lon="5.43273">
        <ele>870</ele>
        <time>2010-07-14T12:17:15Z</time>
      </trkpt>
      <trkpt lat="44.97931" lon="5.43268">
        <ele>871</ele>
        <time>2010-07-14T12:17:22Z</time>
      </trkpt>
      <trkpt lat="44.97916" lon="5.43263">
        <ele>871</ele>
        <time>2010-07-14T12:17:29Z</time>
      </trkpt>
      <trkpt lat="44.97901" lon="5.4326">
        <ele>871</ele>
        <time>2010-07-14T12:17:36Z</time>
      </trkpt>
      <trkpt lat="44.97884" lon="5.43255">
        <ele>872</ele>
        <time>2010-07-14T12:17:43Z</time>
      </trkpt>
      <trkpt lat="44.97864" lon="5.43248">
        <ele>872</ele>
        <time>2010-07-14T12:17:50Z</time>
      </trkpt>
      <trkpt lat="44.97846" lon="5.43238">
        <ele>879</ele>
        <time>2010-07-14T12:17:57Z</time>
      </trkpt>
      <trkpt lat="44.97829" lon="5.43238">
        <ele>884</ele>
        <time>2010-07-14T12:18:04Z</time>
      </trkpt>
      <trkpt lat="44.97807" lon="5.43232">
        <ele>884</ele>
        <time>2010-07-14T12:18:11Z</time>
      </trkpt>
      <trkpt lat="44.97786" lon="5.43226">
        <ele>880</ele>
        <time>2010-07-14T12:18:18Z</time>
      </trkpt>
      <trkpt lat="44.97772" lon="5.4322">
        <ele>876</ele>
        <time>2010-07-14T12:18:25Z</time>
      </trkpt>
      <trkpt lat="44.97757" lon="5.43215">
        <ele>871</ele>
        <time>2010-07-14T12:18:32Z</time>
      </trkpt>
      <trkpt lat="44.97744" lon="5.43209">
        <ele>871</ele>
        <time>2010-07-14T12:18:39Z</time>
      </trkpt>
      <trkpt lat="44.97732" lon="5.43201">
        <ele>871</ele>
        <time>2010-07-14T12:18:46Z</time>
      </trkpt>
      <trkpt lat="44.97717" lon="5.43193">
        <ele>871</ele>
        <time>2010-07-14T12:18:53Z</time>
      </trkpt>
      <trkpt lat="44.97708" lon="5.43186">
        <ele>871</ele>
        <time>2010-07-14T12:19:00Z</time>
      </trkpt>
      <trkpt lat="44.97697" lon="5.4318">
        <ele>871</ele>
        <time>2010-07-14T12:19:07Z</time>
      </trkpt>
      <trkpt lat="44.97685" lon="5.43176">
        <ele>873</ele>
        <time>2010-07-14T12:19:14Z</time>
      </trkpt>
      <trkpt lat="44.97673" lon="5.43172">
        <ele>878</ele>
        <time>2010-07-14T12:19:21Z</time>
      </trkpt>
      <trkpt lat="44.97659" lon="5.43168">
        <ele>881</ele>
        <time>2010-07-14T12:19:28Z</time>
      </trkpt>
      <trkpt lat="44.97645" lon="5.43164">
        <ele>882</ele>
        <time>2010-07-14T12:19:35Z</time>
      </trkpt>
      <trkpt lat="44.97633" lon="5.4316">
        <ele>882</ele>
        <time>2010-07-14T12:19:42Z</time>
      </trkpt>
      <trkpt lat="44.97619" lon="5.43154">
        <ele>883</ele>
        <time>2010-07-14T12:19:49Z</time>
      </trkpt>
      <trkpt lat="44.97605" lon="5.43147">
        <ele>883</ele>
        <time>2010-07-14T12:19:56Z</time>
      </trkpt>
      <trkpt lat="44.97591" lon="5.43143">
        <ele>883</ele>
        <time>2010-07-14T12:20:03Z</time>
      </trkpt>
      <trkpt lat="44.97574" lon="5.43138">
        <ele>883</ele>
        <time>2010-07-14T12:20:10Z</time>
      </trkpt>
      <trkpt lat="44.97552" lon="5.43132">
        <ele>883</ele>
        <time>2010-07-14T12:20:17Z</time>
      </trkpt>
      <trkpt lat="44.9752" lon="5.43108">
        <ele>882</ele>
        <time>2010-07-14T12:20:24Z</time>
      </trkpt>
      <trkpt lat="44.97494" lon="5.43088">
        <ele>880</ele>
        <time>2010-07-14T12:20:31Z</time>
      </trkpt>
      <trkpt lat="44.97467" lon="5.43074">
        <ele>880</ele>
        <time>2010-07-14T12:20:38Z</time>
      </trkpt>
      <trkpt lat="44.97441" lon="5.43059">
        <ele>880</ele>
        <time>2010-07-14T12:20:45Z</time>
      </trkpt>
      <trkpt lat="44.9742" lon="5.4304">
        <ele>880</ele>
        <time>2010-07-14T12:20:52Z</time>
      </trkpt>
      <trkpt lat="44.97401" lon="5.43025">
        <ele>880</ele>
        <time>2010-07-14T12:20:59Z</time>
      </trkpt>
      <trkpt lat="44.97385" lon="5.43022">
        <ele>880</ele>
        <time>2010-07-14T12:21:06Z</time>
      </trkpt>
      <trkpt lat="44.97353" lon="5.43019">
        <ele>882</ele>
        <time>2010-07-14T12:21:14Z</time>
      </trkpt>
      <trkpt lat="44.97327" lon="5.43016">
        <ele>882</ele>
        <time>2010-07-14T12:21:21Z</time>
      </trkpt>
      <trkpt lat="44.97302" lon="5.43005">
        <ele>884</ele>
        <time>2010-07-14T12:21:28Z</time>
      </trkpt>
      <trkpt lat="44.97295" lon="5.42999">
        <ele>885</ele>
        <time>2010-07-14T12:21:36Z</time>
      </trkpt>
      <trkpt lat="44.97264" lon="5.42979">
        <ele>885</ele>
        <time>2010-07-14T12:21:43Z</time>
      </trkpt>
      <trkpt lat="44.9725" lon="5.42979">
        <ele>885</ele>
        <time>2010-07-14T12:21:50Z</time>
      </trkpt>
      <trkpt lat="44.97208" lon="5.42967">
        <ele>885</ele>
        <time>2010-07-14T12:21:58Z</time>
      </trkpt>
      <trkpt lat="44.97182" lon="5.42958">
        <ele>885</ele>
        <time>2010-07-14T12:22:05Z</time>
      </trkpt>
      <trkpt lat="44.97158" lon="5.42944">
        <ele>885</ele>
        <time>2010-07-14T12:22:12Z</time>
      </trkpt>
      <trkpt lat="44.97133" lon="5.42928">
        <ele>885</ele>
        <time>2010-07-14T12:22:19Z</time>
      </trkpt>
      <trkpt lat="44.9712" lon="5.42918">
        <ele>885</ele>
        <time>2010-07-14T12:22:26Z</time>
      </trkpt>
      <trkpt lat="44.97097" lon="5.4291">
        <ele>885</ele>
        <time>2010-07-14T12:22:33Z</time>
      </trkpt>
      <trkpt lat="44.97072" lon="5.42902">
        <ele>885</ele>
        <time>2010-07-14T12:22:40Z</time>
      </trkpt>
      <trkpt lat="44.97044" lon="5.42896">
        <ele>885</ele>
        <time>2010-07-14T12:22:47Z</time>
      </trkpt>
      <trkpt lat="44.97014" lon="5.42898">
        <ele>885</ele>
        <time>2010-07-14T12:22:54Z</time>
      </trkpt>
      <trkpt lat="44.96982" lon="5.42899">
        <ele>884</ele>
        <time>2010-07-14T12:23:01Z</time>
      </trkpt>
      <trkpt lat="44.96948" lon="5.42901">
        <ele>883</ele>
        <time>2010-07-14T12:23:08Z</time>
      </trkpt>
      <trkpt lat="44.96915" lon="5.42905">
        <ele>882</ele>
        <time>2010-07-14T12:23:15Z</time>
      </trkpt>
      <trkpt lat="44.96882" lon="5.42893">
        <ele>881</ele>
        <time>2010-07-14T12:23:22Z</time>
      </trkpt>
      <trkpt lat="44.9685" lon="5.42859">
        <ele>880</ele>
        <time>2010-07-14T12:23:30Z</time>
      </trkpt>
      <trkpt lat="44.9682" lon="5.42798">
        <ele>878</ele>
        <time>2010-07-14T12:23:38Z</time>
      </trkpt>
      <trkpt lat="44.96789" lon="5.42748">
        <ele>876</ele>
        <time>2010-07-14T12:23:45Z</time>
      </trkpt>
      <trkpt lat="44.96743" lon="5.42717">
        <ele>874</ele>
        <time>2010-07-14T12:23:53Z</time>
      </trkpt>
      <trkpt lat="44.96705" lon="5.42691">
        <ele>873</ele>
        <time>2010-07-14T12:24:00Z</time>
      </trkpt>
      <trkpt lat="44.96681" lon="5.42652">
        <ele>873</ele>
        <time>2010-07-14T12:24:07Z</time>
      </trkpt>
      <trkpt lat="44.96661" lon="5.4261">
        <ele>873</ele>
        <time>2010-07-14T12:24:15Z</time>
      </trkpt>
      <trkpt lat="44.96638" lon="5.42581">
        <ele>873</ele>
        <time>2010-07-14T12:24:22Z</time>
      </trkpt>
      <trkpt lat="44.96612" lon="5.42555">
        <ele>873</ele>
        <time>2010-07-14T12:24:30Z</time>
      </trkpt>
      <trkpt lat="44.96598" lon="5.42538">
        <ele>873</ele>
        <time>2010-07-14T12:24:37Z</time>
      </trkpt>
      <trkpt lat="44.96598" lon="5.42539">
        <ele>873</ele>
        <time>2010-07-14T12:24:47Z</time>
      </trkpt>
      <trkpt lat="44.96599" lon="5.4254">
        <ele>873</ele>
        <time>2010-07-14T12:24:54Z</time>
      </trkpt>
      <trkpt lat="44.96599" lon="5.42539">
        <ele>871</ele>
        <time>2010-07-14T12:25:02Z</time>
      </trkpt>
      <trkpt lat="44.96599" lon="5.42534">
        <ele>871</ele>
        <time>2010-07-14T12:25:10Z</time>
      </trkpt>
      <trkpt lat="44.96599" lon="5.42533">
        <ele>871</ele>
        <time>2010-07-14T12:25:26Z</time>
      </trkpt>
      <trkpt lat="44.966" lon="5.42532">
        <ele>871</ele>
        <time>2010-07-14T12:25:41Z</time>
      </trkpt>
      <trkpt lat="44.966" lon="5.42533">
        <ele>870</ele>
        <time>2010-07-14T12:25:56Z</time>
      </trkpt>
      <trkpt lat="44.966" lon="5.42537">
        <ele>871</ele>
        <time>2010-07-14T12:26:18Z</time>
      </trkpt>
      <trkpt lat="44.966" lon="5.4254">
        <ele>874</ele>
        <time>2010-07-14T12:26:28Z</time>
      </trkpt>
      <trkpt lat="44.96598" lon="5.42541">
        <ele>874</ele>
        <time>2010-07-14T12:26:43Z</time>
      </trkpt>
      <trkpt lat="44.96598" lon="5.42539">
        <ele>874</ele>
        <time>2010-07-14T12:26:59Z</time>
      </trkpt>
      <trkpt lat="44.96599" lon="5.42537">
        <ele>874</ele>
        <time>2010-07-14T12:27:08Z</time>
      </trkpt>
      <trkpt lat="44.966" lon="5.42535">
        <ele>874</ele>
        <time>2010-07-14T12:27:16Z</time>
      </trkpt>
      <trkpt lat="44.96599" lon="5.42535">
        <ele>868</ele>
        <time>2010-07-14T12:27:59Z</time>
      </trkpt>
      <trkpt lat="44.96595" lon="5.42526">
        <ele>868</ele>
        <time>2010-07-14T12:28:16Z</time>
      </trkpt>
      <trkpt lat="44.96587" lon="5.42511">
        <ele>868</ele>
        <time>2010-07-14T12:28:23Z</time>
      </trkpt>
      <trkpt lat="44.96572" lon="5.42479">
        <ele>868</ele>
        <time>2010-07-14T12:28:31Z</time>
      </trkpt>
      <trkpt lat="44.96561" lon="5.42456">
        <ele>868</ele>
        <time>2010-07-14T12:28:39Z</time>
      </trkpt>
      <trkpt lat="44.96555" lon="5.42432">
        <ele>868</ele>
        <time>2010-07-14T12:28:46Z</time>
      </trkpt>
      <trkpt lat="44.96547" lon="5.42405">
        <ele>871</ele>
        <time>2010-07-14T12:28:58Z</time>
      </trkpt>
      <trkpt lat="44.96541" lon="5.42381">
        <ele>874</ele>
        <time>2010-07-14T12:29:06Z</time>
      </trkpt>
      <trkpt lat="44.96539" lon="5.42368">
        <ele>877</ele>
        <time>2010-07-14T12:29:14Z</time>
      </trkpt>
      <trkpt lat="44.96537" lon="5.42354">
        <ele>879</ele>
        <time>2010-07-14T12:29:21Z</time>
      </trkpt>
      <trkpt lat="44.96534" lon="5.42345">
        <ele>881</ele>
        <time>2010-07-14T12:29:28Z</time>
      </trkpt>
      <trkpt lat="44.96527" lon="5.42327">
        <ele>883</ele>
        <time>2010-07-14T12:29:36Z</time>
      </trkpt>
      <trkpt lat="44.96526" lon="5.42319">
        <ele>886</ele>
        <time>2010-07-14T12:29:43Z</time>
      </trkpt>
      <trkpt lat="44.96521" lon="5.42305">
        <ele>887</ele>
        <time>2010-07-14T12:29:52Z</time>
      </trkpt>
      <trkpt lat="44.9652" lon="5.42287">
        <ele>887</ele>
        <time>2010-07-14T12:30:00Z</time>
      </trkpt>
      <trkpt lat="44.96523" lon="5.42278">
        <ele>887</ele>
        <time>2010-07-14T12:30:08Z</time>
      </trkpt>
      <trkpt lat="44.96524" lon="5.42261">
        <ele>887</ele>
        <time>2010-07-14T12:30:16Z</time>
      </trkpt>
      <trkpt lat="44.96524" lon="5.4225">
        <ele>891</ele>
        <time>2010-07-14T12:30:31Z</time>
      </trkpt>
      <trkpt lat="44.96526" lon="5.42245">
        <ele>891</ele>
        <time>2010-07-14T12:30:39Z</time>
      </trkpt>
      <trkpt lat="44.96518" lon="5.42238">
        <ele>892</ele>
        <time>2010-07-14T12:30:46Z</time>
      </trkpt>
      <trkpt lat="44.96517" lon="5.42229">
        <ele>895</ele>
        <time>2010-07-14T12:30:55Z</time>
      </trkpt>
      <trkpt lat="44.96528" lon="5.42213">
        <ele>897</ele>
        <time>2010-07-14T12:31:03Z</time>
      </trkpt>
      <trkpt lat="44.96532" lon="5.42206">
        <ele>898</ele>
        <time>2010-07-14T12:31:10Z</time>
      </trkpt>
      <trkpt lat="44.9654" lon="5.4218">
        <ele>899</ele>
        <time>2010-07-14T12:31:18Z</time>
      </trkpt>
      <trkpt lat="44.96541" lon="5.42161">
        <ele>899</ele>
        <time>2010-07-14T12:31:25Z</time>
      </trkpt>
      <trkpt lat="44.96546" lon="5.4213">
        <ele>899</ele>
        <time>2010-07-14T12:31:32Z</time>
      </trkpt>
      <trkpt lat="44.96563" lon="5.42081">
        <ele>899</ele>
        <time>2010-07-14T12:31:40Z</time>
      </trkpt>
      <trkpt lat="44.96579" lon="5.4204">
        <ele>899</ele>
        <time>2010-07-14T12:31:47Z</time>
      </trkpt>
      <trkpt lat="44.96601" lon="5.41982">
        <ele>899</ele>
        <time>2010-07-14T12:31:54Z</time>
      </trkpt>
      <trkpt lat="44.96626" lon="5.41927">
        <ele>899</ele>
        <time>2010-07-14T12:32:01Z</time>
      </trkpt>
      <trkpt lat="44.96646" lon="5.41891">
        <ele>895</ele>
        <time>2010-07-14T12:32:09Z</time>
      </trkpt>
      <trkpt lat="44.96667" lon="5.41842">
        <ele>892</ele>
        <time>2010-07-14T12:32:21Z</time>
      </trkpt>
      <trkpt lat="44.9668" lon="5.41796">
        <ele>892</ele>
        <time>2010-07-14T12:32:28Z</time>
      </trkpt>
      <trkpt lat="44.967" lon="5.41727">
        <ele>892</ele>
        <time>2010-07-14T12:32:36Z</time>
      </trkpt>
      <trkpt lat="44.96712" lon="5.41682">
        <ele>892</ele>
        <time>2010-07-14T12:32:44Z</time>
      </trkpt>
      <trkpt lat="44.96727" lon="5.41641">
        <ele>891</ele>
        <time>2010-07-14T12:32:51Z</time>
      </trkpt>
      <trkpt lat="44.96728" lon="5.4161">
        <ele>890</ele>
        <time>2010-07-14T12:32:58Z</time>
      </trkpt>
      <trkpt lat="44.96725" lon="5.41604">
        <ele>888</ele>
        <time>2010-07-14T12:33:16Z</time>
      </trkpt>
      <trkpt lat="44.96724" lon="5.41602">
        <ele>888</ele>
        <time>2010-07-14T12:33:30Z</time>
      </trkpt>
      <trkpt lat="44.96724" lon="5.416">
        <ele>888</ele>
        <time>2010-07-14T12:33:38Z</time>
      </trkpt>
      <trkpt lat="44.96724" lon="5.41599">
        <ele>888</ele>
        <time>2010-07-14T12:33:47Z</time>
      </trkpt>
      <trkpt lat="44.96724" lon="5.416">
        <ele>888</ele>
        <time>2010-07-14T12:34:03Z</time>
      </trkpt>
      <trkpt lat="44.96723" lon="5.41599">
        <ele>888</ele>
        <time>2010-07-14T12:34:35Z</time>
      </trkpt>
      <trkpt lat="44.96724" lon="5.416">
        <ele>888</ele>
        <time>2010-07-14T12:35:10Z</time>
      </trkpt>
      <trkpt lat="44.96724" lon="5.41602">
        <ele>888</ele>
        <time>2010-07-14T12:36:05Z</time>
      </trkpt>
      <trkpt lat="44.96724" lon="5.41603">
        <ele>888</ele>
        <time>2010-07-14T12:37:08Z</time>
      </trkpt>
      <trkpt lat="44.96725" lon="5.41602">
        <ele>888</ele>
        <time>2010-07-14T12:37:55Z</time>
      </trkpt>
      <trkpt lat="44.96724" lon="5.41602">
        <ele>887</ele>
        <time>2010-07-14T12:40:48Z</time>
      </trkpt>
      <trkpt lat="44.96723" lon="5.41604">
        <ele>887</ele>
        <time>2010-07-14T12:41:03Z</time>
      </trkpt>
      <trkpt lat="44.96724" lon="5.41604">
        <ele>887</ele>
        <time>2010-07-14T12:42:02Z</time>
      </trkpt>
      <trkpt lat="44.96725" lon="5.41603">
        <ele>887</ele>
        <time>2010-07-14T12:42:34Z</time>
      </trkpt>
      <trkpt lat="44.96726" lon="5.41602">
        <ele>887</ele>
        <time>2010-07-14T12:42:53Z</time>
      </trkpt>
      <trkpt lat="44.96727" lon="5.41604">
        <ele>887</ele>
        <time>2010-07-14T12:43:00Z</time>
      </trkpt>
      <trkpt lat="44.96732" lon="5.41599">
        <ele>887</ele>
        <time>2010-07-14T12:43:09Z</time>
      </trkpt>
      <trkpt lat="44.9674" lon="5.41579">
        <ele>887</ele>
        <time>2010-07-14T12:43:16Z</time>
      </trkpt>
      <trkpt lat="44.96742" lon="5.4157">
        <ele>888</ele>
        <time>2010-07-14T12:43:26Z</time>
      </trkpt>
      <trkpt lat="44.96754" lon="5.41541">
        <ele>888</ele>
        <time>2010-07-14T12:43:34Z</time>
      </trkpt>
      <trkpt lat="44.96769" lon="5.41501">
        <ele>888</ele>
        <time>2010-07-14T12:43:46Z</time>
      </trkpt>
      <trkpt lat="44.96775" lon="5.41475">
        <ele>888</ele>
        <time>2010-07-14T12:43:54Z</time>
      </trkpt>
      <trkpt lat="44.96774" lon="5.41473">
        <ele>889</ele>
        <time>2010-07-14T12:44:03Z</time>
      </trkpt>
      <trkpt lat="44.96772" lon="5.4147">
        <ele>891</ele>
        <time>2010-07-14T12:44:12Z</time>
      </trkpt>
      <trkpt lat="44.9677" lon="5.41471">
        <ele>892</ele>
        <time>2010-07-14T12:44:21Z</time>
      </trkpt>
      <trkpt lat="44.96768" lon="5.41468">
        <ele>895</ele>
        <time>2010-07-14T12:44:29Z</time>
      </trkpt>
      <trkpt lat="44.96769" lon="5.41471">
        <ele>896</ele>
        <time>2010-07-14T12:44:46Z</time>
      </trkpt>
      <trkpt lat="44.9677" lon="5.41471">
        <ele>899</ele>
        <time>2010-07-14T12:44:54Z</time>
      </trkpt>
      <trkpt lat="44.96769" lon="5.41473">
        <ele>912</ele>
        <time>2010-07-14T12:45:13Z</time>
      </trkpt>
      <trkpt lat="44.96768" lon="5.41473">
        <ele>915</ele>
        <time>2010-07-14T12:45:41Z</time>
      </trkpt>
      <trkpt lat="44.96766" lon="5.41468">
        <ele>915</ele>
        <time>2010-07-14T12:45:51Z</time>
      </trkpt>
      <trkpt lat="44.96767" lon="5.41462">
        <ele>913</ele>
        <time>2010-07-14T12:45:59Z</time>
      </trkpt>
      <trkpt lat="44.9677" lon="5.41459">
        <ele>907</ele>
        <time>2010-07-14T12:46:07Z</time>
      </trkpt>
      <trkpt lat="44.96777" lon="5.41449">
        <ele>897</ele>
        <time>2010-07-14T12:46:17Z</time>
      </trkpt>
      <trkpt lat="44.96793" lon="5.41407">
        <ele>892</ele>
        <time>2010-07-14T12:46:30Z</time>
      </trkpt>
      <trkpt lat="44.96804" lon="5.4138">
        <ele>888</ele>
        <time>2010-07-14T12:46:37Z</time>
      </trkpt>
      <trkpt lat="44.96812" lon="5.41345">
        <ele>885</ele>
        <time>2010-07-14T12:46:44Z</time>
      </trkpt>
      <trkpt lat="44.96818" lon="5.41314">
        <ele>885</ele>
        <time>2010-07-14T12:46:51Z</time>
      </trkpt>
      <trkpt lat="44.96822" lon="5.41289">
        <ele>883</ele>
        <time>2010-07-14T12:46:58Z</time>
      </trkpt>
      <trkpt lat="44.9683" lon="5.4125">
        <ele>881</ele>
        <time>2010-07-14T12:47:05Z</time>
      </trkpt>
      <trkpt lat="44.96835" lon="5.41222">
        <ele>879</ele>
        <time>2010-07-14T12:47:12Z</time>
      </trkpt>
      <trkpt lat="44.96839" lon="5.41203">
        <ele>877</ele>
        <time>2010-07-14T12:47:19Z</time>
      </trkpt>
      <trkpt lat="44.96859" lon="5.41148">
        <ele>875</ele>
        <time>2010-07-14T12:47:26Z</time>
      </trkpt>
      <trkpt lat="44.96891" lon="5.41093">
        <ele>872</ele>
        <time>2010-07-14T12:47:33Z</time>
      </trkpt>
      <trkpt lat="44.96921" lon="5.41038">
        <ele>868</ele>
        <time>2010-07-14T12:47:40Z</time>
      </trkpt>
      <trkpt lat="44.96929" lon="5.40927">
        <ele>860</ele>
        <time>2010-07-14T12:47:49Z</time>
      </trkpt>
      <trkpt lat="44.96928" lon="5.40865">
        <ele>857</ele>
        <time>2010-07-14T12:47:56Z</time>
      </trkpt>
      <trkpt lat="44.96923" lon="5.40836">
        <ele>854</ele>
        <time>2010-07-14T12:48:03Z</time>
      </trkpt>
      <trkpt lat="44.96919" lon="5.40811">
        <ele>849</ele>
        <time>2010-07-14T12:48:16Z</time>
      </trkpt>
      <trkpt lat="44.9692" lon="5.40813">
        <ele>849</ele>
        <time>2010-07-14T12:48:25Z</time>
      </trkpt>
      <trkpt lat="44.96925" lon="5.40849">
        <ele>849</ele>
        <time>2010-07-14T12:48:33Z</time>
      </trkpt>
      <trkpt lat="44.96936" lon="5.4086">
        <ele>849</ele>
        <time>2010-07-14T12:48:42Z</time>
      </trkpt>
      <trkpt lat="44.96927" lon="5.40855">
        <ele>852</ele>
        <time>2010-07-14T12:48:50Z</time>
      </trkpt>
      <trkpt lat="44.96923" lon="5.40818">
        <ele>852</ele>
        <time>2010-07-14T12:48:58Z</time>
      </trkpt>
      <trkpt lat="44.96921" lon="5.40785">
        <ele>852</ele>
        <time>2010-07-14T12:49:05Z</time>
      </trkpt>
      <trkpt lat="44.96923" lon="5.40766">
        <ele>851</ele>
        <time>2010-07-14T12:49:12Z</time>
      </trkpt>
      <trkpt lat="44.96929" lon="5.40728">
        <ele>849</ele>
        <time>2010-07-14T12:49:19Z</time>
      </trkpt>
      <trkpt lat="44.9693" lon="5.40675">
        <ele>845</ele>
        <time>2010-07-14T12:49:27Z</time>
      </trkpt>
      <trkpt lat="44.96925" lon="5.4062">
        <ele>842</ele>
        <time>2010-07-14T12:49:34Z</time>
      </trkpt>
      <trkpt lat="44.96926" lon="5.40569">
        <ele>839</ele>
        <time>2010-07-14T12:49:41Z</time>
      </trkpt>
      <trkpt lat="44.96926" lon="5.40522">
        <ele>836</ele>
        <time>2010-07-14T12:49:48Z</time>
      </trkpt>
      <trkpt lat="44.96932" lon="5.40484">
        <ele>836</ele>
        <time>2010-07-14T12:49:55Z</time>
      </trkpt>
      <trkpt lat="44.96947" lon="5.40443">
        <ele>836</ele>
        <time>2010-07-14T12:50:02Z</time>
      </trkpt>
      <trkpt lat="44.96981" lon="5.4042">
        <ele>835</ele>
        <time>2010-07-14T12:50:09Z</time>
      </trkpt>
      <trkpt lat="44.97008" lon="5.40399">
        <ele>835</ele>
        <time>2010-07-14T12:50:17Z</time>
      </trkpt>
      <trkpt lat="44.97018" lon="5.40371">
        <ele>834</ele>
        <time>2010-07-14T12:50:24Z</time>
      </trkpt>
      <trkpt lat="44.97032" lon="5.40319">
        <ele>833</ele>
        <time>2010-07-14T12:50:36Z</time>
      </trkpt>
      <trkpt lat="44.97039" lon="5.40275">
        <ele>832</ele>
        <time>2010-07-14T12:50:43Z</time>
      </trkpt>
      <trkpt lat="44.97049" lon="5.40245">
        <ele>831</ele>
        <time>2010-07-14T12:50:50Z</time>
      </trkpt>
      <trkpt lat="44.97063" lon="5.40203">
        <ele>831</ele>
        <time>2010-07-14T12:50:57Z</time>
      </trkpt>
      <trkpt lat="44.97069" lon="5.40176">
        <ele>831</ele>
        <time>2010-07-14T12:51:04Z</time>
      </trkpt>
      <trkpt lat="44.97078" lon="5.40149">
        <ele>831</ele>
        <time>2010-07-14T12:51:11Z</time>
      </trkpt>
      <trkpt lat="44.97071" lon="5.4013">
        <ele>831</ele>
        <time>2010-07-14T12:51:20Z</time>
      </trkpt>
      <trkpt lat="44.97036" lon="5.40116">
        <ele>831</ele>
        <time>2010-07-14T12:51:27Z</time>
      </trkpt>
      <trkpt lat="44.97012" lon="5.40111">
        <ele>831</ele>
        <time>2010-07-14T12:51:34Z</time>
      </trkpt>
      <trkpt lat="44.96988" lon="5.40105">
        <ele>831</ele>
        <time>2010-07-14T12:51:41Z</time>
      </trkpt>
      <trkpt lat="44.96964" lon="5.40102">
        <ele>831</ele>
        <time>2010-07-14T12:51:48Z</time>
      </trkpt>
      <trkpt lat="44.96938" lon="5.40098">
        <ele>831</ele>
        <time>2010-07-14T12:51:56Z</time>
      </trkpt>
      <trkpt lat="44.9691" lon="5.40097">
        <ele>831</ele>
        <time>2010-07-14T12:52:03Z</time>
      </trkpt>
      <trkpt lat="44.96886" lon="5.40095">
        <ele>831</ele>
        <time>2010-07-14T12:52:11Z</time>
      </trkpt>
      <trkpt lat="44.96856" lon="5.40096">
        <ele>831</ele>
        <time>2010-07-14T12:52:23Z</time>
      </trkpt>
      <trkpt lat="44.96838" lon="5.40101">
        <ele>831</ele>
        <time>2010-07-14T12:52:30Z</time>
      </trkpt>
      <trkpt lat="44.96813" lon="5.40105">
        <ele>831</ele>
        <time>2010-07-14T12:52:37Z</time>
      </trkpt>
      <trkpt lat="44.96795" lon="5.40105">
        <ele>831</ele>
        <time>2010-07-14T12:52:44Z</time>
      </trkpt>
      <trkpt lat="44.9677" lon="5.40111">
        <ele>831</ele>
        <time>2010-07-14T12:52:51Z</time>
      </trkpt>
      <trkpt lat="44.96745" lon="5.40117">
        <ele>831</ele>
        <time>2010-07-14T12:52:58Z</time>
      </trkpt>
      <trkpt lat="44.96725" lon="5.40121">
        <ele>831</ele>
        <time>2010-07-14T12:53:05Z</time>
      </trkpt>
      <trkpt lat="44.967" lon="5.40124">
        <ele>831</ele>
        <time>2010-07-14T12:53:12Z</time>
      </trkpt>
      <trkpt lat="44.9668" lon="5.40124">
        <ele>831</ele>
        <time>2010-07-14T12:53:19Z</time>
      </trkpt>
      <trkpt lat="44.96656" lon="5.40124">
        <ele>831</ele>
        <time>2010-07-14T12:53:26Z</time>
      </trkpt>
      <trkpt lat="44.96635" lon="5.40125">
        <ele>831</ele>
        <time>2010-07-14T12:53:33Z</time>
      </trkpt>
      <trkpt lat="44.96615" lon="5.40124">
        <ele>831</ele>
        <time>2010-07-14T12:53:40Z</time>
      </trkpt>
      <trkpt lat="44.9659" lon="5.4012">
        <ele>831</ele>
        <time>2010-07-14T12:53:47Z</time>
      </trkpt>
      <trkpt lat="44.9657" lon="5.40106">
        <ele>831</ele>
        <time>2010-07-14T12:53:55Z</time>
      </trkpt>
      <trkpt lat="44.9654" lon="5.40098">
        <ele>831</ele>
        <time>2010-07-14T12:54:03Z</time>
      </trkpt>
      <trkpt lat="44.9652" lon="5.401">
        <ele>831</ele>
        <time>2010-07-14T12:54:10Z</time>
      </trkpt>
      <trkpt lat="44.96495" lon="5.40107">
        <ele>831</ele>
        <time>2010-07-14T12:54:17Z</time>
      </trkpt>
      <trkpt lat="44.96469" lon="5.40129">
        <ele>833</ele>
        <time>2010-07-14T12:54:24Z</time>
      </trkpt>
      <trkpt lat="44.96452" lon="5.40147">
        <ele>835</ele>
        <time>2010-07-14T12:54:31Z</time>
      </trkpt>
      <trkpt lat="44.96435" lon="5.40165">
        <ele>837</ele>
        <time>2010-07-14T12:54:38Z</time>
      </trkpt>
      <trkpt lat="44.96415" lon="5.40177">
        <ele>838</ele>
        <time>2010-07-14T12:54:46Z</time>
      </trkpt>
      <trkpt lat="44.96384" lon="5.40183">
        <ele>838</ele>
        <time>2010-07-14T12:54:53Z</time>
      </trkpt>
      <trkpt lat="44.96358" lon="5.40181">
        <ele>838</ele>
        <time>2010-07-14T12:55:01Z</time>
      </trkpt>
      <trkpt lat="44.96331" lon="5.40178">
        <ele>838</ele>
        <time>2010-07-14T12:55:08Z</time>
      </trkpt>
      <trkpt lat="44.96309" lon="5.40172">
        <ele>838</ele>
        <time>2010-07-14T12:55:16Z</time>
      </trkpt>
      <trkpt lat="44.96286" lon="5.40164">
        <ele>838</ele>
        <time>2010-07-14T12:55:23Z</time>
      </trkpt>
      <trkpt lat="44.96265" lon="5.40157">
        <ele>838</ele>
        <time>2010-07-14T12:55:31Z</time>
      </trkpt>
      <trkpt lat="44.96241" lon="5.40146">
        <ele>838</ele>
        <time>2010-07-14T12:55:38Z</time>
      </trkpt>
      <trkpt lat="44.96218" lon="5.40135">
        <ele>838</ele>
        <time>2010-07-14T12:55:46Z</time>
      </trkpt>
      <trkpt lat="44.96195" lon="5.40132">
        <ele>838</ele>
        <time>2010-07-14T12:55:53Z</time>
      </trkpt>
      <trkpt lat="44.96174" lon="5.40132">
        <ele>839</ele>
        <time>2010-07-14T12:56:01Z</time>
      </trkpt>
      <trkpt lat="44.96151" lon="5.40131">
        <ele>839</ele>
        <time>2010-07-14T12:56:08Z</time>
      </trkpt>
      <trkpt lat="44.9613" lon="5.4013">
        <ele>839</ele>
        <time>2010-07-14T12:56:16Z</time>
      </trkpt>
      <trkpt lat="44.96106" lon="5.40131">
        <ele>840</ele>
        <time>2010-07-14T12:56:23Z</time>
      </trkpt>
      <trkpt lat="44.96083" lon="5.40135">
        <ele>841</ele>
        <time>2010-07-14T12:56:31Z</time>
      </trkpt>
      <trkpt lat="44.96056" lon="5.40138">
        <ele>841</ele>
        <time>2010-07-14T12:56:38Z</time>
      </trkpt>
      <trkpt lat="44.96032" lon="5.4014">
        <ele>841</ele>
        <time>2010-07-14T12:56:46Z</time>
      </trkpt>
      <trkpt lat="44.96006" lon="5.40137">
        <ele>841</ele>
        <time>2010-07-14T12:56:53Z</time>
      </trkpt>
      <trkpt lat="44.95983" lon="5.40135">
        <ele>841</ele>
        <time>2010-07-14T12:57:01Z</time>
      </trkpt>
      <trkpt lat="44.95957" lon="5.40135">
        <ele>841</ele>
        <time>2010-07-14T12:57:08Z</time>
      </trkpt>
      <trkpt lat="44.95937" lon="5.40135">
        <ele>842</ele>
        <time>2010-07-14T12:57:16Z</time>
      </trkpt>
      <trkpt lat="44.95912" lon="5.40133">
        <ele>843</ele>
        <time>2010-07-14T12:57:23Z</time>
      </trkpt>
      <trkpt lat="44.95891" lon="5.40134">
        <ele>843</ele>
        <time>2010-07-14T12:57:31Z</time>
      </trkpt>
      <trkpt lat="44.95869" lon="5.40136">
        <ele>846</ele>
        <time>2010-07-14T12:57:38Z</time>
      </trkpt>
      <trkpt lat="44.9585" lon="5.40137">
        <ele>847</ele>
        <time>2010-07-14T12:57:46Z</time>
      </trkpt>
      <trkpt lat="44.9583" lon="5.40137">
        <ele>848</ele>
        <time>2010-07-14T12:57:53Z</time>
      </trkpt>
      <trkpt lat="44.95808" lon="5.40138">
        <ele>848</ele>
        <time>2010-07-14T12:58:01Z</time>
      </trkpt>
      <trkpt lat="44.95784" lon="5.40139">
        <ele>848</ele>
        <time>2010-07-14T12:58:08Z</time>
      </trkpt>
      <trkpt lat="44.95764" lon="5.4014">
        <ele>848</ele>
        <time>2010-07-14T12:58:16Z</time>
      </trkpt>
      <trkpt lat="44.9574" lon="5.40139">
        <ele>848</ele>
        <time>2010-07-14T12:58:23Z</time>
      </trkpt>
      <trkpt lat="44.95721" lon="5.40136">
        <ele>848</ele>
        <time>2010-07-14T12:58:31Z</time>
      </trkpt>
      <trkpt lat="44.957" lon="5.40134">
        <ele>848</ele>
        <time>2010-07-14T12:58:38Z</time>
      </trkpt>
      <trkpt lat="44.95684" lon="5.40133">
        <ele>849</ele>
        <time>2010-07-14T12:58:46Z</time>
      </trkpt>
      <trkpt lat="44.95682" lon="5.40134">
        <ele>852</ele>
        <time>2010-07-14T12:59:16Z</time>
      </trkpt>
      <trkpt lat="44.95682" lon="5.40132">
        <ele>854</ele>
        <time>2010-07-14T12:59:25Z</time>
      </trkpt>
      <trkpt lat="44.95681" lon="5.40126">
        <ele>854</ele>
        <time>2010-07-14T12:59:34Z</time>
      </trkpt>
      <trkpt lat="44.95681" lon="5.40124">
        <ele>854</ele>
        <time>2010-07-14T12:59:43Z</time>
      </trkpt>
      <trkpt lat="44.95683" lon="5.40121">
        <ele>854</ele>
        <time>2010-07-14T12:59:51Z</time>
      </trkpt>
      <trkpt lat="44.95681" lon="5.40108">
        <ele>854</ele>
        <time>2010-07-14T13:00:00Z</time>
      </trkpt>
      <trkpt lat="44.95683" lon="5.40069">
        <ele>854</ele>
        <time>2010-07-14T13:00:07Z</time>
      </trkpt>
      <trkpt lat="44.95685" lon="5.40046">
        <ele>854</ele>
        <time>2010-07-14T13:00:14Z</time>
      </trkpt>
      <trkpt lat="44.95684" lon="5.40025">
        <ele>854</ele>
        <time>2010-07-14T13:00:22Z</time>
      </trkpt>
      <trkpt lat="44.9569" lon="5.40002">
        <ele>856</ele>
        <time>2010-07-14T13:00:31Z</time>
      </trkpt>
      <trkpt lat="44.95694" lon="5.39997">
        <ele>860</ele>
        <time>2010-07-14T13:00:39Z</time>
      </trkpt>
      <trkpt lat="44.957" lon="5.39988">
        <ele>863</ele>
        <time>2010-07-14T13:00:46Z</time>
      </trkpt>
      <trkpt lat="44.95705" lon="5.39986">
        <ele>867</ele>
        <time>2010-07-14T13:00:56Z</time>
      </trkpt>
      <trkpt lat="44.95708" lon="5.39986">
        <ele>867</ele>
        <time>2010-07-14T13:01:03Z</time>
      </trkpt>
      <trkpt lat="44.9571" lon="5.39985">
        <ele>869</ele>
        <time>2010-07-14T13:01:14Z</time>
      </trkpt>
      <trkpt lat="44.95712" lon="5.39984">
        <ele>871</ele>
        <time>2010-07-14T13:01:21Z</time>
      </trkpt>
      <trkpt lat="44.95715" lon="5.39983">
        <ele>875</ele>
        <time>2010-07-14T13:01:30Z</time>
      </trkpt>
      <trkpt lat="44.95719" lon="5.39979">
        <ele>879</ele>
        <time>2010-07-14T13:01:39Z</time>
      </trkpt>
      <trkpt lat="44.95721" lon="5.39976">
        <ele>882</ele>
        <time>2010-07-14T13:01:47Z</time>
      </trkpt>
      <trkpt lat="44.95725" lon="5.39973">
        <ele>883</ele>
        <time>2010-07-14T13:01:55Z</time>
      </trkpt>
      <trkpt lat="44.95729" lon="5.39967">
        <ele>884</ele>
        <time>2010-07-14T13:02:04Z</time>
      </trkpt>
      <trkpt lat="44.95721" lon="5.39967">
        <ele>884</ele>
        <time>2010-07-14T13:02:12Z</time>
      </trkpt>
      <trkpt lat="44.95713" lon="5.39963">
        <ele>883</ele>
        <time>2010-07-14T13:02:21Z</time>
      </trkpt>
      <trkpt lat="44.95691" lon="5.39957">
        <ele>879</ele>
        <time>2010-07-14T13:02:28Z</time>
      </trkpt>
      <trkpt lat="44.95685" lon="5.39956">
        <ele>878</ele>
        <time>2010-07-14T13:02:36Z</time>
      </trkpt>
      <trkpt lat="44.95668" lon="5.39951">
        <ele>878</ele>
        <time>2010-07-14T13:02:44Z</time>
      </trkpt>
      <trkpt lat="44.95651" lon="5.39952">
        <ele>878</ele>
        <time>2010-07-14T13:02:52Z</time>
      </trkpt>
      <trkpt lat="44.9564" lon="5.3995">
        <ele>878</ele>
        <time>2010-07-14T13:02:59Z</time>
      </trkpt>
      <trkpt lat="44.95626" lon="5.39945">
        <ele>878</ele>
        <time>2010-07-14T13:03:06Z</time>
      </trkpt>
      <trkpt lat="44.95612" lon="5.3994">
        <ele>878</ele>
        <time>2010-07-14T13:03:16Z</time>
      </trkpt>
      <trkpt lat="44.95596" lon="5.39937">
        <ele>878</ele>
        <time>2010-07-14T13:03:24Z</time>
      </trkpt>
      <trkpt lat="44.95572" lon="5.39932">
        <ele>878</ele>
        <time>2010-07-14T13:03:32Z</time>
      </trkpt>
      <trkpt lat="44.95557" lon="5.39923">
        <ele>878</ele>
        <time>2010-07-14T13:03:39Z</time>
      </trkpt>
      <trkpt lat="44.95535" lon="5.39911">
        <ele>878</ele>
        <time>2010-07-14T13:03:47Z</time>
      </trkpt>
      <trkpt lat="44.95517" lon="5.39903">
        <ele>878</ele>
        <time>2010-07-14T13:03:54Z</time>
      </trkpt>
      <trkpt lat="44.9549" lon="5.39883">
        <ele>878</ele>
        <time>2010-07-14T13:04:02Z</time>
      </trkpt>
      <trkpt lat="44.95481" lon="5.39875">
        <ele>878</ele>
        <time>2010-07-14T13:04:10Z</time>
      </trkpt>
      <trkpt lat="44.95464" lon="5.39861">
        <ele>878</ele>
        <time>2010-07-14T13:04:17Z</time>
      </trkpt>
      <trkpt lat="44.9545" lon="5.39859">
        <ele>880</ele>
        <time>2010-07-14T13:04:26Z</time>
      </trkpt>
      <trkpt lat="44.9544" lon="5.39852">
        <ele>883</ele>
        <time>2010-07-14T13:04:34Z</time>
      </trkpt>
      <trkpt lat="44.95429" lon="5.39847">
        <ele>885</ele>
        <time>2010-07-14T13:04:42Z</time>
      </trkpt>
      <trkpt lat="44.95411" lon="5.39846">
        <ele>885</ele>
        <time>2010-07-14T13:04:49Z</time>
      </trkpt>
      <trkpt lat="44.95396" lon="5.39847">
        <ele>885</ele>
        <time>2010-07-14T13:04:56Z</time>
      </trkpt>
      <trkpt lat="44.95387" lon="5.39845">
        <ele>885</ele>
        <time>2010-07-14T13:05:04Z</time>
      </trkpt>
      <trkpt lat="44.95372" lon="5.39843">
        <ele>885</ele>
        <time>2010-07-14T13:05:11Z</time>
      </trkpt>
      <trkpt lat="44.95354" lon="5.39843">
        <ele>885</ele>
        <time>2010-07-14T13:05:18Z</time>
      </trkpt>
      <trkpt lat="44.95338" lon="5.39838">
        <ele>885</ele>
        <time>2010-07-14T13:05:28Z</time>
      </trkpt>
      <trkpt lat="44.95332" lon="5.39837">
        <ele>885</ele>
        <time>2010-07-14T13:05:38Z</time>
      </trkpt>
      <trkpt lat="44.95327" lon="5.39835">
        <ele>889</ele>
        <time>2010-07-14T13:05:48Z</time>
      </trkpt>
      <trkpt lat="44.95318" lon="5.39833">
        <ele>889</ele>
        <time>2010-07-14T13:05:56Z</time>
      </trkpt>
      <trkpt lat="44.95312" lon="5.39828">
        <ele>890</ele>
        <time>2010-07-14T13:06:04Z</time>
      </trkpt>
      <trkpt lat="44.95292" lon="5.39825">
        <ele>893</ele>
        <time>2010-07-14T13:06:11Z</time>
      </trkpt>
      <trkpt lat="44.95282" lon="5.39825">
        <ele>896</ele>
        <time>2010-07-14T13:06:20Z</time>
      </trkpt>
      <trkpt lat="44.95277" lon="5.39824">
        <ele>901</ele>
        <time>2010-07-14T13:06:30Z</time>
      </trkpt>
      <trkpt lat="44.95271" lon="5.39819">
        <ele>906</ele>
        <time>2010-07-14T13:06:40Z</time>
      </trkpt>
      <trkpt lat="44.95266" lon="5.39818">
        <ele>910</ele>
        <time>2010-07-14T13:06:50Z</time>
      </trkpt>
      <trkpt lat="44.95262" lon="5.39815">
        <ele>912</ele>
        <time>2010-07-14T13:06:59Z</time>
      </trkpt>
      <trkpt lat="44.9526" lon="5.39815">
        <ele>912</ele>
        <time>2010-07-14T13:07:06Z</time>
      </trkpt>
      <trkpt lat="44.95256" lon="5.39817">
        <ele>912</ele>
        <time>2010-07-14T13:07:15Z</time>
      </trkpt>
      <trkpt lat="44.95261" lon="5.39815">
        <ele>912</ele>
        <time>2010-07-14T13:07:23Z</time>
      </trkpt>
      <trkpt lat="44.95264" lon="5.39814">
        <ele>914</ele>
        <time>2010-07-14T13:07:32Z</time>
      </trkpt>
      <trkpt lat="44.95264" lon="5.39814">
        <ele>916</ele>
        <time>2010-07-14T13:07:41Z</time>
      </trkpt>
      <trkpt lat="44.9526" lon="5.39818">
        <ele>917</ele>
        <time>2010-07-14T13:07:49Z</time>
      </trkpt>
      <trkpt lat="44.95264" lon="5.39818">
        <ele>918</ele>
        <time>2010-07-14T13:07:58Z</time>
      </trkpt>
      <trkpt lat="44.95272" lon="5.39814">
        <ele>921</ele>
        <time>2010-07-14T13:08:07Z</time>
      </trkpt>
      <trkpt lat="44.95269" lon="5.39815">
        <ele>924</ele>
        <time>2010-07-14T13:08:15Z</time>
      </trkpt>
      <trkpt lat="44.95264" lon="5.39812">
        <ele>924</ele>
        <time>2010-07-14T13:08:24Z</time>
      </trkpt>
      <trkpt lat="44.9526" lon="5.39814">
        <ele>922</ele>
        <time>2010-07-14T13:08:32Z</time>
      </trkpt>
      <trkpt lat="44.95261" lon="5.3981">
        <ele>919</ele>
        <time>2010-07-14T13:08:42Z</time>
      </trkpt>
      <trkpt lat="44.95259" lon="5.39812">
        <ele>919</ele>
        <time>2010-07-14T13:08:49Z</time>
      </trkpt>
      <trkpt lat="44.95255" lon="5.39811">
        <ele>916</ele>
        <time>2010-07-14T13:09:00Z</time>
      </trkpt>
      <trkpt lat="44.95252" lon="5.39815">
        <ele>916</ele>
        <time>2010-07-14T13:09:09Z</time>
      </trkpt>
      <trkpt lat="44.95249" lon="5.39818">
        <ele>916</ele>
        <time>2010-07-14T13:09:17Z</time>
      </trkpt>
      <trkpt lat="44.95246" lon="5.39822">
        <ele>914</ele>
        <time>2010-07-14T13:09:26Z</time>
      </trkpt>
      <trkpt lat="44.95229" lon="5.39836">
        <ele>912</ele>
        <time>2010-07-14T13:09:34Z</time>
      </trkpt>
      <trkpt lat="44.95218" lon="5.39839">
        <ele>910</ele>
        <time>2010-07-14T13:09:41Z</time>
      </trkpt>
      <trkpt lat="44.95207" lon="5.39842">
        <ele>909</ele>
        <time>2010-07-14T13:09:48Z</time>
      </trkpt>
      <trkpt lat="44.95195" lon="5.39843">
        <ele>907</ele>
        <time>2010-07-14T13:09:55Z</time>
      </trkpt>
      <trkpt lat="44.95179" lon="5.39843">
        <ele>905</ele>
        <time>2010-07-14T13:10:03Z</time>
      </trkpt>
      <trkpt lat="44.95163" lon="5.39838">
        <ele>903</ele>
        <time>2010-07-14T13:10:10Z</time>
      </trkpt>
      <trkpt lat="44.95148" lon="5.39835">
        <ele>900</ele>
        <time>2010-07-14T13:10:17Z</time>
      </trkpt>
      <trkpt lat="44.95131" lon="5.39817">
        <ele>898</ele>
        <time>2010-07-14T13:10:26Z</time>
      </trkpt>
      <trkpt lat="44.95128" lon="5.39816">
        <ele>898</ele>
        <time>2010-07-14T13:10:34Z</time>
      </trkpt>
      <trkpt lat="44.95128" lon="5.39815">
        <ele>898</ele>
        <time>2010-07-14T13:10:45Z</time>
      </trkpt>
      <trkpt lat="44.95127" lon="5.39811">
        <ele>898</ele>
        <time>2010-07-14T13:10:53Z</time>
      </trkpt>
      <trkpt lat="44.95127" lon="5.39806">
        <ele>900</ele>
        <time>2010-07-14T13:11:02Z</time>
      </trkpt>
      <trkpt lat="44.95124" lon="5.39793">
        <ele>901</ele>
        <time>2010-07-14T13:11:11Z</time>
      </trkpt>
      <trkpt lat="44.95121" lon="5.39782">
        <ele>901</ele>
        <time>2010-07-14T13:11:18Z</time>
      </trkpt>
      <trkpt lat="44.95123" lon="5.39777">
        <ele>901</ele>
        <time>2010-07-14T13:11:26Z</time>
      </trkpt>
      <trkpt lat="44.95122" lon="5.39775">
        <ele>902</ele>
        <time>2010-07-14T13:11:35Z</time>
      </trkpt>
      <trkpt lat="44.95122" lon="5.39767">
        <ele>903</ele>
        <time>2010-07-14T13:11:44Z</time>
      </trkpt>
      <trkpt lat="44.95121" lon="5.39751">
        <ele>904</ele>
        <time>2010-07-14T13:11:52Z</time>
      </trkpt>
      <trkpt lat="44.95115" lon="5.39735">
        <ele>906</ele>
        <time>2010-07-14T13:12:02Z</time>
      </trkpt>
      <trkpt lat="44.95113" lon="5.39722">
        <ele>909</ele>
        <time>2010-07-14T13:12:09Z</time>
      </trkpt>
      <trkpt lat="44.9511" lon="5.39716">
        <ele>911</ele>
        <time>2010-07-14T13:12:18Z</time>
      </trkpt>
      <trkpt lat="44.95081" lon="5.39687">
        <ele>911</ele>
        <time>2010-07-14T13:12:26Z</time>
      </trkpt>
      <trkpt lat="44.95066" lon="5.39673">
        <ele>911</ele>
        <time>2010-07-14T13:12:34Z</time>
      </trkpt>
      <trkpt lat="44.95042" lon="5.39639">
        <ele>911</ele>
        <time>2010-07-14T13:12:41Z</time>
      </trkpt>
      <trkpt lat="44.95032" lon="5.39624">
        <ele>909</ele>
        <time>2010-07-14T13:12:51Z</time>
      </trkpt>
      <trkpt lat="44.95029" lon="5.39607">
        <ele>909</ele>
        <time>2010-07-14T13:12:59Z</time>
      </trkpt>
      <trkpt lat="44.95029" lon="5.39589">
        <ele>909</ele>
        <time>2010-07-14T13:13:06Z</time>
      </trkpt>
      <trkpt lat="44.95031" lon="5.39574">
        <ele>909</ele>
        <time>2010-07-14T13:13:13Z</time>
      </trkpt>
      <trkpt lat="44.95031" lon="5.39554">
        <ele>911</ele>
        <time>2010-07-14T13:13:26Z</time>
      </trkpt>
      <trkpt lat="44.95041" lon="5.39531">
        <ele>911</ele>
        <time>2010-07-14T13:13:34Z</time>
      </trkpt>
      <trkpt lat="44.95042" lon="5.39522">
        <ele>911</ele>
        <time>2010-07-14T13:13:42Z</time>
      </trkpt>
      <trkpt lat="44.95051" lon="5.39501">
        <ele>913</ele>
        <time>2010-07-14T13:13:51Z</time>
      </trkpt>
      <trkpt lat="44.95059" lon="5.39483">
        <ele>913</ele>
        <time>2010-07-14T13:13:59Z</time>
      </trkpt>
      <trkpt lat="44.95067" lon="5.39464">
        <ele>914</ele>
        <time>2010-07-14T13:14:08Z</time>
      </trkpt>
      <trkpt lat="44.95074" lon="5.3944">
        <ele>917</ele>
        <time>2010-07-14T13:14:16Z</time>
      </trkpt>
      <trkpt lat="44.95078" lon="5.39424">
        <ele>920</ele>
        <time>2010-07-14T13:14:23Z</time>
      </trkpt>
      <trkpt lat="44.95081" lon="5.39398">
        <ele>921</ele>
        <time>2010-07-14T13:14:30Z</time>
      </trkpt>
      <trkpt lat="44.95087" lon="5.39375">
        <ele>921</ele>
        <time>2010-07-14T13:14:38Z</time>
      </trkpt>
      <trkpt lat="44.951" lon="5.39352">
        <ele>922</ele>
        <time>2010-07-14T13:14:45Z</time>
      </trkpt>
      <trkpt lat="44.95108" lon="5.39327">
        <ele>922</ele>
        <time>2010-07-14T13:14:52Z</time>
      </trkpt>
      <trkpt lat="44.95114" lon="5.39308">
        <ele>922</ele>
        <time>2010-07-14T13:14:59Z</time>
      </trkpt>
      <trkpt lat="44.95117" lon="5.39281">
        <ele>922</ele>
        <time>2010-07-14T13:15:07Z</time>
      </trkpt>
      <trkpt lat="44.9512" lon="5.39255">
        <ele>922</ele>
        <time>2010-07-14T13:15:15Z</time>
      </trkpt>
      <trkpt lat="44.95119" lon="5.3923">
        <ele>922</ele>
        <time>2010-07-14T13:15:22Z</time>
      </trkpt>
      <trkpt lat="44.95119" lon="5.39198">
        <ele>922</ele>
        <time>2010-07-14T13:15:29Z</time>
      </trkpt>
      <trkpt lat="44.95115" lon="5.3916">
        <ele>922</ele>
        <time>2010-07-14T13:15:36Z</time>
      </trkpt>
      <trkpt lat="44.95109" lon="5.39136">
        <ele>922</ele>
        <time>2010-07-14T13:15:43Z</time>
      </trkpt>
      <trkpt lat="44.95108" lon="5.39127">
        <ele>922</ele>
        <time>2010-07-14T13:15:51Z</time>
      </trkpt>
      <trkpt lat="44.95099" lon="5.39107">
        <ele>922</ele>
        <time>2010-07-14T13:15:59Z</time>
      </trkpt>
      <trkpt lat="44.95085" lon="5.39084">
        <ele>922</ele>
        <time>2010-07-14T13:16:07Z</time>
      </trkpt>
      <trkpt lat="44.95081" lon="5.39076">
        <ele>922</ele>
        <time>2010-07-14T13:16:15Z</time>
      </trkpt>
      <trkpt lat="44.95069" lon="5.39066">
        <ele>923</ele>
        <time>2010-07-14T13:16:23Z</time>
      </trkpt>
      <trkpt lat="44.95052" lon="5.39072">
        <ele>923</ele>
        <time>2010-07-14T13:16:31Z</time>
      </trkpt>
      <trkpt lat="44.95043" lon="5.39076">
        <ele>923</ele>
        <time>2010-07-14T13:16:39Z</time>
      </trkpt>
      <trkpt lat="44.95027" lon="5.39085">
        <ele>925</ele>
        <time>2010-07-14T13:16:46Z</time>
      </trkpt>
      <trkpt lat="44.95015" lon="5.39092">
        <ele>928</ele>
        <time>2010-07-14T13:16:53Z</time>
      </trkpt>
      <trkpt lat="44.95" lon="5.39103">
        <ele>932</ele>
        <time>2010-07-14T13:17:02Z</time>
      </trkpt>
      <trkpt lat="44.94984" lon="5.39103">
        <ele>934</ele>
        <time>2010-07-14T13:17:10Z</time>
      </trkpt>
      <trkpt lat="44.94968" lon="5.39112">
        <ele>934</ele>
        <time>2010-07-14T13:17:20Z</time>
      </trkpt>
      <trkpt lat="44.94967" lon="5.39136">
        <ele>934</ele>
        <time>2010-07-14T13:17:28Z</time>
      </trkpt>
      <trkpt lat="44.94962" lon="5.39166">
        <ele>938</ele>
        <time>2010-07-14T13:17:36Z</time>
      </trkpt>
      <trkpt lat="44.94948" lon="5.39181">
        <ele>944</ele>
        <time>2010-07-14T13:17:45Z</time>
      </trkpt>
      <trkpt lat="44.94934" lon="5.39195">
        <ele>947</ele>
        <time>2010-07-14T13:17:52Z</time>
      </trkpt>
      <trkpt lat="44.94923" lon="5.39229">
        <ele>951</ele>
        <time>2010-07-14T13:18:02Z</time>
      </trkpt>
      <trkpt lat="44.94908" lon="5.39269">
        <ele>951</ele>
        <time>2010-07-14T13:18:09Z</time>
      </trkpt>
      <trkpt lat="44.9489" lon="5.39321">
        <ele>950</ele>
        <time>2010-07-14T13:18:16Z</time>
      </trkpt>
      <trkpt lat="44.94883" lon="5.39335">
        <ele>950</ele>
        <time>2010-07-14T13:18:24Z</time>
      </trkpt>
      <trkpt lat="44.9487" lon="5.3936">
        <ele>950</ele>
        <time>2010-07-14T13:18:31Z</time>
      </trkpt>
      <trkpt lat="44.94859" lon="5.39387">
        <ele>950</ele>
        <time>2010-07-14T13:18:38Z</time>
      </trkpt>
      <trkpt lat="44.94849" lon="5.39411">
        <ele>950</ele>
        <time>2010-07-14T13:18:45Z</time>
      </trkpt>
      <trkpt lat="44.94857" lon="5.39452">
        <ele>950</ele>
        <time>2010-07-14T13:18:53Z</time>
      </trkpt>
      <trkpt lat="44.94836" lon="5.39467">
        <ele>948</ele>
        <time>2010-07-14T13:19:02Z</time>
      </trkpt>
      <trkpt lat="44.94827" lon="5.39476">
        <ele>945</ele>
        <time>2010-07-14T13:19:10Z</time>
      </trkpt>
      <trkpt lat="44.948" lon="5.39495">
        <ele>942</ele>
        <time>2010-07-14T13:19:17Z</time>
      </trkpt>
      <trkpt lat="44.9478" lon="5.39501">
        <ele>941</ele>
        <time>2010-07-14T13:19:25Z</time>
      </trkpt>
      <trkpt lat="44.94751" lon="5.39509">
        <ele>941</ele>
        <time>2010-07-14T13:19:32Z</time>
      </trkpt>
      <trkpt lat="44.94732" lon="5.39515">
        <ele>940</ele>
        <time>2010-07-14T13:19:39Z</time>
      </trkpt>
      <trkpt lat="44.94704" lon="5.39523">
        <ele>939</ele>
        <time>2010-07-14T13:19:46Z</time>
      </trkpt>
      <trkpt lat="44.94695" lon="5.3953">
        <ele>938</ele>
        <time>2010-07-14T13:19:53Z</time>
      </trkpt>
      <trkpt lat="44.94676" lon="5.39543">
        <ele>938</ele>
        <time>2010-07-14T13:20:01Z</time>
      </trkpt>
      <trkpt lat="44.94655" lon="5.3953">
        <ele>938</ele>
        <time>2010-07-14T13:20:09Z</time>
      </trkpt>
      <trkpt lat="44.94624" lon="5.39503">
        <ele>937</ele>
        <time>2010-07-14T13:20:16Z</time>
      </trkpt>
      <trkpt lat="44.94605" lon="5.39473">
        <ele>937</ele>
        <time>2010-07-14T13:20:24Z</time>
      </trkpt>
      <trkpt lat="44.94584" lon="5.39448">
        <ele>936</ele>
        <time>2010-07-14T13:20:33Z</time>
      </trkpt>
      <trkpt lat="44.94574" lon="5.39437">
        <ele>936</ele>
        <time>2010-07-14T13:20:40Z</time>
      </trkpt>
      <trkpt lat="44.94557" lon="5.39425">
        <ele>936</ele>
        <time>2010-07-14T13:20:47Z</time>
      </trkpt>
      <trkpt lat="44.94553" lon="5.39421">
        <ele>936</ele>
        <time>2010-07-14T13:20:55Z</time>
      </trkpt>
      <trkpt lat="44.94537" lon="5.39406">
        <ele>936</ele>
        <time>2010-07-14T13:21:02Z</time>
      </trkpt>
      <trkpt lat="44.94521" lon="5.39393">
        <ele>936</ele>
        <time>2010-07-14T13:21:09Z</time>
      </trkpt>
      <trkpt lat="44.94502" lon="5.39376">
        <ele>936</ele>
        <time>2010-07-14T13:21:16Z</time>
      </trkpt>
      <trkpt lat="44.94484" lon="5.39363">
        <ele>936</ele>
        <time>2010-07-14T13:21:23Z</time>
      </trkpt>
      <trkpt lat="44.94462" lon="5.39341">
        <ele>936</ele>
        <time>2010-07-14T13:21:30Z</time>
      </trkpt>
      <trkpt lat="44.94453" lon="5.39334">
        <ele>936</ele>
        <time>2010-07-14T13:21:38Z</time>
      </trkpt>
      <trkpt lat="44.94429" lon="5.39315">
        <ele>938</ele>
        <time>2010-07-14T13:21:48Z</time>
      </trkpt>
      <trkpt lat="44.94413" lon="5.39313">
        <ele>939</ele>
        <time>2010-07-14T13:21:56Z</time>
      </trkpt>
      <trkpt lat="44.94402" lon="5.39313">
        <ele>939</ele>
        <time>2010-07-14T13:22:03Z</time>
      </trkpt>
      <trkpt lat="44.94388" lon="5.39311">
        <ele>940</ele>
        <time>2010-07-14T13:22:11Z</time>
      </trkpt>
      <trkpt lat="44.94376" lon="5.3931">
        <ele>940</ele>
        <time>2010-07-14T13:22:20Z</time>
      </trkpt>
      <trkpt lat="44.94357" lon="5.39313">
        <ele>940</ele>
        <time>2010-07-14T13:22:27Z</time>
      </trkpt>
      <trkpt lat="44.94345" lon="5.39316">
        <ele>942</ele>
        <time>2010-07-14T13:22:34Z</time>
      </trkpt>
      <trkpt lat="44.94336" lon="5.3932">
        <ele>945</ele>
        <time>2010-07-14T13:22:42Z</time>
      </trkpt>
      <trkpt lat="44.9433" lon="5.39322">
        <ele>947</ele>
        <time>2010-07-14T13:22:49Z</time>
      </trkpt>
      <trkpt lat="44.94315" lon="5.39327">
        <ele>950</ele>
        <time>2010-07-14T13:22:58Z</time>
      </trkpt>
      <trkpt lat="44.943" lon="5.39328">
        <ele>950</ele>
        <time>2010-07-14T13:23:07Z</time>
      </trkpt>
      <trkpt lat="44.9429" lon="5.39333">
        <ele>950</ele>
        <time>2010-07-14T13:23:16Z</time>
      </trkpt>
      <trkpt lat="44.94281" lon="5.39344">
        <ele>952</ele>
        <time>2010-07-14T13:23:24Z</time>
      </trkpt>
      <trkpt lat="44.94272" lon="5.39352">
        <ele>954</ele>
        <time>2010-07-14T13:23:33Z</time>
      </trkpt>
      <trkpt lat="44.94261" lon="5.39364">
        <ele>957</ele>
        <time>2010-07-14T13:23:40Z</time>
      </trkpt>
      <trkpt lat="44.94253" lon="5.39374">
        <ele>960</ele>
        <time>2010-07-14T13:23:48Z</time>
      </trkpt>
      <trkpt lat="44.94244" lon="5.39383">
        <ele>962</ele>
        <time>2010-07-14T13:23:56Z</time>
      </trkpt>
      <trkpt lat="44.94235" lon="5.39389">
        <ele>962</ele>
        <time>2010-07-14T13:24:04Z</time>
      </trkpt>
      <trkpt lat="44.94228" lon="5.39395">
        <ele>962</ele>
        <time>2010-07-14T13:24:11Z</time>
      </trkpt>
      <trkpt lat="44.94225" lon="5.39397">
        <ele>963</ele>
        <time>2010-07-14T13:24:19Z</time>
      </trkpt>
      <trkpt lat="44.9422" lon="5.39403">
        <ele>965</ele>
        <time>2010-07-14T13:24:28Z</time>
      </trkpt>
      <trkpt lat="44.94208" lon="5.39404">
        <ele>967</ele>
        <time>2010-07-14T13:24:37Z</time>
      </trkpt>
      <trkpt lat="44.94199" lon="5.394">
        <ele>970</ele>
        <time>2010-07-14T13:24:45Z</time>
      </trkpt>
      <trkpt lat="44.94191" lon="5.39393">
        <ele>972</ele>
        <time>2010-07-14T13:24:52Z</time>
      </trkpt>
      <trkpt lat="44.94186" lon="5.39375">
        <ele>973</ele>
        <time>2010-07-14T13:25:01Z</time>
      </trkpt>
      <trkpt lat="44.94185" lon="5.39362">
        <ele>973</ele>
        <time>2010-07-14T13:25:09Z</time>
      </trkpt>
      <trkpt lat="44.94183" lon="5.39355">
        <ele>973</ele>
        <time>2010-07-14T13:25:18Z</time>
      </trkpt>
      <trkpt lat="44.9418" lon="5.3936">
        <ele>974</ele>
        <time>2010-07-14T13:25:27Z</time>
      </trkpt>
      <trkpt lat="44.94176" lon="5.39364">
        <ele>978</ele>
        <time>2010-07-14T13:25:45Z</time>
      </trkpt>
      <trkpt lat="44.94176" lon="5.39366">
        <ele>978</ele>
        <time>2010-07-14T13:25:53Z</time>
      </trkpt>
      <trkpt lat="44.94173" lon="5.39378">
        <ele>978</ele>
        <time>2010-07-14T13:26:03Z</time>
      </trkpt>
      <trkpt lat="44.9417" lon="5.394">
        <ele>978</ele>
        <time>2010-07-14T13:26:11Z</time>
      </trkpt>
      <trkpt lat="44.9417" lon="5.39407">
        <ele>980</ele>
        <time>2010-07-14T13:26:19Z</time>
      </trkpt>
      <trkpt lat="44.9417" lon="5.39427">
        <ele>983</ele>
        <time>2010-07-14T13:26:28Z</time>
      </trkpt>
      <trkpt lat="44.94173" lon="5.39448">
        <ele>984</ele>
        <time>2010-07-14T13:26:37Z</time>
      </trkpt>
      <trkpt lat="44.94184" lon="5.39469">
        <ele>980</ele>
        <time>2010-07-14T13:26:46Z</time>
      </trkpt>
      <trkpt lat="44.94187" lon="5.39476">
        <ele>979</ele>
        <time>2010-07-14T13:26:54Z</time>
      </trkpt>
      <trkpt lat="44.94188" lon="5.39489">
        <ele>979</ele>
        <time>2010-07-14T13:27:03Z</time>
      </trkpt>
      <trkpt lat="44.9418" lon="5.39494">
        <ele>982</ele>
        <time>2010-07-14T13:27:10Z</time>
      </trkpt>
      <trkpt lat="44.94173" lon="5.39501">
        <ele>985</ele>
        <time>2010-07-14T13:27:17Z</time>
      </trkpt>
      <trkpt lat="44.94163" lon="5.39507">
        <ele>987</ele>
        <time>2010-07-14T13:27:25Z</time>
      </trkpt>
      <trkpt lat="44.94149" lon="5.39514">
        <ele>987</ele>
        <time>2010-07-14T13:27:33Z</time>
      </trkpt>
      <trkpt lat="44.94137" lon="5.3952">
        <ele>987</ele>
        <time>2010-07-14T13:27:42Z</time>
      </trkpt>
      <trkpt lat="44.94128" lon="5.39522">
        <ele>989</ele>
        <time>2010-07-14T13:27:49Z</time>
      </trkpt>
      <trkpt lat="44.94117" lon="5.3953">
        <ele>991</ele>
        <time>2010-07-14T13:27:56Z</time>
      </trkpt>
      <trkpt lat="44.94109" lon="5.39539">
        <ele>991</ele>
        <time>2010-07-14T13:28:03Z</time>
      </trkpt>
      <trkpt lat="44.94093" lon="5.3955">
        <ele>991</ele>
        <time>2010-07-14T13:28:11Z</time>
      </trkpt>
      <trkpt lat="44.94088" lon="5.39554">
        <ele>992</ele>
        <time>2010-07-14T13:28:19Z</time>
      </trkpt>
      <trkpt lat="44.94066" lon="5.39559">
        <ele>992</ele>
        <time>2010-07-14T13:28:27Z</time>
      </trkpt>
      <trkpt lat="44.94041" lon="5.39564">
        <ele>992</ele>
        <time>2010-07-14T13:28:34Z</time>
      </trkpt>
      <trkpt lat="44.9403" lon="5.39571">
        <ele>992</ele>
        <time>2010-07-14T13:28:41Z</time>
      </trkpt>
      <trkpt lat="44.94012" lon="5.3959">
        <ele>992</ele>
        <time>2010-07-14T13:28:50Z</time>
      </trkpt>
      <trkpt lat="44.94012" lon="5.39592">
        <ele>992</ele>
        <time>2010-07-14T13:29:00Z</time>
      </trkpt>
      <trkpt lat="44.94013" lon="5.39591">
        <ele>992</ele>
        <time>2010-07-14T13:29:09Z</time>
      </trkpt>
      <trkpt lat="44.94014" lon="5.39588">
        <ele>992</ele>
        <time>2010-07-14T13:29:27Z</time>
      </trkpt>
      <trkpt lat="44.94014" lon="5.39586">
        <ele>992</ele>
        <time>2010-07-14T13:29:36Z</time>
      </trkpt>
      <trkpt lat="44.94011" lon="5.39596">
        <ele>994</ele>
        <time>2010-07-14T13:29:53Z</time>
      </trkpt>
      <trkpt lat="44.94006" lon="5.39609">
        <ele>994</ele>
        <time>2010-07-14T13:30:01Z</time>
      </trkpt>
      <trkpt lat="44.93998" lon="5.39631">
        <ele>994</ele>
        <time>2010-07-14T13:30:08Z</time>
      </trkpt>
      <trkpt lat="44.93993" lon="5.39642">
        <ele>994</ele>
        <time>2010-07-14T13:30:18Z</time>
      </trkpt>
      <trkpt lat="44.93996" lon="5.39638">
        <ele>994</ele>
        <time>2010-07-14T13:30:26Z</time>
      </trkpt>
      <trkpt lat="44.93991" lon="5.3965">
        <ele>994</ele>
        <time>2010-07-14T13:30:36Z</time>
      </trkpt>
      <trkpt lat="44.93981" lon="5.39669">
        <ele>994</ele>
        <time>2010-07-14T13:30:44Z</time>
      </trkpt>
      <trkpt lat="44.93964" lon="5.39696">
        <ele>994</ele>
        <time>2010-07-14T13:30:51Z</time>
      </trkpt>
      <trkpt lat="44.93953" lon="5.39713">
        <ele>994</ele>
        <time>2010-07-14T13:30:58Z</time>
      </trkpt>
      <trkpt lat="44.93945" lon="5.39727">
        <ele>994</ele>
        <time>2010-07-14T13:31:05Z</time>
      </trkpt>
      <trkpt lat="44.93935" lon="5.39738">
        <ele>994</ele>
        <time>2010-07-14T13:31:12Z</time>
      </trkpt>
      <trkpt lat="44.9393" lon="5.39741">
        <ele>994</ele>
        <time>2010-07-14T13:31:20Z</time>
      </trkpt>
      <trkpt lat="44.93917" lon="5.39755">
        <ele>998</ele>
        <time>2010-07-14T13:31:28Z</time>
      </trkpt>
      <trkpt lat="44.93916" lon="5.39768">
        <ele>1003</ele>
        <time>2010-07-14T13:31:38Z</time>
      </trkpt>
      <trkpt lat="44.93908" lon="5.39774">
        <ele>1005</ele>
        <time>2010-07-14T13:31:46Z</time>
      </trkpt>
      <trkpt lat="44.93905" lon="5.3978">
        <ele>1007</ele>
        <time>2010-07-14T13:31:54Z</time>
      </trkpt>
      <trkpt lat="44.93893" lon="5.39791">
        <ele>1010</ele>
        <time>2010-07-14T13:32:03Z</time>
      </trkpt>
      <trkpt lat="44.93885" lon="5.39793">
        <ele>1012</ele>
        <time>2010-07-14T13:32:10Z</time>
      </trkpt>
      <trkpt lat="44.93873" lon="5.39796">
        <ele>1014</ele>
        <time>2010-07-14T13:32:17Z</time>
      </trkpt>
      <trkpt lat="44.93868" lon="5.39799">
        <ele>1016</ele>
        <time>2010-07-14T13:32:24Z</time>
      </trkpt>
      <trkpt lat="44.93855" lon="5.39797">
        <ele>1017</ele>
        <time>2010-07-14T13:32:32Z</time>
      </trkpt>
      <trkpt lat="44.93844" lon="5.39786">
        <ele>1017</ele>
        <time>2010-07-14T13:32:39Z</time>
      </trkpt>
      <trkpt lat="44.9384" lon="5.39782">
        <ele>1017</ele>
        <time>2010-07-14T13:32:47Z</time>
      </trkpt>
      <trkpt lat="44.93832" lon="5.39776">
        <ele>1018</ele>
        <time>2010-07-14T13:32:56Z</time>
      </trkpt>
      <trkpt lat="44.93822" lon="5.39771">
        <ele>1020</ele>
        <time>2010-07-14T13:33:04Z</time>
      </trkpt>
      <trkpt lat="44.93807" lon="5.39778">
        <ele>1023</ele>
        <time>2010-07-14T13:33:12Z</time>
      </trkpt>
      <trkpt lat="44.93798" lon="5.39778">
        <ele>1023</ele>
        <time>2010-07-14T13:33:23Z</time>
      </trkpt>
      <trkpt lat="44.93784" lon="5.39779">
        <ele>1025</ele>
        <time>2010-07-14T13:33:31Z</time>
      </trkpt>
      <trkpt lat="44.93766" lon="5.39782">
        <ele>1026</ele>
        <time>2010-07-14T13:33:38Z</time>
      </trkpt>
      <trkpt lat="44.93761" lon="5.39782">
        <ele>1026</ele>
        <time>2010-07-14T13:33:46Z</time>
      </trkpt>
      <trkpt lat="44.93746" lon="5.39783">
        <ele>1026</ele>
        <time>2010-07-14T13:33:53Z</time>
      </trkpt>
      <trkpt lat="44.93735" lon="5.39783">
        <ele>1026</ele>
        <time>2010-07-14T13:34:01Z</time>
      </trkpt>
      <trkpt lat="44.93718" lon="5.39785">
        <ele>1026</ele>
        <time>2010-07-14T13:34:08Z</time>
      </trkpt>
      <trkpt lat="44.93707" lon="5.39787">
        <ele>1027</ele>
        <time>2010-07-14T13:34:15Z</time>
      </trkpt>
      <trkpt lat="44.93693" lon="5.39788">
        <ele>1027</ele>
        <time>2010-07-14T13:34:22Z</time>
      </trkpt>
      <trkpt lat="44.93685" lon="5.39793">
        <ele>1028</ele>
        <time>2010-07-14T13:34:30Z</time>
      </trkpt>
      <trkpt lat="44.93668" lon="5.39805">
        <ele>1030</ele>
        <time>2010-07-14T13:34:38Z</time>
      </trkpt>
      <trkpt lat="44.93656" lon="5.3981">
        <ele>1031</ele>
        <time>2010-07-14T13:34:45Z</time>
      </trkpt>
      <trkpt lat="44.93649" lon="5.39809">
        <ele>1031</ele>
        <time>2010-07-14T13:34:53Z</time>
      </trkpt>
      <trkpt lat="44.93638" lon="5.39807">
        <ele>1032</ele>
        <time>2010-07-14T13:35:00Z</time>
      </trkpt>
      <trkpt lat="44.93633" lon="5.39806">
        <ele>1034</ele>
        <time>2010-07-14T13:35:08Z</time>
      </trkpt>
      <trkpt lat="44.93615" lon="5.39805">
        <ele>1035</ele>
        <time>2010-07-14T13:35:16Z</time>
      </trkpt>
      <trkpt lat="44.93609" lon="5.39805">
        <ele>1036</ele>
        <time>2010-07-14T13:35:24Z</time>
      </trkpt>
      <trkpt lat="44.93597" lon="5.39805">
        <ele>1039</ele>
        <time>2010-07-14T13:35:31Z</time>
      </trkpt>
      <trkpt lat="44.93587" lon="5.39805">
        <ele>1041</ele>
        <time>2010-07-14T13:35:38Z</time>
      </trkpt>
      <trkpt lat="44.93579" lon="5.39805">
        <ele>1042</ele>
        <time>2010-07-14T13:35:45Z</time>
      </trkpt>
      <trkpt lat="44.93566" lon="5.3981">
        <ele>1043</ele>
        <time>2010-07-14T13:35:52Z</time>
      </trkpt>
      <trkpt lat="44.93554" lon="5.39815">
        <ele>1043</ele>
        <time>2010-07-14T13:36:00Z</time>
      </trkpt>
      <trkpt lat="44.93541" lon="5.39819">
        <ele>1045</ele>
        <time>2010-07-14T13:36:07Z</time>
      </trkpt>
      <trkpt lat="44.93522" lon="5.39817">
        <ele>1046</ele>
        <time>2010-07-14T13:36:17Z</time>
      </trkpt>
      <trkpt lat="44.93506" lon="5.39821">
        <ele>1046</ele>
        <time>2010-07-14T13:36:25Z</time>
      </trkpt>
      <trkpt lat="44.93488" lon="5.39825">
        <ele>1046</ele>
        <time>2010-07-14T13:36:32Z</time>
      </trkpt>
      <trkpt lat="44.93473" lon="5.39825">
        <ele>1046</ele>
        <time>2010-07-14T13:36:39Z</time>
      </trkpt>
      <trkpt lat="44.93443" lon="5.39828">
        <ele>1046</ele>
        <time>2010-07-14T13:36:46Z</time>
      </trkpt>
      <trkpt lat="44.93427" lon="5.39822">
        <ele>1046</ele>
        <time>2010-07-14T13:36:54Z</time>
      </trkpt>
      <trkpt lat="44.93409" lon="5.39801">
        <ele>1046</ele>
        <time>2010-07-14T13:37:01Z</time>
      </trkpt>
      <trkpt lat="44.93381" lon="5.39782">
        <ele>1046</ele>
        <time>2010-07-14T13:37:08Z</time>
      </trkpt>
      <trkpt lat="44.9336" lon="5.39781">
        <ele>1046</ele>
        <time>2010-07-14T13:37:17Z</time>
      </trkpt>
      <trkpt lat="44.93325" lon="5.39823">
        <ele>1046</ele>
        <time>2010-07-14T13:37:26Z</time>
      </trkpt>
      <trkpt lat="44.93311" lon="5.39844">
        <ele>1044</ele>
        <time>2010-07-14T13:37:34Z</time>
      </trkpt>
      <trkpt lat="44.93309" lon="5.39844">
        <ele>1041</ele>
        <time>2010-07-14T13:37:47Z</time>
      </trkpt>
      <trkpt lat="44.93307" lon="5.39843">
        <ele>1040</ele>
        <time>2010-07-14T13:38:05Z</time>
      </trkpt>
      <trkpt lat="44.93304" lon="5.39843">
        <ele>1040</ele>
        <time>2010-07-14T13:38:13Z</time>
      </trkpt>
      <trkpt lat="44.93287" lon="5.39839">
        <ele>1040</ele>
        <time>2010-07-14T13:38:20Z</time>
      </trkpt>
      <trkpt lat="44.9328" lon="5.39842">
        <ele>1040</ele>
        <time>2010-07-14T13:38:28Z</time>
      </trkpt>
      <trkpt lat="44.93268" lon="5.39843">
        <ele>1040</ele>
        <time>2010-07-14T13:38:36Z</time>
      </trkpt>
      <trkpt lat="44.93257" lon="5.39845">
        <ele>1040</ele>
        <time>2010-07-14T13:38:44Z</time>
      </trkpt>
      <trkpt lat="44.93247" lon="5.39845">
        <ele>1040</ele>
        <time>2010-07-14T13:38:51Z</time>
      </trkpt>
      <trkpt lat="44.93239" lon="5.39839">
        <ele>1041</ele>
        <time>2010-07-14T13:39:00Z</time>
      </trkpt>
      <trkpt lat="44.93222" lon="5.39828">
        <ele>1044</ele>
        <time>2010-07-14T13:39:08Z</time>
      </trkpt>
      <trkpt lat="44.93211" lon="5.39829">
        <ele>1045</ele>
        <time>2010-07-14T13:39:15Z</time>
      </trkpt>
      <trkpt lat="44.93203" lon="5.39832">
        <ele>1045</ele>
        <time>2010-07-14T13:39:23Z</time>
      </trkpt>
      <trkpt lat="44.93187" lon="5.39834">
        <ele>1045</ele>
        <time>2010-07-14T13:39:31Z</time>
      </trkpt>
      <trkpt lat="44.93168" lon="5.39828">
        <ele>1045</ele>
        <time>2010-07-14T13:39:38Z</time>
      </trkpt>
      <trkpt lat="44.9313" lon="5.39828">
        <ele>1045</ele>
        <time>2010-07-14T13:39:46Z</time>
      </trkpt>
      <trkpt lat="44.93114" lon="5.39832">
        <ele>1045</ele>
        <time>2010-07-14T13:39:53Z</time>
      </trkpt>
      <trkpt lat="44.93082" lon="5.3985">
        <ele>1045</ele>
        <time>2010-07-14T13:40:03Z</time>
      </trkpt>
      <trkpt lat="44.93057" lon="5.39868">
        <ele>1045</ele>
        <time>2010-07-14T13:40:11Z</time>
      </trkpt>
      <trkpt lat="44.93037" lon="5.39878">
        <ele>1045</ele>
        <time>2010-07-14T13:40:18Z</time>
      </trkpt>
      <trkpt lat="44.93032" lon="5.3988">
        <ele>1045</ele>
        <time>2010-07-14T13:40:26Z</time>
      </trkpt>
      <trkpt lat="44.93021" lon="5.39891">
        <ele>1045</ele>
        <time>2010-07-14T13:40:34Z</time>
      </trkpt>
      <trkpt lat="44.93011" lon="5.39895">
        <ele>1046</ele>
        <time>2010-07-14T13:40:41Z</time>
      </trkpt>
      <trkpt lat="44.9301" lon="5.39907">
        <ele>1047</ele>
        <time>2010-07-14T13:40:51Z</time>
      </trkpt>
      <trkpt lat="44.93009" lon="5.39913">
        <ele>1047</ele>
        <time>2010-07-14T13:41:01Z</time>
      </trkpt>
      <trkpt lat="44.9299" lon="5.39924">
        <ele>1048</ele>
        <time>2010-07-14T13:41:09Z</time>
      </trkpt>
      <trkpt lat="44.92985" lon="5.3993">
        <ele>1048</ele>
        <time>2010-07-14T13:41:17Z</time>
      </trkpt>
      <trkpt lat="44.92981" lon="5.39931">
        <ele>1050</ele>
        <time>2010-07-14T13:41:27Z</time>
      </trkpt>
      <trkpt lat="44.92974" lon="5.39934">
        <ele>1052</ele>
        <time>2010-07-14T13:41:37Z</time>
      </trkpt>
      <trkpt lat="44.92968" lon="5.3994">
        <ele>1054</ele>
        <time>2010-07-14T13:41:46Z</time>
      </trkpt>
      <trkpt lat="44.92968" lon="5.39938">
        <ele>1055</ele>
        <time>2010-07-14T13:42:34Z</time>
      </trkpt>
      <trkpt lat="44.92962" lon="5.39942">
        <ele>1055</ele>
        <time>2010-07-14T13:43:02Z</time>
      </trkpt>
      <trkpt lat="44.92938" lon="5.3996">
        <ele>1055</ele>
        <time>2010-07-14T13:43:09Z</time>
      </trkpt>
      <trkpt lat="44.92927" lon="5.39966">
        <ele>1055</ele>
        <time>2010-07-14T13:43:16Z</time>
      </trkpt>
      <trkpt lat="44.9292" lon="5.39954">
        <ele>1055</ele>
        <time>2010-07-14T13:43:27Z</time>
      </trkpt>
      <trkpt lat="44.92893" lon="5.39902">
        <ele>1055</ele>
        <time>2010-07-14T13:43:35Z</time>
      </trkpt>
      <trkpt lat="44.92883" lon="5.39883">
        <ele>1053</ele>
        <time>2010-07-14T13:43:45Z</time>
      </trkpt>
      <trkpt lat="44.92824" lon="5.39891">
        <ele>1050</ele>
        <time>2010-07-14T13:43:53Z</time>
      </trkpt>
      <trkpt lat="44.92811" lon="5.39888">
        <ele>1048</ele>
        <time>2010-07-14T13:44:00Z</time>
      </trkpt>
      <trkpt lat="44.92799" lon="5.39892">
        <ele>1045</ele>
        <time>2010-07-14T13:44:08Z</time>
      </trkpt>
      <trkpt lat="44.92788" lon="5.39922">
        <ele>1045</ele>
        <time>2010-07-14T13:44:17Z</time>
      </trkpt>
      <trkpt lat="44.92788" lon="5.39927">
        <ele>1045</ele>
        <time>2010-07-14T13:44:25Z</time>
      </trkpt>
      <trkpt lat="44.9278" lon="5.39943">
        <ele>1046</ele>
        <time>2010-07-14T13:44:34Z</time>
      </trkpt>
      <trkpt lat="44.9277" lon="5.39953">
        <ele>1046</ele>
        <time>2010-07-14T13:44:42Z</time>
      </trkpt>
      <trkpt lat="44.92767" lon="5.3996">
        <ele>1046</ele>
        <time>2010-07-14T13:44:52Z</time>
      </trkpt>
      <trkpt lat="44.92759" lon="5.39973">
        <ele>1047</ele>
        <time>2010-07-14T13:44:59Z</time>
      </trkpt>
      <trkpt lat="44.92744" lon="5.39993">
        <ele>1047</ele>
        <time>2010-07-14T13:45:08Z</time>
      </trkpt>
      <trkpt lat="44.92728" lon="5.4001">
        <ele>1047</ele>
        <time>2010-07-14T13:45:17Z</time>
      </trkpt>
      <trkpt lat="44.92713" lon="5.40018">
        <ele>1045</ele>
        <time>2010-07-14T13:45:25Z</time>
      </trkpt>
      <trkpt lat="44.92687" lon="5.40022">
        <ele>1044</ele>
        <time>2010-07-14T13:45:32Z</time>
      </trkpt>
      <trkpt lat="44.92686" lon="5.40024">
        <ele>1044</ele>
        <time>2010-07-14T13:45:42Z</time>
      </trkpt>
      <trkpt lat="44.9268" lon="5.40031">
        <ele>1044</ele>
        <time>2010-07-14T13:45:50Z</time>
      </trkpt>
      <trkpt lat="44.92677" lon="5.40035">
        <ele>1044</ele>
        <time>2010-07-14T13:45:58Z</time>
      </trkpt>
      <trkpt lat="44.92667" lon="5.40039">
        <ele>1044</ele>
        <time>2010-07-14T13:46:07Z</time>
      </trkpt>
      <trkpt lat="44.92654" lon="5.4005">
        <ele>1044</ele>
        <time>2010-07-14T13:46:16Z</time>
      </trkpt>
      <trkpt lat="44.92638" lon="5.40052">
        <ele>1042</ele>
        <time>2010-07-14T13:46:25Z</time>
      </trkpt>
      <trkpt lat="44.92631" lon="5.40042">
        <ele>1042</ele>
        <time>2010-07-14T13:46:33Z</time>
      </trkpt>
      <trkpt lat="44.92633" lon="5.40045">
        <ele>1042</ele>
        <time>2010-07-14T13:46:43Z</time>
      </trkpt>
      <trkpt lat="44.92633" lon="5.40046">
        <ele>1038</ele>
        <time>2010-07-14T13:47:04Z</time>
      </trkpt>
      <trkpt lat="44.92636" lon="5.40048">
        <ele>1036</ele>
        <time>2010-07-14T13:47:11Z</time>
      </trkpt>
      <trkpt lat="44.9264" lon="5.40065">
        <ele>1035</ele>
        <time>2010-07-14T13:47:21Z</time>
      </trkpt>
      <trkpt lat="44.92635" lon="5.40068">
        <ele>1039</ele>
        <time>2010-07-14T13:47:40Z</time>
      </trkpt>
      <trkpt lat="44.92633" lon="5.40068">
        <ele>1035</ele>
        <time>2010-07-14T13:48:44Z</time>
      </trkpt>
      <trkpt lat="44.92632" lon="5.40068">
        <ele>1035</ele>
        <time>2010-07-14T13:48:53Z</time>
      </trkpt>
      <trkpt lat="44.9263" lon="5.40067">
        <ele>1035</ele>
        <time>2010-07-14T13:49:02Z</time>
      </trkpt>
      <trkpt lat="44.92627" lon="5.40067">
        <ele>1035</ele>
        <time>2010-07-14T13:49:12Z</time>
      </trkpt>
      <trkpt lat="44.9263" lon="5.40065">
        <ele>1035</ele>
        <time>2010-07-14T13:49:21Z</time>
      </trkpt>
      <trkpt lat="44.92635" lon="5.40062">
        <ele>1036</ele>
        <time>2010-07-14T13:49:28Z</time>
      </trkpt>
      <trkpt lat="44.92631" lon="5.40066">
        <ele>1036</ele>
        <time>2010-07-14T13:49:47Z</time>
      </trkpt>
      <trkpt lat="44.92635" lon="5.40062">
        <ele>1036</ele>
        <time>2010-07-14T13:49:55Z</time>
      </trkpt>
      <trkpt lat="44.92636" lon="5.40057">
        <ele>1036</ele>
        <time>2010-07-14T13:50:07Z</time>
      </trkpt>
      <trkpt lat="44.92635" lon="5.40051">
        <ele>1036</ele>
        <time>2010-07-14T13:50:14Z</time>
      </trkpt>
      <trkpt lat="44.92624" lon="5.40039">
        <ele>1036</ele>
        <time>2010-07-14T13:50:21Z</time>
      </trkpt>
      <trkpt lat="44.92619" lon="5.40035">
        <ele>1036</ele>
        <time>2010-07-14T13:50:32Z</time>
      </trkpt>
      <trkpt lat="44.92613" lon="5.40029">
        <ele>1036</ele>
        <time>2010-07-14T13:50:40Z</time>
      </trkpt>
      <trkpt lat="44.92604" lon="5.40021">
        <ele>1036</ele>
        <time>2010-07-14T13:50:47Z</time>
      </trkpt>
      <trkpt lat="44.926" lon="5.40013">
        <ele>1036</ele>
        <time>2010-07-14T13:50:54Z</time>
      </trkpt>
      <trkpt lat="44.92588" lon="5.39989">
        <ele>1037</ele>
        <time>2010-07-14T13:51:02Z</time>
      </trkpt>
      <trkpt lat="44.9258" lon="5.39961">
        <ele>1037</ele>
        <time>2010-07-14T13:51:10Z</time>
      </trkpt>
      <trkpt lat="44.92577" lon="5.3995">
        <ele>1038</ele>
        <time>2010-07-14T13:51:18Z</time>
      </trkpt>
      <trkpt lat="44.92565" lon="5.39933">
        <ele>1041</ele>
        <time>2010-07-14T13:51:28Z</time>
      </trkpt>
      <trkpt lat="44.92549" lon="5.39919">
        <ele>1043</ele>
        <time>2010-07-14T13:51:36Z</time>
      </trkpt>
      <trkpt lat="44.92542" lon="5.39916">
        <ele>1043</ele>
        <time>2010-07-14T13:51:43Z</time>
      </trkpt>
      <trkpt lat="44.92522" lon="5.39894">
        <ele>1043</ele>
        <time>2010-07-14T13:51:52Z</time>
      </trkpt>
      <trkpt lat="44.92517" lon="5.39888">
        <ele>1044</ele>
        <time>2010-07-14T13:51:59Z</time>
      </trkpt>
      <trkpt lat="44.92491" lon="5.39873">
        <ele>1045</ele>
        <time>2010-07-14T13:52:08Z</time>
      </trkpt>
      <trkpt lat="44.9246" lon="5.39852">
        <ele>1045</ele>
        <time>2010-07-14T13:52:17Z</time>
      </trkpt>
      <trkpt lat="44.92434" lon="5.39839">
        <ele>1045</ele>
        <time>2010-07-14T13:52:25Z</time>
      </trkpt>
      <trkpt lat="44.92403" lon="5.39832">
        <ele>1045</ele>
        <time>2010-07-14T13:52:32Z</time>
      </trkpt>
      <trkpt lat="44.92371" lon="5.39859">
        <ele>1045</ele>
        <time>2010-07-14T13:52:42Z</time>
      </trkpt>
      <trkpt lat="44.92356" lon="5.39904">
        <ele>1045</ele>
        <time>2010-07-14T13:52:50Z</time>
      </trkpt>
      <trkpt lat="44.92338" lon="5.39922">
        <ele>1045</ele>
        <time>2010-07-14T13:52:58Z</time>
      </trkpt>
      <trkpt lat="44.92331" lon="5.39935">
        <ele>1045</ele>
        <time>2010-07-14T13:53:07Z</time>
      </trkpt>
      <trkpt lat="44.92303" lon="5.39978">
        <ele>1045</ele>
        <time>2010-07-14T13:53:14Z</time>
      </trkpt>
      <trkpt lat="44.92296" lon="5.40018">
        <ele>1045</ele>
        <time>2010-07-14T13:53:21Z</time>
      </trkpt>
      <trkpt lat="44.92294" lon="5.40037">
        <ele>1045</ele>
        <time>2010-07-14T13:53:29Z</time>
      </trkpt>
      <trkpt lat="44.92272" lon="5.40084">
        <ele>1045</ele>
        <time>2010-07-14T13:53:36Z</time>
      </trkpt>
      <trkpt lat="44.92258" lon="5.40087">
        <ele>1045</ele>
        <time>2010-07-14T13:53:44Z</time>
      </trkpt>
      <trkpt lat="44.92233" lon="5.40093">
        <ele>1045</ele>
        <time>2010-07-14T13:53:52Z</time>
      </trkpt>
      <trkpt lat="44.92212" lon="5.4009">
        <ele>1045</ele>
        <time>2010-07-14T13:54:00Z</time>
      </trkpt>
      <trkpt lat="44.92187" lon="5.40077">
        <ele>1045</ele>
        <time>2010-07-14T13:54:07Z</time>
      </trkpt>
      <trkpt lat="44.92183" lon="5.40064">
        <ele>1045</ele>
        <time>2010-07-14T13:54:16Z</time>
      </trkpt>
      <trkpt lat="44.92177" lon="5.40047">
        <ele>1048</ele>
        <time>2010-07-14T13:54:23Z</time>
      </trkpt>
      <trkpt lat="44.92167" lon="5.40031">
        <ele>1051</ele>
        <time>2010-07-14T13:54:30Z</time>
      </trkpt>
      <trkpt lat="44.9215" lon="5.40021">
        <ele>1052</ele>
        <time>2010-07-14T13:54:39Z</time>
      </trkpt>
      <trkpt lat="44.92136" lon="5.40018">
        <ele>1052</ele>
        <time>2010-07-14T13:54:47Z</time>
      </trkpt>
      <trkpt lat="44.92125" lon="5.40013">
        <ele>1052</ele>
        <time>2010-07-14T13:54:54Z</time>
      </trkpt>
      <trkpt lat="44.92107" lon="5.39995">
        <ele>1055</ele>
        <time>2010-07-14T13:55:03Z</time>
      </trkpt>
      <trkpt lat="44.921" lon="5.39992">
        <ele>1057</ele>
        <time>2010-07-14T13:55:11Z</time>
      </trkpt>
      <trkpt lat="44.9208" lon="5.39984">
        <ele>1060</ele>
        <time>2010-07-14T13:55:18Z</time>
      </trkpt>
      <trkpt lat="44.92066" lon="5.39977">
        <ele>1060</ele>
        <time>2010-07-14T13:55:25Z</time>
      </trkpt>
      <trkpt lat="44.92048" lon="5.39971">
        <ele>1060</ele>
        <time>2010-07-14T13:55:33Z</time>
      </trkpt>
      <trkpt lat="44.92025" lon="5.3995">
        <ele>1061</ele>
        <time>2010-07-14T13:55:41Z</time>
      </trkpt>
      <trkpt lat="44.92006" lon="5.39946">
        <ele>1061</ele>
        <time>2010-07-14T13:55:50Z</time>
      </trkpt>
      <trkpt lat="44.91984" lon="5.39935">
        <ele>1061</ele>
        <time>2010-07-14T13:55:58Z</time>
      </trkpt>
      <trkpt lat="44.91965" lon="5.3993">
        <ele>1061</ele>
        <time>2010-07-14T13:56:06Z</time>
      </trkpt>
      <trkpt lat="44.91943" lon="5.3993">
        <ele>1061</ele>
        <time>2010-07-14T13:56:13Z</time>
      </trkpt>
      <trkpt lat="44.91923" lon="5.39926">
        <ele>1061</ele>
        <time>2010-07-14T13:56:20Z</time>
      </trkpt>
      <trkpt lat="44.91895" lon="5.3992">
        <ele>1061</ele>
        <time>2010-07-14T13:56:28Z</time>
      </trkpt>
      <trkpt lat="44.91869" lon="5.39926">
        <ele>1061</ele>
        <time>2010-07-14T13:56:35Z</time>
      </trkpt>
      <trkpt lat="44.91857" lon="5.39929">
        <ele>1061</ele>
        <time>2010-07-14T13:56:44Z</time>
      </trkpt>
      <trkpt lat="44.91845" lon="5.39925">
        <ele>1061</ele>
        <time>2010-07-14T13:56:53Z</time>
      </trkpt>
      <trkpt lat="44.91843" lon="5.39922">
        <ele>1061</ele>
        <time>2010-07-14T13:57:02Z</time>
      </trkpt>
      <trkpt lat="44.91841" lon="5.39923">
        <ele>1061</ele>
        <time>2010-07-14T13:57:11Z</time>
      </trkpt>
      <trkpt lat="44.91837" lon="5.39928">
        <ele>1060</ele>
        <time>2010-07-14T13:57:22Z</time>
      </trkpt>
      <trkpt lat="44.91812" lon="5.39933">
        <ele>1058</ele>
        <time>2010-07-14T13:57:30Z</time>
      </trkpt>
      <trkpt lat="44.91784" lon="5.39936">
        <ele>1058</ele>
        <time>2010-07-14T13:57:37Z</time>
      </trkpt>
      <trkpt lat="44.91761" lon="5.3995">
        <ele>1058</ele>
        <time>2010-07-14T13:57:44Z</time>
      </trkpt>
      <trkpt lat="44.91751" lon="5.39959">
        <ele>1058</ele>
        <time>2010-07-14T13:57:51Z</time>
      </trkpt>
      <trkpt lat="44.91739" lon="5.39962">
        <ele>1059</ele>
        <time>2010-07-14T13:57:59Z</time>
      </trkpt>
      <trkpt lat="44.91723" lon="5.40024">
        <ele>1059</ele>
        <time>2010-07-14T13:58:07Z</time>
      </trkpt>
      <trkpt lat="44.917" lon="5.40067">
        <ele>1057</ele>
        <time>2010-07-14T13:58:15Z</time>
      </trkpt>
      <trkpt lat="44.91668" lon="5.401">
        <ele>1054</ele>
        <time>2010-07-14T13:58:22Z</time>
      </trkpt>
      <trkpt lat="44.91648" lon="5.40129">
        <ele>1051</ele>
        <time>2010-07-14T13:58:30Z</time>
      </trkpt>
      <trkpt lat="44.9163" lon="5.40155">
        <ele>1051</ele>
        <time>2010-07-14T13:58:37Z</time>
      </trkpt>
      <trkpt lat="44.91605" lon="5.40177">
        <ele>1051</ele>
        <time>2010-07-14T13:58:45Z</time>
      </trkpt>
      <trkpt lat="44.91594" lon="5.40182">
        <ele>1051</ele>
        <time>2010-07-14T13:58:53Z</time>
      </trkpt>
      <trkpt lat="44.91586" lon="5.40199">
        <ele>1051</ele>
        <time>2010-07-14T13:59:01Z</time>
      </trkpt>
      <trkpt lat="44.91578" lon="5.4021">
        <ele>1051</ele>
        <time>2010-07-14T13:59:08Z</time>
      </trkpt>
      <trkpt lat="44.9157" lon="5.4021">
        <ele>1051</ele>
        <time>2010-07-14T13:59:26Z</time>
      </trkpt>
      <trkpt lat="44.91574" lon="5.40218">
        <ele>1051</ele>
        <time>2010-07-14T13:59:35Z</time>
      </trkpt>
      <trkpt lat="44.91588" lon="5.40253">
        <ele>1052</ele>
        <time>2010-07-14T13:59:43Z</time>
      </trkpt>
      <trkpt lat="44.91592" lon="5.40291">
        <ele>1052</ele>
        <time>2010-07-14T13:59:50Z</time>
      </trkpt>
      <trkpt lat="44.91586" lon="5.40329">
        <ele>1052</ele>
        <time>2010-07-14T13:59:59Z</time>
      </trkpt>
      <trkpt lat="44.91581" lon="5.40354">
        <ele>1052</ele>
        <time>2010-07-14T14:00:06Z</time>
      </trkpt>
      <trkpt lat="44.91573" lon="5.40374">
        <ele>1053</ele>
        <time>2010-07-14T14:00:14Z</time>
      </trkpt>
      <trkpt lat="44.91572" lon="5.40411">
        <ele>1058</ele>
        <time>2010-07-14T14:00:23Z</time>
      </trkpt>
      <trkpt lat="44.91567" lon="5.40451">
        <ele>1063</ele>
        <time>2010-07-14T14:00:30Z</time>
      </trkpt>
      <trkpt lat="44.91565" lon="5.40463">
        <ele>1066</ele>
        <time>2010-07-14T14:00:37Z</time>
      </trkpt>
      <trkpt lat="44.9155" lon="5.40481">
        <ele>1067</ele>
        <time>2010-07-14T14:00:47Z</time>
      </trkpt>
      <trkpt lat="44.91539" lon="5.40494">
        <ele>1067</ele>
        <time>2010-07-14T14:00:55Z</time>
      </trkpt>
      <trkpt lat="44.91528" lon="5.40508">
        <ele>1070</ele>
        <time>2010-07-14T14:01:02Z</time>
      </trkpt>
      <trkpt lat="44.91523" lon="5.40512">
        <ele>1073</ele>
        <time>2010-07-14T14:01:09Z</time>
      </trkpt>
      <trkpt lat="44.91509" lon="5.40525">
        <ele>1076</ele>
        <time>2010-07-14T14:01:18Z</time>
      </trkpt>
      <trkpt lat="44.91489" lon="5.40559">
        <ele>1078</ele>
        <time>2010-07-14T14:01:26Z</time>
      </trkpt>
      <trkpt lat="44.91485" lon="5.40569">
        <ele>1080</ele>
        <time>2010-07-14T14:01:34Z</time>
      </trkpt>
      <trkpt lat="44.91478" lon="5.40589">
        <ele>1087</ele>
        <time>2010-07-14T14:01:42Z</time>
      </trkpt>
      <trkpt lat="44.91467" lon="5.406">
        <ele>1093</ele>
        <time>2010-07-14T14:01:49Z</time>
      </trkpt>
      <trkpt lat="44.91453" lon="5.40612">
        <ele>1097</ele>
        <time>2010-07-14T14:01:57Z</time>
      </trkpt>
      <trkpt lat="44.91441" lon="5.40621">
        <ele>1102</ele>
        <time>2010-07-14T14:02:07Z</time>
      </trkpt>
      <trkpt lat="44.91426" lon="5.40629">
        <ele>1102</ele>
        <time>2010-07-14T14:02:15Z</time>
      </trkpt>
      <trkpt lat="44.91419" lon="5.40641">
        <ele>1102</ele>
        <time>2010-07-14T14:02:24Z</time>
      </trkpt>
      <trkpt lat="44.91403" lon="5.40647">
        <ele>1102</ele>
        <time>2010-07-14T14:02:33Z</time>
      </trkpt>
      <trkpt lat="44.91389" lon="5.40645">
        <ele>1102</ele>
        <time>2010-07-14T14:02:42Z</time>
      </trkpt>
      <trkpt lat="44.91375" lon="5.40642">
        <ele>1102</ele>
        <time>2010-07-14T14:02:49Z</time>
      </trkpt>
      <trkpt lat="44.91368" lon="5.4064">
        <ele>1102</ele>
        <time>2010-07-14T14:02:58Z</time>
      </trkpt>
      <trkpt lat="44.91356" lon="5.40638">
        <ele>1102</ele>
        <time>2010-07-14T14:03:05Z</time>
      </trkpt>
      <trkpt lat="44.91349" lon="5.40633">
        <ele>1104</ele>
        <time>2010-07-14T14:03:13Z</time>
      </trkpt>
      <trkpt lat="44.91332" lon="5.40622">
        <ele>1106</ele>
        <time>2010-07-14T14:03:20Z</time>
      </trkpt>
      <trkpt lat="44.91326" lon="5.40618">
        <ele>1106</ele>
        <time>2010-07-14T14:03:27Z</time>
      </trkpt>
      <trkpt lat="44.9131" lon="5.40611">
        <ele>1106</ele>
        <time>2010-07-14T14:03:35Z</time>
      </trkpt>
      <trkpt lat="44.91294" lon="5.40596">
        <ele>1104</ele>
        <time>2010-07-14T14:03:43Z</time>
      </trkpt>
      <trkpt lat="44.91275" lon="5.40586">
        <ele>1104</ele>
        <time>2010-07-14T14:03:51Z</time>
      </trkpt>
      <trkpt lat="44.91261" lon="5.40588">
        <ele>1104</ele>
        <time>2010-07-14T14:03:58Z</time>
      </trkpt>
      <trkpt lat="44.91247" lon="5.40592">
        <ele>1104</ele>
        <time>2010-07-14T14:04:05Z</time>
      </trkpt>
      <trkpt lat="44.91228" lon="5.40597">
        <ele>1104</ele>
        <time>2010-07-14T14:04:12Z</time>
      </trkpt>
      <trkpt lat="44.9121" lon="5.40596">
        <ele>1104</ele>
        <time>2010-07-14T14:04:19Z</time>
      </trkpt>
      <trkpt lat="44.91196" lon="5.4059">
        <ele>1104</ele>
        <time>2010-07-14T14:04:26Z</time>
      </trkpt>
      <trkpt lat="44.9118" lon="5.40578">
        <ele>1104</ele>
        <time>2010-07-14T14:04:33Z</time>
      </trkpt>
      <trkpt lat="44.91164" lon="5.40566">
        <ele>1104</ele>
        <time>2010-07-14T14:04:40Z</time>
      </trkpt>
      <trkpt lat="44.91149" lon="5.4056">
        <ele>1104</ele>
        <time>2010-07-14T14:04:47Z</time>
      </trkpt>
      <trkpt lat="44.91132" lon="5.40554">
        <ele>1104</ele>
        <time>2010-07-14T14:04:54Z</time>
      </trkpt>
      <trkpt lat="44.91117" lon="5.40543">
        <ele>1105</ele>
        <time>2010-07-14T14:05:01Z</time>
      </trkpt>
      <trkpt lat="44.91102" lon="5.4053">
        <ele>1105</ele>
        <time>2010-07-14T14:05:08Z</time>
      </trkpt>
      <trkpt lat="44.91085" lon="5.40521">
        <ele>1108</ele>
        <time>2010-07-14T14:05:15Z</time>
      </trkpt>
      <trkpt lat="44.91071" lon="5.40517">
        <ele>1108</ele>
        <time>2010-07-14T14:05:22Z</time>
      </trkpt>
      <trkpt lat="44.91054" lon="5.40511">
        <ele>1109</ele>
        <time>2010-07-14T14:05:29Z</time>
      </trkpt>
      <trkpt lat="44.91028" lon="5.40505">
        <ele>1109</ele>
        <time>2010-07-14T14:05:41Z</time>
      </trkpt>
      <trkpt lat="44.91005" lon="5.40504">
        <ele>1111</ele>
        <time>2010-07-14T14:05:48Z</time>
      </trkpt>
      <trkpt lat="44.90977" lon="5.4053">
        <ele>1112</ele>
        <time>2010-07-14T14:05:56Z</time>
      </trkpt>
      <trkpt lat="44.90934" lon="5.40523">
        <ele>1112</ele>
        <time>2010-07-14T14:06:05Z</time>
      </trkpt>
      <trkpt lat="44.90887" lon="5.40451">
        <ele>1109</ele>
        <time>2010-07-14T14:06:14Z</time>
      </trkpt>
      <trkpt lat="44.90831" lon="5.40386">
        <ele>1106</ele>
        <time>2010-07-14T14:06:21Z</time>
      </trkpt>
      <trkpt lat="44.90797" lon="5.4038">
        <ele>1104</ele>
        <time>2010-07-14T14:06:29Z</time>
      </trkpt>
      <trkpt lat="44.90699" lon="5.40374">
        <ele>1101</ele>
        <time>2010-07-14T14:06:36Z</time>
      </trkpt>
      <trkpt lat="44.90652" lon="5.40363">
        <ele>1099</ele>
        <time>2010-07-14T14:06:44Z</time>
      </trkpt>
      <trkpt lat="44.90578" lon="5.40346">
        <ele>1093</ele>
        <time>2010-07-14T14:06:51Z</time>
      </trkpt>
      <trkpt lat="44.9055" lon="5.40356">
        <ele>1083</ele>
        <time>2010-07-14T14:07:01Z</time>
      </trkpt>
      <trkpt lat="44.90544" lon="5.40376">
        <ele>1080</ele>
        <time>2010-07-14T14:07:09Z</time>
      </trkpt>
      <trkpt lat="44.90544" lon="5.40398">
        <ele>1080</ele>
        <time>2010-07-14T14:07:18Z</time>
      </trkpt>
      <trkpt lat="44.90536" lon="5.40424">
        <ele>1083</ele>
        <time>2010-07-14T14:07:26Z</time>
      </trkpt>
      <trkpt lat="44.90528" lon="5.40432">
        <ele>1086</ele>
        <time>2010-07-14T14:07:34Z</time>
      </trkpt>
      <trkpt lat="44.90512" lon="5.40444">
        <ele>1089</ele>
        <time>2010-07-14T14:07:42Z</time>
      </trkpt>
      <trkpt lat="44.90501" lon="5.40452">
        <ele>1089</ele>
        <time>2010-07-14T14:07:49Z</time>
      </trkpt>
      <trkpt lat="44.90481" lon="5.40461">
        <ele>1091</ele>
        <time>2010-07-14T14:07:56Z</time>
      </trkpt>
      <trkpt lat="44.90466" lon="5.40469">
        <ele>1091</ele>
        <time>2010-07-14T14:08:04Z</time>
      </trkpt>
      <trkpt lat="44.90448" lon="5.40473">
        <ele>1091</ele>
        <time>2010-07-14T14:08:11Z</time>
      </trkpt>
      <trkpt lat="44.90437" lon="5.40469">
        <ele>1093</ele>
        <time>2010-07-14T14:08:19Z</time>
      </trkpt>
      <trkpt lat="44.90421" lon="5.40459">
        <ele>1095</ele>
        <time>2010-07-14T14:08:26Z</time>
      </trkpt>
      <trkpt lat="44.90405" lon="5.4045">
        <ele>1095</ele>
        <time>2010-07-14T14:08:34Z</time>
      </trkpt>
      <trkpt lat="44.90383" lon="5.40436">
        <ele>1095</ele>
        <time>2010-07-14T14:08:41Z</time>
      </trkpt>
      <trkpt lat="44.90379" lon="5.40423">
        <ele>1096</ele>
        <time>2010-07-14T14:08:50Z</time>
      </trkpt>
      <trkpt lat="44.90376" lon="5.40398">
        <ele>1096</ele>
        <time>2010-07-14T14:08:58Z</time>
      </trkpt>
      <trkpt lat="44.90374" lon="5.40371">
        <ele>1096</ele>
        <time>2010-07-14T14:09:05Z</time>
      </trkpt>
      <trkpt lat="44.90373" lon="5.40361">
        <ele>1096</ele>
        <time>2010-07-14T14:09:13Z</time>
      </trkpt>
      <trkpt lat="44.90371" lon="5.40335">
        <ele>1096</ele>
        <time>2010-07-14T14:09:22Z</time>
      </trkpt>
      <trkpt lat="44.90368" lon="5.40316">
        <ele>1098</ele>
        <time>2010-07-14T14:09:31Z</time>
      </trkpt>
      <trkpt lat="44.90353" lon="5.40305">
        <ele>1100</ele>
        <time>2010-07-14T14:09:39Z</time>
      </trkpt>
      <trkpt lat="44.90335" lon="5.40298">
        <ele>1101</ele>
        <time>2010-07-14T14:09:47Z</time>
      </trkpt>
      <trkpt lat="44.90316" lon="5.40293">
        <ele>1101</ele>
        <time>2010-07-14T14:09:54Z</time>
      </trkpt>
      <trkpt lat="44.90308" lon="5.40291">
        <ele>1102</ele>
        <time>2010-07-14T14:10:02Z</time>
      </trkpt>
      <trkpt lat="44.90295" lon="5.40289">
        <ele>1104</ele>
        <time>2010-07-14T14:10:09Z</time>
      </trkpt>
      <trkpt lat="44.90276" lon="5.40286">
        <ele>1105</ele>
        <time>2010-07-14T14:10:16Z</time>
      </trkpt>
      <trkpt lat="44.90261" lon="5.40282">
        <ele>1106</ele>
        <time>2010-07-14T14:10:24Z</time>
      </trkpt>
      <trkpt lat="44.90238" lon="5.40277">
        <ele>1107</ele>
        <time>2010-07-14T14:10:31Z</time>
      </trkpt>
      <trkpt lat="44.90229" lon="5.40276">
        <ele>1107</ele>
        <time>2010-07-14T14:10:39Z</time>
      </trkpt>
      <trkpt lat="44.90212" lon="5.40273">
        <ele>1108</ele>
        <time>2010-07-14T14:10:46Z</time>
      </trkpt>
      <trkpt lat="44.90198" lon="5.40269">
        <ele>1108</ele>
        <time>2010-07-14T14:10:53Z</time>
      </trkpt>
      <trkpt lat="44.90187" lon="5.40266">
        <ele>1109</ele>
        <time>2010-07-14T14:11:02Z</time>
      </trkpt>
      <trkpt lat="44.90191" lon="5.40268">
        <ele>1109</ele>
        <time>2010-07-14T14:11:10Z</time>
      </trkpt>
      <trkpt lat="44.90192" lon="5.40267">
        <ele>1111</ele>
        <time>2010-07-14T14:11:20Z</time>
      </trkpt>
      <trkpt lat="44.90197" lon="5.40256">
        <ele>1113</ele>
        <time>2010-07-14T14:11:29Z</time>
      </trkpt>
      <trkpt lat="44.90183" lon="5.40223">
        <ele>1113</ele>
        <time>2010-07-14T14:11:37Z</time>
      </trkpt>
      <trkpt lat="44.90146" lon="5.40178">
        <ele>1112</ele>
        <time>2010-07-14T14:11:44Z</time>
      </trkpt>
      <trkpt lat="44.901" lon="5.4012">
        <ele>1109</ele>
        <time>2010-07-14T14:11:51Z</time>
      </trkpt>
      <trkpt lat="44.90044" lon="5.40087">
        <ele>1105</ele>
        <time>2010-07-14T14:12:00Z</time>
      </trkpt>
      <trkpt lat="44.90108" lon="5.40029">
        <ele>1100</ele>
        <time>2010-07-14T14:12:09Z</time>
      </trkpt>
      <trkpt lat="44.90131" lon="5.40007">
        <ele>1097</ele>
        <time>2010-07-14T14:12:18Z</time>
      </trkpt>
      <trkpt lat="44.90111" lon="5.39928">
        <ele>1090</ele>
        <time>2010-07-14T14:12:26Z</time>
      </trkpt>
      <trkpt lat="44.90111" lon="5.39918">
        <ele>1079</ele>
        <time>2010-07-14T14:12:37Z</time>
      </trkpt>
      <trkpt lat="44.90112" lon="5.39915">
        <ele>1075</ele>
        <time>2010-07-14T14:12:46Z</time>
      </trkpt>
      <trkpt lat="44.90113" lon="5.39913">
        <ele>1073</ele>
        <time>2010-07-14T14:12:53Z</time>
      </trkpt>
      <trkpt lat="44.90112" lon="5.39915">
        <ele>1071</ele>
        <time>2010-07-14T14:13:02Z</time>
      </trkpt>
      <trkpt lat="44.90113" lon="5.39915">
        <ele>1069</ele>
        <time>2010-07-14T14:13:11Z</time>
      </trkpt>
      <trkpt lat="44.90112" lon="5.39902">
        <ele>1069</ele>
        <time>2010-07-14T14:13:19Z</time>
      </trkpt>
      <trkpt lat="44.90109" lon="5.39863">
        <ele>1069</ele>
        <time>2010-07-14T14:13:26Z</time>
      </trkpt>
      <trkpt lat="44.90103" lon="5.39825">
        <ele>1069</ele>
        <time>2010-07-14T14:13:34Z</time>
      </trkpt>
      <trkpt lat="44.90096" lon="5.39774">
        <ele>1069</ele>
        <time>2010-07-14T14:13:41Z</time>
      </trkpt>
      <trkpt lat="44.90073" lon="5.39725">
        <ele>1069</ele>
        <time>2010-07-14T14:13:51Z</time>
      </trkpt>
      <trkpt lat="44.90079" lon="5.39634">
        <ele>1069</ele>
        <time>2010-07-14T14:13:58Z</time>
      </trkpt>
      <trkpt lat="44.90095" lon="5.39556">
        <ele>1066</ele>
        <time>2010-07-14T14:14:06Z</time>
      </trkpt>
      <trkpt lat="44.90116" lon="5.39501">
        <ele>1063</ele>
        <time>2010-07-14T14:14:14Z</time>
      </trkpt>
      <trkpt lat="44.9011" lon="5.39442">
        <ele>1061</ele>
        <time>2010-07-14T14:14:22Z</time>
      </trkpt>
      <trkpt lat="44.90108" lon="5.39429">
        <ele>1061</ele>
        <time>2010-07-14T14:14:29Z</time>
      </trkpt>
      <trkpt lat="44.90107" lon="5.39426">
        <ele>1061</ele>
        <time>2010-07-14T14:14:39Z</time>
      </trkpt>
      <trkpt lat="44.90108" lon="5.39423">
        <ele>1061</ele>
        <time>2010-07-14T14:14:48Z</time>
      </trkpt>
      <trkpt lat="44.90112" lon="5.3942">
        <ele>1061</ele>
        <time>2010-07-14T14:14:57Z</time>
      </trkpt>
      <trkpt lat="44.90115" lon="5.39422">
        <ele>1061</ele>
        <time>2010-07-14T14:15:07Z</time>
      </trkpt>
      <trkpt lat="44.90117" lon="5.39423">
        <ele>1062</ele>
        <time>2010-07-14T14:15:16Z</time>
      </trkpt>
      <trkpt lat="44.90118" lon="5.39424">
        <ele>1064</ele>
        <time>2010-07-14T14:15:23Z</time>
      </trkpt>
      <trkpt lat="44.90119" lon="5.39425">
        <ele>1067</ele>
        <time>2010-07-14T14:15:41Z</time>
      </trkpt>
      <trkpt lat="44.90117" lon="5.39424">
        <ele>1068</ele>
        <time>2010-07-14T14:18:29Z</time>
      </trkpt>
      <trkpt lat="44.90115" lon="5.39424">
        <ele>1067</ele>
        <time>2010-07-14T14:18:38Z</time>
      </trkpt>
      <trkpt lat="44.90113" lon="5.39423">
        <ele>1066</ele>
        <time>2010-07-14T14:18:55Z</time>
      </trkpt>
      <trkpt lat="44.90112" lon="5.39422">
        <ele>1064</ele>
        <time>2010-07-14T14:19:11Z</time>
      </trkpt>
      <trkpt lat="44.90109" lon="5.39419">
        <ele>1063</ele>
        <time>2010-07-14T14:19:20Z</time>
      </trkpt>
      <trkpt lat="44.90109" lon="5.39416">
        <ele>1062</ele>
        <time>2010-07-14T14:19:38Z</time>
      </trkpt>
      <trkpt lat="44.90113" lon="5.39396">
        <ele>1062</ele>
        <time>2010-07-14T14:19:47Z</time>
      </trkpt>
      <trkpt lat="44.9012" lon="5.39366">
        <ele>1062</ele>
        <time>2010-07-14T14:19:54Z</time>
      </trkpt>
      <trkpt lat="44.90131" lon="5.39313">
        <ele>1061</ele>
        <time>2010-07-14T14:20:02Z</time>
      </trkpt>
      <trkpt lat="44.90137" lon="5.39274">
        <ele>1060</ele>
        <time>2010-07-14T14:20:09Z</time>
      </trkpt>
      <trkpt lat="44.9015" lon="5.39215">
        <ele>1059</ele>
        <time>2010-07-14T14:20:17Z</time>
      </trkpt>
      <trkpt lat="44.90163" lon="5.39185">
        <ele>1059</ele>
        <time>2010-07-14T14:20:24Z</time>
      </trkpt>
      <trkpt lat="44.90175" lon="5.39147">
        <ele>1059</ele>
        <time>2010-07-14T14:20:32Z</time>
      </trkpt>
      <trkpt lat="44.90174" lon="5.39097">
        <ele>1059</ele>
        <time>2010-07-14T14:20:40Z</time>
      </trkpt>
      <trkpt lat="44.90185" lon="5.3903">
        <ele>1059</ele>
        <time>2010-07-14T14:20:50Z</time>
      </trkpt>
      <trkpt lat="44.90171" lon="5.39022">
        <ele>1059</ele>
        <time>2010-07-14T14:21:00Z</time>
      </trkpt>
      <trkpt lat="44.9013" lon="5.39041">
        <ele>1059</ele>
        <time>2010-07-14T14:21:07Z</time>
      </trkpt>
      <trkpt lat="44.90119" lon="5.39044">
        <ele>1059</ele>
        <time>2010-07-14T14:21:14Z</time>
      </trkpt>
      <trkpt lat="44.90091" lon="5.39046">
        <ele>1059</ele>
        <time>2010-07-14T14:21:22Z</time>
      </trkpt>
      <trkpt lat="44.9007" lon="5.39049">
        <ele>1059</ele>
        <time>2010-07-14T14:21:29Z</time>
      </trkpt>
      <trkpt lat="44.90044" lon="5.39065">
        <ele>1059</ele>
        <time>2010-07-14T14:21:37Z</time>
      </trkpt>
      <trkpt lat="44.90029" lon="5.3908">
        <ele>1059</ele>
        <time>2010-07-14T14:21:44Z</time>
      </trkpt>
      <trkpt lat="44.9001" lon="5.39103">
        <ele>1060</ele>
        <time>2010-07-14T14:21:52Z</time>
      </trkpt>
      <trkpt lat="44.89995" lon="5.39124">
        <ele>1061</ele>
        <time>2010-07-14T14:22:00Z</time>
      </trkpt>
      <trkpt lat="44.89974" lon="5.39158">
        <ele>1061</ele>
        <time>2010-07-14T14:22:07Z</time>
      </trkpt>
      <trkpt lat="44.89952" lon="5.39189">
        <ele>1061</ele>
        <time>2010-07-14T14:22:15Z</time>
      </trkpt>
      <trkpt lat="44.8992" lon="5.39217">
        <ele>1061</ele>
        <time>2010-07-14T14:22:22Z</time>
      </trkpt>
      <trkpt lat="44.89866" lon="5.39185">
        <ele>1060</ele>
        <time>2010-07-14T14:22:31Z</time>
      </trkpt>
      <trkpt lat="44.89839" lon="5.3918">
        <ele>1057</ele>
        <time>2010-07-14T14:22:40Z</time>
      </trkpt>
      <trkpt lat="44.89793" lon="5.3916">
        <ele>1054</ele>
        <time>2010-07-14T14:22:50Z</time>
      </trkpt>
      <trkpt lat="44.89754" lon="5.39111">
        <ele>1054</ele>
        <time>2010-07-14T14:22:57Z</time>
      </trkpt>
      <trkpt lat="44.89732" lon="5.39083">
        <ele>1054</ele>
        <time>2010-07-14T14:23:04Z</time>
      </trkpt>
      <trkpt lat="44.89721" lon="5.39071">
        <ele>1054</ele>
        <time>2010-07-14T14:23:11Z</time>
      </trkpt>
      <trkpt lat="44.89703" lon="5.39048">
        <ele>1054</ele>
        <time>2010-07-14T14:23:19Z</time>
      </trkpt>
      <trkpt lat="44.89678" lon="5.39021">
        <ele>1054</ele>
        <time>2010-07-14T14:23:26Z</time>
      </trkpt>
      <trkpt lat="44.89658" lon="5.39">
        <ele>1054</ele>
        <time>2010-07-14T14:23:34Z</time>
      </trkpt>
      <trkpt lat="44.89635" lon="5.38975">
        <ele>1054</ele>
        <time>2010-07-14T14:23:41Z</time>
      </trkpt>
      <trkpt lat="44.89615" lon="5.38954">
        <ele>1054</ele>
        <time>2010-07-14T14:23:49Z</time>
      </trkpt>
      <trkpt lat="44.89592" lon="5.38929">
        <ele>1056</ele>
        <time>2010-07-14T14:23:56Z</time>
      </trkpt>
      <trkpt lat="44.8957" lon="5.38906">
        <ele>1056</ele>
        <time>2010-07-14T14:24:04Z</time>
      </trkpt>
      <trkpt lat="44.89544" lon="5.3888">
        <ele>1056</ele>
        <time>2010-07-14T14:24:11Z</time>
      </trkpt>
      <trkpt lat="44.89524" lon="5.38858">
        <ele>1056</ele>
        <time>2010-07-14T14:24:19Z</time>
      </trkpt>
      <trkpt lat="44.89503" lon="5.38835">
        <ele>1056</ele>
        <time>2010-07-14T14:24:26Z</time>
      </trkpt>
      <trkpt lat="44.89507" lon="5.38796">
        <ele>1056</ele>
        <time>2010-07-14T14:24:35Z</time>
      </trkpt>
      <trkpt lat="44.89519" lon="5.38751">
        <ele>1056</ele>
        <time>2010-07-14T14:24:43Z</time>
      </trkpt>
      <trkpt lat="44.89529" lon="5.38712">
        <ele>1056</ele>
        <time>2010-07-14T14:24:50Z</time>
      </trkpt>
      <trkpt lat="44.8954" lon="5.38673">
        <ele>1056</ele>
        <time>2010-07-14T14:24:57Z</time>
      </trkpt>
      <trkpt lat="44.89547" lon="5.38648">
        <ele>1056</ele>
        <time>2010-07-14T14:25:05Z</time>
      </trkpt>
      <trkpt lat="44.89555" lon="5.38617">
        <ele>1056</ele>
        <time>2010-07-14T14:25:12Z</time>
      </trkpt>
      <trkpt lat="44.89568" lon="5.38577">
        <ele>1056</ele>
        <time>2010-07-14T14:25:20Z</time>
      </trkpt>
      <trkpt lat="44.89587" lon="5.38515">
        <ele>1056</ele>
        <time>2010-07-14T14:25:27Z</time>
      </trkpt>
      <trkpt lat="44.89602" lon="5.3847">
        <ele>1056</ele>
        <time>2010-07-14T14:25:35Z</time>
      </trkpt>
      <trkpt lat="44.89613" lon="5.38432">
        <ele>1057</ele>
        <time>2010-07-14T14:25:42Z</time>
      </trkpt>
      <trkpt lat="44.89626" lon="5.38392">
        <ele>1061</ele>
        <time>2010-07-14T14:25:51Z</time>
      </trkpt>
      <trkpt lat="44.89629" lon="5.38356">
        <ele>1064</ele>
        <time>2010-07-14T14:25:59Z</time>
      </trkpt>
      <trkpt lat="44.89646" lon="5.38284">
        <ele>1064</ele>
        <time>2010-07-14T14:26:06Z</time>
      </trkpt>
      <trkpt lat="44.89649" lon="5.38263">
        <ele>1064</ele>
        <time>2010-07-14T14:26:14Z</time>
      </trkpt>
      <trkpt lat="44.89657" lon="5.38215">
        <ele>1064</ele>
        <time>2010-07-14T14:26:21Z</time>
      </trkpt>
      <trkpt lat="44.89658" lon="5.3817">
        <ele>1064</ele>
        <time>2010-07-14T14:26:29Z</time>
      </trkpt>
      <trkpt lat="44.89652" lon="5.38102">
        <ele>1064</ele>
        <time>2010-07-14T14:26:37Z</time>
      </trkpt>
      <trkpt lat="44.89651" lon="5.38065">
        <ele>1062</ele>
        <time>2010-07-14T14:26:44Z</time>
      </trkpt>
      <trkpt lat="44.89659" lon="5.38018">
        <ele>1062</ele>
        <time>2010-07-14T14:26:52Z</time>
      </trkpt>
      <trkpt lat="44.89657" lon="5.37968">
        <ele>1061</ele>
        <time>2010-07-14T14:27:01Z</time>
      </trkpt>
      <trkpt lat="44.8965" lon="5.37898">
        <ele>1059</ele>
        <time>2010-07-14T14:27:11Z</time>
      </trkpt>
      <trkpt lat="44.89642" lon="5.37854">
        <ele>1058</ele>
        <time>2010-07-14T14:27:18Z</time>
      </trkpt>
      <trkpt lat="44.89631" lon="5.37813">
        <ele>1058</ele>
        <time>2010-07-14T14:27:26Z</time>
      </trkpt>
      <trkpt lat="44.8961" lon="5.37766">
        <ele>1058</ele>
        <time>2010-07-14T14:27:34Z</time>
      </trkpt>
      <trkpt lat="44.89608" lon="5.37745">
        <ele>1058</ele>
        <time>2010-07-14T14:27:42Z</time>
      </trkpt>
      <trkpt lat="44.89609" lon="5.37703">
        <ele>1058</ele>
        <time>2010-07-14T14:27:52Z</time>
      </trkpt>
      <trkpt lat="44.89618" lon="5.37668">
        <ele>1058</ele>
        <time>2010-07-14T14:28:00Z</time>
      </trkpt>
      <trkpt lat="44.89628" lon="5.37616">
        <ele>1058</ele>
        <time>2010-07-14T14:28:08Z</time>
      </trkpt>
      <trkpt lat="44.89635" lon="5.37578">
        <ele>1058</ele>
        <time>2010-07-14T14:28:15Z</time>
      </trkpt>
      <trkpt lat="44.89649" lon="5.37521">
        <ele>1058</ele>
        <time>2010-07-14T14:28:23Z</time>
      </trkpt>
      <trkpt lat="44.8966" lon="5.37481">
        <ele>1058</ele>
        <time>2010-07-14T14:28:30Z</time>
      </trkpt>
      <trkpt lat="44.89659" lon="5.37409">
        <ele>1057</ele>
        <time>2010-07-14T14:28:40Z</time>
      </trkpt>
      <trkpt lat="44.89648" lon="5.37358">
        <ele>1057</ele>
        <time>2010-07-14T14:28:47Z</time>
      </trkpt>
      <trkpt lat="44.89622" lon="5.37331">
        <ele>1057</ele>
        <time>2010-07-14T14:28:56Z</time>
      </trkpt>
      <trkpt lat="44.8961" lon="5.37306">
        <ele>1057</ele>
        <time>2010-07-14T14:29:06Z</time>
      </trkpt>
      <trkpt lat="44.89593" lon="5.37276">
        <ele>1057</ele>
        <time>2010-07-14T14:29:14Z</time>
      </trkpt>
      <trkpt lat="44.89584" lon="5.37236">
        <ele>1057</ele>
        <time>2010-07-14T14:29:23Z</time>
      </trkpt>
      <trkpt lat="44.89569" lon="5.37176">
        <ele>1057</ele>
        <time>2010-07-14T14:29:31Z</time>
      </trkpt>
      <trkpt lat="44.8956" lon="5.37141">
        <ele>1057</ele>
        <time>2010-07-14T14:29:38Z</time>
      </trkpt>
      <trkpt lat="44.89555" lon="5.37102">
        <ele>1058</ele>
        <time>2010-07-14T14:29:45Z</time>
      </trkpt>
      <trkpt lat="44.89553" lon="5.37082">
        <ele>1060</ele>
        <time>2010-07-14T14:29:53Z</time>
      </trkpt>
      <trkpt lat="44.89536" lon="5.37056">
        <ele>1062</ele>
        <time>2010-07-14T14:30:02Z</time>
      </trkpt>
      <trkpt lat="44.89539" lon="5.37049">
        <ele>1062</ele>
        <time>2010-07-14T14:30:11Z</time>
      </trkpt>
      <trkpt lat="44.89539" lon="5.37047">
        <ele>1061</ele>
        <time>2010-07-14T14:30:22Z</time>
      </trkpt>
      <trkpt lat="44.89537" lon="5.37044">
        <ele>1057</ele>
        <time>2010-07-14T14:30:31Z</time>
      </trkpt>
      <trkpt lat="44.89535" lon="5.37042">
        <ele>1053</ele>
        <time>2010-07-14T14:30:41Z</time>
      </trkpt>
      <trkpt lat="44.89535" lon="5.3704">
        <ele>1050</ele>
        <time>2010-07-14T14:30:52Z</time>
      </trkpt>
      <trkpt lat="44.89537" lon="5.37044">
        <ele>1050</ele>
        <time>2010-07-14T14:31:00Z</time>
      </trkpt>
      <trkpt lat="44.8954" lon="5.37053">
        <ele>1050</ele>
        <time>2010-07-14T14:31:08Z</time>
      </trkpt>
      <trkpt lat="44.8954" lon="5.37049">
        <ele>1049</ele>
        <time>2010-07-14T14:31:18Z</time>
      </trkpt>
      <trkpt lat="44.89539" lon="5.37048">
        <ele>1047</ele>
        <time>2010-07-14T14:31:26Z</time>
      </trkpt>
      <trkpt lat="44.89511" lon="5.3706">
        <ele>1045</ele>
        <time>2010-07-14T14:31:35Z</time>
      </trkpt>
      <trkpt lat="44.89459" lon="5.37069">
        <ele>1046</ele>
        <time>2010-07-14T14:31:43Z</time>
      </trkpt>
      <trkpt lat="44.8944" lon="5.37074">
        <ele>1047</ele>
        <time>2010-07-14T14:31:50Z</time>
      </trkpt>
      <trkpt lat="44.89439" lon="5.37074">
        <ele>1048</ele>
        <time>2010-07-14T14:31:58Z</time>
      </trkpt>
      <trkpt lat="44.89442" lon="5.37068">
        <ele>1052</ele>
        <time>2010-07-14T14:32:08Z</time>
      </trkpt>
      <trkpt lat="44.89437" lon="5.37088">
        <ele>1054</ele>
        <time>2010-07-14T14:32:17Z</time>
      </trkpt>
      <trkpt lat="44.89434" lon="5.37098">
        <ele>1054</ele>
        <time>2010-07-14T14:32:28Z</time>
      </trkpt>
      <trkpt lat="44.89438" lon="5.37076">
        <ele>1067</ele>
        <time>2010-07-14T14:32:39Z</time>
      </trkpt>
      <trkpt lat="44.89439" lon="5.37074">
        <ele>1067</ele>
        <time>2010-07-14T14:32:49Z</time>
      </trkpt>
      <trkpt lat="44.89439" lon="5.37077">
        <ele>1065</ele>
        <time>2010-07-14T14:32:59Z</time>
      </trkpt>
      <trkpt lat="44.89458" lon="5.3708">
        <ele>1065</ele>
        <time>2010-07-14T14:33:07Z</time>
      </trkpt>
      <trkpt lat="44.89478" lon="5.37076">
        <ele>1065</ele>
        <time>2010-07-14T14:33:17Z</time>
      </trkpt>
      <trkpt lat="44.89512" lon="5.37069">
        <ele>1067</ele>
        <time>2010-07-14T14:33:24Z</time>
      </trkpt>
      <trkpt lat="44.89523" lon="5.37071">
        <ele>1068</ele>
        <time>2010-07-14T14:33:31Z</time>
      </trkpt>
      <trkpt lat="44.89538" lon="5.3704">
        <ele>1068</ele>
        <time>2010-07-14T14:33:42Z</time>
      </trkpt>
      <trkpt lat="44.89539" lon="5.3702">
        <ele>1068</ele>
        <time>2010-07-14T14:33:50Z</time>
      </trkpt>
      <trkpt lat="44.89538" lon="5.36977">
        <ele>1068</ele>
        <time>2010-07-14T14:33:57Z</time>
      </trkpt>
      <trkpt lat="44.8954" lon="5.36949">
        <ele>1068</ele>
        <time>2010-07-14T14:34:04Z</time>
      </trkpt>
      <trkpt lat="44.89538" lon="5.36925">
        <ele>1068</ele>
        <time>2010-07-14T14:34:12Z</time>
      </trkpt>
      <trkpt lat="44.89541" lon="5.36898">
        <ele>1068</ele>
        <time>2010-07-14T14:34:19Z</time>
      </trkpt>
      <trkpt lat="44.89539" lon="5.3687">
        <ele>1068</ele>
        <time>2010-07-14T14:34:26Z</time>
      </trkpt>
      <trkpt lat="44.89538" lon="5.36856">
        <ele>1068</ele>
        <time>2010-07-14T14:34:33Z</time>
      </trkpt>
      <trkpt lat="44.89539" lon="5.36808">
        <ele>1068</ele>
        <time>2010-07-14T14:34:41Z</time>
      </trkpt>
      <trkpt lat="44.89539" lon="5.36771">
        <ele>1069</ele>
        <time>2010-07-14T14:34:49Z</time>
      </trkpt>
      <trkpt lat="44.89551" lon="5.36725">
        <ele>1070</ele>
        <time>2010-07-14T14:34:57Z</time>
      </trkpt>
      <trkpt lat="44.89556" lon="5.36687">
        <ele>1070</ele>
        <time>2010-07-14T14:35:04Z</time>
      </trkpt>
      <trkpt lat="44.89557" lon="5.36627">
        <ele>1068</ele>
        <time>2010-07-14T14:35:12Z</time>
      </trkpt>
      <trkpt lat="44.89558" lon="5.36598">
        <ele>1067</ele>
        <time>2010-07-14T14:35:19Z</time>
      </trkpt>
      <trkpt lat="44.8953" lon="5.36581">
        <ele>1067</ele>
        <time>2010-07-14T14:35:29Z</time>
      </trkpt>
      <trkpt lat="44.89506" lon="5.36587">
        <ele>1067</ele>
        <time>2010-07-14T14:35:36Z</time>
      </trkpt>
      <trkpt lat="44.89495" lon="5.36587">
        <ele>1067</ele>
        <time>2010-07-14T14:35:43Z</time>
      </trkpt>
      <trkpt lat="44.89451" lon="5.36581">
        <ele>1067</ele>
        <time>2010-07-14T14:35:51Z</time>
      </trkpt>
      <trkpt lat="44.89416" lon="5.36566">
        <ele>1067</ele>
        <time>2010-07-14T14:35:59Z</time>
      </trkpt>
      <trkpt lat="44.89394" lon="5.36558">
        <ele>1067</ele>
        <time>2010-07-14T14:36:07Z</time>
      </trkpt>
      <trkpt lat="44.89367" lon="5.36549">
        <ele>1065</ele>
        <time>2010-07-14T14:36:14Z</time>
      </trkpt>
      <trkpt lat="44.89325" lon="5.3655">
        <ele>1064</ele>
        <time>2010-07-14T14:36:23Z</time>
      </trkpt>
      <trkpt lat="44.8929" lon="5.36563">
        <ele>1063</ele>
        <time>2010-07-14T14:36:30Z</time>
      </trkpt>
      <trkpt lat="44.89261" lon="5.36573">
        <ele>1062</ele>
        <time>2010-07-14T14:36:38Z</time>
      </trkpt>
      <trkpt lat="44.89229" lon="5.36583">
        <ele>1061</ele>
        <time>2010-07-14T14:36:45Z</time>
      </trkpt>
      <trkpt lat="44.89186" lon="5.36591">
        <ele>1061</ele>
        <time>2010-07-14T14:36:53Z</time>
      </trkpt>
      <trkpt lat="44.89171" lon="5.36594">
        <ele>1061</ele>
        <time>2010-07-14T14:37:00Z</time>
      </trkpt>
      <trkpt lat="44.89146" lon="5.366">
        <ele>1061</ele>
        <time>2010-07-14T14:37:08Z</time>
      </trkpt>
      <trkpt lat="44.89113" lon="5.36605">
        <ele>1061</ele>
        <time>2010-07-14T14:37:16Z</time>
      </trkpt>
      <trkpt lat="44.89089" lon="5.36608">
        <ele>1061</ele>
        <time>2010-07-14T14:37:23Z</time>
      </trkpt>
      <trkpt lat="44.89058" lon="5.36605">
        <ele>1061</ele>
        <time>2010-07-14T14:37:31Z</time>
      </trkpt>
      <trkpt lat="44.89035" lon="5.36607">
        <ele>1061</ele>
        <time>2010-07-14T14:37:38Z</time>
      </trkpt>
      <trkpt lat="44.88989" lon="5.36617">
        <ele>1061</ele>
        <time>2010-07-14T14:37:46Z</time>
      </trkpt>
      <trkpt lat="44.88978" lon="5.3662">
        <ele>1061</ele>
        <time>2010-07-14T14:37:53Z</time>
      </trkpt>
      <trkpt lat="44.88941" lon="5.36623">
        <ele>1061</ele>
        <time>2010-07-14T14:38:01Z</time>
      </trkpt>
      <trkpt lat="44.88913" lon="5.36624">
        <ele>1061</ele>
        <time>2010-07-14T14:38:09Z</time>
      </trkpt>
      <trkpt lat="44.88882" lon="5.36624">
        <ele>1061</ele>
        <time>2010-07-14T14:38:16Z</time>
      </trkpt>
      <trkpt lat="44.88854" lon="5.36624">
        <ele>1061</ele>
        <time>2010-07-14T14:38:24Z</time>
      </trkpt>
      <trkpt lat="44.88823" lon="5.36622">
        <ele>1061</ele>
        <time>2010-07-14T14:38:32Z</time>
      </trkpt>
      <trkpt lat="44.88784" lon="5.36614">
        <ele>1061</ele>
        <time>2010-07-14T14:38:39Z</time>
      </trkpt>
      <trkpt lat="44.88748" lon="5.36605">
        <ele>1061</ele>
        <time>2010-07-14T14:38:50Z</time>
      </trkpt>
      <trkpt lat="44.88712" lon="5.366">
        <ele>1061</ele>
        <time>2010-07-14T14:38:58Z</time>
      </trkpt>
      <trkpt lat="44.8868" lon="5.36595">
        <ele>1061</ele>
        <time>2010-07-14T14:39:09Z</time>
      </trkpt>
      <trkpt lat="44.88647" lon="5.36577">
        <ele>1061</ele>
        <time>2010-07-14T14:39:17Z</time>
      </trkpt>
      <trkpt lat="44.88612" lon="5.3655">
        <ele>1061</ele>
        <time>2010-07-14T14:39:28Z</time>
      </trkpt>
      <trkpt lat="44.88587" lon="5.36533">
        <ele>1061</ele>
        <time>2010-07-14T14:39:36Z</time>
      </trkpt>
      <trkpt lat="44.88553" lon="5.36512">
        <ele>1061</ele>
        <time>2010-07-14T14:39:47Z</time>
      </trkpt>
      <trkpt lat="44.8853" lon="5.36503">
        <ele>1061</ele>
        <time>2010-07-14T14:39:54Z</time>
      </trkpt>
      <trkpt lat="44.885" lon="5.36495">
        <ele>1061</ele>
        <time>2010-07-14T14:40:06Z</time>
      </trkpt>
      <trkpt lat="44.88475" lon="5.36484">
        <ele>1061</ele>
        <time>2010-07-14T14:40:14Z</time>
      </trkpt>
      <trkpt lat="44.88456" lon="5.36459">
        <ele>1062</ele>
        <time>2010-07-14T14:40:25Z</time>
      </trkpt>
      <trkpt lat="44.88438" lon="5.36442">
        <ele>1064</ele>
        <time>2010-07-14T14:40:33Z</time>
      </trkpt>
      <trkpt lat="44.88427" lon="5.36433">
        <ele>1064</ele>
        <time>2010-07-14T14:40:40Z</time>
      </trkpt>
      <trkpt lat="44.88415" lon="5.3643">
        <ele>1065</ele>
        <time>2010-07-14T14:40:52Z</time>
      </trkpt>
      <trkpt lat="44.88401" lon="5.36429">
        <ele>1069</ele>
        <time>2010-07-14T14:41:00Z</time>
      </trkpt>
      <trkpt lat="44.8839" lon="5.36425">
        <ele>1069</ele>
        <time>2010-07-14T14:41:07Z</time>
      </trkpt>
      <trkpt lat="44.88377" lon="5.36422">
        <ele>1070</ele>
        <time>2010-07-14T14:41:14Z</time>
      </trkpt>
      <trkpt lat="44.88367" lon="5.36421">
        <ele>1071</ele>
        <time>2010-07-14T14:41:28Z</time>
      </trkpt>
      <trkpt lat="44.88361" lon="5.36423">
        <ele>1075</ele>
        <time>2010-07-14T14:41:36Z</time>
      </trkpt>
      <trkpt lat="44.88349" lon="5.36419">
        <ele>1076</ele>
        <time>2010-07-14T14:41:44Z</time>
      </trkpt>
      <trkpt lat="44.8834" lon="5.36417">
        <ele>1078</ele>
        <time>2010-07-14T14:41:51Z</time>
      </trkpt>
      <trkpt lat="44.88321" lon="5.36412">
        <ele>1078</ele>
        <time>2010-07-14T14:42:02Z</time>
      </trkpt>
      <trkpt lat="44.883" lon="5.36403">
        <ele>1079</ele>
        <time>2010-07-14T14:42:10Z</time>
      </trkpt>
      <trkpt lat="44.88277" lon="5.36389">
        <ele>1079</ele>
        <time>2010-07-14T14:42:17Z</time>
      </trkpt>
      <trkpt lat="44.88241" lon="5.36367">
        <ele>1079</ele>
        <time>2010-07-14T14:42:28Z</time>
      </trkpt>
      <trkpt lat="44.88215" lon="5.36363">
        <ele>1079</ele>
        <time>2010-07-14T14:42:36Z</time>
      </trkpt>
      <trkpt lat="44.88197" lon="5.36369">
        <ele>1080</ele>
        <time>2010-07-14T14:42:43Z</time>
      </trkpt>
      <trkpt lat="44.88187" lon="5.36379">
        <ele>1080</ele>
        <time>2010-07-14T14:42:50Z</time>
      </trkpt>
      <trkpt lat="44.88174" lon="5.36387">
        <ele>1080</ele>
        <time>2010-07-14T14:42:59Z</time>
      </trkpt>
      <trkpt lat="44.88153" lon="5.36391">
        <ele>1080</ele>
        <time>2010-07-14T14:43:06Z</time>
      </trkpt>
      <trkpt lat="44.88146" lon="5.36393">
        <ele>1082</ele>
        <time>2010-07-14T14:43:13Z</time>
      </trkpt>
      <trkpt lat="44.88129" lon="5.36391">
        <ele>1084</ele>
        <time>2010-07-14T14:43:20Z</time>
      </trkpt>
      <trkpt lat="44.88115" lon="5.36381">
        <ele>1087</ele>
        <time>2010-07-14T14:43:28Z</time>
      </trkpt>
      <trkpt lat="44.88104" lon="5.36372">
        <ele>1088</ele>
        <time>2010-07-14T14:43:35Z</time>
      </trkpt>
      <trkpt lat="44.8809" lon="5.36358">
        <ele>1091</ele>
        <time>2010-07-14T14:43:47Z</time>
      </trkpt>
      <trkpt lat="44.88079" lon="5.36344">
        <ele>1095</ele>
        <time>2010-07-14T14:43:54Z</time>
      </trkpt>
      <trkpt lat="44.88071" lon="5.36334">
        <ele>1099</ele>
        <time>2010-07-14T14:44:01Z</time>
      </trkpt>
      <trkpt lat="44.88065" lon="5.36323">
        <ele>1102</ele>
        <time>2010-07-14T14:44:08Z</time>
      </trkpt>
      <trkpt lat="44.88056" lon="5.36309">
        <ele>1105</ele>
        <time>2010-07-14T14:44:16Z</time>
      </trkpt>
      <trkpt lat="44.88046" lon="5.36297">
        <ele>1108</ele>
        <time>2010-07-14T14:44:23Z</time>
      </trkpt>
      <trkpt lat="44.8804" lon="5.36279">
        <ele>1112</ele>
        <time>2010-07-14T14:44:34Z</time>
      </trkpt>
      <trkpt lat="44.88038" lon="5.36257">
        <ele>1112</ele>
        <time>2010-07-14T14:44:42Z</time>
      </trkpt>
      <trkpt lat="44.88034" lon="5.36243">
        <ele>1112</ele>
        <time>2010-07-14T14:44:49Z</time>
      </trkpt>
      <trkpt lat="44.88023" lon="5.36217">
        <ele>1110</ele>
        <time>2010-07-14T14:45:01Z</time>
      </trkpt>
      <trkpt lat="44.88016" lon="5.36209">
        <ele>1107</ele>
        <time>2010-07-14T14:45:09Z</time>
      </trkpt>
      <trkpt lat="44.87995" lon="5.36216">
        <ele>1107</ele>
        <time>2010-07-14T14:45:16Z</time>
      </trkpt>
      <trkpt lat="44.87962" lon="5.36225">
        <ele>1107</ele>
        <time>2010-07-14T14:45:24Z</time>
      </trkpt>
      <trkpt lat="44.87936" lon="5.36216">
        <ele>1107</ele>
        <time>2010-07-14T14:45:35Z</time>
      </trkpt>
      <trkpt lat="44.87909" lon="5.36205">
        <ele>1107</ele>
        <time>2010-07-14T14:45:43Z</time>
      </trkpt>
      <trkpt lat="44.87894" lon="5.3619">
        <ele>1107</ele>
        <time>2010-07-14T14:45:50Z</time>
      </trkpt>
      <trkpt lat="44.87878" lon="5.36174">
        <ele>1108</ele>
        <time>2010-07-14T14:45:57Z</time>
      </trkpt>
      <trkpt lat="44.87861" lon="5.36166">
        <ele>1108</ele>
        <time>2010-07-14T14:46:04Z</time>
      </trkpt>
      <trkpt lat="44.87837" lon="5.36152">
        <ele>1108</ele>
        <time>2010-07-14T14:46:12Z</time>
      </trkpt>
      <trkpt lat="44.87815" lon="5.36139">
        <ele>1108</ele>
        <time>2010-07-14T14:46:19Z</time>
      </trkpt>
      <trkpt lat="44.87792" lon="5.36127">
        <ele>1109</ele>
        <time>2010-07-14T14:46:27Z</time>
      </trkpt>
      <trkpt lat="44.8778" lon="5.36117">
        <ele>1110</ele>
        <time>2010-07-14T14:46:34Z</time>
      </trkpt>
      <trkpt lat="44.87774" lon="5.36103">
        <ele>1113</ele>
        <time>2010-07-14T14:46:42Z</time>
      </trkpt>
      <trkpt lat="44.87757" lon="5.36094">
        <ele>1114</ele>
        <time>2010-07-14T14:46:49Z</time>
      </trkpt>
      <trkpt lat="44.87735" lon="5.36084">
        <ele>1115</ele>
        <time>2010-07-14T14:46:57Z</time>
      </trkpt>
      <trkpt lat="44.87717" lon="5.36077">
        <ele>1116</ele>
        <time>2010-07-14T14:47:04Z</time>
      </trkpt>
      <trkpt lat="44.87697" lon="5.36068">
        <ele>1117</ele>
        <time>2010-07-14T14:47:12Z</time>
      </trkpt>
      <trkpt lat="44.87681" lon="5.36058">
        <ele>1119</ele>
        <time>2010-07-14T14:47:19Z</time>
      </trkpt>
      <trkpt lat="44.87665" lon="5.36045">
        <ele>1120</ele>
        <time>2010-07-14T14:47:27Z</time>
      </trkpt>
      <trkpt lat="44.87651" lon="5.36037">
        <ele>1121</ele>
        <time>2010-07-14T14:47:34Z</time>
      </trkpt>
      <trkpt lat="44.87633" lon="5.36031">
        <ele>1123</ele>
        <time>2010-07-14T14:47:42Z</time>
      </trkpt>
      <trkpt lat="44.87617" lon="5.36027">
        <ele>1123</ele>
        <time>2010-07-14T14:47:49Z</time>
      </trkpt>
      <trkpt lat="44.876" lon="5.3602">
        <ele>1124</ele>
        <time>2010-07-14T14:47:57Z</time>
      </trkpt>
      <trkpt lat="44.87584" lon="5.36015">
        <ele>1124</ele>
        <time>2010-07-14T14:48:04Z</time>
      </trkpt>
      <trkpt lat="44.87565" lon="5.36009">
        <ele>1124</ele>
        <time>2010-07-14T14:48:12Z</time>
      </trkpt>
      <trkpt lat="44.87551" lon="5.36">
        <ele>1125</ele>
        <time>2010-07-14T14:48:19Z</time>
      </trkpt>
      <trkpt lat="44.87535" lon="5.3599">
        <ele>1126</ele>
        <time>2010-07-14T14:48:27Z</time>
      </trkpt>
      <trkpt lat="44.87524" lon="5.35978">
        <ele>1127</ele>
        <time>2010-07-14T14:48:34Z</time>
      </trkpt>
      <trkpt lat="44.87512" lon="5.35964">
        <ele>1128</ele>
        <time>2010-07-14T14:48:42Z</time>
      </trkpt>
      <trkpt lat="44.87498" lon="5.35956">
        <ele>1129</ele>
        <time>2010-07-14T14:48:49Z</time>
      </trkpt>
      <trkpt lat="44.87481" lon="5.35948">
        <ele>1130</ele>
        <time>2010-07-14T14:48:57Z</time>
      </trkpt>
      <trkpt lat="44.87469" lon="5.35939">
        <ele>1130</ele>
        <time>2010-07-14T14:49:04Z</time>
      </trkpt>
      <trkpt lat="44.87457" lon="5.35928">
        <ele>1132</ele>
        <time>2010-07-14T14:49:12Z</time>
      </trkpt>
      <trkpt lat="44.87443" lon="5.35921">
        <ele>1133</ele>
        <time>2010-07-14T14:49:19Z</time>
      </trkpt>
      <trkpt lat="44.87429" lon="5.3591">
        <ele>1136</ele>
        <time>2010-07-14T14:49:27Z</time>
      </trkpt>
      <trkpt lat="44.87415" lon="5.35901">
        <ele>1138</ele>
        <time>2010-07-14T14:49:34Z</time>
      </trkpt>
      <trkpt lat="44.87398" lon="5.35893">
        <ele>1139</ele>
        <time>2010-07-14T14:49:42Z</time>
      </trkpt>
      <trkpt lat="44.87383" lon="5.35887">
        <ele>1139</ele>
        <time>2010-07-14T14:49:49Z</time>
      </trkpt>
      <trkpt lat="44.87365" lon="5.35879">
        <ele>1140</ele>
        <time>2010-07-14T14:49:57Z</time>
      </trkpt>
      <trkpt lat="44.8735" lon="5.35872">
        <ele>1140</ele>
        <time>2010-07-14T14:50:04Z</time>
      </trkpt>
      <trkpt lat="44.87334" lon="5.35864">
        <ele>1140</ele>
        <time>2010-07-14T14:50:12Z</time>
      </trkpt>
      <trkpt lat="44.87319" lon="5.35858">
        <ele>1141</ele>
        <time>2010-07-14T14:50:19Z</time>
      </trkpt>
      <trkpt lat="44.873" lon="5.35851">
        <ele>1141</ele>
        <time>2010-07-14T14:50:27Z</time>
      </trkpt>
      <trkpt lat="44.87285" lon="5.35846">
        <ele>1141</ele>
        <time>2010-07-14T14:50:34Z</time>
      </trkpt>
      <trkpt lat="44.87269" lon="5.35838">
        <ele>1142</ele>
        <time>2010-07-14T14:50:41Z</time>
      </trkpt>
      <trkpt lat="44.87255" lon="5.3583">
        <ele>1143</ele>
        <time>2010-07-14T14:50:48Z</time>
      </trkpt>
      <trkpt lat="44.87241" lon="5.35821">
        <ele>1144</ele>
        <time>2010-07-14T14:50:55Z</time>
      </trkpt>
      <trkpt lat="44.87226" lon="5.35813">
        <ele>1146</ele>
        <time>2010-07-14T14:51:02Z</time>
      </trkpt>
      <trkpt lat="44.87211" lon="5.35803">
        <ele>1146</ele>
        <time>2010-07-14T14:51:09Z</time>
      </trkpt>
      <trkpt lat="44.87195" lon="5.35795">
        <ele>1147</ele>
        <time>2010-07-14T14:51:16Z</time>
      </trkpt>
      <trkpt lat="44.8718" lon="5.35788">
        <ele>1149</ele>
        <time>2010-07-14T14:51:23Z</time>
      </trkpt>
      <trkpt lat="44.87166" lon="5.35784">
        <ele>1150</ele>
        <time>2010-07-14T14:51:30Z</time>
      </trkpt>
      <trkpt lat="44.87154" lon="5.35776">
        <ele>1151</ele>
        <time>2010-07-14T14:51:37Z</time>
      </trkpt>
      <trkpt lat="44.87148" lon="5.35767">
        <ele>1151</ele>
        <time>2010-07-14T14:51:44Z</time>
      </trkpt>
      <trkpt lat="44.87144" lon="5.35765">
        <ele>1151</ele>
        <time>2010-07-14T14:51:51Z</time>
      </trkpt>
      <trkpt lat="44.87143" lon="5.35764">
        <ele>1151</ele>
        <time>2010-07-14T14:52:00Z</time>
      </trkpt>
      <trkpt lat="44.87142" lon="5.35763">
        <ele>1158</ele>
        <time>2010-07-14T14:52:19Z</time>
      </trkpt>
      <trkpt lat="44.87133" lon="5.35753">
        <ele>1158</ele>
        <time>2010-07-14T14:52:27Z</time>
      </trkpt>
      <trkpt lat="44.87125" lon="5.35739">
        <ele>1158</ele>
        <time>2010-07-14T14:52:34Z</time>
      </trkpt>
      <trkpt lat="44.87116" lon="5.35723">
        <ele>1158</ele>
        <time>2010-07-14T14:52:41Z</time>
      </trkpt>
      <trkpt lat="44.87103" lon="5.3571">
        <ele>1158</ele>
        <time>2010-07-14T14:52:48Z</time>
      </trkpt>
      <trkpt lat="44.87091" lon="5.35697">
        <ele>1158</ele>
        <time>2010-07-14T14:52:55Z</time>
      </trkpt>
      <trkpt lat="44.87082" lon="5.35688">
        <ele>1158</ele>
        <time>2010-07-14T14:53:03Z</time>
      </trkpt>
      <trkpt lat="44.87063" lon="5.35669">
        <ele>1158</ele>
        <time>2010-07-14T14:53:10Z</time>
      </trkpt>
      <trkpt lat="44.87049" lon="5.35658">
        <ele>1158</ele>
        <time>2010-07-14T14:53:17Z</time>
      </trkpt>
      <trkpt lat="44.87037" lon="5.35648">
        <ele>1158</ele>
        <time>2010-07-14T14:53:24Z</time>
      </trkpt>
      <trkpt lat="44.87021" lon="5.35653">
        <ele>1159</ele>
        <time>2010-07-14T14:53:32Z</time>
      </trkpt>
      <trkpt lat="44.87016" lon="5.35671">
        <ele>1159</ele>
        <time>2010-07-14T14:53:39Z</time>
      </trkpt>
      <trkpt lat="44.87025" lon="5.35758">
        <ele>1159</ele>
        <time>2010-07-14T14:53:46Z</time>
      </trkpt>
      <trkpt lat="44.87043" lon="5.35896">
        <ele>1157</ele>
        <time>2010-07-14T14:53:54Z</time>
      </trkpt>
      <trkpt lat="44.87064" lon="5.36056">
        <ele>1153</ele>
        <time>2010-07-14T14:54:05Z</time>
      </trkpt>
      <trkpt lat="44.87052" lon="5.36099">
        <ele>1149</ele>
        <time>2010-07-14T14:54:12Z</time>
      </trkpt>
      <trkpt lat="44.8702" lon="5.36096">
        <ele>1145</ele>
        <time>2010-07-14T14:54:20Z</time>
      </trkpt>
      <trkpt lat="44.86991" lon="5.36087">
        <ele>1144</ele>
        <time>2010-07-14T14:54:28Z</time>
      </trkpt>
      <trkpt lat="44.86972" lon="5.36065">
        <ele>1144</ele>
        <time>2010-07-14T14:54:35Z</time>
      </trkpt>
      <trkpt lat="44.86953" lon="5.36034">
        <ele>1144</ele>
        <time>2010-07-14T14:54:46Z</time>
      </trkpt>
      <trkpt lat="44.8693" lon="5.35998">
        <ele>1144</ele>
        <time>2010-07-14T14:54:54Z</time>
      </trkpt>
      <trkpt lat="44.86909" lon="5.35963">
        <ele>1144</ele>
        <time>2010-07-14T14:55:05Z</time>
      </trkpt>
      <trkpt lat="44.86888" lon="5.35925">
        <ele>1144</ele>
        <time>2010-07-14T14:55:13Z</time>
      </trkpt>
      <trkpt lat="44.86878" lon="5.35895">
        <ele>1144</ele>
        <time>2010-07-14T14:55:20Z</time>
      </trkpt>
      <trkpt lat="44.86866" lon="5.35858">
        <ele>1144</ele>
        <time>2010-07-14T14:55:28Z</time>
      </trkpt>
      <trkpt lat="44.86854" lon="5.35828">
        <ele>1144</ele>
        <time>2010-07-14T14:55:35Z</time>
      </trkpt>
      <trkpt lat="44.8684" lon="5.35801">
        <ele>1144</ele>
        <time>2010-07-14T14:55:42Z</time>
      </trkpt>
      <trkpt lat="44.86825" lon="5.35778">
        <ele>1144</ele>
        <time>2010-07-14T14:55:49Z</time>
      </trkpt>
      <trkpt lat="44.86808" lon="5.35763">
        <ele>1144</ele>
        <time>2010-07-14T14:55:56Z</time>
      </trkpt>
      <trkpt lat="44.86789" lon="5.3576">
        <ele>1144</ele>
        <time>2010-07-14T14:56:03Z</time>
      </trkpt>
      <trkpt lat="44.86773" lon="5.35759">
        <ele>1144</ele>
        <time>2010-07-14T14:56:10Z</time>
      </trkpt>
      <trkpt lat="44.86759" lon="5.35758">
        <ele>1145</ele>
        <time>2010-07-14T14:56:17Z</time>
      </trkpt>
      <trkpt lat="44.86746" lon="5.35759">
        <ele>1146</ele>
        <time>2010-07-14T14:56:24Z</time>
      </trkpt>
      <trkpt lat="44.86732" lon="5.35759">
        <ele>1146</ele>
        <time>2010-07-14T14:56:31Z</time>
      </trkpt>
      <trkpt lat="44.86716" lon="5.35759">
        <ele>1146</ele>
        <time>2010-07-14T14:56:38Z</time>
      </trkpt>
      <trkpt lat="44.86702" lon="5.35759">
        <ele>1147</ele>
        <time>2010-07-14T14:56:45Z</time>
      </trkpt>
      <trkpt lat="44.86687" lon="5.35757">
        <ele>1151</ele>
        <time>2010-07-14T14:56:52Z</time>
      </trkpt>
      <trkpt lat="44.86671" lon="5.3576">
        <ele>1152</ele>
        <time>2010-07-14T14:56:59Z</time>
      </trkpt>
      <trkpt lat="44.86656" lon="5.35761">
        <ele>1152</ele>
        <time>2010-07-14T14:57:06Z</time>
      </trkpt>
      <trkpt lat="44.86642" lon="5.35759">
        <ele>1153</ele>
        <time>2010-07-14T14:57:13Z</time>
      </trkpt>
      <trkpt lat="44.86626" lon="5.35754">
        <ele>1155</ele>
        <time>2010-07-14T14:57:20Z</time>
      </trkpt>
      <trkpt lat="44.8661" lon="5.35747">
        <ele>1157</ele>
        <time>2010-07-14T14:57:27Z</time>
      </trkpt>
      <trkpt lat="44.86594" lon="5.35742">
        <ele>1159</ele>
        <time>2010-07-14T14:57:34Z</time>
      </trkpt>
      <trkpt lat="44.86581" lon="5.35741">
        <ele>1160</ele>
        <time>2010-07-14T14:57:41Z</time>
      </trkpt>
      <trkpt lat="44.86568" lon="5.35744">
        <ele>1162</ele>
        <time>2010-07-14T14:57:48Z</time>
      </trkpt>
      <trkpt lat="44.86554" lon="5.35744">
        <ele>1164</ele>
        <time>2010-07-14T14:57:55Z</time>
      </trkpt>
      <trkpt lat="44.86541" lon="5.35741">
        <ele>1167</ele>
        <time>2010-07-14T14:58:02Z</time>
      </trkpt>
      <trkpt lat="44.86528" lon="5.35737">
        <ele>1167</ele>
        <time>2010-07-14T14:58:09Z</time>
      </trkpt>
      <trkpt lat="44.86516" lon="5.35732">
        <ele>1168</ele>
        <time>2010-07-14T14:58:16Z</time>
      </trkpt>
      <trkpt lat="44.86504" lon="5.35729">
        <ele>1169</ele>
        <time>2010-07-14T14:58:23Z</time>
      </trkpt>
      <trkpt lat="44.86493" lon="5.35726">
        <ele>1169</ele>
        <time>2010-07-14T14:58:30Z</time>
      </trkpt>
      <trkpt lat="44.86482" lon="5.35725">
        <ele>1169</ele>
        <time>2010-07-14T14:58:37Z</time>
      </trkpt>
      <trkpt lat="44.86471" lon="5.35724">
        <ele>1171</ele>
        <time>2010-07-14T14:58:44Z</time>
      </trkpt>
      <trkpt lat="44.86461" lon="5.35721">
        <ele>1172</ele>
        <time>2010-07-14T14:58:51Z</time>
      </trkpt>
      <trkpt lat="44.86452" lon="5.35719">
        <ele>1175</ele>
        <time>2010-07-14T14:58:58Z</time>
      </trkpt>
      <trkpt lat="44.86443" lon="5.35718">
        <ele>1179</ele>
        <time>2010-07-14T14:59:05Z</time>
      </trkpt>
      <trkpt lat="44.86433" lon="5.35717">
        <ele>1179</ele>
        <time>2010-07-14T14:59:12Z</time>
      </trkpt>
      <trkpt lat="44.86423" lon="5.35715">
        <ele>1179</ele>
        <time>2010-07-14T14:59:19Z</time>
      </trkpt>
      <trkpt lat="44.86414" lon="5.35711">
        <ele>1180</ele>
        <time>2010-07-14T14:59:26Z</time>
      </trkpt>
      <trkpt lat="44.86406" lon="5.35709">
        <ele>1182</ele>
        <time>2010-07-14T14:59:33Z</time>
      </trkpt>
      <trkpt lat="44.86396" lon="5.35706">
        <ele>1183</ele>
        <time>2010-07-14T14:59:41Z</time>
      </trkpt>
      <trkpt lat="44.86387" lon="5.35704">
        <ele>1184</ele>
        <time>2010-07-14T14:59:48Z</time>
      </trkpt>
      <trkpt lat="44.86378" lon="5.35701">
        <ele>1186</ele>
        <time>2010-07-14T14:59:55Z</time>
      </trkpt>
      <trkpt lat="44.86369" lon="5.35698">
        <ele>1189</ele>
        <time>2010-07-14T15:00:02Z</time>
      </trkpt>
      <trkpt lat="44.86362" lon="5.35695">
        <ele>1189</ele>
        <time>2010-07-14T15:00:12Z</time>
      </trkpt>
      <trkpt lat="44.86361" lon="5.35695">
        <ele>1189</ele>
        <time>2010-07-14T15:00:21Z</time>
      </trkpt>
      <trkpt lat="44.86357" lon="5.35691">
        <ele>1188</ele>
        <time>2010-07-14T15:00:29Z</time>
      </trkpt>
      <trkpt lat="44.86359" lon="5.35693">
        <ele>1187</ele>
        <time>2010-07-14T15:00:37Z</time>
      </trkpt>
      <trkpt lat="44.8636" lon="5.35694">
        <ele>1187</ele>
        <time>2010-07-14T15:00:46Z</time>
      </trkpt>
      <trkpt lat="44.8636" lon="5.35692">
        <ele>1195</ele>
        <time>2010-07-14T15:01:09Z</time>
      </trkpt>
      <trkpt lat="44.86357" lon="5.35693">
        <ele>1195</ele>
        <time>2010-07-14T15:01:20Z</time>
      </trkpt>
      <trkpt lat="44.86353" lon="5.35693">
        <ele>1193</ele>
        <time>2010-07-14T15:01:28Z</time>
      </trkpt>
      <trkpt lat="44.86347" lon="5.35692">
        <ele>1192</ele>
        <time>2010-07-14T15:01:36Z</time>
      </trkpt>
      <trkpt lat="44.86356" lon="5.35698">
        <ele>1190</ele>
        <time>2010-07-14T15:01:43Z</time>
      </trkpt>
      <trkpt lat="44.86357" lon="5.35698">
        <ele>1200</ele>
        <time>2010-07-14T15:01:56Z</time>
      </trkpt>
      <trkpt lat="44.8636" lon="5.35696">
        <ele>1207</ele>
        <time>2010-07-14T15:02:03Z</time>
      </trkpt>
      <trkpt lat="44.8636" lon="5.35693">
        <ele>1214</ele>
        <time>2010-07-14T15:02:14Z</time>
      </trkpt>
      <trkpt lat="44.86352" lon="5.35684">
        <ele>1212</ele>
        <time>2010-07-14T15:02:22Z</time>
      </trkpt>
      <trkpt lat="44.86344" lon="5.35677">
        <ele>1211</ele>
        <time>2010-07-14T15:02:29Z</time>
      </trkpt>
      <trkpt lat="44.86336" lon="5.35671">
        <ele>1210</ele>
        <time>2010-07-14T15:02:36Z</time>
      </trkpt>
      <trkpt lat="44.86327" lon="5.35663">
        <ele>1209</ele>
        <time>2010-07-14T15:02:44Z</time>
      </trkpt>
      <trkpt lat="44.86319" lon="5.35656">
        <ele>1209</ele>
        <time>2010-07-14T15:02:51Z</time>
      </trkpt>
      <trkpt lat="44.86311" lon="5.35649">
        <ele>1209</ele>
        <time>2010-07-14T15:02:58Z</time>
      </trkpt>
      <trkpt lat="44.86305" lon="5.3564">
        <ele>1209</ele>
        <time>2010-07-14T15:03:05Z</time>
      </trkpt>
      <trkpt lat="44.86297" lon="5.35632">
        <ele>1209</ele>
        <time>2010-07-14T15:03:12Z</time>
      </trkpt>
      <trkpt lat="44.86288" lon="5.35623">
        <ele>1209</ele>
        <time>2010-07-14T15:03:20Z</time>
      </trkpt>
      <trkpt lat="44.8628" lon="5.35616">
        <ele>1209</ele>
        <time>2010-07-14T15:03:27Z</time>
      </trkpt>
      <trkpt lat="44.86273" lon="5.35609">
        <ele>1209</ele>
        <time>2010-07-14T15:03:34Z</time>
      </trkpt>
      <trkpt lat="44.86266" lon="5.35601">
        <ele>1209</ele>
        <time>2010-07-14T15:03:41Z</time>
      </trkpt>
      <trkpt lat="44.86258" lon="5.35593">
        <ele>1209</ele>
        <time>2010-07-14T15:03:49Z</time>
      </trkpt>
      <trkpt lat="44.86252" lon="5.35584">
        <ele>1209</ele>
        <time>2010-07-14T15:03:56Z</time>
      </trkpt>
      <trkpt lat="44.86244" lon="5.35578">
        <ele>1209</ele>
        <time>2010-07-14T15:04:03Z</time>
      </trkpt>
      <trkpt lat="44.86235" lon="5.3557">
        <ele>1210</ele>
        <time>2010-07-14T15:04:10Z</time>
      </trkpt>
      <trkpt lat="44.86228" lon="5.35561">
        <ele>1212</ele>
        <time>2010-07-14T15:04:18Z</time>
      </trkpt>
      <trkpt lat="44.86219" lon="5.35552">
        <ele>1215</ele>
        <time>2010-07-14T15:04:26Z</time>
      </trkpt>
      <trkpt lat="44.86211" lon="5.35545">
        <ele>1218</ele>
        <time>2010-07-14T15:04:33Z</time>
      </trkpt>
      <trkpt lat="44.86202" lon="5.35538">
        <ele>1218</ele>
        <time>2010-07-14T15:04:40Z</time>
      </trkpt>
      <trkpt lat="44.86193" lon="5.3553">
        <ele>1220</ele>
        <time>2010-07-14T15:04:48Z</time>
      </trkpt>
      <trkpt lat="44.86184" lon="5.35524">
        <ele>1223</ele>
        <time>2010-07-14T15:04:55Z</time>
      </trkpt>
      <trkpt lat="44.86177" lon="5.35519">
        <ele>1224</ele>
        <time>2010-07-14T15:05:02Z</time>
      </trkpt>
      <trkpt lat="44.86169" lon="5.35512">
        <ele>1227</ele>
        <time>2010-07-14T15:05:09Z</time>
      </trkpt>
      <trkpt lat="44.8616" lon="5.35508">
        <ele>1233</ele>
        <time>2010-07-14T15:05:16Z</time>
      </trkpt>
      <trkpt lat="44.8615" lon="5.35505">
        <ele>1235</ele>
        <time>2010-07-14T15:05:23Z</time>
      </trkpt>
      <trkpt lat="44.86142" lon="5.35501">
        <ele>1235</ele>
        <time>2010-07-14T15:05:31Z</time>
      </trkpt>
      <trkpt lat="44.86133" lon="5.35498">
        <ele>1235</ele>
        <time>2010-07-14T15:05:38Z</time>
      </trkpt>
      <trkpt lat="44.86124" lon="5.35495">
        <ele>1235</ele>
        <time>2010-07-14T15:05:45Z</time>
      </trkpt>
      <trkpt lat="44.86113" lon="5.35493">
        <ele>1236</ele>
        <time>2010-07-14T15:05:52Z</time>
      </trkpt>
      <trkpt lat="44.86102" lon="5.35491">
        <ele>1237</ele>
        <time>2010-07-14T15:06:00Z</time>
      </trkpt>
      <trkpt lat="44.86093" lon="5.3549">
        <ele>1237</ele>
        <time>2010-07-14T15:06:07Z</time>
      </trkpt>
      <trkpt lat="44.86085" lon="5.35489">
        <ele>1236</ele>
        <time>2010-07-14T15:06:14Z</time>
      </trkpt>
      <trkpt lat="44.86077" lon="5.35485">
        <ele>1236</ele>
        <time>2010-07-14T15:06:21Z</time>
      </trkpt>
      <trkpt lat="44.86067" lon="5.35482">
        <ele>1236</ele>
        <time>2010-07-14T15:06:28Z</time>
      </trkpt>
      <trkpt lat="44.8606" lon="5.35483">
        <ele>1236</ele>
        <time>2010-07-14T15:06:35Z</time>
      </trkpt>
      <trkpt lat="44.86051" lon="5.35479">
        <ele>1238</ele>
        <time>2010-07-14T15:06:42Z</time>
      </trkpt>
      <trkpt lat="44.86042" lon="5.35477">
        <ele>1238</ele>
        <time>2010-07-14T15:06:49Z</time>
      </trkpt>
      <trkpt lat="44.86032" lon="5.35475">
        <ele>1242</ele>
        <time>2010-07-14T15:06:56Z</time>
      </trkpt>
      <trkpt lat="44.86022" lon="5.35475">
        <ele>1247</ele>
        <time>2010-07-14T15:07:03Z</time>
      </trkpt>
      <trkpt lat="44.86012" lon="5.3548">
        <ele>1249</ele>
        <time>2010-07-14T15:07:10Z</time>
      </trkpt>
      <trkpt lat="44.86001" lon="5.35484">
        <ele>1249</ele>
        <time>2010-07-14T15:07:17Z</time>
      </trkpt>
      <trkpt lat="44.85992" lon="5.35486">
        <ele>1250</ele>
        <time>2010-07-14T15:07:24Z</time>
      </trkpt>
      <trkpt lat="44.85979" lon="5.35488">
        <ele>1254</ele>
        <time>2010-07-14T15:07:32Z</time>
      </trkpt>
      <trkpt lat="44.85963" lon="5.35493">
        <ele>1258</ele>
        <time>2010-07-14T15:07:43Z</time>
      </trkpt>
      <trkpt lat="44.85939" lon="5.35499">
        <ele>1262</ele>
        <time>2010-07-14T15:07:51Z</time>
      </trkpt>
      <trkpt lat="44.85923" lon="5.35507">
        <ele>1262</ele>
        <time>2010-07-14T15:07:58Z</time>
      </trkpt>
      <trkpt lat="44.85892" lon="5.35506">
        <ele>1262</ele>
        <time>2010-07-14T15:08:09Z</time>
      </trkpt>
      <trkpt lat="44.85872" lon="5.35483">
        <ele>1259</ele>
        <time>2010-07-14T15:08:17Z</time>
      </trkpt>
      <trkpt lat="44.85849" lon="5.35458">
        <ele>1257</ele>
        <time>2010-07-14T15:08:24Z</time>
      </trkpt>
      <trkpt lat="44.8583" lon="5.35451">
        <ele>1254</ele>
        <time>2010-07-14T15:08:32Z</time>
      </trkpt>
      <trkpt lat="44.85781" lon="5.35437">
        <ele>1253</ele>
        <time>2010-07-14T15:08:40Z</time>
      </trkpt>
      <trkpt lat="44.85743" lon="5.35429">
        <ele>1253</ele>
        <time>2010-07-14T15:08:48Z</time>
      </trkpt>
      <trkpt lat="44.8571" lon="5.35419">
        <ele>1256</ele>
        <time>2010-07-14T15:08:57Z</time>
      </trkpt>
      <trkpt lat="44.85676" lon="5.3541">
        <ele>1257</ele>
        <time>2010-07-14T15:09:05Z</time>
      </trkpt>
      <trkpt lat="44.85642" lon="5.35412">
        <ele>1260</ele>
        <time>2010-07-14T15:09:14Z</time>
      </trkpt>
      <trkpt lat="44.85603" lon="5.35441">
        <ele>1264</ele>
        <time>2010-07-14T15:09:22Z</time>
      </trkpt>
      <trkpt lat="44.85572" lon="5.35468">
        <ele>1267</ele>
        <time>2010-07-14T15:09:29Z</time>
      </trkpt>
      <trkpt lat="44.85515" lon="5.3548">
        <ele>1271</ele>
        <time>2010-07-14T15:09:40Z</time>
      </trkpt>
      <trkpt lat="44.85466" lon="5.35431">
        <ele>1270</ele>
        <time>2010-07-14T15:09:48Z</time>
      </trkpt>
      <trkpt lat="44.85442" lon="5.3537">
        <ele>1265</ele>
        <time>2010-07-14T15:09:55Z</time>
      </trkpt>
      <trkpt lat="44.85428" lon="5.3535">
        <ele>1256</ele>
        <time>2010-07-14T15:10:02Z</time>
      </trkpt>
      <trkpt lat="44.85406" lon="5.35325">
        <ele>1248</ele>
        <time>2010-07-14T15:10:10Z</time>
      </trkpt>
      <trkpt lat="44.85404" lon="5.35324">
        <ele>1248</ele>
        <time>2010-07-14T15:10:18Z</time>
      </trkpt>
      <trkpt lat="44.85401" lon="5.35329">
        <ele>1253</ele>
        <time>2010-07-14T15:10:26Z</time>
      </trkpt>
      <trkpt lat="44.85401" lon="5.35327">
        <ele>1258</ele>
        <time>2010-07-14T15:10:34Z</time>
      </trkpt>
      <trkpt lat="44.85402" lon="5.35318">
        <ele>1262</ele>
        <time>2010-07-14T15:10:42Z</time>
      </trkpt>
      <trkpt lat="44.85402" lon="5.35316">
        <ele>1267</ele>
        <time>2010-07-14T15:10:51Z</time>
      </trkpt>
      <trkpt lat="44.85404" lon="5.35313">
        <ele>1271</ele>
        <time>2010-07-14T15:11:00Z</time>
      </trkpt>
      <trkpt lat="44.85403" lon="5.35313">
        <ele>1276</ele>
        <time>2010-07-14T15:11:12Z</time>
      </trkpt>
      <trkpt lat="44.85401" lon="5.35318">
        <ele>1278</ele>
        <time>2010-07-14T15:11:21Z</time>
      </trkpt>
      <trkpt lat="44.85399" lon="5.35316">
        <ele>1278</ele>
        <time>2010-07-14T15:11:29Z</time>
      </trkpt>
      <trkpt lat="44.85392" lon="5.35308">
        <ele>1272</ele>
        <time>2010-07-14T15:11:37Z</time>
      </trkpt>
      <trkpt lat="44.85387" lon="5.35304">
        <ele>1257</ele>
        <time>2010-07-14T15:11:45Z</time>
      </trkpt>
      <trkpt lat="44.85384" lon="5.35299">
        <ele>1245</ele>
        <time>2010-07-14T15:11:54Z</time>
      </trkpt>
      <trkpt lat="44.85381" lon="5.35299">
        <ele>1236</ele>
        <time>2010-07-14T15:12:03Z</time>
      </trkpt>
      <trkpt lat="44.8539" lon="5.3531">
        <ele>1236</ele>
        <time>2010-07-14T15:12:11Z</time>
      </trkpt>
      <trkpt lat="44.85389" lon="5.35334">
        <ele>1247</ele>
        <time>2010-07-14T15:12:19Z</time>
      </trkpt>
      <trkpt lat="44.85362" lon="5.35338">
        <ele>1252</ele>
        <time>2010-07-14T15:12:26Z</time>
      </trkpt>
      <trkpt lat="44.85351" lon="5.35337">
        <ele>1254</ele>
        <time>2010-07-14T15:12:33Z</time>
      </trkpt>
      <trkpt lat="44.85308" lon="5.35321">
        <ele>1254</ele>
        <time>2010-07-14T15:12:45Z</time>
      </trkpt>
      <trkpt lat="44.85282" lon="5.35306">
        <ele>1256</ele>
        <time>2010-07-14T15:12:53Z</time>
      </trkpt>
      <trkpt lat="44.85268" lon="5.3529">
        <ele>1259</ele>
        <time>2010-07-14T15:13:00Z</time>
      </trkpt>
      <trkpt lat="44.8525" lon="5.35272">
        <ele>1263</ele>
        <time>2010-07-14T15:13:11Z</time>
      </trkpt>
      <trkpt lat="44.85236" lon="5.35245">
        <ele>1266</ele>
        <time>2010-07-14T15:13:19Z</time>
      </trkpt>
      <trkpt lat="44.85226" lon="5.35225">
        <ele>1268</ele>
        <time>2010-07-14T15:13:27Z</time>
      </trkpt>
      <trkpt lat="44.85218" lon="5.3521">
        <ele>1269</ele>
        <time>2010-07-14T15:13:34Z</time>
      </trkpt>
      <trkpt lat="44.85208" lon="5.35193">
        <ele>1273</ele>
        <time>2010-07-14T15:13:42Z</time>
      </trkpt>
      <trkpt lat="44.85196" lon="5.35176">
        <ele>1276</ele>
        <time>2010-07-14T15:13:54Z</time>
      </trkpt>
      <trkpt lat="44.85182" lon="5.3515">
        <ele>1276</ele>
        <time>2010-07-14T15:14:02Z</time>
      </trkpt>
      <trkpt lat="44.85172" lon="5.35133">
        <ele>1274</ele>
        <time>2010-07-14T15:14:09Z</time>
      </trkpt>
      <trkpt lat="44.85155" lon="5.35118">
        <ele>1268</ele>
        <time>2010-07-14T15:14:17Z</time>
      </trkpt>
      <trkpt lat="44.8514" lon="5.35103">
        <ele>1265</ele>
        <time>2010-07-14T15:14:28Z</time>
      </trkpt>
      <trkpt lat="44.85124" lon="5.35093">
        <ele>1265</ele>
        <time>2010-07-14T15:14:35Z</time>
      </trkpt>
      <trkpt lat="44.85104" lon="5.35083">
        <ele>1265</ele>
        <time>2010-07-14T15:14:43Z</time>
      </trkpt>
      <trkpt lat="44.85093" lon="5.35074">
        <ele>1265</ele>
        <time>2010-07-14T15:14:50Z</time>
      </trkpt>
      <trkpt lat="44.85086" lon="5.35068">
        <ele>1267</ele>
        <time>2010-07-14T15:14:57Z</time>
      </trkpt>
      <trkpt lat="44.85065" lon="5.35044">
        <ele>1271</ele>
        <time>2010-07-14T15:15:05Z</time>
      </trkpt>
      <trkpt lat="44.85047" lon="5.35031">
        <ele>1276</ele>
        <time>2010-07-14T15:15:13Z</time>
      </trkpt>
      <trkpt lat="44.85036" lon="5.35015">
        <ele>1284</ele>
        <time>2010-07-14T15:15:20Z</time>
      </trkpt>
      <trkpt lat="44.85024" lon="5.35">
        <ele>1288</ele>
        <time>2010-07-14T15:15:27Z</time>
      </trkpt>
      <trkpt lat="44.85014" lon="5.34986">
        <ele>1292</ele>
        <time>2010-07-14T15:15:34Z</time>
      </trkpt>
      <trkpt lat="44.85004" lon="5.34971">
        <ele>1293</ele>
        <time>2010-07-14T15:15:41Z</time>
      </trkpt>
      <trkpt lat="44.8499" lon="5.3496">
        <ele>1293</ele>
        <time>2010-07-14T15:15:49Z</time>
      </trkpt>
      <trkpt lat="44.84965" lon="5.3494">
        <ele>1293</ele>
        <time>2010-07-14T15:16:00Z</time>
      </trkpt>
      <trkpt lat="44.84949" lon="5.34931">
        <ele>1294</ele>
        <time>2010-07-14T15:16:07Z</time>
      </trkpt>
      <trkpt lat="44.84937" lon="5.34921">
        <ele>1293</ele>
        <time>2010-07-14T15:16:15Z</time>
      </trkpt>
      <trkpt lat="44.84916" lon="5.34903">
        <ele>1293</ele>
        <time>2010-07-14T15:16:23Z</time>
      </trkpt>
      <trkpt lat="44.84902" lon="5.34893">
        <ele>1295</ele>
        <time>2010-07-14T15:16:30Z</time>
      </trkpt>
      <trkpt lat="44.84887" lon="5.34886">
        <ele>1302</ele>
        <time>2010-07-14T15:16:37Z</time>
      </trkpt>
      <trkpt lat="44.84869" lon="5.34881">
        <ele>1310</ele>
        <time>2010-07-14T15:16:48Z</time>
      </trkpt>
      <trkpt lat="44.8485" lon="5.3487">
        <ele>1312</ele>
        <time>2010-07-14T15:16:56Z</time>
      </trkpt>
      <trkpt lat="44.84836" lon="5.34861">
        <ele>1314</ele>
        <time>2010-07-14T15:17:04Z</time>
      </trkpt>
      <trkpt lat="44.84827" lon="5.34859">
        <ele>1317</ele>
        <time>2010-07-14T15:17:12Z</time>
      </trkpt>
      <trkpt lat="44.84808" lon="5.34845">
        <ele>1317</ele>
        <time>2010-07-14T15:17:20Z</time>
      </trkpt>
      <trkpt lat="44.84794" lon="5.34829">
        <ele>1316</ele>
        <time>2010-07-14T15:17:27Z</time>
      </trkpt>
      <trkpt lat="44.84782" lon="5.34816">
        <ele>1312</ele>
        <time>2010-07-14T15:17:35Z</time>
      </trkpt>
      <trkpt lat="44.84771" lon="5.34807">
        <ele>1312</ele>
        <time>2010-07-14T15:17:43Z</time>
      </trkpt>
      <trkpt lat="44.8476" lon="5.3479">
        <ele>1318</ele>
        <time>2010-07-14T15:17:50Z</time>
      </trkpt>
      <trkpt lat="44.84748" lon="5.34773">
        <ele>1322</ele>
        <time>2010-07-14T15:18:02Z</time>
      </trkpt>
      <trkpt lat="44.84737" lon="5.34754">
        <ele>1319</ele>
        <time>2010-07-14T15:18:10Z</time>
      </trkpt>
      <trkpt lat="44.84731" lon="5.3474">
        <ele>1313</ele>
        <time>2010-07-14T15:18:17Z</time>
      </trkpt>
      <trkpt lat="44.84725" lon="5.34721">
        <ele>1308</ele>
        <time>2010-07-14T15:18:28Z</time>
      </trkpt>
      <trkpt lat="44.84714" lon="5.34706">
        <ele>1305</ele>
        <time>2010-07-14T15:18:36Z</time>
      </trkpt>
      <trkpt lat="44.84701" lon="5.34688">
        <ele>1304</ele>
        <time>2010-07-14T15:18:44Z</time>
      </trkpt>
      <trkpt lat="44.84695" lon="5.34671">
        <ele>1304</ele>
        <time>2010-07-14T15:18:51Z</time>
      </trkpt>
      <trkpt lat="44.84681" lon="5.34664">
        <ele>1305</ele>
        <time>2010-07-14T15:18:59Z</time>
      </trkpt>
      <trkpt lat="44.84671" lon="5.34656">
        <ele>1309</ele>
        <time>2010-07-14T15:19:07Z</time>
      </trkpt>
      <trkpt lat="44.8466" lon="5.34647">
        <ele>1316</ele>
        <time>2010-07-14T15:19:14Z</time>
      </trkpt>
      <trkpt lat="44.84648" lon="5.3464">
        <ele>1324</ele>
        <time>2010-07-14T15:19:22Z</time>
      </trkpt>
      <trkpt lat="44.84637" lon="5.34633">
        <ele>1336</ele>
        <time>2010-07-14T15:19:29Z</time>
      </trkpt>
      <trkpt lat="44.84622" lon="5.3463">
        <ele>1346</ele>
        <time>2010-07-14T15:19:37Z</time>
      </trkpt>
      <trkpt lat="44.8461" lon="5.34628">
        <ele>1349</ele>
        <time>2010-07-14T15:19:44Z</time>
      </trkpt>
      <trkpt lat="44.84596" lon="5.34622">
        <ele>1350</ele>
        <time>2010-07-14T15:19:52Z</time>
      </trkpt>
      <trkpt lat="44.84584" lon="5.34622">
        <ele>1348</ele>
        <time>2010-07-14T15:19:59Z</time>
      </trkpt>
      <trkpt lat="44.84566" lon="5.34625">
        <ele>1341</ele>
        <time>2010-07-14T15:20:07Z</time>
      </trkpt>
      <trkpt lat="44.84556" lon="5.34619">
        <ele>1340</ele>
        <time>2010-07-14T15:20:14Z</time>
      </trkpt>
      <trkpt lat="44.84542" lon="5.34614">
        <ele>1339</ele>
        <time>2010-07-14T15:20:22Z</time>
      </trkpt>
      <trkpt lat="44.84534" lon="5.34602">
        <ele>1344</ele>
        <time>2010-07-14T15:20:30Z</time>
      </trkpt>
      <trkpt lat="44.84524" lon="5.34597">
        <ele>1349</ele>
        <time>2010-07-14T15:20:37Z</time>
      </trkpt>
      <trkpt lat="44.84513" lon="5.34593">
        <ele>1348</ele>
        <time>2010-07-14T15:20:44Z</time>
      </trkpt>
      <trkpt lat="44.84499" lon="5.3459">
        <ele>1349</ele>
        <time>2010-07-14T15:20:52Z</time>
      </trkpt>
      <trkpt lat="44.84489" lon="5.34583">
        <ele>1350</ele>
        <time>2010-07-14T15:20:59Z</time>
      </trkpt>
      <trkpt lat="44.84478" lon="5.34573">
        <ele>1350</ele>
        <time>2010-07-14T15:21:09Z</time>
      </trkpt>
      <trkpt lat="44.84464" lon="5.34561">
        <ele>1349</ele>
        <time>2010-07-14T15:21:16Z</time>
      </trkpt>
      <trkpt lat="44.84451" lon="5.34547">
        <ele>1349</ele>
        <time>2010-07-14T15:21:24Z</time>
      </trkpt>
      <trkpt lat="44.84445" lon="5.34531">
        <ele>1353</ele>
        <time>2010-07-14T15:21:32Z</time>
      </trkpt>
      <trkpt lat="44.84435" lon="5.34514">
        <ele>1361</ele>
        <time>2010-07-14T15:21:39Z</time>
      </trkpt>
      <trkpt lat="44.84423" lon="5.34503">
        <ele>1367</ele>
        <time>2010-07-14T15:21:47Z</time>
      </trkpt>
      <trkpt lat="44.84404" lon="5.34494">
        <ele>1368</ele>
        <time>2010-07-14T15:21:58Z</time>
      </trkpt>
      <trkpt lat="44.84382" lon="5.34502">
        <ele>1361</ele>
        <time>2010-07-14T15:22:06Z</time>
      </trkpt>
      <trkpt lat="44.84364" lon="5.34507">
        <ele>1350</ele>
        <time>2010-07-14T15:22:18Z</time>
      </trkpt>
      <trkpt lat="44.84349" lon="5.34506">
        <ele>1345</ele>
        <time>2010-07-14T15:22:26Z</time>
      </trkpt>
      <trkpt lat="44.84336" lon="5.3451">
        <ele>1345</ele>
        <time>2010-07-14T15:22:33Z</time>
      </trkpt>
      <trkpt lat="44.84327" lon="5.34509">
        <ele>1347</ele>
        <time>2010-07-14T15:22:40Z</time>
      </trkpt>
      <trkpt lat="44.84311" lon="5.34513">
        <ele>1356</ele>
        <time>2010-07-14T15:22:52Z</time>
      </trkpt>
      <trkpt lat="44.8429" lon="5.34517">
        <ele>1362</ele>
        <time>2010-07-14T15:23:00Z</time>
      </trkpt>
      <trkpt lat="44.84279" lon="5.34514">
        <ele>1362</ele>
        <time>2010-07-14T15:23:07Z</time>
      </trkpt>
      <trkpt lat="44.84272" lon="5.34508">
        <ele>1362</ele>
        <time>2010-07-14T15:23:15Z</time>
      </trkpt>
      <trkpt lat="44.8425" lon="5.34497">
        <ele>1364</ele>
        <time>2010-07-14T15:23:23Z</time>
      </trkpt>
      <trkpt lat="44.84242" lon="5.34489">
        <ele>1371</ele>
        <time>2010-07-14T15:23:30Z</time>
      </trkpt>
      <trkpt lat="44.84229" lon="5.34476">
        <ele>1375</ele>
        <time>2010-07-14T15:23:39Z</time>
      </trkpt>
      <trkpt lat="44.84213" lon="5.34469">
        <ele>1372</ele>
        <time>2010-07-14T15:23:47Z</time>
      </trkpt>
      <trkpt lat="44.84202" lon="5.34456">
        <ele>1371</ele>
        <time>2010-07-14T15:23:56Z</time>
      </trkpt>
      <trkpt lat="44.84194" lon="5.34448">
        <ele>1370</ele>
        <time>2010-07-14T15:24:03Z</time>
      </trkpt>
      <trkpt lat="44.84187" lon="5.34439">
        <ele>1370</ele>
        <time>2010-07-14T15:24:12Z</time>
      </trkpt>
      <trkpt lat="44.84173" lon="5.34429">
        <ele>1370</ele>
        <time>2010-07-14T15:24:20Z</time>
      </trkpt>
      <trkpt lat="44.84164" lon="5.34419">
        <ele>1369</ele>
        <time>2010-07-14T15:24:28Z</time>
      </trkpt>
      <trkpt lat="44.84148" lon="5.34413">
        <ele>1369</ele>
        <time>2010-07-14T15:24:36Z</time>
      </trkpt>
      <trkpt lat="44.84133" lon="5.34404">
        <ele>1372</ele>
        <time>2010-07-14T15:24:44Z</time>
      </trkpt>
      <trkpt lat="44.84122" lon="5.34397">
        <ele>1374</ele>
        <time>2010-07-14T15:24:51Z</time>
      </trkpt>
      <trkpt lat="44.8411" lon="5.34389">
        <ele>1377</ele>
        <time>2010-07-14T15:24:59Z</time>
      </trkpt>
      <trkpt lat="44.84095" lon="5.34384">
        <ele>1377</ele>
        <time>2010-07-14T15:25:10Z</time>
      </trkpt>
      <trkpt lat="44.84074" lon="5.34378">
        <ele>1376</ele>
        <time>2010-07-14T15:25:19Z</time>
      </trkpt>
      <trkpt lat="44.84064" lon="5.34366">
        <ele>1379</ele>
        <time>2010-07-14T15:25:27Z</time>
      </trkpt>
      <trkpt lat="44.84055" lon="5.34353">
        <ele>1388</ele>
        <time>2010-07-14T15:25:34Z</time>
      </trkpt>
      <trkpt lat="44.84043" lon="5.34339">
        <ele>1399</ele>
        <time>2010-07-14T15:25:46Z</time>
      </trkpt>
      <trkpt lat="44.84029" lon="5.34326">
        <ele>1399</ele>
        <time>2010-07-14T15:25:54Z</time>
      </trkpt>
      <trkpt lat="44.84016" lon="5.34323">
        <ele>1392</ele>
        <time>2010-07-14T15:26:01Z</time>
      </trkpt>
      <trkpt lat="44.84004" lon="5.34333">
        <ele>1386</ele>
        <time>2010-07-14T15:26:09Z</time>
      </trkpt>
      <trkpt lat="44.84003" lon="5.34342">
        <ele>1380</ele>
        <time>2010-07-14T15:26:17Z</time>
      </trkpt>
      <trkpt lat="44.84014" lon="5.34363">
        <ele>1378</ele>
        <time>2010-07-14T15:26:24Z</time>
      </trkpt>
      <trkpt lat="44.84027" lon="5.34379">
        <ele>1379</ele>
        <time>2010-07-14T15:26:31Z</time>
      </trkpt>
      <trkpt lat="44.8405" lon="5.34411">
        <ele>1383</ele>
        <time>2010-07-14T15:26:39Z</time>
      </trkpt>
      <trkpt lat="44.84065" lon="5.34433">
        <ele>1385</ele>
        <time>2010-07-14T15:26:46Z</time>
      </trkpt>
      <trkpt lat="44.84086" lon="5.34463">
        <ele>1386</ele>
        <time>2010-07-14T15:26:54Z</time>
      </trkpt>
      <trkpt lat="44.84109" lon="5.34499">
        <ele>1385</ele>
        <time>2010-07-14T15:27:05Z</time>
      </trkpt>
      <trkpt lat="44.84137" lon="5.3453">
        <ele>1381</ele>
        <time>2010-07-14T15:27:13Z</time>
      </trkpt>
      <trkpt lat="44.84156" lon="5.34551">
        <ele>1383</ele>
        <time>2010-07-14T15:27:20Z</time>
      </trkpt>
      <trkpt lat="44.84169" lon="5.34568">
        <ele>1384</ele>
        <time>2010-07-14T15:27:27Z</time>
      </trkpt>
      <trkpt lat="44.84192" lon="5.34596">
        <ele>1383</ele>
        <time>2010-07-14T15:27:36Z</time>
      </trkpt>
      <trkpt lat="44.84212" lon="5.34622">
        <ele>1380</ele>
        <time>2010-07-14T15:27:43Z</time>
      </trkpt>
      <trkpt lat="44.84232" lon="5.34652">
        <ele>1377</ele>
        <time>2010-07-14T15:27:50Z</time>
      </trkpt>
      <trkpt lat="44.84236" lon="5.34673">
        <ele>1373</ele>
        <time>2010-07-14T15:27:57Z</time>
      </trkpt>
      <trkpt lat="44.84205" lon="5.3469">
        <ele>1369</ele>
        <time>2010-07-14T15:28:05Z</time>
      </trkpt>
      <trkpt lat="44.8416" lon="5.347">
        <ele>1365</ele>
        <time>2010-07-14T15:28:13Z</time>
      </trkpt>
      <trkpt lat="44.84123" lon="5.34709">
        <ele>1365</ele>
        <time>2010-07-14T15:28:20Z</time>
      </trkpt>
      <trkpt lat="44.84069" lon="5.34718">
        <ele>1365</ele>
        <time>2010-07-14T15:28:31Z</time>
      </trkpt>
      <trkpt lat="44.84025" lon="5.3478">
        <ele>1365</ele>
        <time>2010-07-14T15:28:39Z</time>
      </trkpt>
      <trkpt lat="44.84023" lon="5.34864">
        <ele>1365</ele>
        <time>2010-07-14T15:28:47Z</time>
      </trkpt>
      <trkpt lat="44.84054" lon="5.34948">
        <ele>1364</ele>
        <time>2010-07-14T15:28:54Z</time>
      </trkpt>
      <trkpt lat="44.84086" lon="5.35057">
        <ele>1361</ele>
        <time>2010-07-14T15:29:02Z</time>
      </trkpt>
      <trkpt lat="44.84087" lon="5.35133">
        <ele>1361</ele>
        <time>2010-07-14T15:29:09Z</time>
      </trkpt>
      <trkpt lat="44.84094" lon="5.35173">
        <ele>1361</ele>
        <time>2010-07-14T15:29:16Z</time>
      </trkpt>
      <trkpt lat="44.84066" lon="5.35229">
        <ele>1357</ele>
        <time>2010-07-14T15:29:25Z</time>
      </trkpt>
      <trkpt lat="44.84013" lon="5.3526">
        <ele>1352</ele>
        <time>2010-07-14T15:29:33Z</time>
      </trkpt>
      <trkpt lat="44.83971" lon="5.35272">
        <ele>1349</ele>
        <time>2010-07-14T15:29:40Z</time>
      </trkpt>
      <trkpt lat="44.83928" lon="5.35277">
        <ele>1345</ele>
        <time>2010-07-14T15:29:47Z</time>
      </trkpt>
      <trkpt lat="44.83882" lon="5.35269">
        <ele>1342</ele>
        <time>2010-07-14T15:29:54Z</time>
      </trkpt>
      <trkpt lat="44.8381" lon="5.35243">
        <ele>1341</ele>
        <time>2010-07-14T15:30:06Z</time>
      </trkpt>
      <trkpt lat="44.8377" lon="5.35201">
        <ele>1342</ele>
        <time>2010-07-14T15:30:14Z</time>
      </trkpt>
      <trkpt lat="44.83745" lon="5.35136">
        <ele>1345</ele>
        <time>2010-07-14T15:30:22Z</time>
      </trkpt>
      <trkpt lat="44.83723" lon="5.35084">
        <ele>1345</ele>
        <time>2010-07-14T15:30:29Z</time>
      </trkpt>
      <trkpt lat="44.8369" lon="5.35013">
        <ele>1345</ele>
        <time>2010-07-14T15:30:40Z</time>
      </trkpt>
      <trkpt lat="44.83659" lon="5.34971">
        <ele>1345</ele>
        <time>2010-07-14T15:30:47Z</time>
      </trkpt>
      <trkpt lat="44.83643" lon="5.34955">
        <ele>1345</ele>
        <time>2010-07-14T15:30:56Z</time>
      </trkpt>
      <trkpt lat="44.83644" lon="5.34951">
        <ele>1352</ele>
        <time>2010-07-14T15:31:08Z</time>
      </trkpt>
      <trkpt lat="44.83642" lon="5.34951">
        <ele>1352</ele>
        <time>2010-07-14T15:31:17Z</time>
      </trkpt>
      <trkpt lat="44.83631" lon="5.34966">
        <ele>1356</ele>
        <time>2010-07-14T15:31:24Z</time>
      </trkpt>
      <trkpt lat="44.8362" lon="5.34978">
        <ele>1351</ele>
        <time>2010-07-14T15:31:32Z</time>
      </trkpt>
      <trkpt lat="44.83626" lon="5.34979">
        <ele>1343</ele>
        <time>2010-07-14T15:31:40Z</time>
      </trkpt>
      <trkpt lat="44.83625" lon="5.34977">
        <ele>1342</ele>
        <time>2010-07-14T15:31:47Z</time>
      </trkpt>
      <trkpt lat="44.83622" lon="5.34972">
        <ele>1339</ele>
        <time>2010-07-14T15:31:54Z</time>
      </trkpt>
      <trkpt lat="44.83621" lon="5.34967">
        <ele>1337</ele>
        <time>2010-07-14T15:32:02Z</time>
      </trkpt>
      <trkpt lat="44.8362" lon="5.34965">
        <ele>1337</ele>
        <time>2010-07-14T15:32:09Z</time>
      </trkpt>
      <trkpt lat="44.8362" lon="5.34962">
        <ele>1343</ele>
        <time>2010-07-14T15:32:18Z</time>
      </trkpt>
      <trkpt lat="44.8362" lon="5.34957">
        <ele>1357</ele>
        <time>2010-07-14T15:32:32Z</time>
      </trkpt>
      <trkpt lat="44.83621" lon="5.34959">
        <ele>1362</ele>
        <time>2010-07-14T15:32:53Z</time>
      </trkpt>
      <trkpt lat="44.83621" lon="5.3496">
        <ele>1363</ele>
        <time>2010-07-14T15:33:10Z</time>
      </trkpt>
      <trkpt lat="44.83621" lon="5.34962">
        <ele>1363</ele>
        <time>2010-07-14T15:33:22Z</time>
      </trkpt>
      <trkpt lat="44.8362" lon="5.34964">
        <ele>1362</ele>
        <time>2010-07-14T15:33:29Z</time>
      </trkpt>
      <trkpt lat="44.83619" lon="5.34967">
        <ele>1340</ele>
        <time>2010-07-14T15:33:44Z</time>
      </trkpt>
      <trkpt lat="44.8362" lon="5.34964">
        <ele>1345</ele>
        <time>2010-07-14T15:33:56Z</time>
      </trkpt>
      <trkpt lat="44.83622" lon="5.34968">
        <ele>1352</ele>
        <time>2010-07-14T15:34:03Z</time>
      </trkpt>
      <trkpt lat="44.83623" lon="5.34971">
        <ele>1359</ele>
        <time>2010-07-14T15:34:10Z</time>
      </trkpt>
      <trkpt lat="44.83624" lon="5.34974">
        <ele>1358</ele>
        <time>2010-07-14T15:34:22Z</time>
      </trkpt>
      <trkpt lat="44.83624" lon="5.34975">
        <ele>1353</ele>
        <time>2010-07-14T15:34:30Z</time>
      </trkpt>
      <trkpt lat="44.83624" lon="5.34978">
        <ele>1340</ele>
        <time>2010-07-14T15:34:43Z</time>
      </trkpt>
      <trkpt lat="44.83622" lon="5.34977">
        <ele>1332</ele>
        <time>2010-07-14T15:34:52Z</time>
      </trkpt>
      <trkpt lat="44.83622" lon="5.34975">
        <ele>1327</ele>
        <time>2010-07-14T15:35:26Z</time>
      </trkpt>
      <trkpt lat="44.83624" lon="5.34971">
        <ele>1334</ele>
        <time>2010-07-14T15:35:35Z</time>
      </trkpt>
      <trkpt lat="44.83625" lon="5.34968">
        <ele>1345</ele>
        <time>2010-07-14T15:35:42Z</time>
      </trkpt>
      <trkpt lat="44.83626" lon="5.34969">
        <ele>1353</ele>
        <time>2010-07-14T15:35:49Z</time>
      </trkpt>
      <trkpt lat="44.83627" lon="5.34974">
        <ele>1357</ele>
        <time>2010-07-14T15:35:59Z</time>
      </trkpt>
      <trkpt lat="44.83628" lon="5.34985">
        <ele>1358</ele>
        <time>2010-07-14T15:36:07Z</time>
      </trkpt>
      <trkpt lat="44.83633" lon="5.35043">
        <ele>1358</ele>
        <time>2010-07-14T15:36:15Z</time>
      </trkpt>
      <trkpt lat="44.83634" lon="5.3508">
        <ele>1358</ele>
        <time>2010-07-14T15:36:22Z</time>
      </trkpt>
      <trkpt lat="44.83633" lon="5.35107">
        <ele>1359</ele>
        <time>2010-07-14T15:36:29Z</time>
      </trkpt>
      <trkpt lat="44.83637" lon="5.35164">
        <ele>1359</ele>
        <time>2010-07-14T15:36:41Z</time>
      </trkpt>
      <trkpt lat="44.83638" lon="5.35195">
        <ele>1352</ele>
        <time>2010-07-14T15:36:57Z</time>
      </trkpt>
      <trkpt lat="44.83639" lon="5.35202">
        <ele>1349</ele>
        <time>2010-07-14T15:37:05Z</time>
      </trkpt>
      <trkpt lat="44.83636" lon="5.35203">
        <ele>1348</ele>
        <time>2010-07-14T15:37:12Z</time>
      </trkpt>
      <trkpt lat="44.83643" lon="5.35266">
        <ele>1346</ele>
        <time>2010-07-14T15:37:25Z</time>
      </trkpt>
      <trkpt lat="44.83644" lon="5.35332">
        <ele>1346</ele>
        <time>2010-07-14T15:37:32Z</time>
      </trkpt>
      <trkpt lat="44.83637" lon="5.35415">
        <ele>1345</ele>
        <time>2010-07-14T15:37:39Z</time>
      </trkpt>
      <trkpt lat="44.836" lon="5.35504">
        <ele>1336</ele>
        <time>2010-07-14T15:37:47Z</time>
      </trkpt>
      <trkpt lat="44.8355" lon="5.35572">
        <ele>1324</ele>
        <time>2010-07-14T15:37:54Z</time>
      </trkpt>
      <trkpt lat="44.83488" lon="5.35675">
        <ele>1312</ele>
        <time>2010-07-14T15:38:06Z</time>
      </trkpt>
      <trkpt lat="44.83436" lon="5.35776">
        <ele>1299</ele>
        <time>2010-07-14T15:38:14Z</time>
      </trkpt>
      <trkpt lat="44.83406" lon="5.35837">
        <ele>1291</ele>
        <time>2010-07-14T15:38:22Z</time>
      </trkpt>
      <trkpt lat="44.8341" lon="5.3588">
        <ele>1289</ele>
        <time>2010-07-14T15:38:30Z</time>
      </trkpt>
      <trkpt lat="44.83428" lon="5.35896">
        <ele>1291</ele>
        <time>2010-07-14T15:38:37Z</time>
      </trkpt>
      <trkpt lat="44.8343" lon="5.359">
        <ele>1293</ele>
        <time>2010-07-14T15:38:44Z</time>
      </trkpt>
      <trkpt lat="44.83427" lon="5.35901">
        <ele>1293</ele>
        <time>2010-07-14T15:38:52Z</time>
      </trkpt>
      <trkpt lat="44.8343" lon="5.359">
        <ele>1293</ele>
        <time>2010-07-14T15:38:59Z</time>
      </trkpt>
      <trkpt lat="44.83429" lon="5.35892">
        <ele>1293</ele>
        <time>2010-07-14T15:39:07Z</time>
      </trkpt>
      <trkpt lat="44.83429" lon="5.35889">
        <ele>1294</ele>
        <time>2010-07-14T15:39:14Z</time>
      </trkpt>
      <trkpt lat="44.83425" lon="5.35882">
        <ele>1296</ele>
        <time>2010-07-14T15:39:22Z</time>
      </trkpt>
      <trkpt lat="44.83413" lon="5.35878">
        <ele>1300</ele>
        <time>2010-07-14T15:39:30Z</time>
      </trkpt>
      <trkpt lat="44.83416" lon="5.3588">
        <ele>1303</ele>
        <time>2010-07-14T15:39:38Z</time>
      </trkpt>
      <trkpt lat="44.83414" lon="5.35889">
        <ele>1301</ele>
        <time>2010-07-14T15:39:46Z</time>
      </trkpt>
      <trkpt lat="44.83416" lon="5.35896">
        <ele>1300</ele>
        <time>2010-07-14T15:39:54Z</time>
      </trkpt>
      <trkpt lat="44.83411" lon="5.35891">
        <ele>1300</ele>
        <time>2010-07-14T15:40:03Z</time>
      </trkpt>
      <trkpt lat="44.83406" lon="5.35872">
        <ele>1300</ele>
        <time>2010-07-14T15:40:11Z</time>
      </trkpt>
      <trkpt lat="44.8341" lon="5.35854">
        <ele>1298</ele>
        <time>2010-07-14T15:40:20Z</time>
      </trkpt>
      <trkpt lat="44.83406" lon="5.35831">
        <ele>1297</ele>
        <time>2010-07-14T15:40:27Z</time>
      </trkpt>
      <trkpt lat="44.83416" lon="5.35805">
        <ele>1297</ele>
        <time>2010-07-14T15:40:34Z</time>
      </trkpt>
      <trkpt lat="44.8343" lon="5.35783">
        <ele>1299</ele>
        <time>2010-07-14T15:40:42Z</time>
      </trkpt>
      <trkpt lat="44.83444" lon="5.35768">
        <ele>1301</ele>
        <time>2010-07-14T15:40:49Z</time>
      </trkpt>
      <trkpt lat="44.83456" lon="5.35752">
        <ele>1304</ele>
        <time>2010-07-14T15:40:56Z</time>
      </trkpt>
      <trkpt lat="44.8347" lon="5.35736">
        <ele>1304</ele>
        <time>2010-07-14T15:41:08Z</time>
      </trkpt>
      <trkpt lat="44.83482" lon="5.35708">
        <ele>1304</ele>
        <time>2010-07-14T15:41:16Z</time>
      </trkpt>
      <trkpt lat="44.8349" lon="5.35678">
        <ele>1304</ele>
        <time>2010-07-14T15:41:23Z</time>
      </trkpt>
      <trkpt lat="44.83496" lon="5.35655">
        <ele>1304</ele>
        <time>2010-07-14T15:41:30Z</time>
      </trkpt>
      <trkpt lat="44.83503" lon="5.35635">
        <ele>1300</ele>
        <time>2010-07-14T15:41:37Z</time>
      </trkpt>
      <trkpt lat="44.83514" lon="5.35617">
        <ele>1298</ele>
        <time>2010-07-14T15:41:44Z</time>
      </trkpt>
      <trkpt lat="44.83525" lon="5.356">
        <ele>1298</ele>
        <time>2010-07-14T15:41:51Z</time>
      </trkpt>
      <trkpt lat="44.83537" lon="5.35584">
        <ele>1298</ele>
        <time>2010-07-14T15:42:02Z</time>
      </trkpt>
      <trkpt lat="44.83554" lon="5.35563">
        <ele>1300</ele>
        <time>2010-07-14T15:42:10Z</time>
      </trkpt>
      <trkpt lat="44.83565" lon="5.35548">
        <ele>1303</ele>
        <time>2010-07-14T15:42:17Z</time>
      </trkpt>
      <trkpt lat="44.83576" lon="5.35533">
        <ele>1305</ele>
        <time>2010-07-14T15:42:24Z</time>
      </trkpt>
      <trkpt lat="44.8359" lon="5.35524">
        <ele>1307</ele>
        <time>2010-07-14T15:42:31Z</time>
      </trkpt>
      <trkpt lat="44.83606" lon="5.35507">
        <ele>1311</ele>
        <time>2010-07-14T15:42:43Z</time>
      </trkpt>
      <trkpt lat="44.8362" lon="5.35484">
        <ele>1316</ele>
        <time>2010-07-14T15:42:51Z</time>
      </trkpt>
      <trkpt lat="44.83629" lon="5.35469">
        <ele>1317</ele>
        <time>2010-07-14T15:42:59Z</time>
      </trkpt>
      <trkpt lat="44.83632" lon="5.3546">
        <ele>1317</ele>
        <time>2010-07-14T15:43:06Z</time>
      </trkpt>
      <trkpt lat="44.83637" lon="5.35432">
        <ele>1315</ele>
        <time>2010-07-14T15:43:14Z</time>
      </trkpt>
      <trkpt lat="44.83639" lon="5.3541">
        <ele>1311</ele>
        <time>2010-07-14T15:43:22Z</time>
      </trkpt>
      <trkpt lat="44.83642" lon="5.35374">
        <ele>1309</ele>
        <time>2010-07-14T15:43:34Z</time>
      </trkpt>
      <trkpt lat="44.83644" lon="5.35355">
        <ele>1309</ele>
        <time>2010-07-14T15:43:41Z</time>
      </trkpt>
      <trkpt lat="44.83641" lon="5.35336">
        <ele>1309</ele>
        <time>2010-07-14T15:43:49Z</time>
      </trkpt>
      <trkpt lat="44.83641" lon="5.35317">
        <ele>1307</ele>
        <time>2010-07-14T15:43:56Z</time>
      </trkpt>
      <trkpt lat="44.83641" lon="5.35297">
        <ele>1304</ele>
        <time>2010-07-14T15:44:04Z</time>
      </trkpt>
      <trkpt lat="44.83641" lon="5.35277">
        <ele>1304</ele>
        <time>2010-07-14T15:44:13Z</time>
      </trkpt>
      <trkpt lat="44.83641" lon="5.35246">
        <ele>1304</ele>
        <time>2010-07-14T15:44:21Z</time>
      </trkpt>
      <trkpt lat="44.83642" lon="5.35223">
        <ele>1305</ele>
        <time>2010-07-14T15:44:29Z</time>
      </trkpt>
      <trkpt lat="44.83641" lon="5.35212">
        <ele>1310</ele>
        <time>2010-07-14T15:44:39Z</time>
      </trkpt>
      <trkpt lat="44.83643" lon="5.35209">
        <ele>1315</ele>
        <time>2010-07-14T15:44:53Z</time>
      </trkpt>
      <trkpt lat="44.83637" lon="5.3521">
        <ele>1319</ele>
        <time>2010-07-14T15:45:01Z</time>
      </trkpt>
      <trkpt lat="44.83635" lon="5.35204">
        <ele>1324</ele>
        <time>2010-07-14T15:45:09Z</time>
      </trkpt>
      <trkpt lat="44.83637" lon="5.35207">
        <ele>1326</ele>
        <time>2010-07-14T15:45:18Z</time>
      </trkpt>
      <trkpt lat="44.8364" lon="5.35206">
        <ele>1320</ele>
        <time>2010-07-14T15:45:26Z</time>
      </trkpt>
      <trkpt lat="44.83643" lon="5.35209">
        <ele>1317</ele>
        <time>2010-07-14T15:45:34Z</time>
      </trkpt>
      <trkpt lat="44.83642" lon="5.35209">
        <ele>1316</ele>
        <time>2010-07-14T15:45:42Z</time>
      </trkpt>
      <trkpt lat="44.83639" lon="5.35213">
        <ele>1316</ele>
        <time>2010-07-14T15:45:49Z</time>
      </trkpt>
      <trkpt lat="44.83636" lon="5.35216">
        <ele>1319</ele>
        <time>2010-07-14T15:45:57Z</time>
      </trkpt>
      <trkpt lat="44.83636" lon="5.35217">
        <ele>1325</ele>
        <time>2010-07-14T15:46:06Z</time>
      </trkpt>
      <trkpt lat="44.83643" lon="5.35208">
        <ele>1328</ele>
        <time>2010-07-14T15:46:14Z</time>
      </trkpt>
      <trkpt lat="44.8364" lon="5.35181">
        <ele>1323</ele>
        <time>2010-07-14T15:46:22Z</time>
      </trkpt>
      <trkpt lat="44.83639" lon="5.35161">
        <ele>1319</ele>
        <time>2010-07-14T15:46:29Z</time>
      </trkpt>
      <trkpt lat="44.83633" lon="5.35139">
        <ele>1315</ele>
        <time>2010-07-14T15:46:38Z</time>
      </trkpt>
      <trkpt lat="44.83636" lon="5.35123">
        <ele>1313</ele>
        <time>2010-07-14T15:46:45Z</time>
      </trkpt>
      <trkpt lat="44.83637" lon="5.35108">
        <ele>1314</ele>
        <time>2010-07-14T15:46:52Z</time>
      </trkpt>
      <trkpt lat="44.83637" lon="5.35097">
        <ele>1317</ele>
        <time>2010-07-14T15:47:00Z</time>
      </trkpt>
      <trkpt lat="44.83635" lon="5.35065">
        <ele>1318</ele>
        <time>2010-07-14T15:47:07Z</time>
      </trkpt>
      <trkpt lat="44.83633" lon="5.35038">
        <ele>1318</ele>
        <time>2010-07-14T15:47:15Z</time>
      </trkpt>
      <trkpt lat="44.83625" lon="5.35014">
        <ele>1318</ele>
        <time>2010-07-14T15:47:23Z</time>
      </trkpt>
      <trkpt lat="44.83624" lon="5.35004">
        <ele>1318</ele>
        <time>2010-07-14T15:47:30Z</time>
      </trkpt>
      <trkpt lat="44.83631" lon="5.34977">
        <ele>1318</ele>
        <time>2010-07-14T15:47:39Z</time>
      </trkpt>
      <trkpt lat="44.83635" lon="5.34969">
        <ele>1319</ele>
        <time>2010-07-14T15:47:46Z</time>
      </trkpt>
      <trkpt lat="44.83639" lon="5.34947">
        <ele>1321</ele>
        <time>2010-07-14T15:47:54Z</time>
      </trkpt>
      <trkpt lat="44.83638" lon="5.34922">
        <ele>1324</ele>
        <time>2010-07-14T15:48:01Z</time>
      </trkpt>
      <trkpt lat="44.83635" lon="5.34896">
        <ele>1328</ele>
        <time>2010-07-14T15:48:09Z</time>
      </trkpt>
      <trkpt lat="44.83635" lon="5.34871">
        <ele>1333</ele>
        <time>2010-07-14T15:48:21Z</time>
      </trkpt>
      <trkpt lat="44.8363" lon="5.34856">
        <ele>1339</ele>
        <time>2010-07-14T15:48:29Z</time>
      </trkpt>
      <trkpt lat="44.83619" lon="5.34839">
        <ele>1344</ele>
        <time>2010-07-14T15:48:37Z</time>
      </trkpt>
      <trkpt lat="44.83611" lon="5.34816">
        <ele>1347</ele>
        <time>2010-07-14T15:48:45Z</time>
      </trkpt>
      <trkpt lat="44.83601" lon="5.34799">
        <ele>1347</ele>
        <time>2010-07-14T15:48:52Z</time>
      </trkpt>
      <trkpt lat="44.8359" lon="5.34783">
        <ele>1348</ele>
        <time>2010-07-14T15:49:00Z</time>
      </trkpt>
      <trkpt lat="44.83581" lon="5.34766">
        <ele>1350</ele>
        <time>2010-07-14T15:49:13Z</time>
      </trkpt>
      <trkpt lat="44.8357" lon="5.34749">
        <ele>1354</ele>
        <time>2010-07-14T15:49:21Z</time>
      </trkpt>
      <trkpt lat="44.83558" lon="5.34731">
        <ele>1358</ele>
        <time>2010-07-14T15:49:29Z</time>
      </trkpt>
      <trkpt lat="44.83546" lon="5.3472">
        <ele>1360</ele>
        <time>2010-07-14T15:49:36Z</time>
      </trkpt>
      <trkpt lat="44.83537" lon="5.34712">
        <ele>1360</ele>
        <time>2010-07-14T15:49:43Z</time>
      </trkpt>
      <trkpt lat="44.83527" lon="5.34704">
        <ele>1360</ele>
        <time>2010-07-14T15:49:50Z</time>
      </trkpt>
      <trkpt lat="44.83522" lon="5.34696">
        <ele>1357</ele>
        <time>2010-07-14T15:49:58Z</time>
      </trkpt>
      <trkpt lat="44.83509" lon="5.34682">
        <ele>1357</ele>
        <time>2010-07-14T15:50:11Z</time>
      </trkpt>
      <trkpt lat="44.83499" lon="5.34666">
        <ele>1357</ele>
        <time>2010-07-14T15:50:19Z</time>
      </trkpt>
      <trkpt lat="44.83494" lon="5.34658">
        <ele>1357</ele>
        <time>2010-07-14T15:50:26Z</time>
      </trkpt>
      <trkpt lat="44.83485" lon="5.3464">
        <ele>1357</ele>
        <time>2010-07-14T15:50:34Z</time>
      </trkpt>
      <trkpt lat="44.83479" lon="5.34628">
        <ele>1357</ele>
        <time>2010-07-14T15:50:41Z</time>
      </trkpt>
      <trkpt lat="44.83471" lon="5.34615">
        <ele>1357</ele>
        <time>2010-07-14T15:50:49Z</time>
      </trkpt>
      <trkpt lat="44.8346" lon="5.34607">
        <ele>1357</ele>
        <time>2010-07-14T15:50:56Z</time>
      </trkpt>
      <trkpt lat="44.83457" lon="5.346">
        <ele>1359</ele>
        <time>2010-07-14T15:51:03Z</time>
      </trkpt>
      <trkpt lat="44.83456" lon="5.34583">
        <ele>1366</ele>
        <time>2010-07-14T15:51:12Z</time>
      </trkpt>
      <trkpt lat="44.83454" lon="5.34577">
        <ele>1369</ele>
        <time>2010-07-14T15:51:19Z</time>
      </trkpt>
      <trkpt lat="44.8345" lon="5.34575">
        <ele>1375</ele>
        <time>2010-07-14T15:51:34Z</time>
      </trkpt>
      <trkpt lat="44.83446" lon="5.34576">
        <ele>1379</ele>
        <time>2010-07-14T15:51:42Z</time>
      </trkpt>
      <trkpt lat="44.8344" lon="5.34571">
        <ele>1383</ele>
        <time>2010-07-14T15:51:51Z</time>
      </trkpt>
      <trkpt lat="44.83437" lon="5.34569">
        <ele>1383</ele>
        <time>2010-07-14T15:51:59Z</time>
      </trkpt>
      <trkpt lat="44.8344" lon="5.34553">
        <ele>1383</ele>
        <time>2010-07-14T15:52:07Z</time>
      </trkpt>
      <trkpt lat="44.8344" lon="5.34565">
        <ele>1385</ele>
        <time>2010-07-14T15:52:16Z</time>
      </trkpt>
      <trkpt lat="44.83438" lon="5.34569">
        <ele>1388</ele>
        <time>2010-07-14T15:52:24Z</time>
      </trkpt>
      <trkpt lat="44.83434" lon="5.34569">
        <ele>1389</ele>
        <time>2010-07-14T15:52:32Z</time>
      </trkpt>
      <trkpt lat="44.83429" lon="5.34568">
        <ele>1389</ele>
        <time>2010-07-14T15:52:41Z</time>
      </trkpt>
      <trkpt lat="44.83426" lon="5.34569">
        <ele>1387</ele>
        <time>2010-07-14T15:52:49Z</time>
      </trkpt>
      <trkpt lat="44.83424" lon="5.34567">
        <ele>1385</ele>
        <time>2010-07-14T15:52:57Z</time>
      </trkpt>
      <trkpt lat="44.83416" lon="5.34567">
        <ele>1385</ele>
        <time>2010-07-14T15:53:05Z</time>
      </trkpt>
      <trkpt lat="44.83414" lon="5.34569">
        <ele>1385</ele>
        <time>2010-07-14T15:53:15Z</time>
      </trkpt>
      <trkpt lat="44.8341" lon="5.34565">
        <ele>1385</ele>
        <time>2010-07-14T15:53:24Z</time>
      </trkpt>
      <trkpt lat="44.83405" lon="5.34559">
        <ele>1387</ele>
        <time>2010-07-14T15:53:32Z</time>
      </trkpt>
      <trkpt lat="44.83401" lon="5.3456">
        <ele>1387</ele>
        <time>2010-07-14T15:53:40Z</time>
      </trkpt>
      <trkpt lat="44.83399" lon="5.34563">
        <ele>1392</ele>
        <time>2010-07-14T15:53:53Z</time>
      </trkpt>
      <trkpt lat="44.83396" lon="5.3456">
        <ele>1398</ele>
        <time>2010-07-14T15:54:01Z</time>
      </trkpt>
      <trkpt lat="44.83394" lon="5.34563">
        <ele>1398</ele>
        <time>2010-07-14T15:54:09Z</time>
      </trkpt>
      <trkpt lat="44.83389" lon="5.34563">
        <ele>1394</ele>
        <time>2010-07-14T15:54:18Z</time>
      </trkpt>
      <trkpt lat="44.83385" lon="5.34557">
        <ele>1393</ele>
        <time>2010-07-14T15:54:25Z</time>
      </trkpt>
      <trkpt lat="44.83381" lon="5.34554">
        <ele>1391</ele>
        <time>2010-07-14T15:54:33Z</time>
      </trkpt>
      <trkpt lat="44.83375" lon="5.34553">
        <ele>1389</ele>
        <time>2010-07-14T15:54:40Z</time>
      </trkpt>
      <trkpt lat="44.8337" lon="5.34552">
        <ele>1389</ele>
        <time>2010-07-14T15:54:48Z</time>
      </trkpt>
      <trkpt lat="44.83366" lon="5.34546">
        <ele>1392</ele>
        <time>2010-07-14T15:54:57Z</time>
      </trkpt>
      <trkpt lat="44.83362" lon="5.34541">
        <ele>1399</ele>
        <time>2010-07-14T15:55:05Z</time>
      </trkpt>
      <trkpt lat="44.83358" lon="5.34541">
        <ele>1402</ele>
        <time>2010-07-14T15:55:13Z</time>
      </trkpt>
      <trkpt lat="44.83353" lon="5.34541">
        <ele>1402</ele>
        <time>2010-07-14T15:55:21Z</time>
      </trkpt>
      <trkpt lat="44.83349" lon="5.34543">
        <ele>1402</ele>
        <time>2010-07-14T15:55:29Z</time>
      </trkpt>
      <trkpt lat="44.83342" lon="5.34544">
        <ele>1403</ele>
        <time>2010-07-14T15:55:37Z</time>
      </trkpt>
      <trkpt lat="44.83339" lon="5.34546">
        <ele>1404</ele>
        <time>2010-07-14T15:55:44Z</time>
      </trkpt>
      <trkpt lat="44.83336" lon="5.34546">
        <ele>1405</ele>
        <time>2010-07-14T15:55:54Z</time>
      </trkpt>
      <trkpt lat="44.83334" lon="5.34543">
        <ele>1411</ele>
        <time>2010-07-14T15:56:04Z</time>
      </trkpt>
      <trkpt lat="44.83329" lon="5.34538">
        <ele>1411</ele>
        <time>2010-07-14T15:56:13Z</time>
      </trkpt>
      <trkpt lat="44.83325" lon="5.34535">
        <ele>1407</ele>
        <time>2010-07-14T15:56:21Z</time>
      </trkpt>
      <trkpt lat="44.83323" lon="5.34536">
        <ele>1405</ele>
        <time>2010-07-14T15:56:28Z</time>
      </trkpt>
      <trkpt lat="44.83321" lon="5.34535">
        <ele>1403</ele>
        <time>2010-07-14T15:56:37Z</time>
      </trkpt>
      <trkpt lat="44.83319" lon="5.34535">
        <ele>1403</ele>
        <time>2010-07-14T15:56:45Z</time>
      </trkpt>
      <trkpt lat="44.83314" lon="5.34537">
        <ele>1401</ele>
        <time>2010-07-14T15:56:52Z</time>
      </trkpt>
      <trkpt lat="44.83311" lon="5.34539">
        <ele>1394</ele>
        <time>2010-07-14T15:56:59Z</time>
      </trkpt>
      <trkpt lat="44.8331" lon="5.34535">
        <ele>1395</ele>
        <time>2010-07-14T15:57:07Z</time>
      </trkpt>
      <trkpt lat="44.83305" lon="5.34529">
        <ele>1401</ele>
        <time>2010-07-14T15:57:18Z</time>
      </trkpt>
      <trkpt lat="44.833" lon="5.34527">
        <ele>1404</ele>
        <time>2010-07-14T15:57:26Z</time>
      </trkpt>
      <trkpt lat="44.83297" lon="5.34524">
        <ele>1404</ele>
        <time>2010-07-14T15:57:33Z</time>
      </trkpt>
      <trkpt lat="44.83295" lon="5.34522">
        <ele>1405</ele>
        <time>2010-07-14T15:57:44Z</time>
      </trkpt>
      <trkpt lat="44.83293" lon="5.34519">
        <ele>1405</ele>
        <time>2010-07-14T15:57:52Z</time>
      </trkpt>
      <trkpt lat="44.83291" lon="5.34511">
        <ele>1408</ele>
        <time>2010-07-14T15:58:01Z</time>
      </trkpt>
      <trkpt lat="44.83288" lon="5.34505">
        <ele>1411</ele>
        <time>2010-07-14T15:58:09Z</time>
      </trkpt>
      <trkpt lat="44.83287" lon="5.34502">
        <ele>1415</ele>
        <time>2010-07-14T15:58:17Z</time>
      </trkpt>
      <trkpt lat="44.83285" lon="5.34497">
        <ele>1417</ele>
        <time>2010-07-14T15:58:25Z</time>
      </trkpt>
      <trkpt lat="44.83279" lon="5.34493">
        <ele>1417</ele>
        <time>2010-07-14T15:58:33Z</time>
      </trkpt>
      <trkpt lat="44.83276" lon="5.34487">
        <ele>1417</ele>
        <time>2010-07-14T15:58:42Z</time>
      </trkpt>
      <trkpt lat="44.83276" lon="5.34485">
        <ele>1417</ele>
        <time>2010-07-14T15:58:50Z</time>
      </trkpt>
      <trkpt lat="44.8327" lon="5.34482">
        <ele>1418</ele>
        <time>2010-07-14T15:58:58Z</time>
      </trkpt>
      <trkpt lat="44.83266" lon="5.3448">
        <ele>1420</ele>
        <time>2010-07-14T15:59:05Z</time>
      </trkpt>
      <trkpt lat="44.83259" lon="5.34484">
        <ele>1421</ele>
        <time>2010-07-14T15:59:14Z</time>
      </trkpt>
      <trkpt lat="44.83248" lon="5.34488">
        <ele>1421</ele>
        <time>2010-07-14T15:59:22Z</time>
      </trkpt>
      <trkpt lat="44.83235" lon="5.3449">
        <ele>1421</ele>
        <time>2010-07-14T15:59:34Z</time>
      </trkpt>
      <trkpt lat="44.83231" lon="5.3448">
        <ele>1422</ele>
        <time>2010-07-14T15:59:43Z</time>
      </trkpt>
      <trkpt lat="44.83227" lon="5.34468">
        <ele>1426</ele>
        <time>2010-07-14T15:59:51Z</time>
      </trkpt>
      <trkpt lat="44.83226" lon="5.34461">
        <ele>1427</ele>
        <time>2010-07-14T15:59:58Z</time>
      </trkpt>
      <trkpt lat="44.83227" lon="5.34457">
        <ele>1428</ele>
        <time>2010-07-14T16:00:05Z</time>
      </trkpt>
      <trkpt lat="44.83226" lon="5.34449">
        <ele>1429</ele>
        <time>2010-07-14T16:00:13Z</time>
      </trkpt>
      <trkpt lat="44.83224" lon="5.34445">
        <ele>1430</ele>
        <time>2010-07-14T16:00:20Z</time>
      </trkpt>
      <trkpt lat="44.83223" lon="5.34439">
        <ele>1432</ele>
        <time>2010-07-14T16:00:29Z</time>
      </trkpt>
      <trkpt lat="44.8322" lon="5.34436">
        <ele>1434</ele>
        <time>2010-07-14T16:00:46Z</time>
      </trkpt>
      <trkpt lat="44.83218" lon="5.34434">
        <ele>1434</ele>
        <time>2010-07-14T16:00:54Z</time>
      </trkpt>
      <trkpt lat="44.83218" lon="5.34432">
        <ele>1434</ele>
        <time>2010-07-14T16:01:13Z</time>
      </trkpt>
      <trkpt lat="44.83221" lon="5.34437">
        <ele>1435</ele>
        <time>2010-07-14T16:01:27Z</time>
      </trkpt>
      <trkpt lat="44.83223" lon="5.34436">
        <ele>1436</ele>
        <time>2010-07-14T16:01:36Z</time>
      </trkpt>
      <trkpt lat="44.83223" lon="5.34436">
        <ele>1437</ele>
        <time>2010-07-14T16:01:40Z</time>
      </trkpt>
    </trkseg>
  </trk>
</gpx>